<?xml version="1.0" encoding="UTF-8" standalone="no" ?>
<gpx xmlns="http://www.topografix.com/GPX/1/1" xmlns:xsi="http://www.w3.org/2001/XMLSchema-instance" xsi:schemaLocation="http://www.topografix.com/GPX/1/1 http://www.topografix.com/GPX/1/1/gpx.xsd" version="1.1" creator="VisuGPX - https://www.visugpx.com">
  <metadata>
    <name>Mont Major-29km</name>
    <desc><![CDATA[Ballade sur la coline du Mont Major]]></desc>
  </metadata>
  <trk>
    <name><![CDATA[1 Place du Docteur Richaud]]></name>
    <desc><![CDATA[]]></desc>
    <trkseg>
      <trkpt lat="43.67088" lon="5.8485">
        <ele>493</ele>
        <time>2016-04-10T06:37:01.196Z</time>
      </trkpt>
      <trkpt lat="43.67088" lon="5.8485">
        <ele>493</ele>
        <time>2016-04-10T06:37:18.411Z</time>
      </trkpt>
      <trkpt lat="43.67096" lon="5.84838">
        <ele>501</ele>
        <time>2016-04-10T06:37:19.316Z</time>
      </trkpt>
      <trkpt lat="43.67102" lon="5.8483">
        <ele>520</ele>
        <time>2016-04-10T06:37:22.346Z</time>
      </trkpt>
      <trkpt lat="43.67113" lon="5.84821">
        <ele>499</ele>
        <time>2016-04-10T06:37:23.311Z</time>
      </trkpt>
      <trkpt lat="43.67113" lon="5.84821">
        <ele>499</ele>
        <time>2016-04-10T06:37:23.330Z</time>
      </trkpt>
      <trkpt lat="43.67096" lon="5.84831">
        <ele>514</ele>
        <time>2016-04-10T06:37:24.311Z</time>
      </trkpt>
      <trkpt lat="43.67096" lon="5.84831">
        <ele>514</ele>
        <time>2016-04-10T06:37:24.331Z</time>
      </trkpt>
      <trkpt lat="43.67108" lon="5.84833">
        <ele>502</ele>
        <time>2016-04-10T06:37:25.333Z</time>
      </trkpt>
      <trkpt lat="43.67106" lon="5.84825">
        <ele>500</ele>
        <time>2016-04-10T06:37:26.378Z</time>
      </trkpt>
      <trkpt lat="43.67103" lon="5.84819">
        <ele>500</ele>
        <time>2016-04-10T06:37:27.324Z</time>
      </trkpt>
      <trkpt lat="43.67103" lon="5.84807">
        <ele>490</ele>
        <time>2016-04-10T06:38:19.124Z</time>
      </trkpt>
      <trkpt lat="43.67102" lon="5.84807">
        <ele>489</ele>
        <time>2016-04-10T06:38:20.094Z</time>
      </trkpt>
      <trkpt lat="43.67096" lon="5.84802">
        <ele>484</ele>
        <time>2016-04-10T06:38:25.123Z</time>
      </trkpt>
      <trkpt lat="43.67093" lon="5.84802">
        <ele>482</ele>
        <time>2016-04-10T06:38:26.096Z</time>
      </trkpt>
      <trkpt lat="43.67085" lon="5.84804">
        <ele>483</ele>
        <time>2016-04-10T06:38:28.121Z</time>
      </trkpt>
      <trkpt lat="43.67081" lon="5.84807">
        <ele>483</ele>
        <time>2016-04-10T06:38:29.096Z</time>
      </trkpt>
      <trkpt lat="43.67077" lon="5.8481">
        <ele>483</ele>
        <time>2016-04-10T06:38:30.164Z</time>
      </trkpt>
      <trkpt lat="43.67073" lon="5.84813">
        <ele>481</ele>
        <time>2016-04-10T06:38:31.124Z</time>
      </trkpt>
      <trkpt lat="43.67068" lon="5.84822">
        <ele>480</ele>
        <time>2016-04-10T06:38:32.122Z</time>
      </trkpt>
      <trkpt lat="43.67063" lon="5.84825">
        <ele>480</ele>
        <time>2016-04-10T06:38:33.105Z</time>
      </trkpt>
      <trkpt lat="43.67058" lon="5.84827">
        <ele>481</ele>
        <time>2016-04-10T06:38:34.121Z</time>
      </trkpt>
      <trkpt lat="43.67052" lon="5.84828">
        <ele>482</ele>
        <time>2016-04-10T06:38:35.095Z</time>
      </trkpt>
      <trkpt lat="43.67048" lon="5.84833">
        <ele>481</ele>
        <time>2016-04-10T06:38:36.121Z</time>
      </trkpt>
      <trkpt lat="43.67042" lon="5.84835">
        <ele>481</ele>
        <time>2016-04-10T06:38:37.095Z</time>
      </trkpt>
      <trkpt lat="43.67036" lon="5.84839">
        <ele>481</ele>
        <time>2016-04-10T06:38:38.122Z</time>
      </trkpt>
      <trkpt lat="43.6703" lon="5.84843">
        <ele>480</ele>
        <time>2016-04-10T06:38:39.096Z</time>
      </trkpt>
      <trkpt lat="43.67025" lon="5.84845">
        <ele>481</ele>
        <time>2016-04-10T06:38:40.360Z</time>
      </trkpt>
      <trkpt lat="43.67018" lon="5.8485">
        <ele>483</ele>
        <time>2016-04-10T06:38:41.095Z</time>
      </trkpt>
      <trkpt lat="43.67013" lon="5.84853">
        <ele>483</ele>
        <time>2016-04-10T06:38:42.118Z</time>
      </trkpt>
      <trkpt lat="43.67008" lon="5.84856">
        <ele>483</ele>
        <time>2016-04-10T06:38:43.095Z</time>
      </trkpt>
      <trkpt lat="43.67002" lon="5.8486">
        <ele>483</ele>
        <time>2016-04-10T06:38:44.120Z</time>
      </trkpt>
      <trkpt lat="43.66997" lon="5.84864">
        <ele>483</ele>
        <time>2016-04-10T06:38:45.092Z</time>
      </trkpt>
      <trkpt lat="43.66992" lon="5.8487">
        <ele>481</ele>
        <time>2016-04-10T06:38:46.120Z</time>
      </trkpt>
      <trkpt lat="43.66986" lon="5.84873">
        <ele>481</ele>
        <time>2016-04-10T06:38:47.123Z</time>
      </trkpt>
      <trkpt lat="43.66978" lon="5.84877">
        <ele>478</ele>
        <time>2016-04-10T06:38:49.122Z</time>
      </trkpt>
      <trkpt lat="43.66975" lon="5.84879">
        <ele>476</ele>
        <time>2016-04-10T06:38:50.089Z</time>
      </trkpt>
      <trkpt lat="43.66968" lon="5.84884">
        <ele>474</ele>
        <time>2016-04-10T06:38:53.120Z</time>
      </trkpt>
      <trkpt lat="43.66965" lon="5.84887">
        <ele>473</ele>
        <time>2016-04-10T06:38:54.096Z</time>
      </trkpt>
      <trkpt lat="43.6696" lon="5.84891">
        <ele>473</ele>
        <time>2016-04-10T06:38:56.124Z</time>
      </trkpt>
      <trkpt lat="43.66957" lon="5.84893">
        <ele>473</ele>
        <time>2016-04-10T06:38:57.095Z</time>
      </trkpt>
      <trkpt lat="43.66952" lon="5.84897">
        <ele>473</ele>
        <time>2016-04-10T06:38:59.120Z</time>
      </trkpt>
      <trkpt lat="43.66949" lon="5.849">
        <ele>473</ele>
        <time>2016-04-10T06:39:00.110Z</time>
      </trkpt>
      <trkpt lat="43.66944" lon="5.84904">
        <ele>472</ele>
        <time>2016-04-10T06:39:02.121Z</time>
      </trkpt>
      <trkpt lat="43.66941" lon="5.84907">
        <ele>473</ele>
        <time>2016-04-10T06:39:03.121Z</time>
      </trkpt>
      <trkpt lat="43.66935" lon="5.84912">
        <ele>474</ele>
        <time>2016-04-10T06:39:05.121Z</time>
      </trkpt>
      <trkpt lat="43.66932" lon="5.84914">
        <ele>475</ele>
        <time>2016-04-10T06:39:06.093Z</time>
      </trkpt>
      <trkpt lat="43.66926" lon="5.84916">
        <ele>474</ele>
        <time>2016-04-10T06:39:08.120Z</time>
      </trkpt>
      <trkpt lat="43.66923" lon="5.84917">
        <ele>473</ele>
        <time>2016-04-10T06:39:09.095Z</time>
      </trkpt>
      <trkpt lat="43.66916" lon="5.84919">
        <ele>473</ele>
        <time>2016-04-10T06:39:11.122Z</time>
      </trkpt>
      <trkpt lat="43.66912" lon="5.84919">
        <ele>473</ele>
        <time>2016-04-10T06:39:12.099Z</time>
      </trkpt>
      <trkpt lat="43.66904" lon="5.84921">
        <ele>472</ele>
        <time>2016-04-10T06:39:14.119Z</time>
      </trkpt>
      <trkpt lat="43.669" lon="5.84922">
        <ele>472</ele>
        <time>2016-04-10T06:39:15.096Z</time>
      </trkpt>
      <trkpt lat="43.66895" lon="5.84923">
        <ele>471</ele>
        <time>2016-04-10T06:39:16.121Z</time>
      </trkpt>
      <trkpt lat="43.66889" lon="5.84925">
        <ele>472</ele>
        <time>2016-04-10T06:39:17.095Z</time>
      </trkpt>
      <trkpt lat="43.66884" lon="5.84926">
        <ele>472</ele>
        <time>2016-04-10T06:39:18.121Z</time>
      </trkpt>
      <trkpt lat="43.6688" lon="5.84927">
        <ele>471</ele>
        <time>2016-04-10T06:39:19.123Z</time>
      </trkpt>
      <trkpt lat="43.66875" lon="5.84927">
        <ele>471</ele>
        <time>2016-04-10T06:39:20.124Z</time>
      </trkpt>
      <trkpt lat="43.6687" lon="5.84928">
        <ele>471</ele>
        <time>2016-04-10T06:39:21.095Z</time>
      </trkpt>
      <trkpt lat="43.66865" lon="5.84929">
        <ele>471</ele>
        <time>2016-04-10T06:39:22.122Z</time>
      </trkpt>
      <trkpt lat="43.6686" lon="5.8493">
        <ele>471</ele>
        <time>2016-04-10T06:39:23.096Z</time>
      </trkpt>
      <trkpt lat="43.66856" lon="5.84931">
        <ele>470</ele>
        <time>2016-04-10T06:39:24.119Z</time>
      </trkpt>
      <trkpt lat="43.66851" lon="5.84933">
        <ele>471</ele>
        <time>2016-04-10T06:39:25.095Z</time>
      </trkpt>
      <trkpt lat="43.66842" lon="5.84934">
        <ele>471</ele>
        <time>2016-04-10T06:39:27.121Z</time>
      </trkpt>
      <trkpt lat="43.66838" lon="5.84935">
        <ele>470</ele>
        <time>2016-04-10T06:39:28.096Z</time>
      </trkpt>
      <trkpt lat="43.6683" lon="5.84938">
        <ele>471</ele>
        <time>2016-04-10T06:39:30.119Z</time>
      </trkpt>
      <trkpt lat="43.66826" lon="5.84939">
        <ele>470</ele>
        <time>2016-04-10T06:39:31.095Z</time>
      </trkpt>
      <trkpt lat="43.66817" lon="5.84941">
        <ele>471</ele>
        <time>2016-04-10T06:39:33.121Z</time>
      </trkpt>
      <trkpt lat="43.66813" lon="5.84942">
        <ele>471</ele>
        <time>2016-04-10T06:39:34.093Z</time>
      </trkpt>
      <trkpt lat="43.66806" lon="5.84945">
        <ele>471</ele>
        <time>2016-04-10T06:39:36.119Z</time>
      </trkpt>
      <trkpt lat="43.66802" lon="5.84946">
        <ele>471</ele>
        <time>2016-04-10T06:39:37.095Z</time>
      </trkpt>
      <trkpt lat="43.66795" lon="5.84949">
        <ele>470</ele>
        <time>2016-04-10T06:39:39.121Z</time>
      </trkpt>
      <trkpt lat="43.66792" lon="5.8495">
        <ele>470</ele>
        <time>2016-04-10T06:39:40.099Z</time>
      </trkpt>
      <trkpt lat="43.66785" lon="5.84952">
        <ele>470</ele>
        <time>2016-04-10T06:39:42.123Z</time>
      </trkpt>
      <trkpt lat="43.66782" lon="5.84954">
        <ele>471</ele>
        <time>2016-04-10T06:39:43.096Z</time>
      </trkpt>
      <trkpt lat="43.66775" lon="5.84956">
        <ele>471</ele>
        <time>2016-04-10T06:39:45.130Z</time>
      </trkpt>
      <trkpt lat="43.66772" lon="5.84958">
        <ele>472</ele>
        <time>2016-04-10T06:39:46.095Z</time>
      </trkpt>
      <trkpt lat="43.66765" lon="5.8496">
        <ele>471</ele>
        <time>2016-04-10T06:39:48.124Z</time>
      </trkpt>
      <trkpt lat="43.66762" lon="5.84962">
        <ele>471</ele>
        <time>2016-04-10T06:39:49.097Z</time>
      </trkpt>
      <trkpt lat="43.66756" lon="5.84965">
        <ele>471</ele>
        <time>2016-04-10T06:39:51.150Z</time>
      </trkpt>
      <trkpt lat="43.66752" lon="5.84967">
        <ele>471</ele>
        <time>2016-04-10T06:39:52.095Z</time>
      </trkpt>
      <trkpt lat="43.66745" lon="5.84971">
        <ele>470</ele>
        <time>2016-04-10T06:39:54.120Z</time>
      </trkpt>
      <trkpt lat="43.66741" lon="5.84972">
        <ele>470</ele>
        <time>2016-04-10T06:39:55.096Z</time>
      </trkpt>
      <trkpt lat="43.66734" lon="5.84975">
        <ele>470</ele>
        <time>2016-04-10T06:39:57.121Z</time>
      </trkpt>
      <trkpt lat="43.6673" lon="5.84976">
        <ele>470</ele>
        <time>2016-04-10T06:39:58.096Z</time>
      </trkpt>
      <trkpt lat="43.66722" lon="5.84974">
        <ele>470</ele>
        <time>2016-04-10T06:40:00.343Z</time>
      </trkpt>
      <trkpt lat="43.66718" lon="5.84972">
        <ele>470</ele>
        <time>2016-04-10T06:40:01.094Z</time>
      </trkpt>
      <trkpt lat="43.66713" lon="5.84963">
        <ele>470</ele>
        <time>2016-04-10T06:40:03.121Z</time>
      </trkpt>
      <trkpt lat="43.66712" lon="5.84957">
        <ele>470</ele>
        <time>2016-04-10T06:40:04.098Z</time>
      </trkpt>
      <trkpt lat="43.66711" lon="5.84946">
        <ele>471</ele>
        <time>2016-04-10T06:40:06.123Z</time>
      </trkpt>
      <trkpt lat="43.66711" lon="5.8494">
        <ele>471</ele>
        <time>2016-04-10T06:40:07.101Z</time>
      </trkpt>
      <trkpt lat="43.66715" lon="5.84929">
        <ele>472</ele>
        <time>2016-04-10T06:40:09.114Z</time>
      </trkpt>
      <trkpt lat="43.66717" lon="5.84924">
        <ele>473</ele>
        <time>2016-04-10T06:40:10.086Z</time>
      </trkpt>
      <trkpt lat="43.66722" lon="5.84914">
        <ele>474</ele>
        <time>2016-04-10T06:40:12.150Z</time>
      </trkpt>
      <trkpt lat="43.66724" lon="5.84909">
        <ele>473</ele>
        <time>2016-04-10T06:40:13.097Z</time>
      </trkpt>
      <trkpt lat="43.66728" lon="5.84899">
        <ele>474</ele>
        <time>2016-04-10T06:40:15.122Z</time>
      </trkpt>
      <trkpt lat="43.6673" lon="5.84894">
        <ele>474</ele>
        <time>2016-04-10T06:40:16.095Z</time>
      </trkpt>
      <trkpt lat="43.66734" lon="5.84885">
        <ele>473</ele>
        <time>2016-04-10T06:40:18.118Z</time>
      </trkpt>
      <trkpt lat="43.66736" lon="5.8488">
        <ele>473</ele>
        <time>2016-04-10T06:40:19.098Z</time>
      </trkpt>
      <trkpt lat="43.6674" lon="5.84871">
        <ele>471</ele>
        <time>2016-04-10T06:40:21.122Z</time>
      </trkpt>
      <trkpt lat="43.66741" lon="5.84866">
        <ele>472</ele>
        <time>2016-04-10T06:40:22.097Z</time>
      </trkpt>
      <trkpt lat="43.66745" lon="5.84857">
        <ele>472</ele>
        <time>2016-04-10T06:40:24.120Z</time>
      </trkpt>
      <trkpt lat="43.66746" lon="5.84853">
        <ele>473</ele>
        <time>2016-04-10T06:40:25.095Z</time>
      </trkpt>
      <trkpt lat="43.6675" lon="5.84844">
        <ele>473</ele>
        <time>2016-04-10T06:40:27.119Z</time>
      </trkpt>
      <trkpt lat="43.66751" lon="5.84839">
        <ele>473</ele>
        <time>2016-04-10T06:40:28.096Z</time>
      </trkpt>
      <trkpt lat="43.66754" lon="5.8483">
        <ele>473</ele>
        <time>2016-04-10T06:40:30.120Z</time>
      </trkpt>
      <trkpt lat="43.66755" lon="5.84826">
        <ele>473</ele>
        <time>2016-04-10T06:40:31.095Z</time>
      </trkpt>
      <trkpt lat="43.66758" lon="5.84816">
        <ele>474</ele>
        <time>2016-04-10T06:40:33.123Z</time>
      </trkpt>
      <trkpt lat="43.6676" lon="5.84812">
        <ele>475</ele>
        <time>2016-04-10T06:40:34.094Z</time>
      </trkpt>
      <trkpt lat="43.66763" lon="5.84803">
        <ele>474</ele>
        <time>2016-04-10T06:40:36.121Z</time>
      </trkpt>
      <trkpt lat="43.66764" lon="5.84798">
        <ele>474</ele>
        <time>2016-04-10T06:40:37.096Z</time>
      </trkpt>
      <trkpt lat="43.66767" lon="5.84789">
        <ele>474</ele>
        <time>2016-04-10T06:40:39.148Z</time>
      </trkpt>
      <trkpt lat="43.66768" lon="5.84785">
        <ele>475</ele>
        <time>2016-04-10T06:40:40.095Z</time>
      </trkpt>
      <trkpt lat="43.66771" lon="5.84777">
        <ele>476</ele>
        <time>2016-04-10T06:40:42.121Z</time>
      </trkpt>
      <trkpt lat="43.66772" lon="5.84773">
        <ele>477</ele>
        <time>2016-04-10T06:40:43.091Z</time>
      </trkpt>
      <trkpt lat="43.66776" lon="5.84762">
        <ele>478</ele>
        <time>2016-04-10T06:40:46.120Z</time>
      </trkpt>
      <trkpt lat="43.66777" lon="5.84758">
        <ele>478</ele>
        <time>2016-04-10T06:40:47.122Z</time>
      </trkpt>
      <trkpt lat="43.6678" lon="5.84751">
        <ele>479</ele>
        <time>2016-04-10T06:40:49.120Z</time>
      </trkpt>
      <trkpt lat="43.66781" lon="5.84747">
        <ele>480</ele>
        <time>2016-04-10T06:40:50.095Z</time>
      </trkpt>
      <trkpt lat="43.66783" lon="5.84739">
        <ele>481</ele>
        <time>2016-04-10T06:40:52.120Z</time>
      </trkpt>
      <trkpt lat="43.66784" lon="5.84735">
        <ele>482</ele>
        <time>2016-04-10T06:40:53.093Z</time>
      </trkpt>
      <trkpt lat="43.66788" lon="5.84723">
        <ele>481</ele>
        <time>2016-04-10T06:40:56.123Z</time>
      </trkpt>
      <trkpt lat="43.66789" lon="5.84719">
        <ele>482</ele>
        <time>2016-04-10T06:40:57.317Z</time>
      </trkpt>
      <trkpt lat="43.66791" lon="5.84707">
        <ele>482</ele>
        <time>2016-04-10T06:41:00.142Z</time>
      </trkpt>
      <trkpt lat="43.66792" lon="5.84704">
        <ele>483</ele>
        <time>2016-04-10T06:41:01.095Z</time>
      </trkpt>
      <trkpt lat="43.66794" lon="5.84696">
        <ele>484</ele>
        <time>2016-04-10T06:41:03.122Z</time>
      </trkpt>
      <trkpt lat="43.66795" lon="5.84692">
        <ele>485</ele>
        <time>2016-04-10T06:41:04.095Z</time>
      </trkpt>
      <trkpt lat="43.66798" lon="5.8468">
        <ele>485</ele>
        <time>2016-04-10T06:41:07.115Z</time>
      </trkpt>
      <trkpt lat="43.66799" lon="5.84676">
        <ele>485</ele>
        <time>2016-04-10T06:41:08.092Z</time>
      </trkpt>
      <trkpt lat="43.66801" lon="5.84668">
        <ele>485</ele>
        <time>2016-04-10T06:41:10.116Z</time>
      </trkpt>
      <trkpt lat="43.66801" lon="5.84663">
        <ele>485</ele>
        <time>2016-04-10T06:41:11.093Z</time>
      </trkpt>
      <trkpt lat="43.66803" lon="5.84654">
        <ele>485</ele>
        <time>2016-04-10T06:41:13.118Z</time>
      </trkpt>
      <trkpt lat="43.66804" lon="5.8465">
        <ele>484</ele>
        <time>2016-04-10T06:41:14.095Z</time>
      </trkpt>
      <trkpt lat="43.66806" lon="5.84641">
        <ele>483</ele>
        <time>2016-04-10T06:41:16.121Z</time>
      </trkpt>
      <trkpt lat="43.66807" lon="5.84636">
        <ele>483</ele>
        <time>2016-04-10T06:41:17.120Z</time>
      </trkpt>
      <trkpt lat="43.66808" lon="5.84627">
        <ele>482</ele>
        <time>2016-04-10T06:41:19.121Z</time>
      </trkpt>
      <trkpt lat="43.66809" lon="5.84622">
        <ele>481</ele>
        <time>2016-04-10T06:41:20.324Z</time>
      </trkpt>
      <trkpt lat="43.66811" lon="5.84614">
        <ele>480</ele>
        <time>2016-04-10T06:41:22.114Z</time>
      </trkpt>
      <trkpt lat="43.66812" lon="5.84609">
        <ele>479</ele>
        <time>2016-04-10T06:41:23.096Z</time>
      </trkpt>
      <trkpt lat="43.66814" lon="5.84599">
        <ele>477</ele>
        <time>2016-04-10T06:41:26.121Z</time>
      </trkpt>
      <trkpt lat="43.66814" lon="5.84596">
        <ele>477</ele>
        <time>2016-04-10T06:41:27.095Z</time>
      </trkpt>
      <trkpt lat="43.66817" lon="5.84586">
        <ele>478</ele>
        <time>2016-04-10T06:41:30.114Z</time>
      </trkpt>
      <trkpt lat="43.66818" lon="5.84582">
        <ele>479</ele>
        <time>2016-04-10T06:41:31.095Z</time>
      </trkpt>
      <trkpt lat="43.6682" lon="5.8457">
        <ele>478</ele>
        <time>2016-04-10T06:41:34.121Z</time>
      </trkpt>
      <trkpt lat="43.66821" lon="5.84566">
        <ele>479</ele>
        <time>2016-04-10T06:41:35.095Z</time>
      </trkpt>
      <trkpt lat="43.66823" lon="5.84557">
        <ele>478</ele>
        <time>2016-04-10T06:41:37.112Z</time>
      </trkpt>
      <trkpt lat="43.66824" lon="5.84552">
        <ele>478</ele>
        <time>2016-04-10T06:41:38.093Z</time>
      </trkpt>
      <trkpt lat="43.66826" lon="5.84544">
        <ele>479</ele>
        <time>2016-04-10T06:41:40.131Z</time>
      </trkpt>
      <trkpt lat="43.66827" lon="5.84539">
        <ele>481</ele>
        <time>2016-04-10T06:41:41.096Z</time>
      </trkpt>
      <trkpt lat="43.66829" lon="5.8453">
        <ele>482</ele>
        <time>2016-04-10T06:41:43.122Z</time>
      </trkpt>
      <trkpt lat="43.6683" lon="5.84525">
        <ele>482</ele>
        <time>2016-04-10T06:41:44.112Z</time>
      </trkpt>
      <trkpt lat="43.66832" lon="5.84516">
        <ele>482</ele>
        <time>2016-04-10T06:41:46.123Z</time>
      </trkpt>
      <trkpt lat="43.66833" lon="5.8451">
        <ele>482</ele>
        <time>2016-04-10T06:41:47.095Z</time>
      </trkpt>
      <trkpt lat="43.66835" lon="5.845">
        <ele>482</ele>
        <time>2016-04-10T06:41:49.167Z</time>
      </trkpt>
      <trkpt lat="43.66836" lon="5.84495">
        <ele>481</ele>
        <time>2016-04-10T06:41:50.095Z</time>
      </trkpt>
      <trkpt lat="43.66839" lon="5.84485">
        <ele>481</ele>
        <time>2016-04-10T06:41:52.119Z</time>
      </trkpt>
      <trkpt lat="43.6684" lon="5.84479">
        <ele>482</ele>
        <time>2016-04-10T06:41:53.093Z</time>
      </trkpt>
      <trkpt lat="43.66842" lon="5.84468">
        <ele>482</ele>
        <time>2016-04-10T06:41:55.119Z</time>
      </trkpt>
      <trkpt lat="43.66843" lon="5.84463">
        <ele>482</ele>
        <time>2016-04-10T06:41:56.094Z</time>
      </trkpt>
      <trkpt lat="43.66846" lon="5.84452">
        <ele>480</ele>
        <time>2016-04-10T06:41:58.117Z</time>
      </trkpt>
      <trkpt lat="43.66846" lon="5.84447">
        <ele>479</ele>
        <time>2016-04-10T06:41:59.093Z</time>
      </trkpt>
      <trkpt lat="43.6684" lon="5.84438">
        <ele>478</ele>
        <time>2016-04-10T06:42:01.119Z</time>
      </trkpt>
      <trkpt lat="43.66832" lon="5.84433">
        <ele>475</ele>
        <time>2016-04-10T06:42:02.094Z</time>
      </trkpt>
      <trkpt lat="43.66827" lon="5.84427">
        <ele>473</ele>
        <time>2016-04-10T06:42:03.119Z</time>
      </trkpt>
      <trkpt lat="43.66821" lon="5.8442">
        <ele>471</ele>
        <time>2016-04-10T06:42:04.095Z</time>
      </trkpt>
      <trkpt lat="43.66815" lon="5.84413">
        <ele>470</ele>
        <time>2016-04-10T06:42:05.119Z</time>
      </trkpt>
      <trkpt lat="43.66809" lon="5.84405">
        <ele>469</ele>
        <time>2016-04-10T06:42:06.104Z</time>
      </trkpt>
      <trkpt lat="43.66803" lon="5.84396">
        <ele>468</ele>
        <time>2016-04-10T06:42:07.148Z</time>
      </trkpt>
      <trkpt lat="43.66795" lon="5.84389">
        <ele>467</ele>
        <time>2016-04-10T06:42:08.098Z</time>
      </trkpt>
      <trkpt lat="43.66789" lon="5.84381">
        <ele>466</ele>
        <time>2016-04-10T06:42:09.148Z</time>
      </trkpt>
      <trkpt lat="43.66782" lon="5.84372">
        <ele>466</ele>
        <time>2016-04-10T06:42:10.094Z</time>
      </trkpt>
      <trkpt lat="43.66782" lon="5.84372">
        <ele>466</ele>
        <time>2016-04-10T06:42:10.120Z</time>
      </trkpt>
      <trkpt lat="43.66775" lon="5.84364">
        <ele>465</ele>
        <time>2016-04-10T06:42:11.092Z</time>
      </trkpt>
      <trkpt lat="43.66768" lon="5.84355">
        <ele>464</ele>
        <time>2016-04-10T06:42:12.115Z</time>
      </trkpt>
      <trkpt lat="43.66762" lon="5.84347">
        <ele>463</ele>
        <time>2016-04-10T06:42:13.094Z</time>
      </trkpt>
      <trkpt lat="43.66756" lon="5.84339">
        <ele>464</ele>
        <time>2016-04-10T06:42:14.117Z</time>
      </trkpt>
      <trkpt lat="43.66749" lon="5.8433">
        <ele>463</ele>
        <time>2016-04-10T06:42:15.094Z</time>
      </trkpt>
      <trkpt lat="43.66749" lon="5.8433">
        <ele>463</ele>
        <time>2016-04-10T06:42:15.122Z</time>
      </trkpt>
      <trkpt lat="43.66742" lon="5.84322">
        <ele>462</ele>
        <time>2016-04-10T06:42:16.117Z</time>
      </trkpt>
      <trkpt lat="43.66735" lon="5.84313">
        <ele>462</ele>
        <time>2016-04-10T06:42:17.122Z</time>
      </trkpt>
      <trkpt lat="43.66728" lon="5.84304">
        <ele>461</ele>
        <time>2016-04-10T06:42:18.098Z</time>
      </trkpt>
      <trkpt lat="43.66728" lon="5.84304">
        <ele>461</ele>
        <time>2016-04-10T06:42:18.116Z</time>
      </trkpt>
      <trkpt lat="43.66722" lon="5.84295">
        <ele>461</ele>
        <time>2016-04-10T06:42:19.093Z</time>
      </trkpt>
      <trkpt lat="43.66722" lon="5.84295">
        <ele>461</ele>
        <time>2016-04-10T06:42:19.123Z</time>
      </trkpt>
      <trkpt lat="43.66716" lon="5.84286">
        <ele>460</ele>
        <time>2016-04-10T06:42:20.093Z</time>
      </trkpt>
      <trkpt lat="43.6671" lon="5.84278">
        <ele>460</ele>
        <time>2016-04-10T06:42:21.121Z</time>
      </trkpt>
      <trkpt lat="43.66705" lon="5.84268">
        <ele>459</ele>
        <time>2016-04-10T06:42:22.095Z</time>
      </trkpt>
      <trkpt lat="43.667" lon="5.8426">
        <ele>459</ele>
        <time>2016-04-10T06:42:23.118Z</time>
      </trkpt>
      <trkpt lat="43.66697" lon="5.84251">
        <ele>458</ele>
        <time>2016-04-10T06:42:24.102Z</time>
      </trkpt>
      <trkpt lat="43.66694" lon="5.84243">
        <ele>459</ele>
        <time>2016-04-10T06:42:25.119Z</time>
      </trkpt>
      <trkpt lat="43.66691" lon="5.84236">
        <ele>461</ele>
        <time>2016-04-10T06:42:26.092Z</time>
      </trkpt>
      <trkpt lat="43.66688" lon="5.8423">
        <ele>460</ele>
        <time>2016-04-10T06:42:27.155Z</time>
      </trkpt>
      <trkpt lat="43.66685" lon="5.84224">
        <ele>460</ele>
        <time>2016-04-10T06:42:28.095Z</time>
      </trkpt>
      <trkpt lat="43.66681" lon="5.84219">
        <ele>460</ele>
        <time>2016-04-10T06:42:29.120Z</time>
      </trkpt>
      <trkpt lat="43.66678" lon="5.84215">
        <ele>460</ele>
        <time>2016-04-10T06:42:30.095Z</time>
      </trkpt>
      <trkpt lat="43.66672" lon="5.84207">
        <ele>459</ele>
        <time>2016-04-10T06:42:32.120Z</time>
      </trkpt>
      <trkpt lat="43.6667" lon="5.84205">
        <ele>460</ele>
        <time>2016-04-10T06:42:33.095Z</time>
      </trkpt>
      <trkpt lat="43.66664" lon="5.84199">
        <ele>459</ele>
        <time>2016-04-10T06:42:35.120Z</time>
      </trkpt>
      <trkpt lat="43.66661" lon="5.84196">
        <ele>459</ele>
        <time>2016-04-10T06:42:36.094Z</time>
      </trkpt>
      <trkpt lat="43.66655" lon="5.84191">
        <ele>459</ele>
        <time>2016-04-10T06:42:38.147Z</time>
      </trkpt>
      <trkpt lat="43.66653" lon="5.84188">
        <ele>460</ele>
        <time>2016-04-10T06:42:39.095Z</time>
      </trkpt>
      <trkpt lat="43.66648" lon="5.84181">
        <ele>460</ele>
        <time>2016-04-10T06:42:41.202Z</time>
      </trkpt>
      <trkpt lat="43.66644" lon="5.84178">
        <ele>460</ele>
        <time>2016-04-10T06:42:42.095Z</time>
      </trkpt>
      <trkpt lat="43.66637" lon="5.8417">
        <ele>460</ele>
        <time>2016-04-10T06:42:44.121Z</time>
      </trkpt>
      <trkpt lat="43.66633" lon="5.84167">
        <ele>460</ele>
        <time>2016-04-10T06:42:45.095Z</time>
      </trkpt>
      <trkpt lat="43.66625" lon="5.84164">
        <ele>461</ele>
        <time>2016-04-10T06:42:47.121Z</time>
      </trkpt>
      <trkpt lat="43.66621" lon="5.84164">
        <ele>461</ele>
        <time>2016-04-10T06:42:48.095Z</time>
      </trkpt>
      <trkpt lat="43.66616" lon="5.84165">
        <ele>461</ele>
        <time>2016-04-10T06:42:49.191Z</time>
      </trkpt>
      <trkpt lat="43.6661" lon="5.84168">
        <ele>460</ele>
        <time>2016-04-10T06:42:50.096Z</time>
      </trkpt>
      <trkpt lat="43.66604" lon="5.84168">
        <ele>460</ele>
        <time>2016-04-10T06:42:51.120Z</time>
      </trkpt>
      <trkpt lat="43.66598" lon="5.84165">
        <ele>460</ele>
        <time>2016-04-10T06:42:52.095Z</time>
      </trkpt>
      <trkpt lat="43.66594" lon="5.84161">
        <ele>459</ele>
        <time>2016-04-10T06:42:53.120Z</time>
      </trkpt>
      <trkpt lat="43.6659" lon="5.84155">
        <ele>458</ele>
        <time>2016-04-10T06:42:54.097Z</time>
      </trkpt>
      <trkpt lat="43.66587" lon="5.84149">
        <ele>458</ele>
        <time>2016-04-10T06:42:55.121Z</time>
      </trkpt>
      <trkpt lat="43.66583" lon="5.84143">
        <ele>458</ele>
        <time>2016-04-10T06:42:56.095Z</time>
      </trkpt>
      <trkpt lat="43.66579" lon="5.84138">
        <ele>458</ele>
        <time>2016-04-10T06:42:57.121Z</time>
      </trkpt>
      <trkpt lat="43.66575" lon="5.84133">
        <ele>458</ele>
        <time>2016-04-10T06:42:58.092Z</time>
      </trkpt>
      <trkpt lat="43.66571" lon="5.84129">
        <ele>458</ele>
        <time>2016-04-10T06:42:59.147Z</time>
      </trkpt>
      <trkpt lat="43.66567" lon="5.84125">
        <ele>458</ele>
        <time>2016-04-10T06:43:00.107Z</time>
      </trkpt>
      <trkpt lat="43.66563" lon="5.84121">
        <ele>457</ele>
        <time>2016-04-10T06:43:01.124Z</time>
      </trkpt>
      <trkpt lat="43.66559" lon="5.84117">
        <ele>457</ele>
        <time>2016-04-10T06:43:02.093Z</time>
      </trkpt>
      <trkpt lat="43.66556" lon="5.84113">
        <ele>457</ele>
        <time>2016-04-10T06:43:03.121Z</time>
      </trkpt>
      <trkpt lat="43.66552" lon="5.84109">
        <ele>456</ele>
        <time>2016-04-10T06:43:04.095Z</time>
      </trkpt>
      <trkpt lat="43.66547" lon="5.84107">
        <ele>456</ele>
        <time>2016-04-10T06:43:05.120Z</time>
      </trkpt>
      <trkpt lat="43.66542" lon="5.84103">
        <ele>457</ele>
        <time>2016-04-10T06:43:06.090Z</time>
      </trkpt>
      <trkpt lat="43.66538" lon="5.841">
        <ele>457</ele>
        <time>2016-04-10T06:43:07.120Z</time>
      </trkpt>
      <trkpt lat="43.66534" lon="5.84098">
        <ele>457</ele>
        <time>2016-04-10T06:43:08.095Z</time>
      </trkpt>
      <trkpt lat="43.66526" lon="5.84099">
        <ele>457</ele>
        <time>2016-04-10T06:43:10.120Z</time>
      </trkpt>
      <trkpt lat="43.66521" lon="5.841">
        <ele>456</ele>
        <time>2016-04-10T06:43:11.317Z</time>
      </trkpt>
      <trkpt lat="43.66516" lon="5.84102">
        <ele>457</ele>
        <time>2016-04-10T06:43:12.120Z</time>
      </trkpt>
      <trkpt lat="43.66512" lon="5.84101">
        <ele>457</ele>
        <time>2016-04-10T06:43:13.099Z</time>
      </trkpt>
      <trkpt lat="43.66507" lon="5.84098">
        <ele>457</ele>
        <time>2016-04-10T06:43:14.118Z</time>
      </trkpt>
      <trkpt lat="43.66502" lon="5.84093">
        <ele>457</ele>
        <time>2016-04-10T06:43:15.089Z</time>
      </trkpt>
      <trkpt lat="43.66497" lon="5.84089">
        <ele>457</ele>
        <time>2016-04-10T06:43:16.130Z</time>
      </trkpt>
      <trkpt lat="43.66493" lon="5.84085">
        <ele>457</ele>
        <time>2016-04-10T06:43:17.095Z</time>
      </trkpt>
      <trkpt lat="43.66489" lon="5.8408">
        <ele>456</ele>
        <time>2016-04-10T06:43:18.181Z</time>
      </trkpt>
      <trkpt lat="43.66484" lon="5.84074">
        <ele>456</ele>
        <time>2016-04-10T06:43:19.089Z</time>
      </trkpt>
      <trkpt lat="43.6648" lon="5.84069">
        <ele>456</ele>
        <time>2016-04-10T06:43:20.121Z</time>
      </trkpt>
      <trkpt lat="43.66476" lon="5.84067">
        <ele>454</ele>
        <time>2016-04-10T06:43:21.095Z</time>
      </trkpt>
      <trkpt lat="43.66472" lon="5.84068">
        <ele>454</ele>
        <time>2016-04-10T06:43:22.358Z</time>
      </trkpt>
      <trkpt lat="43.66466" lon="5.84069">
        <ele>453</ele>
        <time>2016-04-10T06:43:23.093Z</time>
      </trkpt>
      <trkpt lat="43.66461" lon="5.84067">
        <ele>453</ele>
        <time>2016-04-10T06:43:24.119Z</time>
      </trkpt>
      <trkpt lat="43.66456" lon="5.84064">
        <ele>452</ele>
        <time>2016-04-10T06:43:25.095Z</time>
      </trkpt>
      <trkpt lat="43.66451" lon="5.84062">
        <ele>452</ele>
        <time>2016-04-10T06:43:26.189Z</time>
      </trkpt>
      <trkpt lat="43.66446" lon="5.84059">
        <ele>451</ele>
        <time>2016-04-10T06:43:27.093Z</time>
      </trkpt>
      <trkpt lat="43.66441" lon="5.84057">
        <ele>451</ele>
        <time>2016-04-10T06:43:28.122Z</time>
      </trkpt>
      <trkpt lat="43.66436" lon="5.84054">
        <ele>450</ele>
        <time>2016-04-10T06:43:29.096Z</time>
      </trkpt>
      <trkpt lat="43.66431" lon="5.8405">
        <ele>450</ele>
        <time>2016-04-10T06:43:30.122Z</time>
      </trkpt>
      <trkpt lat="43.66427" lon="5.84045">
        <ele>449</ele>
        <time>2016-04-10T06:43:31.096Z</time>
      </trkpt>
      <trkpt lat="43.66424" lon="5.8404">
        <ele>450</ele>
        <time>2016-04-10T06:43:32.122Z</time>
      </trkpt>
      <trkpt lat="43.66421" lon="5.84034">
        <ele>450</ele>
        <time>2016-04-10T06:43:33.099Z</time>
      </trkpt>
      <trkpt lat="43.66417" lon="5.84029">
        <ele>449</ele>
        <time>2016-04-10T06:43:34.123Z</time>
      </trkpt>
      <trkpt lat="43.66414" lon="5.84025">
        <ele>450</ele>
        <time>2016-04-10T06:43:35.096Z</time>
      </trkpt>
      <trkpt lat="43.6641" lon="5.84019">
        <ele>450</ele>
        <time>2016-04-10T06:43:36.123Z</time>
      </trkpt>
      <trkpt lat="43.66406" lon="5.84015">
        <ele>450</ele>
        <time>2016-04-10T06:43:37.124Z</time>
      </trkpt>
      <trkpt lat="43.66399" lon="5.84008">
        <ele>449</ele>
        <time>2016-04-10T06:43:39.123Z</time>
      </trkpt>
      <trkpt lat="43.66395" lon="5.84006">
        <ele>449</ele>
        <time>2016-04-10T06:43:40.097Z</time>
      </trkpt>
      <trkpt lat="43.66388" lon="5.83999">
        <ele>450</ele>
        <time>2016-04-10T06:43:42.119Z</time>
      </trkpt>
      <trkpt lat="43.66385" lon="5.83993">
        <ele>450</ele>
        <time>2016-04-10T06:43:43.095Z</time>
      </trkpt>
      <trkpt lat="43.66382" lon="5.83989">
        <ele>449</ele>
        <time>2016-04-10T06:43:44.118Z</time>
      </trkpt>
      <trkpt lat="43.66379" lon="5.83984">
        <ele>449</ele>
        <time>2016-04-10T06:43:45.095Z</time>
      </trkpt>
      <trkpt lat="43.66374" lon="5.83975">
        <ele>449</ele>
        <time>2016-04-10T06:43:47.118Z</time>
      </trkpt>
      <trkpt lat="43.66371" lon="5.83969">
        <ele>449</ele>
        <time>2016-04-10T06:43:48.122Z</time>
      </trkpt>
      <trkpt lat="43.66368" lon="5.83964">
        <ele>450</ele>
        <time>2016-04-10T06:43:49.120Z</time>
      </trkpt>
      <trkpt lat="43.66365" lon="5.83959">
        <ele>450</ele>
        <time>2016-04-10T06:43:50.090Z</time>
      </trkpt>
      <trkpt lat="43.66359" lon="5.83952">
        <ele>450</ele>
        <time>2016-04-10T06:43:52.119Z</time>
      </trkpt>
      <trkpt lat="43.66356" lon="5.83949">
        <ele>450</ele>
        <time>2016-04-10T06:43:53.094Z</time>
      </trkpt>
      <trkpt lat="43.6635" lon="5.8394">
        <ele>450</ele>
        <time>2016-04-10T06:43:55.175Z</time>
      </trkpt>
      <trkpt lat="43.66348" lon="5.83936">
        <ele>450</ele>
        <time>2016-04-10T06:43:56.094Z</time>
      </trkpt>
      <trkpt lat="43.66344" lon="5.83926">
        <ele>449</ele>
        <time>2016-04-10T06:43:58.115Z</time>
      </trkpt>
      <trkpt lat="43.66342" lon="5.83921">
        <ele>449</ele>
        <time>2016-04-10T06:43:59.094Z</time>
      </trkpt>
      <trkpt lat="43.66336" lon="5.83912">
        <ele>449</ele>
        <time>2016-04-10T06:44:01.117Z</time>
      </trkpt>
      <trkpt lat="43.66332" lon="5.83908">
        <ele>449</ele>
        <time>2016-04-10T06:44:02.094Z</time>
      </trkpt>
      <trkpt lat="43.66325" lon="5.83901">
        <ele>449</ele>
        <time>2016-04-10T06:44:04.147Z</time>
      </trkpt>
      <trkpt lat="43.66322" lon="5.83898">
        <ele>449</ele>
        <time>2016-04-10T06:44:05.096Z</time>
      </trkpt>
      <trkpt lat="43.66315" lon="5.83891">
        <ele>449</ele>
        <time>2016-04-10T06:44:07.119Z</time>
      </trkpt>
      <trkpt lat="43.66313" lon="5.83886">
        <ele>449</ele>
        <time>2016-04-10T06:44:08.096Z</time>
      </trkpt>
      <trkpt lat="43.66307" lon="5.83878">
        <ele>450</ele>
        <time>2016-04-10T06:44:10.121Z</time>
      </trkpt>
      <trkpt lat="43.66304" lon="5.83874">
        <ele>450</ele>
        <time>2016-04-10T06:44:11.095Z</time>
      </trkpt>
      <trkpt lat="43.66298" lon="5.83866">
        <ele>449</ele>
        <time>2016-04-10T06:44:13.113Z</time>
      </trkpt>
      <trkpt lat="43.66295" lon="5.83862">
        <ele>449</ele>
        <time>2016-04-10T06:44:14.094Z</time>
      </trkpt>
      <trkpt lat="43.66288" lon="5.83857">
        <ele>449</ele>
        <time>2016-04-10T06:44:16.119Z</time>
      </trkpt>
      <trkpt lat="43.66284" lon="5.83854">
        <ele>449</ele>
        <time>2016-04-10T06:44:17.096Z</time>
      </trkpt>
      <trkpt lat="43.66276" lon="5.83851">
        <ele>449</ele>
        <time>2016-04-10T06:44:19.157Z</time>
      </trkpt>
      <trkpt lat="43.66272" lon="5.83849">
        <ele>449</ele>
        <time>2016-04-10T06:44:20.093Z</time>
      </trkpt>
      <trkpt lat="43.66267" lon="5.83848">
        <ele>449</ele>
        <time>2016-04-10T06:44:21.174Z</time>
      </trkpt>
      <trkpt lat="43.66262" lon="5.83845">
        <ele>448</ele>
        <time>2016-04-10T06:44:22.096Z</time>
      </trkpt>
      <trkpt lat="43.66258" lon="5.83842">
        <ele>447</ele>
        <time>2016-04-10T06:44:23.120Z</time>
      </trkpt>
      <trkpt lat="43.66253" lon="5.83839">
        <ele>447</ele>
        <time>2016-04-10T06:44:24.097Z</time>
      </trkpt>
      <trkpt lat="43.66249" lon="5.83836">
        <ele>447</ele>
        <time>2016-04-10T06:44:25.124Z</time>
      </trkpt>
      <trkpt lat="43.66245" lon="5.83832">
        <ele>447</ele>
        <time>2016-04-10T06:44:26.096Z</time>
      </trkpt>
      <trkpt lat="43.66241" lon="5.83829">
        <ele>447</ele>
        <time>2016-04-10T06:44:27.121Z</time>
      </trkpt>
      <trkpt lat="43.66236" lon="5.83825">
        <ele>447</ele>
        <time>2016-04-10T06:44:28.092Z</time>
      </trkpt>
      <trkpt lat="43.66232" lon="5.83822">
        <ele>447</ele>
        <time>2016-04-10T06:44:29.130Z</time>
      </trkpt>
      <trkpt lat="43.66226" lon="5.83819">
        <ele>447</ele>
        <time>2016-04-10T06:44:30.095Z</time>
      </trkpt>
      <trkpt lat="43.66221" lon="5.83817">
        <ele>446</ele>
        <time>2016-04-10T06:44:31.146Z</time>
      </trkpt>
      <trkpt lat="43.66215" lon="5.83816">
        <ele>446</ele>
        <time>2016-04-10T06:44:32.093Z</time>
      </trkpt>
      <trkpt lat="43.6621" lon="5.83813">
        <ele>446</ele>
        <time>2016-04-10T06:44:33.122Z</time>
      </trkpt>
      <trkpt lat="43.66205" lon="5.83809">
        <ele>445</ele>
        <time>2016-04-10T06:44:34.094Z</time>
      </trkpt>
      <trkpt lat="43.66201" lon="5.83805">
        <ele>446</ele>
        <time>2016-04-10T06:44:35.119Z</time>
      </trkpt>
      <trkpt lat="43.66196" lon="5.83801">
        <ele>446</ele>
        <time>2016-04-10T06:44:36.095Z</time>
      </trkpt>
      <trkpt lat="43.66192" lon="5.83797">
        <ele>446</ele>
        <time>2016-04-10T06:44:37.118Z</time>
      </trkpt>
      <trkpt lat="43.66188" lon="5.83792">
        <ele>446</ele>
        <time>2016-04-10T06:44:38.095Z</time>
      </trkpt>
      <trkpt lat="43.66184" lon="5.8379">
        <ele>446</ele>
        <time>2016-04-10T06:44:39.118Z</time>
      </trkpt>
      <trkpt lat="43.6618" lon="5.83786">
        <ele>445</ele>
        <time>2016-04-10T06:44:40.095Z</time>
      </trkpt>
      <trkpt lat="43.66176" lon="5.83775">
        <ele>446</ele>
        <time>2016-04-10T06:44:42.121Z</time>
      </trkpt>
      <trkpt lat="43.66175" lon="5.83769">
        <ele>446</ele>
        <time>2016-04-10T06:44:43.095Z</time>
      </trkpt>
      <trkpt lat="43.66173" lon="5.83759">
        <ele>447</ele>
        <time>2016-04-10T06:44:45.120Z</time>
      </trkpt>
      <trkpt lat="43.66171" lon="5.83755">
        <ele>447</ele>
        <time>2016-04-10T06:44:46.094Z</time>
      </trkpt>
      <trkpt lat="43.66169" lon="5.83747">
        <ele>448</ele>
        <time>2016-04-10T06:44:48.121Z</time>
      </trkpt>
      <trkpt lat="43.66169" lon="5.83743">
        <ele>448</ele>
        <time>2016-04-10T06:44:49.095Z</time>
      </trkpt>
      <trkpt lat="43.66169" lon="5.83734">
        <ele>449</ele>
        <time>2016-04-10T06:44:51.120Z</time>
      </trkpt>
      <trkpt lat="43.66168" lon="5.8373">
        <ele>448</ele>
        <time>2016-04-10T06:44:52.121Z</time>
      </trkpt>
      <trkpt lat="43.66165" lon="5.83718">
        <ele>449</ele>
        <time>2016-04-10T06:44:55.119Z</time>
      </trkpt>
      <trkpt lat="43.66164" lon="5.83715">
        <ele>450</ele>
        <time>2016-04-10T06:44:56.096Z</time>
      </trkpt>
      <trkpt lat="43.66162" lon="5.83706">
        <ele>450</ele>
        <time>2016-04-10T06:44:58.121Z</time>
      </trkpt>
      <trkpt lat="43.66161" lon="5.83701">
        <ele>450</ele>
        <time>2016-04-10T06:44:59.095Z</time>
      </trkpt>
      <trkpt lat="43.66159" lon="5.83691">
        <ele>449</ele>
        <time>2016-04-10T06:45:01.119Z</time>
      </trkpt>
      <trkpt lat="43.66157" lon="5.83687">
        <ele>450</ele>
        <time>2016-04-10T06:45:02.093Z</time>
      </trkpt>
      <trkpt lat="43.66153" lon="5.83679">
        <ele>449</ele>
        <time>2016-04-10T06:45:04.120Z</time>
      </trkpt>
      <trkpt lat="43.6615" lon="5.83675">
        <ele>449</ele>
        <time>2016-04-10T06:45:05.096Z</time>
      </trkpt>
      <trkpt lat="43.66145" lon="5.83669">
        <ele>450</ele>
        <time>2016-04-10T06:45:07.120Z</time>
      </trkpt>
      <trkpt lat="43.66143" lon="5.83666">
        <ele>450</ele>
        <time>2016-04-10T06:45:08.114Z</time>
      </trkpt>
      <trkpt lat="43.6614" lon="5.83658">
        <ele>450</ele>
        <time>2016-04-10T06:45:10.121Z</time>
      </trkpt>
      <trkpt lat="43.66138" lon="5.83655">
        <ele>450</ele>
        <time>2016-04-10T06:45:11.093Z</time>
      </trkpt>
      <trkpt lat="43.66134" lon="5.83648">
        <ele>450</ele>
        <time>2016-04-10T06:45:13.119Z</time>
      </trkpt>
      <trkpt lat="43.66132" lon="5.83645">
        <ele>451</ele>
        <time>2016-04-10T06:45:14.095Z</time>
      </trkpt>
      <trkpt lat="43.66128" lon="5.83638">
        <ele>451</ele>
        <time>2016-04-10T06:45:16.121Z</time>
      </trkpt>
      <trkpt lat="43.66126" lon="5.83635">
        <ele>451</ele>
        <time>2016-04-10T06:45:17.097Z</time>
      </trkpt>
      <trkpt lat="43.66122" lon="5.83628">
        <ele>451</ele>
        <time>2016-04-10T06:45:19.148Z</time>
      </trkpt>
      <trkpt lat="43.6612" lon="5.83625">
        <ele>451</ele>
        <time>2016-04-10T06:45:20.093Z</time>
      </trkpt>
      <trkpt lat="43.66114" lon="5.83621">
        <ele>451</ele>
        <time>2016-04-10T06:45:22.119Z</time>
      </trkpt>
      <trkpt lat="43.66111" lon="5.83618">
        <ele>451</ele>
        <time>2016-04-10T06:45:23.097Z</time>
      </trkpt>
      <trkpt lat="43.66107" lon="5.83612">
        <ele>451</ele>
        <time>2016-04-10T06:45:25.122Z</time>
      </trkpt>
      <trkpt lat="43.66105" lon="5.83608">
        <ele>451</ele>
        <time>2016-04-10T06:45:26.097Z</time>
      </trkpt>
      <trkpt lat="43.66101" lon="5.83601">
        <ele>451</ele>
        <time>2016-04-10T06:45:28.123Z</time>
      </trkpt>
      <trkpt lat="43.66099" lon="5.83596">
        <ele>451</ele>
        <time>2016-04-10T06:45:29.097Z</time>
      </trkpt>
      <trkpt lat="43.66098" lon="5.83587">
        <ele>452</ele>
        <time>2016-04-10T06:45:31.120Z</time>
      </trkpt>
      <trkpt lat="43.66099" lon="5.83581">
        <ele>452</ele>
        <time>2016-04-10T06:45:32.095Z</time>
      </trkpt>
      <trkpt lat="43.66102" lon="5.83572">
        <ele>453</ele>
        <time>2016-04-10T06:45:34.122Z</time>
      </trkpt>
      <trkpt lat="43.66104" lon="5.83568">
        <ele>454</ele>
        <time>2016-04-10T06:45:35.131Z</time>
      </trkpt>
      <trkpt lat="43.66107" lon="5.8356">
        <ele>454</ele>
        <time>2016-04-10T06:45:37.120Z</time>
      </trkpt>
      <trkpt lat="43.66109" lon="5.83555">
        <ele>455</ele>
        <time>2016-04-10T06:45:38.096Z</time>
      </trkpt>
      <trkpt lat="43.6611" lon="5.83547">
        <ele>456</ele>
        <time>2016-04-10T06:45:40.120Z</time>
      </trkpt>
      <trkpt lat="43.66111" lon="5.83542">
        <ele>456</ele>
        <time>2016-04-10T06:45:41.095Z</time>
      </trkpt>
      <trkpt lat="43.66111" lon="5.83534">
        <ele>456</ele>
        <time>2016-04-10T06:45:43.118Z</time>
      </trkpt>
      <trkpt lat="43.6611" lon="5.8353">
        <ele>456</ele>
        <time>2016-04-10T06:45:44.095Z</time>
      </trkpt>
      <trkpt lat="43.66109" lon="5.83521">
        <ele>456</ele>
        <time>2016-04-10T06:45:46.148Z</time>
      </trkpt>
      <trkpt lat="43.66107" lon="5.83517">
        <ele>456</ele>
        <time>2016-04-10T06:45:47.093Z</time>
      </trkpt>
      <trkpt lat="43.66105" lon="5.83509">
        <ele>457</ele>
        <time>2016-04-10T06:45:49.118Z</time>
      </trkpt>
      <trkpt lat="43.66104" lon="5.83505">
        <ele>459</ele>
        <time>2016-04-10T06:45:50.095Z</time>
      </trkpt>
      <trkpt lat="43.66101" lon="5.83498">
        <ele>458</ele>
        <time>2016-04-10T06:45:52.116Z</time>
      </trkpt>
      <trkpt lat="43.661" lon="5.83494">
        <ele>458</ele>
        <time>2016-04-10T06:45:53.094Z</time>
      </trkpt>
      <trkpt lat="43.66097" lon="5.83486">
        <ele>458</ele>
        <time>2016-04-10T06:45:55.120Z</time>
      </trkpt>
      <trkpt lat="43.66096" lon="5.83482">
        <ele>459</ele>
        <time>2016-04-10T06:45:56.097Z</time>
      </trkpt>
      <trkpt lat="43.66093" lon="5.8347">
        <ele>459</ele>
        <time>2016-04-10T06:45:59.167Z</time>
      </trkpt>
      <trkpt lat="43.66092" lon="5.83466">
        <ele>459</ele>
        <time>2016-04-10T06:46:00.103Z</time>
      </trkpt>
      <trkpt lat="43.66092" lon="5.83458">
        <ele>459</ele>
        <time>2016-04-10T06:46:02.119Z</time>
      </trkpt>
      <trkpt lat="43.66092" lon="5.83453">
        <ele>460</ele>
        <time>2016-04-10T06:46:03.095Z</time>
      </trkpt>
      <trkpt lat="43.66092" lon="5.83444">
        <ele>461</ele>
        <time>2016-04-10T06:46:05.121Z</time>
      </trkpt>
      <trkpt lat="43.66093" lon="5.83439">
        <ele>461</ele>
        <time>2016-04-10T06:46:06.097Z</time>
      </trkpt>
      <trkpt lat="43.66093" lon="5.8343">
        <ele>460</ele>
        <time>2016-04-10T06:46:08.137Z</time>
      </trkpt>
      <trkpt lat="43.66093" lon="5.83426">
        <ele>461</ele>
        <time>2016-04-10T06:46:09.096Z</time>
      </trkpt>
      <trkpt lat="43.66091" lon="5.83417">
        <ele>459</ele>
        <time>2016-04-10T06:46:11.119Z</time>
      </trkpt>
      <trkpt lat="43.6609" lon="5.83413">
        <ele>459</ele>
        <time>2016-04-10T06:46:12.096Z</time>
      </trkpt>
      <trkpt lat="43.66087" lon="5.83405">
        <ele>459</ele>
        <time>2016-04-10T06:46:14.120Z</time>
      </trkpt>
      <trkpt lat="43.66085" lon="5.83401">
        <ele>460</ele>
        <time>2016-04-10T06:46:15.096Z</time>
      </trkpt>
      <trkpt lat="43.66081" lon="5.83394">
        <ele>460</ele>
        <time>2016-04-10T06:46:17.111Z</time>
      </trkpt>
      <trkpt lat="43.66078" lon="5.83391">
        <ele>459</ele>
        <time>2016-04-10T06:46:18.108Z</time>
      </trkpt>
      <trkpt lat="43.66074" lon="5.83384">
        <ele>460</ele>
        <time>2016-04-10T06:46:20.119Z</time>
      </trkpt>
      <trkpt lat="43.66072" lon="5.83381">
        <ele>460</ele>
        <time>2016-04-10T06:46:21.095Z</time>
      </trkpt>
      <trkpt lat="43.66068" lon="5.83373">
        <ele>459</ele>
        <time>2016-04-10T06:46:23.165Z</time>
      </trkpt>
      <trkpt lat="43.66066" lon="5.8337">
        <ele>459</ele>
        <time>2016-04-10T06:46:24.096Z</time>
      </trkpt>
      <trkpt lat="43.6606" lon="5.83364">
        <ele>459</ele>
        <time>2016-04-10T06:46:26.120Z</time>
      </trkpt>
      <trkpt lat="43.66057" lon="5.83362">
        <ele>459</ele>
        <time>2016-04-10T06:46:27.097Z</time>
      </trkpt>
      <trkpt lat="43.66051" lon="5.83357">
        <ele>459</ele>
        <time>2016-04-10T06:46:29.120Z</time>
      </trkpt>
      <trkpt lat="43.66049" lon="5.83354">
        <ele>458</ele>
        <time>2016-04-10T06:46:30.096Z</time>
      </trkpt>
      <trkpt lat="43.66043" lon="5.83348">
        <ele>458</ele>
        <time>2016-04-10T06:46:32.119Z</time>
      </trkpt>
      <trkpt lat="43.6604" lon="5.83345">
        <ele>458</ele>
        <time>2016-04-10T06:46:33.096Z</time>
      </trkpt>
      <trkpt lat="43.66034" lon="5.83339">
        <ele>458</ele>
        <time>2016-04-10T06:46:35.125Z</time>
      </trkpt>
      <trkpt lat="43.66031" lon="5.83337">
        <ele>458</ele>
        <time>2016-04-10T06:46:36.095Z</time>
      </trkpt>
      <trkpt lat="43.66025" lon="5.83331">
        <ele>458</ele>
        <time>2016-04-10T06:46:38.119Z</time>
      </trkpt>
      <trkpt lat="43.66022" lon="5.83328">
        <ele>458</ele>
        <time>2016-04-10T06:46:39.120Z</time>
      </trkpt>
      <trkpt lat="43.66016" lon="5.83323">
        <ele>458</ele>
        <time>2016-04-10T06:46:41.119Z</time>
      </trkpt>
      <trkpt lat="43.66013" lon="5.8332">
        <ele>458</ele>
        <time>2016-04-10T06:46:42.096Z</time>
      </trkpt>
      <trkpt lat="43.66008" lon="5.83313">
        <ele>457</ele>
        <time>2016-04-10T06:46:44.129Z</time>
      </trkpt>
      <trkpt lat="43.66005" lon="5.8331">
        <ele>457</ele>
        <time>2016-04-10T06:46:45.098Z</time>
      </trkpt>
      <trkpt lat="43.66001" lon="5.83302">
        <ele>458</ele>
        <time>2016-04-10T06:46:47.122Z</time>
      </trkpt>
      <trkpt lat="43.65998" lon="5.83298">
        <ele>458</ele>
        <time>2016-04-10T06:46:48.096Z</time>
      </trkpt>
      <trkpt lat="43.65994" lon="5.83291">
        <ele>458</ele>
        <time>2016-04-10T06:46:50.122Z</time>
      </trkpt>
      <trkpt lat="43.65991" lon="5.83288">
        <ele>457</ele>
        <time>2016-04-10T06:46:51.089Z</time>
      </trkpt>
      <trkpt lat="43.65987" lon="5.83281">
        <ele>457</ele>
        <time>2016-04-10T06:46:53.121Z</time>
      </trkpt>
      <trkpt lat="43.65985" lon="5.83277">
        <ele>458</ele>
        <time>2016-04-10T06:46:54.096Z</time>
      </trkpt>
      <trkpt lat="43.65981" lon="5.83271">
        <ele>458</ele>
        <time>2016-04-10T06:46:56.121Z</time>
      </trkpt>
      <trkpt lat="43.65978" lon="5.83268">
        <ele>458</ele>
        <time>2016-04-10T06:46:57.097Z</time>
      </trkpt>
      <trkpt lat="43.65971" lon="5.83261">
        <ele>458</ele>
        <time>2016-04-10T06:47:00.159Z</time>
      </trkpt>
      <trkpt lat="43.65969" lon="5.8326">
        <ele>458</ele>
        <time>2016-04-10T06:47:01.097Z</time>
      </trkpt>
      <trkpt lat="43.65964" lon="5.83253">
        <ele>458</ele>
        <time>2016-04-10T06:47:04.119Z</time>
      </trkpt>
      <trkpt lat="43.65963" lon="5.8325">
        <ele>458</ele>
        <time>2016-04-10T06:47:05.098Z</time>
      </trkpt>
      <trkpt lat="43.65961" lon="5.8324">
        <ele>459</ele>
        <time>2016-04-10T06:47:08.166Z</time>
      </trkpt>
      <trkpt lat="43.65961" lon="5.83237">
        <ele>459</ele>
        <time>2016-04-10T06:47:09.095Z</time>
      </trkpt>
      <trkpt lat="43.65961" lon="5.83226">
        <ele>460</ele>
        <time>2016-04-10T06:47:12.120Z</time>
      </trkpt>
      <trkpt lat="43.65961" lon="5.83223">
        <ele>460</ele>
        <time>2016-04-10T06:47:13.097Z</time>
      </trkpt>
      <trkpt lat="43.65962" lon="5.83212">
        <ele>461</ele>
        <time>2016-04-10T06:47:16.109Z</time>
      </trkpt>
      <trkpt lat="43.65961" lon="5.83209">
        <ele>461</ele>
        <time>2016-04-10T06:47:17.094Z</time>
      </trkpt>
      <trkpt lat="43.65958" lon="5.83199">
        <ele>462</ele>
        <time>2016-04-10T06:47:20.121Z</time>
      </trkpt>
      <trkpt lat="43.65958" lon="5.83196">
        <ele>462</ele>
        <time>2016-04-10T06:47:21.098Z</time>
      </trkpt>
      <trkpt lat="43.65955" lon="5.83185">
        <ele>462</ele>
        <time>2016-04-10T06:47:24.135Z</time>
      </trkpt>
      <trkpt lat="43.65955" lon="5.83182">
        <ele>462</ele>
        <time>2016-04-10T06:47:25.094Z</time>
      </trkpt>
      <trkpt lat="43.65952" lon="5.83172">
        <ele>462</ele>
        <time>2016-04-10T06:47:28.119Z</time>
      </trkpt>
      <trkpt lat="43.6595" lon="5.83169">
        <ele>462</ele>
        <time>2016-04-10T06:47:29.096Z</time>
      </trkpt>
      <trkpt lat="43.65945" lon="5.83162">
        <ele>461</ele>
        <time>2016-04-10T06:47:32.123Z</time>
      </trkpt>
      <trkpt lat="43.65943" lon="5.8316">
        <ele>462</ele>
        <time>2016-04-10T06:47:33.109Z</time>
      </trkpt>
      <trkpt lat="43.65943" lon="5.83149">
        <ele>463</ele>
        <time>2016-04-10T06:47:36.118Z</time>
      </trkpt>
      <trkpt lat="43.65944" lon="5.83146">
        <ele>463</ele>
        <time>2016-04-10T06:47:37.097Z</time>
      </trkpt>
      <trkpt lat="43.65948" lon="5.83136">
        <ele>464</ele>
        <time>2016-04-10T06:47:40.120Z</time>
      </trkpt>
      <trkpt lat="43.65949" lon="5.83133">
        <ele>464</ele>
        <time>2016-04-10T06:47:41.097Z</time>
      </trkpt>
      <trkpt lat="43.6595" lon="5.83124">
        <ele>465</ele>
        <time>2016-04-10T06:47:44.122Z</time>
      </trkpt>
      <trkpt lat="43.6595" lon="5.83121">
        <ele>466</ele>
        <time>2016-04-10T06:47:45.098Z</time>
      </trkpt>
      <trkpt lat="43.65954" lon="5.83112">
        <ele>466</ele>
        <time>2016-04-10T06:47:48.119Z</time>
      </trkpt>
      <trkpt lat="43.65955" lon="5.83109">
        <ele>466</ele>
        <time>2016-04-10T06:47:49.095Z</time>
      </trkpt>
      <trkpt lat="43.65957" lon="5.83098">
        <ele>466</ele>
        <time>2016-04-10T06:47:53.123Z</time>
      </trkpt>
      <trkpt lat="43.65955" lon="5.83095">
        <ele>466</ele>
        <time>2016-04-10T06:47:54.134Z</time>
      </trkpt>
      <trkpt lat="43.6595" lon="5.83086">
        <ele>465</ele>
        <time>2016-04-10T06:47:58.121Z</time>
      </trkpt>
      <trkpt lat="43.65948" lon="5.83084">
        <ele>465</ele>
        <time>2016-04-10T06:47:59.095Z</time>
      </trkpt>
      <trkpt lat="43.65946" lon="5.83075">
        <ele>467</ele>
        <time>2016-04-10T06:48:02.160Z</time>
      </trkpt>
      <trkpt lat="43.65947" lon="5.83071">
        <ele>467</ele>
        <time>2016-04-10T06:48:03.096Z</time>
      </trkpt>
      <trkpt lat="43.6595" lon="5.83062">
        <ele>467</ele>
        <time>2016-04-10T06:48:06.121Z</time>
      </trkpt>
      <trkpt lat="43.65951" lon="5.83059">
        <ele>467</ele>
        <time>2016-04-10T06:48:07.096Z</time>
      </trkpt>
      <trkpt lat="43.65954" lon="5.8305">
        <ele>467</ele>
        <time>2016-04-10T06:48:10.121Z</time>
      </trkpt>
      <trkpt lat="43.65954" lon="5.83047">
        <ele>467</ele>
        <time>2016-04-10T06:48:11.096Z</time>
      </trkpt>
      <trkpt lat="43.65953" lon="5.83037">
        <ele>469</ele>
        <time>2016-04-10T06:48:14.121Z</time>
      </trkpt>
      <trkpt lat="43.65953" lon="5.83034">
        <ele>470</ele>
        <time>2016-04-10T06:48:15.122Z</time>
      </trkpt>
      <trkpt lat="43.65953" lon="5.83024">
        <ele>470</ele>
        <time>2016-04-10T06:48:18.114Z</time>
      </trkpt>
      <trkpt lat="43.65953" lon="5.83021">
        <ele>469</ele>
        <time>2016-04-10T06:48:19.093Z</time>
      </trkpt>
      <trkpt lat="43.65954" lon="5.83011">
        <ele>469</ele>
        <time>2016-04-10T06:48:22.118Z</time>
      </trkpt>
      <trkpt lat="43.65953" lon="5.83008">
        <ele>469</ele>
        <time>2016-04-10T06:48:23.095Z</time>
      </trkpt>
      <trkpt lat="43.65951" lon="5.82998">
        <ele>470</ele>
        <time>2016-04-10T06:48:26.141Z</time>
      </trkpt>
      <trkpt lat="43.65951" lon="5.82995">
        <ele>470</ele>
        <time>2016-04-10T06:48:27.094Z</time>
      </trkpt>
      <trkpt lat="43.6595" lon="5.82986">
        <ele>471</ele>
        <time>2016-04-10T06:48:30.114Z</time>
      </trkpt>
      <trkpt lat="43.6595" lon="5.82982">
        <ele>471</ele>
        <time>2016-04-10T06:48:31.096Z</time>
      </trkpt>
      <trkpt lat="43.65951" lon="5.82972">
        <ele>473</ele>
        <time>2016-04-10T06:48:34.124Z</time>
      </trkpt>
      <trkpt lat="43.65952" lon="5.82969">
        <ele>474</ele>
        <time>2016-04-10T06:48:35.097Z</time>
      </trkpt>
      <trkpt lat="43.6595" lon="5.8296">
        <ele>473</ele>
        <time>2016-04-10T06:48:38.120Z</time>
      </trkpt>
      <trkpt lat="43.65948" lon="5.82957">
        <ele>473</ele>
        <time>2016-04-10T06:48:39.095Z</time>
      </trkpt>
      <trkpt lat="43.65944" lon="5.82949">
        <ele>472</ele>
        <time>2016-04-10T06:48:42.122Z</time>
      </trkpt>
      <trkpt lat="43.65942" lon="5.82947">
        <ele>472</ele>
        <time>2016-04-10T06:48:43.099Z</time>
      </trkpt>
      <trkpt lat="43.65938" lon="5.82938">
        <ele>472</ele>
        <time>2016-04-10T06:48:46.130Z</time>
      </trkpt>
      <trkpt lat="43.65937" lon="5.82935">
        <ele>473</ele>
        <time>2016-04-10T06:48:47.097Z</time>
      </trkpt>
      <trkpt lat="43.65935" lon="5.82925">
        <ele>474</ele>
        <time>2016-04-10T06:48:50.122Z</time>
      </trkpt>
      <trkpt lat="43.65934" lon="5.82921">
        <ele>474</ele>
        <time>2016-04-10T06:48:51.096Z</time>
      </trkpt>
      <trkpt lat="43.65932" lon="5.8291">
        <ele>475</ele>
        <time>2016-04-10T06:48:54.121Z</time>
      </trkpt>
      <trkpt lat="43.65932" lon="5.82907">
        <ele>475</ele>
        <time>2016-04-10T06:48:55.096Z</time>
      </trkpt>
      <trkpt lat="43.65931" lon="5.82896">
        <ele>477</ele>
        <time>2016-04-10T06:48:58.122Z</time>
      </trkpt>
      <trkpt lat="43.6593" lon="5.82892">
        <ele>476</ele>
        <time>2016-04-10T06:48:59.095Z</time>
      </trkpt>
      <trkpt lat="43.65926" lon="5.82884">
        <ele>476</ele>
        <time>2016-04-10T06:49:02.124Z</time>
      </trkpt>
      <trkpt lat="43.65924" lon="5.82881">
        <ele>475</ele>
        <time>2016-04-10T06:49:03.098Z</time>
      </trkpt>
      <trkpt lat="43.65918" lon="5.82874">
        <ele>475</ele>
        <time>2016-04-10T06:49:06.121Z</time>
      </trkpt>
      <trkpt lat="43.65917" lon="5.82871">
        <ele>474</ele>
        <time>2016-04-10T06:49:07.097Z</time>
      </trkpt>
      <trkpt lat="43.65916" lon="5.8286">
        <ele>475</ele>
        <time>2016-04-10T06:49:10.121Z</time>
      </trkpt>
      <trkpt lat="43.65917" lon="5.82857">
        <ele>475</ele>
        <time>2016-04-10T06:49:11.098Z</time>
      </trkpt>
      <trkpt lat="43.65917" lon="5.82846">
        <ele>475</ele>
        <time>2016-04-10T06:49:14.151Z</time>
      </trkpt>
      <trkpt lat="43.65917" lon="5.82842">
        <ele>476</ele>
        <time>2016-04-10T06:49:15.096Z</time>
      </trkpt>
      <trkpt lat="43.65919" lon="5.82833">
        <ele>476</ele>
        <time>2016-04-10T06:49:18.346Z</time>
      </trkpt>
      <trkpt lat="43.65919" lon="5.82829">
        <ele>476</ele>
        <time>2016-04-10T06:49:19.097Z</time>
      </trkpt>
      <trkpt lat="43.65921" lon="5.8282">
        <ele>477</ele>
        <time>2016-04-10T06:49:22.123Z</time>
      </trkpt>
      <trkpt lat="43.65921" lon="5.82816">
        <ele>478</ele>
        <time>2016-04-10T06:49:23.106Z</time>
      </trkpt>
      <trkpt lat="43.65921" lon="5.82806">
        <ele>479</ele>
        <time>2016-04-10T06:49:26.124Z</time>
      </trkpt>
      <trkpt lat="43.65922" lon="5.82803">
        <ele>479</ele>
        <time>2016-04-10T06:49:27.095Z</time>
      </trkpt>
      <trkpt lat="43.65926" lon="5.82794">
        <ele>479</ele>
        <time>2016-04-10T06:49:30.121Z</time>
      </trkpt>
      <trkpt lat="43.65926" lon="5.82791">
        <ele>479</ele>
        <time>2016-04-10T06:49:31.326Z</time>
      </trkpt>
      <trkpt lat="43.65926" lon="5.8278">
        <ele>480</ele>
        <time>2016-04-10T06:49:34.122Z</time>
      </trkpt>
      <trkpt lat="43.65926" lon="5.82777">
        <ele>480</ele>
        <time>2016-04-10T06:49:35.097Z</time>
      </trkpt>
      <trkpt lat="43.65925" lon="5.82767">
        <ele>479</ele>
        <time>2016-04-10T06:49:38.122Z</time>
      </trkpt>
      <trkpt lat="43.65925" lon="5.82763">
        <ele>478</ele>
        <time>2016-04-10T06:49:39.097Z</time>
      </trkpt>
      <trkpt lat="43.65924" lon="5.82753">
        <ele>479</ele>
        <time>2016-04-10T06:49:42.135Z</time>
      </trkpt>
      <trkpt lat="43.65924" lon="5.8275">
        <ele>478</ele>
        <time>2016-04-10T06:49:43.096Z</time>
      </trkpt>
      <trkpt lat="43.65924" lon="5.82741">
        <ele>480</ele>
        <time>2016-04-10T06:49:46.122Z</time>
      </trkpt>
      <trkpt lat="43.65923" lon="5.82738">
        <ele>480</ele>
        <time>2016-04-10T06:49:47.097Z</time>
      </trkpt>
      <trkpt lat="43.65922" lon="5.82727">
        <ele>480</ele>
        <time>2016-04-10T06:49:50.124Z</time>
      </trkpt>
      <trkpt lat="43.65921" lon="5.82723">
        <ele>480</ele>
        <time>2016-04-10T06:49:51.098Z</time>
      </trkpt>
      <trkpt lat="43.65919" lon="5.82712">
        <ele>481</ele>
        <time>2016-04-10T06:49:54.131Z</time>
      </trkpt>
      <trkpt lat="43.65918" lon="5.82709">
        <ele>481</ele>
        <time>2016-04-10T06:49:55.095Z</time>
      </trkpt>
      <trkpt lat="43.65914" lon="5.82699">
        <ele>480</ele>
        <time>2016-04-10T06:49:58.122Z</time>
      </trkpt>
      <trkpt lat="43.65912" lon="5.82697">
        <ele>480</ele>
        <time>2016-04-10T06:49:59.097Z</time>
      </trkpt>
      <trkpt lat="43.65904" lon="5.82695">
        <ele>479</ele>
        <time>2016-04-10T06:50:02.122Z</time>
      </trkpt>
      <trkpt lat="43.65902" lon="5.82694">
        <ele>479</ele>
        <time>2016-04-10T06:50:03.096Z</time>
      </trkpt>
      <trkpt lat="43.65898" lon="5.82684">
        <ele>479</ele>
        <time>2016-04-10T06:50:06.126Z</time>
      </trkpt>
      <trkpt lat="43.65899" lon="5.8268">
        <ele>480</ele>
        <time>2016-04-10T06:50:07.090Z</time>
      </trkpt>
      <trkpt lat="43.65899" lon="5.82669">
        <ele>481</ele>
        <time>2016-04-10T06:50:10.118Z</time>
      </trkpt>
      <trkpt lat="43.65899" lon="5.82665">
        <ele>481</ele>
        <time>2016-04-10T06:50:11.097Z</time>
      </trkpt>
      <trkpt lat="43.65897" lon="5.82655">
        <ele>481</ele>
        <time>2016-04-10T06:50:14.124Z</time>
      </trkpt>
      <trkpt lat="43.65896" lon="5.82652">
        <ele>481</ele>
        <time>2016-04-10T06:50:15.121Z</time>
      </trkpt>
      <trkpt lat="43.65892" lon="5.82643">
        <ele>481</ele>
        <time>2016-04-10T06:50:18.118Z</time>
      </trkpt>
      <trkpt lat="43.6589" lon="5.8264">
        <ele>481</ele>
        <time>2016-04-10T06:50:19.096Z</time>
      </trkpt>
      <trkpt lat="43.65886" lon="5.82632">
        <ele>481</ele>
        <time>2016-04-10T06:50:22.122Z</time>
      </trkpt>
      <trkpt lat="43.65886" lon="5.82628">
        <ele>481</ele>
        <time>2016-04-10T06:50:23.097Z</time>
      </trkpt>
      <trkpt lat="43.65882" lon="5.8262">
        <ele>481</ele>
        <time>2016-04-10T06:50:26.122Z</time>
      </trkpt>
      <trkpt lat="43.6588" lon="5.82617">
        <ele>480</ele>
        <time>2016-04-10T06:50:27.099Z</time>
      </trkpt>
      <trkpt lat="43.65876" lon="5.82607">
        <ele>480</ele>
        <time>2016-04-10T06:50:30.123Z</time>
      </trkpt>
      <trkpt lat="43.65875" lon="5.82604">
        <ele>480</ele>
        <time>2016-04-10T06:50:31.123Z</time>
      </trkpt>
      <trkpt lat="43.65872" lon="5.82593">
        <ele>480</ele>
        <time>2016-04-10T06:50:34.164Z</time>
      </trkpt>
      <trkpt lat="43.65871" lon="5.8259">
        <ele>480</ele>
        <time>2016-04-10T06:50:35.108Z</time>
      </trkpt>
      <trkpt lat="43.65867" lon="5.8258">
        <ele>480</ele>
        <time>2016-04-10T06:50:38.123Z</time>
      </trkpt>
      <trkpt lat="43.65866" lon="5.82577">
        <ele>481</ele>
        <time>2016-04-10T06:50:39.098Z</time>
      </trkpt>
      <trkpt lat="43.65863" lon="5.82568">
        <ele>480</ele>
        <time>2016-04-10T06:50:42.123Z</time>
      </trkpt>
      <trkpt lat="43.65862" lon="5.82565">
        <ele>480</ele>
        <time>2016-04-10T06:50:43.098Z</time>
      </trkpt>
      <trkpt lat="43.65859" lon="5.82555">
        <ele>480</ele>
        <time>2016-04-10T06:50:46.192Z</time>
      </trkpt>
      <trkpt lat="43.65858" lon="5.82552">
        <ele>481</ele>
        <time>2016-04-10T06:50:47.125Z</time>
      </trkpt>
      <trkpt lat="43.65855" lon="5.82542">
        <ele>482</ele>
        <time>2016-04-10T06:50:50.125Z</time>
      </trkpt>
      <trkpt lat="43.65854" lon="5.82539">
        <ele>481</ele>
        <time>2016-04-10T06:50:51.098Z</time>
      </trkpt>
      <trkpt lat="43.6585" lon="5.82531">
        <ele>482</ele>
        <time>2016-04-10T06:50:54.120Z</time>
      </trkpt>
      <trkpt lat="43.65848" lon="5.82528">
        <ele>482</ele>
        <time>2016-04-10T06:50:55.097Z</time>
      </trkpt>
      <trkpt lat="43.65843" lon="5.8252">
        <ele>481</ele>
        <time>2016-04-10T06:50:58.155Z</time>
      </trkpt>
      <trkpt lat="43.65841" lon="5.82518">
        <ele>481</ele>
        <time>2016-04-10T06:50:59.100Z</time>
      </trkpt>
      <trkpt lat="43.65837" lon="5.82509">
        <ele>481</ele>
        <time>2016-04-10T06:51:02.122Z</time>
      </trkpt>
      <trkpt lat="43.65835" lon="5.82506">
        <ele>481</ele>
        <time>2016-04-10T06:51:03.099Z</time>
      </trkpt>
      <trkpt lat="43.6583" lon="5.82499">
        <ele>481</ele>
        <time>2016-04-10T06:51:06.123Z</time>
      </trkpt>
      <trkpt lat="43.65828" lon="5.82497">
        <ele>482</ele>
        <time>2016-04-10T06:51:07.098Z</time>
      </trkpt>
      <trkpt lat="43.65823" lon="5.8249">
        <ele>482</ele>
        <time>2016-04-10T06:51:10.121Z</time>
      </trkpt>
      <trkpt lat="43.65822" lon="5.82487">
        <ele>482</ele>
        <time>2016-04-10T06:51:11.097Z</time>
      </trkpt>
      <trkpt lat="43.65817" lon="5.8248">
        <ele>482</ele>
        <time>2016-04-10T06:51:14.215Z</time>
      </trkpt>
      <trkpt lat="43.65815" lon="5.82477">
        <ele>482</ele>
        <time>2016-04-10T06:51:15.095Z</time>
      </trkpt>
      <trkpt lat="43.6581" lon="5.8247">
        <ele>482</ele>
        <time>2016-04-10T06:51:18.120Z</time>
      </trkpt>
      <trkpt lat="43.65809" lon="5.82468">
        <ele>482</ele>
        <time>2016-04-10T06:51:19.099Z</time>
      </trkpt>
      <trkpt lat="43.65805" lon="5.8246">
        <ele>483</ele>
        <time>2016-04-10T06:51:22.126Z</time>
      </trkpt>
      <trkpt lat="43.65803" lon="5.82458">
        <ele>482</ele>
        <time>2016-04-10T06:51:23.095Z</time>
      </trkpt>
      <trkpt lat="43.65798" lon="5.82448">
        <ele>482</ele>
        <time>2016-04-10T06:51:27.123Z</time>
      </trkpt>
      <trkpt lat="43.65797" lon="5.82445">
        <ele>482</ele>
        <time>2016-04-10T06:51:28.098Z</time>
      </trkpt>
      <trkpt lat="43.65793" lon="5.82437">
        <ele>483</ele>
        <time>2016-04-10T06:51:32.124Z</time>
      </trkpt>
      <trkpt lat="43.65792" lon="5.82435">
        <ele>483</ele>
        <time>2016-04-10T06:51:33.099Z</time>
      </trkpt>
      <trkpt lat="43.65786" lon="5.82427">
        <ele>484</ele>
        <time>2016-04-10T06:51:37.358Z</time>
      </trkpt>
      <trkpt lat="43.65784" lon="5.82425">
        <ele>484</ele>
        <time>2016-04-10T06:51:38.098Z</time>
      </trkpt>
      <trkpt lat="43.6578" lon="5.82416">
        <ele>485</ele>
        <time>2016-04-10T06:51:42.134Z</time>
      </trkpt>
      <trkpt lat="43.65779" lon="5.82413">
        <ele>485</ele>
        <time>2016-04-10T06:51:43.098Z</time>
      </trkpt>
      <trkpt lat="43.65776" lon="5.82403">
        <ele>487</ele>
        <time>2016-04-10T06:51:47.122Z</time>
      </trkpt>
      <trkpt lat="43.65775" lon="5.82401">
        <ele>487</ele>
        <time>2016-04-10T06:51:48.095Z</time>
      </trkpt>
      <trkpt lat="43.6577" lon="5.82392">
        <ele>488</ele>
        <time>2016-04-10T06:51:52.152Z</time>
      </trkpt>
      <trkpt lat="43.65769" lon="5.8239">
        <ele>488</ele>
        <time>2016-04-10T06:51:53.098Z</time>
      </trkpt>
      <trkpt lat="43.65769" lon="5.82379">
        <ele>488</ele>
        <time>2016-04-10T06:51:57.122Z</time>
      </trkpt>
      <trkpt lat="43.65769" lon="5.82376">
        <ele>489</ele>
        <time>2016-04-10T06:51:58.099Z</time>
      </trkpt>
      <trkpt lat="43.65768" lon="5.82365">
        <ele>491</ele>
        <time>2016-04-10T06:52:02.124Z</time>
      </trkpt>
      <trkpt lat="43.65768" lon="5.82362">
        <ele>491</ele>
        <time>2016-04-10T06:52:03.125Z</time>
      </trkpt>
      <trkpt lat="43.65771" lon="5.8235">
        <ele>491</ele>
        <time>2016-04-10T06:52:07.123Z</time>
      </trkpt>
      <trkpt lat="43.65771" lon="5.82347">
        <ele>493</ele>
        <time>2016-04-10T06:52:08.098Z</time>
      </trkpt>
      <trkpt lat="43.65772" lon="5.82335">
        <ele>493</ele>
        <time>2016-04-10T06:52:12.128Z</time>
      </trkpt>
      <trkpt lat="43.65772" lon="5.82332">
        <ele>493</ele>
        <time>2016-04-10T06:52:13.099Z</time>
      </trkpt>
      <trkpt lat="43.65769" lon="5.82323">
        <ele>492</ele>
        <time>2016-04-10T06:52:17.123Z</time>
      </trkpt>
      <trkpt lat="43.65767" lon="5.82322">
        <ele>492</ele>
        <time>2016-04-10T06:52:18.100Z</time>
      </trkpt>
      <trkpt lat="43.65763" lon="5.82318">
        <ele>491</ele>
        <time>2016-04-10T06:52:20.122Z</time>
      </trkpt>
      <trkpt lat="43.6576" lon="5.82313">
        <ele>491</ele>
        <time>2016-04-10T06:52:21.100Z</time>
      </trkpt>
      <trkpt lat="43.65757" lon="5.82308">
        <ele>490</ele>
        <time>2016-04-10T06:52:22.124Z</time>
      </trkpt>
      <trkpt lat="43.65754" lon="5.82303">
        <ele>489</ele>
        <time>2016-04-10T06:52:23.100Z</time>
      </trkpt>
      <trkpt lat="43.65751" lon="5.82298">
        <ele>489</ele>
        <time>2016-04-10T06:52:24.121Z</time>
      </trkpt>
      <trkpt lat="43.65749" lon="5.82292">
        <ele>489</ele>
        <time>2016-04-10T06:52:25.091Z</time>
      </trkpt>
      <trkpt lat="43.65747" lon="5.82283">
        <ele>489</ele>
        <time>2016-04-10T06:52:26.123Z</time>
      </trkpt>
      <trkpt lat="43.65747" lon="5.82275">
        <ele>488</ele>
        <time>2016-04-10T06:52:27.099Z</time>
      </trkpt>
      <trkpt lat="43.65747" lon="5.82266">
        <ele>489</ele>
        <time>2016-04-10T06:52:28.123Z</time>
      </trkpt>
      <trkpt lat="43.65748" lon="5.82256">
        <ele>489</ele>
        <time>2016-04-10T06:52:29.095Z</time>
      </trkpt>
      <trkpt lat="43.65749" lon="5.82246">
        <ele>488</ele>
        <time>2016-04-10T06:52:30.150Z</time>
      </trkpt>
      <trkpt lat="43.65748" lon="5.82236">
        <ele>488</ele>
        <time>2016-04-10T06:52:31.099Z</time>
      </trkpt>
      <trkpt lat="43.65748" lon="5.82227">
        <ele>488</ele>
        <time>2016-04-10T06:52:32.124Z</time>
      </trkpt>
      <trkpt lat="43.6575" lon="5.82219">
        <ele>488</ele>
        <time>2016-04-10T06:52:33.097Z</time>
      </trkpt>
      <trkpt lat="43.65752" lon="5.82211">
        <ele>487</ele>
        <time>2016-04-10T06:52:34.120Z</time>
      </trkpt>
      <trkpt lat="43.65753" lon="5.82204">
        <ele>487</ele>
        <time>2016-04-10T06:52:35.097Z</time>
      </trkpt>
      <trkpt lat="43.65755" lon="5.82198">
        <ele>486</ele>
        <time>2016-04-10T06:52:36.135Z</time>
      </trkpt>
      <trkpt lat="43.65756" lon="5.82192">
        <ele>486</ele>
        <time>2016-04-10T06:52:37.099Z</time>
      </trkpt>
      <trkpt lat="43.65758" lon="5.82183">
        <ele>487</ele>
        <time>2016-04-10T06:52:39.124Z</time>
      </trkpt>
      <trkpt lat="43.65759" lon="5.82179">
        <ele>487</ele>
        <time>2016-04-10T06:52:40.098Z</time>
      </trkpt>
      <trkpt lat="43.65761" lon="5.82171">
        <ele>489</ele>
        <time>2016-04-10T06:52:42.123Z</time>
      </trkpt>
      <trkpt lat="43.65761" lon="5.82167">
        <ele>490</ele>
        <time>2016-04-10T06:52:43.098Z</time>
      </trkpt>
      <trkpt lat="43.65763" lon="5.82158">
        <ele>492</ele>
        <time>2016-04-10T06:52:45.121Z</time>
      </trkpt>
      <trkpt lat="43.65764" lon="5.82154">
        <ele>493</ele>
        <time>2016-04-10T06:52:46.126Z</time>
      </trkpt>
      <trkpt lat="43.65765" lon="5.82145">
        <ele>494</ele>
        <time>2016-04-10T06:52:48.123Z</time>
      </trkpt>
      <trkpt lat="43.65765" lon="5.82141">
        <ele>493</ele>
        <time>2016-04-10T06:52:49.100Z</time>
      </trkpt>
      <trkpt lat="43.65766" lon="5.82132">
        <ele>495</ele>
        <time>2016-04-10T06:52:51.122Z</time>
      </trkpt>
      <trkpt lat="43.65766" lon="5.82128">
        <ele>495</ele>
        <time>2016-04-10T06:52:52.099Z</time>
      </trkpt>
      <trkpt lat="43.65768" lon="5.82116">
        <ele>495</ele>
        <time>2016-04-10T06:52:55.125Z</time>
      </trkpt>
      <trkpt lat="43.65769" lon="5.82112">
        <ele>495</ele>
        <time>2016-04-10T06:52:56.096Z</time>
      </trkpt>
      <trkpt lat="43.65771" lon="5.82101">
        <ele>496</ele>
        <time>2016-04-10T06:52:59.125Z</time>
      </trkpt>
      <trkpt lat="43.65771" lon="5.82097">
        <ele>495</ele>
        <time>2016-04-10T06:53:00.106Z</time>
      </trkpt>
      <trkpt lat="43.65772" lon="5.82085">
        <ele>496</ele>
        <time>2016-04-10T06:53:03.123Z</time>
      </trkpt>
      <trkpt lat="43.65772" lon="5.82081">
        <ele>497</ele>
        <time>2016-04-10T06:53:04.099Z</time>
      </trkpt>
      <trkpt lat="43.65773" lon="5.8207">
        <ele>498</ele>
        <time>2016-04-10T06:53:07.138Z</time>
      </trkpt>
      <trkpt lat="43.65773" lon="5.82066">
        <ele>498</ele>
        <time>2016-04-10T06:53:08.099Z</time>
      </trkpt>
      <trkpt lat="43.65773" lon="5.82054">
        <ele>501</ele>
        <time>2016-04-10T06:53:11.377Z</time>
      </trkpt>
      <trkpt lat="43.65773" lon="5.8205">
        <ele>501</ele>
        <time>2016-04-10T06:53:12.097Z</time>
      </trkpt>
      <trkpt lat="43.65773" lon="5.82041">
        <ele>501</ele>
        <time>2016-04-10T06:53:14.470Z</time>
      </trkpt>
      <trkpt lat="43.65773" lon="5.82037">
        <ele>500</ele>
        <time>2016-04-10T06:53:15.096Z</time>
      </trkpt>
      <trkpt lat="43.65774" lon="5.82025">
        <ele>499</ele>
        <time>2016-04-10T06:53:18.125Z</time>
      </trkpt>
      <trkpt lat="43.65774" lon="5.82021">
        <ele>501</ele>
        <time>2016-04-10T06:53:19.098Z</time>
      </trkpt>
      <trkpt lat="43.65774" lon="5.82012">
        <ele>504</ele>
        <time>2016-04-10T06:53:21.122Z</time>
      </trkpt>
      <trkpt lat="43.65775" lon="5.82008">
        <ele>505</ele>
        <time>2016-04-10T06:53:22.098Z</time>
      </trkpt>
      <trkpt lat="43.65776" lon="5.81996">
        <ele>505</ele>
        <time>2016-04-10T06:53:25.124Z</time>
      </trkpt>
      <trkpt lat="43.65776" lon="5.81992">
        <ele>505</ele>
        <time>2016-04-10T06:53:26.108Z</time>
      </trkpt>
      <trkpt lat="43.65778" lon="5.8198">
        <ele>506</ele>
        <time>2016-04-10T06:53:29.149Z</time>
      </trkpt>
      <trkpt lat="43.65779" lon="5.81976">
        <ele>505</ele>
        <time>2016-04-10T06:53:30.097Z</time>
      </trkpt>
      <trkpt lat="43.65782" lon="5.81965">
        <ele>504</ele>
        <time>2016-04-10T06:53:33.122Z</time>
      </trkpt>
      <trkpt lat="43.65783" lon="5.81961">
        <ele>503</ele>
        <time>2016-04-10T06:53:34.098Z</time>
      </trkpt>
      <trkpt lat="43.65782" lon="5.8195">
        <ele>501</ele>
        <time>2016-04-10T06:53:37.122Z</time>
      </trkpt>
      <trkpt lat="43.65782" lon="5.81947">
        <ele>500</ele>
        <time>2016-04-10T06:53:38.098Z</time>
      </trkpt>
      <trkpt lat="43.65781" lon="5.81935">
        <ele>500</ele>
        <time>2016-04-10T06:53:41.122Z</time>
      </trkpt>
      <trkpt lat="43.6578" lon="5.81931">
        <ele>500</ele>
        <time>2016-04-10T06:53:42.098Z</time>
      </trkpt>
      <trkpt lat="43.6578" lon="5.81922">
        <ele>502</ele>
        <time>2016-04-10T06:53:44.124Z</time>
      </trkpt>
      <trkpt lat="43.6578" lon="5.81918">
        <ele>502</ele>
        <time>2016-04-10T06:53:45.125Z</time>
      </trkpt>
      <trkpt lat="43.65778" lon="5.8191">
        <ele>503</ele>
        <time>2016-04-10T06:53:47.121Z</time>
      </trkpt>
      <trkpt lat="43.65778" lon="5.81906">
        <ele>504</ele>
        <time>2016-04-10T06:53:48.321Z</time>
      </trkpt>
      <trkpt lat="43.65775" lon="5.81894">
        <ele>503</ele>
        <time>2016-04-10T06:53:51.123Z</time>
      </trkpt>
      <trkpt lat="43.65774" lon="5.8189">
        <ele>502</ele>
        <time>2016-04-10T06:53:52.098Z</time>
      </trkpt>
      <trkpt lat="43.65773" lon="5.81878">
        <ele>504</ele>
        <time>2016-04-10T06:53:55.121Z</time>
      </trkpt>
      <trkpt lat="43.65773" lon="5.81875">
        <ele>502</ele>
        <time>2016-04-10T06:53:56.124Z</time>
      </trkpt>
      <trkpt lat="43.65773" lon="5.81863">
        <ele>503</ele>
        <time>2016-04-10T06:53:59.121Z</time>
      </trkpt>
      <trkpt lat="43.65773" lon="5.8186">
        <ele>503</ele>
        <time>2016-04-10T06:54:00.103Z</time>
      </trkpt>
      <trkpt lat="43.65774" lon="5.81849">
        <ele>503</ele>
        <time>2016-04-10T06:54:03.122Z</time>
      </trkpt>
      <trkpt lat="43.65774" lon="5.81846">
        <ele>503</ele>
        <time>2016-04-10T06:54:04.097Z</time>
      </trkpt>
      <trkpt lat="43.65774" lon="5.81835">
        <ele>503</ele>
        <time>2016-04-10T06:54:07.129Z</time>
      </trkpt>
      <trkpt lat="43.65774" lon="5.81831">
        <ele>503</ele>
        <time>2016-04-10T06:54:08.099Z</time>
      </trkpt>
      <trkpt lat="43.65776" lon="5.81821">
        <ele>506</ele>
        <time>2016-04-10T06:54:11.121Z</time>
      </trkpt>
      <trkpt lat="43.65778" lon="5.81819">
        <ele>506</ele>
        <time>2016-04-10T06:54:12.125Z</time>
      </trkpt>
      <trkpt lat="43.65783" lon="5.81811">
        <ele>504</ele>
        <time>2016-04-10T06:54:16.122Z</time>
      </trkpt>
      <trkpt lat="43.65784" lon="5.81809">
        <ele>504</ele>
        <time>2016-04-10T06:54:17.095Z</time>
      </trkpt>
      <trkpt lat="43.65787" lon="5.81799">
        <ele>501</ele>
        <time>2016-04-10T06:54:21.122Z</time>
      </trkpt>
      <trkpt lat="43.65788" lon="5.81797">
        <ele>501</ele>
        <time>2016-04-10T06:54:22.097Z</time>
      </trkpt>
      <trkpt lat="43.65785" lon="5.81788">
        <ele>500</ele>
        <time>2016-04-10T06:54:25.121Z</time>
      </trkpt>
      <trkpt lat="43.65784" lon="5.81785">
        <ele>500</ele>
        <time>2016-04-10T06:54:26.097Z</time>
      </trkpt>
      <trkpt lat="43.65776" lon="5.81779">
        <ele>500</ele>
        <time>2016-04-10T06:54:29.152Z</time>
      </trkpt>
      <trkpt lat="43.65773" lon="5.81778">
        <ele>500</ele>
        <time>2016-04-10T06:54:30.095Z</time>
      </trkpt>
      <trkpt lat="43.65765" lon="5.81775">
        <ele>498</ele>
        <time>2016-04-10T06:54:33.105Z</time>
      </trkpt>
      <trkpt lat="43.65762" lon="5.81773">
        <ele>498</ele>
        <time>2016-04-10T06:54:34.089Z</time>
      </trkpt>
      <trkpt lat="43.65755" lon="5.8177">
        <ele>499</ele>
        <time>2016-04-10T06:54:37.102Z</time>
      </trkpt>
      <trkpt lat="43.65753" lon="5.81769">
        <ele>500</ele>
        <time>2016-04-10T06:54:38.095Z</time>
      </trkpt>
      <trkpt lat="43.65745" lon="5.8177">
        <ele>501</ele>
        <time>2016-04-10T06:54:41.122Z</time>
      </trkpt>
      <trkpt lat="43.65743" lon="5.8177">
        <ele>501</ele>
        <time>2016-04-10T06:54:42.097Z</time>
      </trkpt>
      <trkpt lat="43.65736" lon="5.81771">
        <ele>502</ele>
        <time>2016-04-10T06:54:45.133Z</time>
      </trkpt>
      <trkpt lat="43.65733" lon="5.81772">
        <ele>502</ele>
        <time>2016-04-10T06:54:46.098Z</time>
      </trkpt>
      <trkpt lat="43.65725" lon="5.81775">
        <ele>504</ele>
        <time>2016-04-10T06:54:50.124Z</time>
      </trkpt>
      <trkpt lat="43.65723" lon="5.81776">
        <ele>505</ele>
        <time>2016-04-10T06:54:51.099Z</time>
      </trkpt>
      <trkpt lat="43.65716" lon="5.81782">
        <ele>507</ele>
        <time>2016-04-10T06:54:56.121Z</time>
      </trkpt>
      <trkpt lat="43.65715" lon="5.81784">
        <ele>507</ele>
        <time>2016-04-10T06:54:57.095Z</time>
      </trkpt>
      <trkpt lat="43.65712" lon="5.81795">
        <ele>509</ele>
        <time>2016-04-10T06:55:02.136Z</time>
      </trkpt>
      <trkpt lat="43.65711" lon="5.81797">
        <ele>510</ele>
        <time>2016-04-10T06:55:03.099Z</time>
      </trkpt>
      <trkpt lat="43.65707" lon="5.81808">
        <ele>512</ele>
        <time>2016-04-10T06:55:08.121Z</time>
      </trkpt>
      <trkpt lat="43.65707" lon="5.8181">
        <ele>512</ele>
        <time>2016-04-10T06:55:09.097Z</time>
      </trkpt>
      <trkpt lat="43.65703" lon="5.8182">
        <ele>513</ele>
        <time>2016-04-10T06:55:13.124Z</time>
      </trkpt>
      <trkpt lat="43.65702" lon="5.81823">
        <ele>513</ele>
        <time>2016-04-10T06:55:14.098Z</time>
      </trkpt>
      <trkpt lat="43.65697" lon="5.81829">
        <ele>514</ele>
        <time>2016-04-10T06:55:17.121Z</time>
      </trkpt>
      <trkpt lat="43.65695" lon="5.81831">
        <ele>514</ele>
        <time>2016-04-10T06:55:18.106Z</time>
      </trkpt>
      <trkpt lat="43.65689" lon="5.81835">
        <ele>514</ele>
        <time>2016-04-10T06:55:21.156Z</time>
      </trkpt>
      <trkpt lat="43.65687" lon="5.81836">
        <ele>513</ele>
        <time>2016-04-10T06:55:22.098Z</time>
      </trkpt>
      <trkpt lat="43.6568" lon="5.81843">
        <ele>515</ele>
        <time>2016-04-10T06:55:26.123Z</time>
      </trkpt>
      <trkpt lat="43.65678" lon="5.81844">
        <ele>514</ele>
        <time>2016-04-10T06:55:27.098Z</time>
      </trkpt>
      <trkpt lat="43.65669" lon="5.81843">
        <ele>514</ele>
        <time>2016-04-10T06:55:33.123Z</time>
      </trkpt>
      <trkpt lat="43.65668" lon="5.81843">
        <ele>514</ele>
        <time>2016-04-10T06:55:34.096Z</time>
      </trkpt>
      <trkpt lat="43.6566" lon="5.81839">
        <ele>514</ele>
        <time>2016-04-10T06:55:39.123Z</time>
      </trkpt>
      <trkpt lat="43.65658" lon="5.81838">
        <ele>514</ele>
        <time>2016-04-10T06:55:40.100Z</time>
      </trkpt>
      <trkpt lat="43.65653" lon="5.81829">
        <ele>513</ele>
        <time>2016-04-10T06:55:45.124Z</time>
      </trkpt>
      <trkpt lat="43.65652" lon="5.81827">
        <ele>514</ele>
        <time>2016-04-10T06:55:46.098Z</time>
      </trkpt>
      <trkpt lat="43.65649" lon="5.81816">
        <ele>514</ele>
        <time>2016-04-10T06:55:51.122Z</time>
      </trkpt>
      <trkpt lat="43.65648" lon="5.81814">
        <ele>515</ele>
        <time>2016-04-10T06:55:52.098Z</time>
      </trkpt>
      <trkpt lat="43.65644" lon="5.81803">
        <ele>516</ele>
        <time>2016-04-10T06:55:57.122Z</time>
      </trkpt>
      <trkpt lat="43.65643" lon="5.81801">
        <ele>515</ele>
        <time>2016-04-10T06:55:58.096Z</time>
      </trkpt>
      <trkpt lat="43.65644" lon="5.8179">
        <ele>516</ele>
        <time>2016-04-10T06:56:03.120Z</time>
      </trkpt>
      <trkpt lat="43.65644" lon="5.81788">
        <ele>517</ele>
        <time>2016-04-10T06:56:04.098Z</time>
      </trkpt>
      <trkpt lat="43.6564" lon="5.81778">
        <ele>517</ele>
        <time>2016-04-10T06:56:10.160Z</time>
      </trkpt>
      <trkpt lat="43.65639" lon="5.81776">
        <ele>517</ele>
        <time>2016-04-10T06:56:11.099Z</time>
      </trkpt>
      <trkpt lat="43.65634" lon="5.81768">
        <ele>517</ele>
        <time>2016-04-10T06:56:15.117Z</time>
      </trkpt>
      <trkpt lat="43.65633" lon="5.81766">
        <ele>517</ele>
        <time>2016-04-10T06:56:16.097Z</time>
      </trkpt>
      <trkpt lat="43.6563" lon="5.81757">
        <ele>517</ele>
        <time>2016-04-10T06:56:19.124Z</time>
      </trkpt>
      <trkpt lat="43.65629" lon="5.81754">
        <ele>517</ele>
        <time>2016-04-10T06:56:20.097Z</time>
      </trkpt>
      <trkpt lat="43.65627" lon="5.81745">
        <ele>516</ele>
        <time>2016-04-10T06:56:23.123Z</time>
      </trkpt>
      <trkpt lat="43.65626" lon="5.81742">
        <ele>515</ele>
        <time>2016-04-10T06:56:24.096Z</time>
      </trkpt>
      <trkpt lat="43.6562" lon="5.81735">
        <ele>515</ele>
        <time>2016-04-10T06:56:27.123Z</time>
      </trkpt>
      <trkpt lat="43.65619" lon="5.81733">
        <ele>515</ele>
        <time>2016-04-10T06:56:28.096Z</time>
      </trkpt>
      <trkpt lat="43.65612" lon="5.81727">
        <ele>515</ele>
        <time>2016-04-10T06:56:31.125Z</time>
      </trkpt>
      <trkpt lat="43.6561" lon="5.81725">
        <ele>514</ele>
        <time>2016-04-10T06:56:32.126Z</time>
      </trkpt>
      <trkpt lat="43.65603" lon="5.81722">
        <ele>514</ele>
        <time>2016-04-10T06:56:34.125Z</time>
      </trkpt>
      <trkpt lat="43.656" lon="5.81721">
        <ele>514</ele>
        <time>2016-04-10T06:56:35.098Z</time>
      </trkpt>
      <trkpt lat="43.65592" lon="5.8172">
        <ele>512</ele>
        <time>2016-04-10T06:56:37.125Z</time>
      </trkpt>
      <trkpt lat="43.65587" lon="5.8172">
        <ele>512</ele>
        <time>2016-04-10T06:56:38.099Z</time>
      </trkpt>
      <trkpt lat="43.65583" lon="5.8172">
        <ele>512</ele>
        <time>2016-04-10T06:56:39.404Z</time>
      </trkpt>
      <trkpt lat="43.65577" lon="5.8172">
        <ele>512</ele>
        <time>2016-04-10T06:56:40.099Z</time>
      </trkpt>
      <trkpt lat="43.65572" lon="5.81721">
        <ele>511</ele>
        <time>2016-04-10T06:56:41.141Z</time>
      </trkpt>
      <trkpt lat="43.65567" lon="5.81721">
        <ele>511</ele>
        <time>2016-04-10T06:56:42.101Z</time>
      </trkpt>
      <trkpt lat="43.65562" lon="5.8172">
        <ele>511</ele>
        <time>2016-04-10T06:56:43.126Z</time>
      </trkpt>
      <trkpt lat="43.65557" lon="5.81724">
        <ele>511</ele>
        <time>2016-04-10T06:56:44.096Z</time>
      </trkpt>
      <trkpt lat="43.65552" lon="5.81728">
        <ele>510</ele>
        <time>2016-04-10T06:56:45.125Z</time>
      </trkpt>
      <trkpt lat="43.65548" lon="5.81734">
        <ele>510</ele>
        <time>2016-04-10T06:56:46.099Z</time>
      </trkpt>
      <trkpt lat="43.65541" lon="5.81739">
        <ele>509</ele>
        <time>2016-04-10T06:56:48.126Z</time>
      </trkpt>
      <trkpt lat="43.65539" lon="5.8174">
        <ele>509</ele>
        <time>2016-04-10T06:56:49.101Z</time>
      </trkpt>
      <trkpt lat="43.65531" lon="5.81742">
        <ele>509</ele>
        <time>2016-04-10T06:56:53.156Z</time>
      </trkpt>
      <trkpt lat="43.65529" lon="5.81742">
        <ele>508</ele>
        <time>2016-04-10T06:56:54.100Z</time>
      </trkpt>
      <trkpt lat="43.65523" lon="5.81746">
        <ele>510</ele>
        <time>2016-04-10T06:56:57.124Z</time>
      </trkpt>
      <trkpt lat="43.65521" lon="5.81749">
        <ele>511</ele>
        <time>2016-04-10T06:56:58.099Z</time>
      </trkpt>
      <trkpt lat="43.65515" lon="5.81755">
        <ele>510</ele>
        <time>2016-04-10T06:57:01.125Z</time>
      </trkpt>
      <trkpt lat="43.65513" lon="5.81757">
        <ele>510</ele>
        <time>2016-04-10T06:57:02.099Z</time>
      </trkpt>
      <trkpt lat="43.65507" lon="5.81762">
        <ele>511</ele>
        <time>2016-04-10T06:57:05.124Z</time>
      </trkpt>
      <trkpt lat="43.65505" lon="5.81763">
        <ele>511</ele>
        <time>2016-04-10T06:57:06.099Z</time>
      </trkpt>
      <trkpt lat="43.65497" lon="5.81769">
        <ele>513</ele>
        <time>2016-04-10T06:57:10.180Z</time>
      </trkpt>
      <trkpt lat="43.65495" lon="5.8177">
        <ele>514</ele>
        <time>2016-04-10T06:57:11.092Z</time>
      </trkpt>
      <trkpt lat="43.65486" lon="5.81773">
        <ele>513</ele>
        <time>2016-04-10T06:57:15.120Z</time>
      </trkpt>
      <trkpt lat="43.65484" lon="5.81773">
        <ele>514</ele>
        <time>2016-04-10T06:57:16.105Z</time>
      </trkpt>
      <trkpt lat="43.65477" lon="5.81781">
        <ele>516</ele>
        <time>2016-04-10T06:58:00.138Z</time>
      </trkpt>
      <trkpt lat="43.65476" lon="5.81782">
        <ele>515</ele>
        <time>2016-04-10T06:58:01.100Z</time>
      </trkpt>
      <trkpt lat="43.65473" lon="5.81793">
        <ele>516</ele>
        <time>2016-04-10T06:58:07.124Z</time>
      </trkpt>
      <trkpt lat="43.65473" lon="5.81795">
        <ele>516</ele>
        <time>2016-04-10T06:58:08.127Z</time>
      </trkpt>
      <trkpt lat="43.65472" lon="5.81806">
        <ele>517</ele>
        <time>2016-04-10T06:58:13.126Z</time>
      </trkpt>
      <trkpt lat="43.65472" lon="5.8181">
        <ele>517</ele>
        <time>2016-04-10T06:58:14.109Z</time>
      </trkpt>
      <trkpt lat="43.65472" lon="5.8182">
        <ele>517</ele>
        <time>2016-04-10T06:58:17.125Z</time>
      </trkpt>
      <trkpt lat="43.65472" lon="5.81823">
        <ele>517</ele>
        <time>2016-04-10T06:58:18.101Z</time>
      </trkpt>
      <trkpt lat="43.65473" lon="5.81834">
        <ele>518</ele>
        <time>2016-04-10T06:58:22.131Z</time>
      </trkpt>
      <trkpt lat="43.65472" lon="5.81836">
        <ele>518</ele>
        <time>2016-04-10T06:58:23.100Z</time>
      </trkpt>
      <trkpt lat="43.65473" lon="5.81847">
        <ele>518</ele>
        <time>2016-04-10T06:58:28.135Z</time>
      </trkpt>
      <trkpt lat="43.65473" lon="5.8185">
        <ele>519</ele>
        <time>2016-04-10T06:58:29.100Z</time>
      </trkpt>
      <trkpt lat="43.65475" lon="5.81859">
        <ele>518</ele>
        <time>2016-04-10T06:58:32.128Z</time>
      </trkpt>
      <trkpt lat="43.65476" lon="5.81862">
        <ele>518</ele>
        <time>2016-04-10T06:58:33.100Z</time>
      </trkpt>
      <trkpt lat="43.65478" lon="5.81873">
        <ele>517</ele>
        <time>2016-04-10T06:58:36.126Z</time>
      </trkpt>
      <trkpt lat="43.65479" lon="5.81877">
        <ele>517</ele>
        <time>2016-04-10T06:58:37.099Z</time>
      </trkpt>
      <trkpt lat="43.6548" lon="5.81887">
        <ele>516</ele>
        <time>2016-04-10T06:58:39.136Z</time>
      </trkpt>
      <trkpt lat="43.65479" lon="5.81891">
        <ele>516</ele>
        <time>2016-04-10T06:58:40.098Z</time>
      </trkpt>
      <trkpt lat="43.65475" lon="5.819">
        <ele>516</ele>
        <time>2016-04-10T06:58:43.415Z</time>
      </trkpt>
      <trkpt lat="43.65474" lon="5.81902">
        <ele>516</ele>
        <time>2016-04-10T06:58:44.101Z</time>
      </trkpt>
      <trkpt lat="43.65469" lon="5.8191">
        <ele>516</ele>
        <time>2016-04-10T06:58:47.124Z</time>
      </trkpt>
      <trkpt lat="43.65468" lon="5.81912">
        <ele>516</ele>
        <time>2016-04-10T06:58:48.102Z</time>
      </trkpt>
      <trkpt lat="43.65469" lon="5.81923">
        <ele>517</ele>
        <time>2016-04-10T06:58:52.127Z</time>
      </trkpt>
      <trkpt lat="43.65469" lon="5.81926">
        <ele>518</ele>
        <time>2016-04-10T06:58:53.100Z</time>
      </trkpt>
      <trkpt lat="43.65471" lon="5.81934">
        <ele>518</ele>
        <time>2016-04-10T06:58:55.125Z</time>
      </trkpt>
      <trkpt lat="43.65472" lon="5.81938">
        <ele>517</ele>
        <time>2016-04-10T06:58:56.099Z</time>
      </trkpt>
      <trkpt lat="43.65474" lon="5.81947">
        <ele>516</ele>
        <time>2016-04-10T06:58:58.129Z</time>
      </trkpt>
      <trkpt lat="43.65474" lon="5.81952">
        <ele>516</ele>
        <time>2016-04-10T06:58:59.099Z</time>
      </trkpt>
      <trkpt lat="43.65473" lon="5.81962">
        <ele>516</ele>
        <time>2016-04-10T06:59:01.126Z</time>
      </trkpt>
      <trkpt lat="43.65472" lon="5.81968">
        <ele>515</ele>
        <time>2016-04-10T06:59:02.140Z</time>
      </trkpt>
      <trkpt lat="43.65469" lon="5.81978">
        <ele>514</ele>
        <time>2016-04-10T06:59:04.125Z</time>
      </trkpt>
      <trkpt lat="43.65468" lon="5.81983">
        <ele>514</ele>
        <time>2016-04-10T06:59:05.100Z</time>
      </trkpt>
      <trkpt lat="43.65467" lon="5.81993">
        <ele>513</ele>
        <time>2016-04-10T06:59:07.124Z</time>
      </trkpt>
      <trkpt lat="43.65467" lon="5.81999">
        <ele>512</ele>
        <time>2016-04-10T06:59:08.100Z</time>
      </trkpt>
      <trkpt lat="43.65465" lon="5.8201">
        <ele>511</ele>
        <time>2016-04-10T06:59:11.124Z</time>
      </trkpt>
      <trkpt lat="43.65464" lon="5.82011">
        <ele>511</ele>
        <time>2016-04-10T06:59:12.100Z</time>
      </trkpt>
      <trkpt lat="43.65462" lon="5.82018">
        <ele>511</ele>
        <time>2016-04-10T06:59:15.124Z</time>
      </trkpt>
      <trkpt lat="43.65461" lon="5.82023">
        <ele>511</ele>
        <time>2016-04-10T06:59:16.100Z</time>
      </trkpt>
      <trkpt lat="43.65461" lon="5.82032">
        <ele>510</ele>
        <time>2016-04-10T06:59:18.123Z</time>
      </trkpt>
      <trkpt lat="43.65461" lon="5.82036">
        <ele>511</ele>
        <time>2016-04-10T06:59:19.099Z</time>
      </trkpt>
      <trkpt lat="43.65461" lon="5.82048">
        <ele>510</ele>
        <time>2016-04-10T06:59:22.206Z</time>
      </trkpt>
      <trkpt lat="43.65461" lon="5.82052">
        <ele>510</ele>
        <time>2016-04-10T06:59:23.100Z</time>
      </trkpt>
      <trkpt lat="43.6546" lon="5.82064">
        <ele>512</ele>
        <time>2016-04-10T06:59:26.134Z</time>
      </trkpt>
      <trkpt lat="43.6546" lon="5.82068">
        <ele>512</ele>
        <time>2016-04-10T06:59:27.102Z</time>
      </trkpt>
      <trkpt lat="43.6546" lon="5.82077">
        <ele>512</ele>
        <time>2016-04-10T06:59:29.124Z</time>
      </trkpt>
      <trkpt lat="43.6546" lon="5.82081">
        <ele>512</ele>
        <time>2016-04-10T06:59:30.099Z</time>
      </trkpt>
      <trkpt lat="43.6546" lon="5.8209">
        <ele>511</ele>
        <time>2016-04-10T06:59:32.126Z</time>
      </trkpt>
      <trkpt lat="43.6546" lon="5.82094">
        <ele>510</ele>
        <time>2016-04-10T06:59:33.100Z</time>
      </trkpt>
      <trkpt lat="43.65457" lon="5.82105">
        <ele>509</ele>
        <time>2016-04-10T06:59:36.134Z</time>
      </trkpt>
      <trkpt lat="43.65457" lon="5.82108">
        <ele>510</ele>
        <time>2016-04-10T06:59:37.099Z</time>
      </trkpt>
      <trkpt lat="43.65454" lon="5.82118">
        <ele>510</ele>
        <time>2016-04-10T06:59:40.125Z</time>
      </trkpt>
      <trkpt lat="43.65453" lon="5.82121">
        <ele>510</ele>
        <time>2016-04-10T06:59:41.100Z</time>
      </trkpt>
      <trkpt lat="43.65453" lon="5.82132">
        <ele>510</ele>
        <time>2016-04-10T06:59:46.221Z</time>
      </trkpt>
      <trkpt lat="43.65453" lon="5.82134">
        <ele>510</ele>
        <time>2016-04-10T06:59:47.099Z</time>
      </trkpt>
      <trkpt lat="43.65454" lon="5.82144">
        <ele>509</ele>
        <time>2016-04-10T06:59:52.125Z</time>
      </trkpt>
      <trkpt lat="43.65453" lon="5.82147">
        <ele>509</ele>
        <time>2016-04-10T06:59:53.099Z</time>
      </trkpt>
      <trkpt lat="43.6545" lon="5.82155">
        <ele>509</ele>
        <time>2016-04-10T06:59:56.123Z</time>
      </trkpt>
      <trkpt lat="43.65449" lon="5.82158">
        <ele>509</ele>
        <time>2016-04-10T06:59:57.099Z</time>
      </trkpt>
      <trkpt lat="43.65446" lon="5.82166">
        <ele>509</ele>
        <time>2016-04-10T06:59:59.125Z</time>
      </trkpt>
      <trkpt lat="43.65445" lon="5.8217">
        <ele>509</ele>
        <time>2016-04-10T07:00:00.109Z</time>
      </trkpt>
      <trkpt lat="43.65443" lon="5.82178">
        <ele>508</ele>
        <time>2016-04-10T07:00:02.156Z</time>
      </trkpt>
      <trkpt lat="43.65442" lon="5.82182">
        <ele>508</ele>
        <time>2016-04-10T07:00:03.100Z</time>
      </trkpt>
      <trkpt lat="43.65439" lon="5.8219">
        <ele>508</ele>
        <time>2016-04-10T07:00:05.125Z</time>
      </trkpt>
      <trkpt lat="43.65438" lon="5.82194">
        <ele>507</ele>
        <time>2016-04-10T07:00:06.100Z</time>
      </trkpt>
      <trkpt lat="43.65434" lon="5.82205">
        <ele>507</ele>
        <time>2016-04-10T07:00:09.125Z</time>
      </trkpt>
      <trkpt lat="43.65433" lon="5.82207">
        <ele>506</ele>
        <time>2016-04-10T07:00:10.101Z</time>
      </trkpt>
      <trkpt lat="43.65428" lon="5.82217">
        <ele>505</ele>
        <time>2016-04-10T07:00:14.126Z</time>
      </trkpt>
      <trkpt lat="43.65427" lon="5.82219">
        <ele>504</ele>
        <time>2016-04-10T07:00:15.100Z</time>
      </trkpt>
      <trkpt lat="43.65424" lon="5.82229">
        <ele>503</ele>
        <time>2016-04-10T07:00:18.150Z</time>
      </trkpt>
      <trkpt lat="43.65424" lon="5.82233">
        <ele>503</ele>
        <time>2016-04-10T07:00:19.101Z</time>
      </trkpt>
      <trkpt lat="43.65421" lon="5.82243">
        <ele>502</ele>
        <time>2016-04-10T07:00:22.126Z</time>
      </trkpt>
      <trkpt lat="43.6542" lon="5.82246">
        <ele>502</ele>
        <time>2016-04-10T07:00:23.101Z</time>
      </trkpt>
      <trkpt lat="43.65416" lon="5.82256">
        <ele>502</ele>
        <time>2016-04-10T07:00:26.127Z</time>
      </trkpt>
      <trkpt lat="43.65414" lon="5.82259">
        <ele>501</ele>
        <time>2016-04-10T07:00:27.098Z</time>
      </trkpt>
      <trkpt lat="43.6541" lon="5.82266">
        <ele>501</ele>
        <time>2016-04-10T07:00:30.125Z</time>
      </trkpt>
      <trkpt lat="43.65409" lon="5.82269">
        <ele>500</ele>
        <time>2016-04-10T07:00:31.100Z</time>
      </trkpt>
      <trkpt lat="43.65406" lon="5.8228">
        <ele>500</ele>
        <time>2016-04-10T07:00:35.125Z</time>
      </trkpt>
      <trkpt lat="43.65405" lon="5.82283">
        <ele>500</ele>
        <time>2016-04-10T07:00:36.100Z</time>
      </trkpt>
      <trkpt lat="43.654" lon="5.8229">
        <ele>500</ele>
        <time>2016-04-10T07:00:39.123Z</time>
      </trkpt>
      <trkpt lat="43.65398" lon="5.82292">
        <ele>500</ele>
        <time>2016-04-10T07:00:40.102Z</time>
      </trkpt>
      <trkpt lat="43.65391" lon="5.823">
        <ele>500</ele>
        <time>2016-04-10T07:00:43.125Z</time>
      </trkpt>
      <trkpt lat="43.6539" lon="5.82302">
        <ele>500</ele>
        <time>2016-04-10T07:00:44.099Z</time>
      </trkpt>
      <trkpt lat="43.65382" lon="5.82307">
        <ele>500</ele>
        <time>2016-04-10T07:00:48.130Z</time>
      </trkpt>
      <trkpt lat="43.6538" lon="5.82309">
        <ele>499</ele>
        <time>2016-04-10T07:00:49.101Z</time>
      </trkpt>
      <trkpt lat="43.65374" lon="5.82315">
        <ele>499</ele>
        <time>2016-04-10T07:00:52.114Z</time>
      </trkpt>
      <trkpt lat="43.65372" lon="5.82318">
        <ele>499</ele>
        <time>2016-04-10T07:00:53.099Z</time>
      </trkpt>
      <trkpt lat="43.65367" lon="5.82324">
        <ele>498</ele>
        <time>2016-04-10T07:00:55.125Z</time>
      </trkpt>
      <trkpt lat="43.65364" lon="5.82326">
        <ele>498</ele>
        <time>2016-04-10T07:00:56.127Z</time>
      </trkpt>
      <trkpt lat="43.65359" lon="5.82331">
        <ele>497</ele>
        <time>2016-04-10T07:00:58.125Z</time>
      </trkpt>
      <trkpt lat="43.65356" lon="5.82333">
        <ele>497</ele>
        <time>2016-04-10T07:00:59.102Z</time>
      </trkpt>
      <trkpt lat="43.6535" lon="5.82341">
        <ele>496</ele>
        <time>2016-04-10T07:01:02.126Z</time>
      </trkpt>
      <trkpt lat="43.65348" lon="5.82344">
        <ele>496</ele>
        <time>2016-04-10T07:01:03.100Z</time>
      </trkpt>
      <trkpt lat="43.65342" lon="5.8235">
        <ele>494</ele>
        <time>2016-04-10T07:01:07.125Z</time>
      </trkpt>
      <trkpt lat="43.6534" lon="5.82352">
        <ele>494</ele>
        <time>2016-04-10T07:01:08.110Z</time>
      </trkpt>
      <trkpt lat="43.65335" lon="5.82362">
        <ele>492</ele>
        <time>2016-04-10T07:01:11.134Z</time>
      </trkpt>
      <trkpt lat="43.65333" lon="5.82365">
        <ele>492</ele>
        <time>2016-04-10T07:01:12.128Z</time>
      </trkpt>
      <trkpt lat="43.65327" lon="5.82373">
        <ele>491</ele>
        <time>2016-04-10T07:01:15.125Z</time>
      </trkpt>
      <trkpt lat="43.65325" lon="5.82376">
        <ele>491</ele>
        <time>2016-04-10T07:01:16.102Z</time>
      </trkpt>
      <trkpt lat="43.65317" lon="5.82383">
        <ele>490</ele>
        <time>2016-04-10T07:01:19.127Z</time>
      </trkpt>
      <trkpt lat="43.65314" lon="5.82385">
        <ele>490</ele>
        <time>2016-04-10T07:01:20.102Z</time>
      </trkpt>
      <trkpt lat="43.65308" lon="5.82389">
        <ele>489</ele>
        <time>2016-04-10T07:01:22.127Z</time>
      </trkpt>
      <trkpt lat="43.65305" lon="5.82392">
        <ele>487</ele>
        <time>2016-04-10T07:01:23.101Z</time>
      </trkpt>
      <trkpt lat="43.653" lon="5.82401">
        <ele>487</ele>
        <time>2016-04-10T07:01:25.125Z</time>
      </trkpt>
      <trkpt lat="43.65298" lon="5.82405">
        <ele>487</ele>
        <time>2016-04-10T07:01:26.101Z</time>
      </trkpt>
      <trkpt lat="43.65294" lon="5.82413">
        <ele>484</ele>
        <time>2016-04-10T07:01:29.126Z</time>
      </trkpt>
      <trkpt lat="43.65293" lon="5.82416">
        <ele>484</ele>
        <time>2016-04-10T07:01:30.101Z</time>
      </trkpt>
      <trkpt lat="43.65288" lon="5.82423">
        <ele>483</ele>
        <time>2016-04-10T07:01:33.125Z</time>
      </trkpt>
      <trkpt lat="43.65286" lon="5.82426">
        <ele>483</ele>
        <time>2016-04-10T07:01:34.101Z</time>
      </trkpt>
      <trkpt lat="43.65282" lon="5.82432">
        <ele>482</ele>
        <time>2016-04-10T07:01:36.126Z</time>
      </trkpt>
      <trkpt lat="43.65278" lon="5.82436">
        <ele>483</ele>
        <time>2016-04-10T07:01:37.102Z</time>
      </trkpt>
      <trkpt lat="43.65273" lon="5.82444">
        <ele>481</ele>
        <time>2016-04-10T07:01:39.127Z</time>
      </trkpt>
      <trkpt lat="43.6527" lon="5.82447">
        <ele>481</ele>
        <time>2016-04-10T07:01:40.102Z</time>
      </trkpt>
      <trkpt lat="43.65267" lon="5.82459">
        <ele>482</ele>
        <time>2016-04-10T07:01:49.156Z</time>
      </trkpt>
      <trkpt lat="43.65267" lon="5.8246">
        <ele>482</ele>
        <time>2016-04-10T07:01:50.111Z</time>
      </trkpt>
      <trkpt lat="43.6526" lon="5.82467">
        <ele>481</ele>
        <time>2016-04-10T07:01:54.126Z</time>
      </trkpt>
      <trkpt lat="43.65258" lon="5.82468">
        <ele>480</ele>
        <time>2016-04-10T07:01:55.111Z</time>
      </trkpt>
      <trkpt lat="43.65251" lon="5.82472">
        <ele>479</ele>
        <time>2016-04-10T07:01:58.125Z</time>
      </trkpt>
      <trkpt lat="43.65248" lon="5.82474">
        <ele>478</ele>
        <time>2016-04-10T07:01:59.100Z</time>
      </trkpt>
      <trkpt lat="43.65242" lon="5.8248">
        <ele>477</ele>
        <time>2016-04-10T07:02:02.125Z</time>
      </trkpt>
      <trkpt lat="43.6524" lon="5.82483">
        <ele>476</ele>
        <time>2016-04-10T07:02:03.101Z</time>
      </trkpt>
      <trkpt lat="43.65233" lon="5.82489">
        <ele>475</ele>
        <time>2016-04-10T07:02:06.124Z</time>
      </trkpt>
      <trkpt lat="43.6523" lon="5.82491">
        <ele>475</ele>
        <time>2016-04-10T07:02:07.101Z</time>
      </trkpt>
      <trkpt lat="43.65223" lon="5.82497">
        <ele>473</ele>
        <time>2016-04-10T07:02:10.109Z</time>
      </trkpt>
      <trkpt lat="43.65221" lon="5.82499">
        <ele>472</ele>
        <time>2016-04-10T07:02:11.129Z</time>
      </trkpt>
      <trkpt lat="43.65213" lon="5.82506">
        <ele>471</ele>
        <time>2016-04-10T07:02:14.127Z</time>
      </trkpt>
      <trkpt lat="43.65211" lon="5.82508">
        <ele>471</ele>
        <time>2016-04-10T07:02:15.100Z</time>
      </trkpt>
      <trkpt lat="43.65205" lon="5.82515">
        <ele>471</ele>
        <time>2016-04-10T07:02:18.125Z</time>
      </trkpt>
      <trkpt lat="43.65202" lon="5.82518">
        <ele>470</ele>
        <time>2016-04-10T07:02:19.101Z</time>
      </trkpt>
      <trkpt lat="43.65196" lon="5.82526">
        <ele>469</ele>
        <time>2016-04-10T07:02:22.166Z</time>
      </trkpt>
      <trkpt lat="43.65194" lon="5.82529">
        <ele>468</ele>
        <time>2016-04-10T07:02:23.101Z</time>
      </trkpt>
      <trkpt lat="43.65188" lon="5.82539">
        <ele>465</ele>
        <time>2016-04-10T07:02:26.126Z</time>
      </trkpt>
      <trkpt lat="43.65186" lon="5.82541">
        <ele>465</ele>
        <time>2016-04-10T07:02:27.100Z</time>
      </trkpt>
      <trkpt lat="43.65179" lon="5.82549">
        <ele>463</ele>
        <time>2016-04-10T07:02:30.126Z</time>
      </trkpt>
      <trkpt lat="43.65177" lon="5.82552">
        <ele>462</ele>
        <time>2016-04-10T07:02:31.110Z</time>
      </trkpt>
      <trkpt lat="43.65171" lon="5.82559">
        <ele>462</ele>
        <time>2016-04-10T07:02:34.125Z</time>
      </trkpt>
      <trkpt lat="43.65168" lon="5.82561">
        <ele>462</ele>
        <time>2016-04-10T07:02:35.101Z</time>
      </trkpt>
      <trkpt lat="43.65164" lon="5.8257">
        <ele>460</ele>
        <time>2016-04-10T07:02:38.126Z</time>
      </trkpt>
      <trkpt lat="43.65163" lon="5.82573">
        <ele>460</ele>
        <time>2016-04-10T07:02:39.111Z</time>
      </trkpt>
      <trkpt lat="43.65157" lon="5.82579">
        <ele>460</ele>
        <time>2016-04-10T07:02:42.197Z</time>
      </trkpt>
      <trkpt lat="43.65155" lon="5.82582">
        <ele>459</ele>
        <time>2016-04-10T07:02:43.100Z</time>
      </trkpt>
      <trkpt lat="43.65151" lon="5.82591">
        <ele>459</ele>
        <time>2016-04-10T07:02:46.184Z</time>
      </trkpt>
      <trkpt lat="43.65149" lon="5.82594">
        <ele>458</ele>
        <time>2016-04-10T07:02:47.101Z</time>
      </trkpt>
      <trkpt lat="43.65144" lon="5.82603">
        <ele>457</ele>
        <time>2016-04-10T07:02:50.125Z</time>
      </trkpt>
      <trkpt lat="43.65143" lon="5.82606">
        <ele>456</ele>
        <time>2016-04-10T07:02:51.101Z</time>
      </trkpt>
      <trkpt lat="43.65138" lon="5.82615">
        <ele>458</ele>
        <time>2016-04-10T07:03:13.110Z</time>
      </trkpt>
      <trkpt lat="43.65137" lon="5.82616">
        <ele>457</ele>
        <time>2016-04-10T07:03:14.101Z</time>
      </trkpt>
      <trkpt lat="43.65138" lon="5.82627">
        <ele>457</ele>
        <time>2016-04-10T07:03:33.129Z</time>
      </trkpt>
      <trkpt lat="43.65139" lon="5.8263">
        <ele>456</ele>
        <time>2016-04-10T07:03:34.102Z</time>
      </trkpt>
      <trkpt lat="43.65141" lon="5.82638">
        <ele>455</ele>
        <time>2016-04-10T07:03:36.137Z</time>
      </trkpt>
      <trkpt lat="43.65142" lon="5.82643">
        <ele>455</ele>
        <time>2016-04-10T07:03:37.129Z</time>
      </trkpt>
      <trkpt lat="43.65138" lon="5.82654">
        <ele>455</ele>
        <time>2016-04-10T07:03:46.129Z</time>
      </trkpt>
      <trkpt lat="43.65138" lon="5.82654">
        <ele>455</ele>
        <time>2016-04-10T07:03:47.103Z</time>
      </trkpt>
      <trkpt lat="43.6513" lon="5.82654">
        <ele>457</ele>
        <time>2016-04-10T07:03:53.126Z</time>
      </trkpt>
      <trkpt lat="43.65128" lon="5.82653">
        <ele>457</ele>
        <time>2016-04-10T07:03:54.101Z</time>
      </trkpt>
      <trkpt lat="43.65121" lon="5.82649">
        <ele>456</ele>
        <time>2016-04-10T07:03:58.128Z</time>
      </trkpt>
      <trkpt lat="43.65119" lon="5.82648">
        <ele>456</ele>
        <time>2016-04-10T07:03:59.140Z</time>
      </trkpt>
      <trkpt lat="43.65112" lon="5.82647">
        <ele>455</ele>
        <time>2016-04-10T07:04:02.128Z</time>
      </trkpt>
      <trkpt lat="43.65109" lon="5.82647">
        <ele>454</ele>
        <time>2016-04-10T07:04:03.103Z</time>
      </trkpt>
      <trkpt lat="43.65102" lon="5.82647">
        <ele>453</ele>
        <time>2016-04-10T07:04:06.196Z</time>
      </trkpt>
      <trkpt lat="43.65099" lon="5.82647">
        <ele>453</ele>
        <time>2016-04-10T07:04:07.102Z</time>
      </trkpt>
      <trkpt lat="43.65091" lon="5.82647">
        <ele>452</ele>
        <time>2016-04-10T07:04:10.156Z</time>
      </trkpt>
      <trkpt lat="43.65088" lon="5.82646">
        <ele>451</ele>
        <time>2016-04-10T07:04:11.101Z</time>
      </trkpt>
      <trkpt lat="43.65082" lon="5.82645">
        <ele>451</ele>
        <time>2016-04-10T07:04:13.128Z</time>
      </trkpt>
      <trkpt lat="43.65079" lon="5.82645">
        <ele>450</ele>
        <time>2016-04-10T07:04:14.102Z</time>
      </trkpt>
      <trkpt lat="43.6507" lon="5.82645">
        <ele>449</ele>
        <time>2016-04-10T07:04:18.124Z</time>
      </trkpt>
      <trkpt lat="43.65068" lon="5.82645">
        <ele>448</ele>
        <time>2016-04-10T07:04:19.100Z</time>
      </trkpt>
      <trkpt lat="43.6506" lon="5.82645">
        <ele>448</ele>
        <time>2016-04-10T07:04:23.126Z</time>
      </trkpt>
      <trkpt lat="43.65057" lon="5.82644">
        <ele>447</ele>
        <time>2016-04-10T07:04:24.103Z</time>
      </trkpt>
      <trkpt lat="43.6505" lon="5.82644">
        <ele>446</ele>
        <time>2016-04-10T07:04:27.128Z</time>
      </trkpt>
      <trkpt lat="43.65048" lon="5.82644">
        <ele>446</ele>
        <time>2016-04-10T07:04:28.101Z</time>
      </trkpt>
      <trkpt lat="43.6504" lon="5.8264">
        <ele>445</ele>
        <time>2016-04-10T07:04:34.127Z</time>
      </trkpt>
      <trkpt lat="43.65038" lon="5.8264">
        <ele>446</ele>
        <time>2016-04-10T07:04:35.101Z</time>
      </trkpt>
      <trkpt lat="43.65031" lon="5.82643">
        <ele>445</ele>
        <time>2016-04-10T07:04:38.164Z</time>
      </trkpt>
      <trkpt lat="43.65028" lon="5.82642">
        <ele>444</ele>
        <time>2016-04-10T07:04:39.337Z</time>
      </trkpt>
      <trkpt lat="43.6502" lon="5.82642">
        <ele>442</ele>
        <time>2016-04-10T07:04:42.153Z</time>
      </trkpt>
      <trkpt lat="43.65018" lon="5.82643">
        <ele>442</ele>
        <time>2016-04-10T07:04:43.099Z</time>
      </trkpt>
      <trkpt lat="43.65011" lon="5.82642">
        <ele>441</ele>
        <time>2016-04-10T07:04:45.138Z</time>
      </trkpt>
      <trkpt lat="43.65008" lon="5.82642">
        <ele>440</ele>
        <time>2016-04-10T07:04:46.104Z</time>
      </trkpt>
      <trkpt lat="43.65001" lon="5.82641">
        <ele>439</ele>
        <time>2016-04-10T07:04:49.126Z</time>
      </trkpt>
      <trkpt lat="43.64999" lon="5.82641">
        <ele>439</ele>
        <time>2016-04-10T07:04:50.102Z</time>
      </trkpt>
      <trkpt lat="43.64992" lon="5.82639">
        <ele>439</ele>
        <time>2016-04-10T07:04:53.126Z</time>
      </trkpt>
      <trkpt lat="43.64989" lon="5.82638">
        <ele>439</ele>
        <time>2016-04-10T07:04:54.102Z</time>
      </trkpt>
      <trkpt lat="43.64982" lon="5.82636">
        <ele>438</ele>
        <time>2016-04-10T07:04:57.127Z</time>
      </trkpt>
      <trkpt lat="43.6498" lon="5.82635">
        <ele>437</ele>
        <time>2016-04-10T07:04:58.128Z</time>
      </trkpt>
      <trkpt lat="43.64972" lon="5.82634">
        <ele>435</ele>
        <time>2016-04-10T07:05:01.124Z</time>
      </trkpt>
      <trkpt lat="43.64969" lon="5.82634">
        <ele>434</ele>
        <time>2016-04-10T07:05:02.326Z</time>
      </trkpt>
      <trkpt lat="43.64961" lon="5.82635">
        <ele>433</ele>
        <time>2016-04-10T07:05:04.126Z</time>
      </trkpt>
      <trkpt lat="43.64955" lon="5.82635">
        <ele>432</ele>
        <time>2016-04-10T07:05:05.103Z</time>
      </trkpt>
      <trkpt lat="43.64949" lon="5.82634">
        <ele>431</ele>
        <time>2016-04-10T07:05:07.138Z</time>
      </trkpt>
      <trkpt lat="43.64945" lon="5.82635">
        <ele>431</ele>
        <time>2016-04-10T07:05:08.104Z</time>
      </trkpt>
      <trkpt lat="43.64938" lon="5.82637">
        <ele>430</ele>
        <time>2016-04-10T07:05:10.137Z</time>
      </trkpt>
      <trkpt lat="43.64935" lon="5.82641">
        <ele>430</ele>
        <time>2016-04-10T07:05:11.100Z</time>
      </trkpt>
      <trkpt lat="43.6493" lon="5.82648">
        <ele>429</ele>
        <time>2016-04-10T07:05:13.138Z</time>
      </trkpt>
      <trkpt lat="43.64926" lon="5.82651">
        <ele>429</ele>
        <time>2016-04-10T07:05:14.102Z</time>
      </trkpt>
      <trkpt lat="43.64921" lon="5.82653">
        <ele>428</ele>
        <time>2016-04-10T07:05:15.127Z</time>
      </trkpt>
      <trkpt lat="43.64916" lon="5.82657">
        <ele>427</ele>
        <time>2016-04-10T07:05:16.103Z</time>
      </trkpt>
      <trkpt lat="43.64912" lon="5.82661">
        <ele>426</ele>
        <time>2016-04-10T07:05:17.126Z</time>
      </trkpt>
      <trkpt lat="43.64908" lon="5.82665">
        <ele>426</ele>
        <time>2016-04-10T07:05:18.103Z</time>
      </trkpt>
      <trkpt lat="43.64904" lon="5.8267">
        <ele>426</ele>
        <time>2016-04-10T07:05:19.127Z</time>
      </trkpt>
      <trkpt lat="43.64899" lon="5.82675">
        <ele>425</ele>
        <time>2016-04-10T07:05:20.102Z</time>
      </trkpt>
      <trkpt lat="43.64892" lon="5.82682">
        <ele>424</ele>
        <time>2016-04-10T07:05:22.127Z</time>
      </trkpt>
      <trkpt lat="43.64888" lon="5.82683">
        <ele>424</ele>
        <time>2016-04-10T07:05:23.114Z</time>
      </trkpt>
      <trkpt lat="43.64884" lon="5.82685">
        <ele>423</ele>
        <time>2016-04-10T07:05:24.200Z</time>
      </trkpt>
      <trkpt lat="43.64879" lon="5.82686">
        <ele>423</ele>
        <time>2016-04-10T07:05:25.128Z</time>
      </trkpt>
      <trkpt lat="43.64874" lon="5.82686">
        <ele>422</ele>
        <time>2016-04-10T07:05:26.126Z</time>
      </trkpt>
      <trkpt lat="43.64869" lon="5.82688">
        <ele>422</ele>
        <time>2016-04-10T07:05:27.102Z</time>
      </trkpt>
      <trkpt lat="43.64864" lon="5.82691">
        <ele>422</ele>
        <time>2016-04-10T07:05:28.126Z</time>
      </trkpt>
      <trkpt lat="43.64859" lon="5.82693">
        <ele>421</ele>
        <time>2016-04-10T07:05:29.100Z</time>
      </trkpt>
      <trkpt lat="43.64853" lon="5.82695">
        <ele>420</ele>
        <time>2016-04-10T07:05:30.148Z</time>
      </trkpt>
      <trkpt lat="43.64848" lon="5.82698">
        <ele>420</ele>
        <time>2016-04-10T07:05:31.102Z</time>
      </trkpt>
      <trkpt lat="43.64843" lon="5.82702">
        <ele>420</ele>
        <time>2016-04-10T07:05:32.126Z</time>
      </trkpt>
      <trkpt lat="43.64838" lon="5.82708">
        <ele>419</ele>
        <time>2016-04-10T07:05:33.102Z</time>
      </trkpt>
      <trkpt lat="43.64834" lon="5.82714">
        <ele>418</ele>
        <time>2016-04-10T07:05:34.135Z</time>
      </trkpt>
      <trkpt lat="43.64829" lon="5.8272">
        <ele>418</ele>
        <time>2016-04-10T07:05:35.103Z</time>
      </trkpt>
      <trkpt lat="43.64825" lon="5.82727">
        <ele>417</ele>
        <time>2016-04-10T07:05:36.152Z</time>
      </trkpt>
      <trkpt lat="43.64823" lon="5.82735">
        <ele>416</ele>
        <time>2016-04-10T07:05:37.100Z</time>
      </trkpt>
      <trkpt lat="43.6482" lon="5.82742">
        <ele>415</ele>
        <time>2016-04-10T07:05:38.127Z</time>
      </trkpt>
      <trkpt lat="43.64817" lon="5.82749">
        <ele>415</ele>
        <time>2016-04-10T07:05:39.122Z</time>
      </trkpt>
      <trkpt lat="43.64813" lon="5.82753">
        <ele>414</ele>
        <time>2016-04-10T07:05:40.126Z</time>
      </trkpt>
      <trkpt lat="43.64808" lon="5.82756">
        <ele>414</ele>
        <time>2016-04-10T07:05:41.104Z</time>
      </trkpt>
      <trkpt lat="43.648" lon="5.82762">
        <ele>414</ele>
        <time>2016-04-10T07:05:43.126Z</time>
      </trkpt>
      <trkpt lat="43.64797" lon="5.82764">
        <ele>413</ele>
        <time>2016-04-10T07:05:44.123Z</time>
      </trkpt>
      <trkpt lat="43.64791" lon="5.82768">
        <ele>412</ele>
        <time>2016-04-10T07:05:46.126Z</time>
      </trkpt>
      <trkpt lat="43.64788" lon="5.8277">
        <ele>411</ele>
        <time>2016-04-10T07:05:47.128Z</time>
      </trkpt>
      <trkpt lat="43.6478" lon="5.82772">
        <ele>410</ele>
        <time>2016-04-10T07:05:50.128Z</time>
      </trkpt>
      <trkpt lat="43.64777" lon="5.82772">
        <ele>410</ele>
        <time>2016-04-10T07:05:51.102Z</time>
      </trkpt>
      <trkpt lat="43.64773" lon="5.82781">
        <ele>411</ele>
        <time>2016-04-10T07:05:54.140Z</time>
      </trkpt>
      <trkpt lat="43.64771" lon="5.82785">
        <ele>410</ele>
        <time>2016-04-10T07:05:55.103Z</time>
      </trkpt>
      <trkpt lat="43.64769" lon="5.82792">
        <ele>411</ele>
        <time>2016-04-10T07:05:57.138Z</time>
      </trkpt>
      <trkpt lat="43.64767" lon="5.82796">
        <ele>411</ele>
        <time>2016-04-10T07:05:58.103Z</time>
      </trkpt>
      <trkpt lat="43.64759" lon="5.82802">
        <ele>410</ele>
        <time>2016-04-10T07:06:01.125Z</time>
      </trkpt>
      <trkpt lat="43.64757" lon="5.82803">
        <ele>410</ele>
        <time>2016-04-10T07:06:02.102Z</time>
      </trkpt>
      <trkpt lat="43.6475" lon="5.82801">
        <ele>409</ele>
        <time>2016-04-10T07:06:06.127Z</time>
      </trkpt>
      <trkpt lat="43.64748" lon="5.82801">
        <ele>409</ele>
        <time>2016-04-10T07:06:07.102Z</time>
      </trkpt>
      <trkpt lat="43.64739" lon="5.82803">
        <ele>410</ele>
        <time>2016-04-10T07:06:11.129Z</time>
      </trkpt>
      <trkpt lat="43.64737" lon="5.82805">
        <ele>410</ele>
        <time>2016-04-10T07:06:12.102Z</time>
      </trkpt>
      <trkpt lat="43.64731" lon="5.82813">
        <ele>409</ele>
        <time>2016-04-10T07:06:17.139Z</time>
      </trkpt>
      <trkpt lat="43.6473" lon="5.82814">
        <ele>409</ele>
        <time>2016-04-10T07:06:18.102Z</time>
      </trkpt>
      <trkpt lat="43.64728" lon="5.82803">
        <ele>407</ele>
        <time>2016-04-10T07:06:29.141Z</time>
      </trkpt>
      <trkpt lat="43.64728" lon="5.82799">
        <ele>407</ele>
        <time>2016-04-10T07:06:30.102Z</time>
      </trkpt>
      <trkpt lat="43.64724" lon="5.8279">
        <ele>405</ele>
        <time>2016-04-10T07:06:33.126Z</time>
      </trkpt>
      <trkpt lat="43.64722" lon="5.82787">
        <ele>405</ele>
        <time>2016-04-10T07:06:34.103Z</time>
      </trkpt>
      <trkpt lat="43.64718" lon="5.82778">
        <ele>404</ele>
        <time>2016-04-10T07:06:36.126Z</time>
      </trkpt>
      <trkpt lat="43.64717" lon="5.82774">
        <ele>404</ele>
        <time>2016-04-10T07:06:37.101Z</time>
      </trkpt>
      <trkpt lat="43.64714" lon="5.82765">
        <ele>404</ele>
        <time>2016-04-10T07:06:39.126Z</time>
      </trkpt>
      <trkpt lat="43.64713" lon="5.82761">
        <ele>405</ele>
        <time>2016-04-10T07:06:40.102Z</time>
      </trkpt>
      <trkpt lat="43.6471" lon="5.82749">
        <ele>405</ele>
        <time>2016-04-10T07:06:43.136Z</time>
      </trkpt>
      <trkpt lat="43.64709" lon="5.82746">
        <ele>405</ele>
        <time>2016-04-10T07:06:44.102Z</time>
      </trkpt>
      <trkpt lat="43.64706" lon="5.82736">
        <ele>405</ele>
        <time>2016-04-10T07:06:47.128Z</time>
      </trkpt>
      <trkpt lat="43.64704" lon="5.82733">
        <ele>405</ele>
        <time>2016-04-10T07:06:48.101Z</time>
      </trkpt>
      <trkpt lat="43.64701" lon="5.82725">
        <ele>406</ele>
        <time>2016-04-10T07:06:51.154Z</time>
      </trkpt>
      <trkpt lat="43.647" lon="5.82722">
        <ele>406</ele>
        <time>2016-04-10T07:06:52.103Z</time>
      </trkpt>
      <trkpt lat="43.64698" lon="5.82713">
        <ele>406</ele>
        <time>2016-04-10T07:06:55.126Z</time>
      </trkpt>
      <trkpt lat="43.64698" lon="5.82709">
        <ele>405</ele>
        <time>2016-04-10T07:06:56.098Z</time>
      </trkpt>
      <trkpt lat="43.64694" lon="5.82699">
        <ele>406</ele>
        <time>2016-04-10T07:06:59.128Z</time>
      </trkpt>
      <trkpt lat="43.64693" lon="5.82695">
        <ele>405</ele>
        <time>2016-04-10T07:07:00.111Z</time>
      </trkpt>
      <trkpt lat="43.6469" lon="5.82685">
        <ele>406</ele>
        <time>2016-04-10T07:07:03.127Z</time>
      </trkpt>
      <trkpt lat="43.6469" lon="5.82682">
        <ele>406</ele>
        <time>2016-04-10T07:07:04.102Z</time>
      </trkpt>
      <trkpt lat="43.64687" lon="5.82673">
        <ele>405</ele>
        <time>2016-04-10T07:07:07.124Z</time>
      </trkpt>
      <trkpt lat="43.64686" lon="5.8267">
        <ele>406</ele>
        <time>2016-04-10T07:07:08.102Z</time>
      </trkpt>
      <trkpt lat="43.64683" lon="5.82659">
        <ele>406</ele>
        <time>2016-04-10T07:07:11.126Z</time>
      </trkpt>
      <trkpt lat="43.64681" lon="5.82656">
        <ele>406</ele>
        <time>2016-04-10T07:07:12.102Z</time>
      </trkpt>
      <trkpt lat="43.64677" lon="5.82647">
        <ele>405</ele>
        <time>2016-04-10T07:07:15.119Z</time>
      </trkpt>
      <trkpt lat="43.64676" lon="5.82644">
        <ele>405</ele>
        <time>2016-04-10T07:07:16.102Z</time>
      </trkpt>
      <trkpt lat="43.64674" lon="5.82633">
        <ele>403</ele>
        <time>2016-04-10T07:07:20.127Z</time>
      </trkpt>
      <trkpt lat="43.64674" lon="5.82629">
        <ele>403</ele>
        <time>2016-04-10T07:07:21.103Z</time>
      </trkpt>
      <trkpt lat="43.64673" lon="5.82619">
        <ele>405</ele>
        <time>2016-04-10T07:07:24.125Z</time>
      </trkpt>
      <trkpt lat="43.64673" lon="5.82616">
        <ele>405</ele>
        <time>2016-04-10T07:07:25.102Z</time>
      </trkpt>
      <trkpt lat="43.64678" lon="5.82606">
        <ele>405</ele>
        <time>2016-04-10T07:07:29.151Z</time>
      </trkpt>
      <trkpt lat="43.64679" lon="5.82604">
        <ele>405</ele>
        <time>2016-04-10T07:07:30.101Z</time>
      </trkpt>
      <trkpt lat="43.64688" lon="5.826">
        <ele>406</ele>
        <time>2016-04-10T07:07:34.137Z</time>
      </trkpt>
      <trkpt lat="43.6469" lon="5.826">
        <ele>406</ele>
        <time>2016-04-10T07:07:35.103Z</time>
      </trkpt>
      <trkpt lat="43.64697" lon="5.82601">
        <ele>407</ele>
        <time>2016-04-10T07:07:38.179Z</time>
      </trkpt>
      <trkpt lat="43.647" lon="5.82602">
        <ele>408</ele>
        <time>2016-04-10T07:07:39.104Z</time>
      </trkpt>
      <trkpt lat="43.64707" lon="5.82604">
        <ele>409</ele>
        <time>2016-04-10T07:07:42.126Z</time>
      </trkpt>
      <trkpt lat="43.64709" lon="5.82606">
        <ele>409</ele>
        <time>2016-04-10T07:07:43.101Z</time>
      </trkpt>
      <trkpt lat="43.64714" lon="5.8261">
        <ele>410</ele>
        <time>2016-04-10T07:07:46.129Z</time>
      </trkpt>
      <trkpt lat="43.64716" lon="5.82612">
        <ele>411</ele>
        <time>2016-04-10T07:07:47.103Z</time>
      </trkpt>
      <trkpt lat="43.64724" lon="5.82618">
        <ele>411</ele>
        <time>2016-04-10T07:07:51.138Z</time>
      </trkpt>
      <trkpt lat="43.64726" lon="5.8262">
        <ele>411</ele>
        <time>2016-04-10T07:07:52.104Z</time>
      </trkpt>
      <trkpt lat="43.64733" lon="5.82625">
        <ele>412</ele>
        <time>2016-04-10T07:07:56.129Z</time>
      </trkpt>
      <trkpt lat="43.64735" lon="5.82627">
        <ele>412</ele>
        <time>2016-04-10T07:07:57.103Z</time>
      </trkpt>
      <trkpt lat="43.64741" lon="5.82632">
        <ele>413</ele>
        <time>2016-04-10T07:08:00.130Z</time>
      </trkpt>
      <trkpt lat="43.64743" lon="5.82633">
        <ele>413</ele>
        <time>2016-04-10T07:08:01.131Z</time>
      </trkpt>
      <trkpt lat="43.6475" lon="5.82636">
        <ele>413</ele>
        <time>2016-04-10T07:08:04.138Z</time>
      </trkpt>
      <trkpt lat="43.64752" lon="5.82637">
        <ele>413</ele>
        <time>2016-04-10T07:08:05.103Z</time>
      </trkpt>
      <trkpt lat="43.6476" lon="5.82635">
        <ele>412</ele>
        <time>2016-04-10T07:08:09.127Z</time>
      </trkpt>
      <trkpt lat="43.64761" lon="5.82634">
        <ele>412</ele>
        <time>2016-04-10T07:08:10.103Z</time>
      </trkpt>
      <trkpt lat="43.64768" lon="5.82627">
        <ele>411</ele>
        <time>2016-04-10T07:08:14.127Z</time>
      </trkpt>
      <trkpt lat="43.6477" lon="5.82625">
        <ele>411</ele>
        <time>2016-04-10T07:08:15.103Z</time>
      </trkpt>
      <trkpt lat="43.64774" lon="5.82617">
        <ele>411</ele>
        <time>2016-04-10T07:08:18.127Z</time>
      </trkpt>
      <trkpt lat="43.64775" lon="5.82613">
        <ele>411</ele>
        <time>2016-04-10T07:08:19.102Z</time>
      </trkpt>
      <trkpt lat="43.64776" lon="5.82603">
        <ele>410</ele>
        <time>2016-04-10T07:08:22.128Z</time>
      </trkpt>
      <trkpt lat="43.64777" lon="5.82599">
        <ele>411</ele>
        <time>2016-04-10T07:08:23.103Z</time>
      </trkpt>
      <trkpt lat="43.64778" lon="5.8259">
        <ele>410</ele>
        <time>2016-04-10T07:08:25.127Z</time>
      </trkpt>
      <trkpt lat="43.64778" lon="5.82586">
        <ele>410</ele>
        <time>2016-04-10T07:08:26.103Z</time>
      </trkpt>
      <trkpt lat="43.6478" lon="5.82574">
        <ele>410</ele>
        <time>2016-04-10T07:08:29.127Z</time>
      </trkpt>
      <trkpt lat="43.64781" lon="5.8257">
        <ele>410</ele>
        <time>2016-04-10T07:08:30.103Z</time>
      </trkpt>
      <trkpt lat="43.64782" lon="5.82558">
        <ele>410</ele>
        <time>2016-04-10T07:08:33.129Z</time>
      </trkpt>
      <trkpt lat="43.64782" lon="5.82554">
        <ele>409</ele>
        <time>2016-04-10T07:08:34.100Z</time>
      </trkpt>
      <trkpt lat="43.64783" lon="5.82543">
        <ele>409</ele>
        <time>2016-04-10T07:08:37.127Z</time>
      </trkpt>
      <trkpt lat="43.64783" lon="5.82539">
        <ele>409</ele>
        <time>2016-04-10T07:08:38.102Z</time>
      </trkpt>
      <trkpt lat="43.6478" lon="5.82528">
        <ele>408</ele>
        <time>2016-04-10T07:08:41.127Z</time>
      </trkpt>
      <trkpt lat="43.64779" lon="5.82524">
        <ele>407</ele>
        <time>2016-04-10T07:08:42.099Z</time>
      </trkpt>
      <trkpt lat="43.64776" lon="5.82513">
        <ele>407</ele>
        <time>2016-04-10T07:08:45.129Z</time>
      </trkpt>
      <trkpt lat="43.64775" lon="5.82509">
        <ele>407</ele>
        <time>2016-04-10T07:08:46.105Z</time>
      </trkpt>
      <trkpt lat="43.64773" lon="5.82498">
        <ele>407</ele>
        <time>2016-04-10T07:08:49.127Z</time>
      </trkpt>
      <trkpt lat="43.64772" lon="5.82494">
        <ele>407</ele>
        <time>2016-04-10T07:08:50.124Z</time>
      </trkpt>
      <trkpt lat="43.64767" lon="5.82484">
        <ele>407</ele>
        <time>2016-04-10T07:08:53.134Z</time>
      </trkpt>
      <trkpt lat="43.64765" lon="5.82483">
        <ele>407</ele>
        <time>2016-04-10T07:08:54.102Z</time>
      </trkpt>
      <trkpt lat="43.64756" lon="5.82481">
        <ele>406</ele>
        <time>2016-04-10T07:08:57.128Z</time>
      </trkpt>
      <trkpt lat="43.64753" lon="5.82481">
        <ele>405</ele>
        <time>2016-04-10T07:08:58.104Z</time>
      </trkpt>
      <trkpt lat="43.64745" lon="5.8248">
        <ele>405</ele>
        <time>2016-04-10T07:09:01.128Z</time>
      </trkpt>
      <trkpt lat="43.64742" lon="5.82479">
        <ele>404</ele>
        <time>2016-04-10T07:09:02.327Z</time>
      </trkpt>
      <trkpt lat="43.64733" lon="5.82477">
        <ele>404</ele>
        <time>2016-04-10T07:09:05.127Z</time>
      </trkpt>
      <trkpt lat="43.6473" lon="5.82476">
        <ele>404</ele>
        <time>2016-04-10T07:09:06.124Z</time>
      </trkpt>
      <trkpt lat="43.64721" lon="5.82474">
        <ele>404</ele>
        <time>2016-04-10T07:09:09.174Z</time>
      </trkpt>
      <trkpt lat="43.64718" lon="5.82474">
        <ele>404</ele>
        <time>2016-04-10T07:09:10.104Z</time>
      </trkpt>
      <trkpt lat="43.64709" lon="5.82473">
        <ele>405</ele>
        <time>2016-04-10T07:09:13.128Z</time>
      </trkpt>
      <trkpt lat="43.64706" lon="5.82473">
        <ele>405</ele>
        <time>2016-04-10T07:09:14.104Z</time>
      </trkpt>
      <trkpt lat="43.647" lon="5.82472">
        <ele>405</ele>
        <time>2016-04-10T07:09:16.125Z</time>
      </trkpt>
      <trkpt lat="43.64697" lon="5.82471">
        <ele>405</ele>
        <time>2016-04-10T07:09:17.103Z</time>
      </trkpt>
      <trkpt lat="43.64691" lon="5.82469">
        <ele>405</ele>
        <time>2016-04-10T07:09:19.139Z</time>
      </trkpt>
      <trkpt lat="43.64688" lon="5.82468">
        <ele>404</ele>
        <time>2016-04-10T07:09:20.104Z</time>
      </trkpt>
      <trkpt lat="43.64682" lon="5.82465">
        <ele>404</ele>
        <time>2016-04-10T07:09:22.152Z</time>
      </trkpt>
      <trkpt lat="43.64679" lon="5.82464">
        <ele>404</ele>
        <time>2016-04-10T07:09:23.102Z</time>
      </trkpt>
      <trkpt lat="43.64674" lon="5.82461">
        <ele>403</ele>
        <time>2016-04-10T07:09:25.126Z</time>
      </trkpt>
      <trkpt lat="43.64671" lon="5.8246">
        <ele>403</ele>
        <time>2016-04-10T07:09:26.100Z</time>
      </trkpt>
      <trkpt lat="43.64662" lon="5.82456">
        <ele>402</ele>
        <time>2016-04-10T07:09:29.127Z</time>
      </trkpt>
      <trkpt lat="43.64659" lon="5.82454">
        <ele>401</ele>
        <time>2016-04-10T07:09:30.100Z</time>
      </trkpt>
      <trkpt lat="43.64651" lon="5.8245">
        <ele>401</ele>
        <time>2016-04-10T07:09:33.138Z</time>
      </trkpt>
      <trkpt lat="43.64648" lon="5.82449">
        <ele>401</ele>
        <time>2016-04-10T07:09:34.102Z</time>
      </trkpt>
      <trkpt lat="43.64642" lon="5.82447">
        <ele>400</ele>
        <time>2016-04-10T07:09:36.127Z</time>
      </trkpt>
      <trkpt lat="43.64639" lon="5.82446">
        <ele>400</ele>
        <time>2016-04-10T07:09:37.104Z</time>
      </trkpt>
      <trkpt lat="43.64634" lon="5.82442">
        <ele>400</ele>
        <time>2016-04-10T07:09:39.348Z</time>
      </trkpt>
      <trkpt lat="43.64631" lon="5.8244">
        <ele>399</ele>
        <time>2016-04-10T07:09:40.103Z</time>
      </trkpt>
      <trkpt lat="43.64626" lon="5.82435">
        <ele>400</ele>
        <time>2016-04-10T07:09:42.128Z</time>
      </trkpt>
      <trkpt lat="43.64623" lon="5.82432">
        <ele>400</ele>
        <time>2016-04-10T07:09:43.102Z</time>
      </trkpt>
      <trkpt lat="43.64619" lon="5.82426">
        <ele>400</ele>
        <time>2016-04-10T07:09:45.129Z</time>
      </trkpt>
      <trkpt lat="43.64617" lon="5.82423">
        <ele>400</ele>
        <time>2016-04-10T07:09:46.102Z</time>
      </trkpt>
      <trkpt lat="43.64612" lon="5.82417">
        <ele>401</ele>
        <time>2016-04-10T07:09:48.128Z</time>
      </trkpt>
      <trkpt lat="43.6461" lon="5.82413">
        <ele>401</ele>
        <time>2016-04-10T07:09:49.102Z</time>
      </trkpt>
      <trkpt lat="43.64606" lon="5.82407">
        <ele>401</ele>
        <time>2016-04-10T07:09:51.362Z</time>
      </trkpt>
      <trkpt lat="43.64604" lon="5.82404">
        <ele>401</ele>
        <time>2016-04-10T07:09:52.102Z</time>
      </trkpt>
      <trkpt lat="43.64599" lon="5.82399">
        <ele>401</ele>
        <time>2016-04-10T07:09:54.155Z</time>
      </trkpt>
      <trkpt lat="43.64597" lon="5.82396">
        <ele>401</ele>
        <time>2016-04-10T07:09:55.098Z</time>
      </trkpt>
      <trkpt lat="43.64591" lon="5.82386">
        <ele>401</ele>
        <time>2016-04-10T07:09:58.128Z</time>
      </trkpt>
      <trkpt lat="43.6459" lon="5.82384">
        <ele>401</ele>
        <time>2016-04-10T07:09:59.105Z</time>
      </trkpt>
      <trkpt lat="43.6459" lon="5.82374">
        <ele>411</ele>
        <time>2016-04-10T07:11:30.128Z</time>
      </trkpt>
      <trkpt lat="43.64589" lon="5.8237">
        <ele>411</ele>
        <time>2016-04-10T07:11:31.127Z</time>
      </trkpt>
      <trkpt lat="43.64586" lon="5.8236">
        <ele>410</ele>
        <time>2016-04-10T07:11:34.129Z</time>
      </trkpt>
      <trkpt lat="43.64585" lon="5.82356">
        <ele>409</ele>
        <time>2016-04-10T07:11:35.325Z</time>
      </trkpt>
      <trkpt lat="43.64584" lon="5.82344">
        <ele>409</ele>
        <time>2016-04-10T07:11:38.128Z</time>
      </trkpt>
      <trkpt lat="43.64583" lon="5.8234">
        <ele>409</ele>
        <time>2016-04-10T07:11:39.102Z</time>
      </trkpt>
      <trkpt lat="43.64582" lon="5.82332">
        <ele>408</ele>
        <time>2016-04-10T07:11:41.128Z</time>
      </trkpt>
      <trkpt lat="43.64581" lon="5.82327">
        <ele>408</ele>
        <time>2016-04-10T07:11:42.125Z</time>
      </trkpt>
      <trkpt lat="43.64581" lon="5.82319">
        <ele>408</ele>
        <time>2016-04-10T07:11:44.140Z</time>
      </trkpt>
      <trkpt lat="43.64581" lon="5.82315">
        <ele>408</ele>
        <time>2016-04-10T07:11:45.106Z</time>
      </trkpt>
      <trkpt lat="43.64579" lon="5.82306">
        <ele>408</ele>
        <time>2016-04-10T07:11:47.204Z</time>
      </trkpt>
      <trkpt lat="43.64579" lon="5.82302">
        <ele>408</ele>
        <time>2016-04-10T07:11:48.103Z</time>
      </trkpt>
      <trkpt lat="43.64577" lon="5.82291">
        <ele>407</ele>
        <time>2016-04-10T07:11:50.129Z</time>
      </trkpt>
      <trkpt lat="43.64577" lon="5.82286">
        <ele>407</ele>
        <time>2016-04-10T07:11:51.103Z</time>
      </trkpt>
      <trkpt lat="43.64576" lon="5.82276">
        <ele>407</ele>
        <time>2016-04-10T07:11:53.129Z</time>
      </trkpt>
      <trkpt lat="43.64576" lon="5.82271">
        <ele>407</ele>
        <time>2016-04-10T07:11:54.105Z</time>
      </trkpt>
      <trkpt lat="43.64575" lon="5.82262">
        <ele>406</ele>
        <time>2016-04-10T07:11:56.128Z</time>
      </trkpt>
      <trkpt lat="43.64575" lon="5.82257">
        <ele>406</ele>
        <time>2016-04-10T07:11:57.102Z</time>
      </trkpt>
      <trkpt lat="43.64573" lon="5.82247">
        <ele>406</ele>
        <time>2016-04-10T07:11:59.394Z</time>
      </trkpt>
      <trkpt lat="43.64573" lon="5.82242">
        <ele>405</ele>
        <time>2016-04-10T07:12:00.103Z</time>
      </trkpt>
      <trkpt lat="43.64571" lon="5.82232">
        <ele>404</ele>
        <time>2016-04-10T07:12:02.144Z</time>
      </trkpt>
      <trkpt lat="43.64571" lon="5.82227">
        <ele>404</ele>
        <time>2016-04-10T07:12:03.101Z</time>
      </trkpt>
      <trkpt lat="43.6457" lon="5.82217">
        <ele>404</ele>
        <time>2016-04-10T07:12:05.121Z</time>
      </trkpt>
      <trkpt lat="43.64569" lon="5.82212">
        <ele>403</ele>
        <time>2016-04-10T07:12:06.109Z</time>
      </trkpt>
      <trkpt lat="43.64568" lon="5.82202">
        <ele>402</ele>
        <time>2016-04-10T07:12:08.124Z</time>
      </trkpt>
      <trkpt lat="43.64567" lon="5.82197">
        <ele>402</ele>
        <time>2016-04-10T07:12:09.108Z</time>
      </trkpt>
      <trkpt lat="43.64565" lon="5.82187">
        <ele>402</ele>
        <time>2016-04-10T07:12:11.350Z</time>
      </trkpt>
      <trkpt lat="43.64564" lon="5.82183">
        <ele>402</ele>
        <time>2016-04-10T07:12:12.103Z</time>
      </trkpt>
      <trkpt lat="43.64563" lon="5.82173">
        <ele>403</ele>
        <time>2016-04-10T07:12:14.164Z</time>
      </trkpt>
      <trkpt lat="43.64563" lon="5.8217">
        <ele>403</ele>
        <time>2016-04-10T07:12:15.105Z</time>
      </trkpt>
      <trkpt lat="43.64562" lon="5.82161">
        <ele>403</ele>
        <time>2016-04-10T07:12:17.242Z</time>
      </trkpt>
      <trkpt lat="43.64561" lon="5.82157">
        <ele>403</ele>
        <time>2016-04-10T07:12:18.104Z</time>
      </trkpt>
      <trkpt lat="43.64561" lon="5.82147">
        <ele>402</ele>
        <time>2016-04-10T07:12:20.129Z</time>
      </trkpt>
      <trkpt lat="43.64561" lon="5.82142">
        <ele>403</ele>
        <time>2016-04-10T07:12:21.103Z</time>
      </trkpt>
      <trkpt lat="43.64563" lon="5.82132">
        <ele>404</ele>
        <time>2016-04-10T07:12:23.128Z</time>
      </trkpt>
      <trkpt lat="43.64564" lon="5.82127">
        <ele>404</ele>
        <time>2016-04-10T07:12:24.103Z</time>
      </trkpt>
      <trkpt lat="43.64566" lon="5.82117">
        <ele>404</ele>
        <time>2016-04-10T07:12:26.128Z</time>
      </trkpt>
      <trkpt lat="43.64567" lon="5.82112">
        <ele>404</ele>
        <time>2016-04-10T07:12:27.104Z</time>
      </trkpt>
      <trkpt lat="43.6457" lon="5.82102">
        <ele>403</ele>
        <time>2016-04-10T07:12:29.123Z</time>
      </trkpt>
      <trkpt lat="43.64572" lon="5.82098">
        <ele>403</ele>
        <time>2016-04-10T07:12:30.102Z</time>
      </trkpt>
      <trkpt lat="43.64575" lon="5.82089">
        <ele>403</ele>
        <time>2016-04-10T07:12:32.123Z</time>
      </trkpt>
      <trkpt lat="43.64577" lon="5.82084">
        <ele>403</ele>
        <time>2016-04-10T07:12:33.104Z</time>
      </trkpt>
      <trkpt lat="43.64583" lon="5.82078">
        <ele>404</ele>
        <time>2016-04-10T07:12:35.129Z</time>
      </trkpt>
      <trkpt lat="43.64586" lon="5.82075">
        <ele>404</ele>
        <time>2016-04-10T07:12:36.128Z</time>
      </trkpt>
      <trkpt lat="43.64594" lon="5.82071">
        <ele>405</ele>
        <time>2016-04-10T07:12:38.130Z</time>
      </trkpt>
      <trkpt lat="43.64598" lon="5.8207">
        <ele>405</ele>
        <time>2016-04-10T07:12:39.104Z</time>
      </trkpt>
      <trkpt lat="43.64606" lon="5.82069">
        <ele>405</ele>
        <time>2016-04-10T07:12:41.128Z</time>
      </trkpt>
      <trkpt lat="43.6461" lon="5.82068">
        <ele>405</ele>
        <time>2016-04-10T07:12:42.103Z</time>
      </trkpt>
      <trkpt lat="43.64617" lon="5.82066">
        <ele>406</ele>
        <time>2016-04-10T07:12:44.129Z</time>
      </trkpt>
      <trkpt lat="43.64621" lon="5.82065">
        <ele>405</ele>
        <time>2016-04-10T07:12:45.104Z</time>
      </trkpt>
      <trkpt lat="43.64629" lon="5.82062">
        <ele>405</ele>
        <time>2016-04-10T07:12:47.148Z</time>
      </trkpt>
      <trkpt lat="43.64632" lon="5.82061">
        <ele>405</ele>
        <time>2016-04-10T07:12:48.102Z</time>
      </trkpt>
      <trkpt lat="43.6464" lon="5.82055">
        <ele>408</ele>
        <time>2016-04-10T07:14:09.128Z</time>
      </trkpt>
      <trkpt lat="43.6464" lon="5.82054">
        <ele>408</ele>
        <time>2016-04-10T07:14:10.104Z</time>
      </trkpt>
      <trkpt lat="43.64641" lon="5.82043">
        <ele>408</ele>
        <time>2016-04-10T07:14:16.127Z</time>
      </trkpt>
      <trkpt lat="43.64642" lon="5.82041">
        <ele>408</ele>
        <time>2016-04-10T07:14:17.104Z</time>
      </trkpt>
      <trkpt lat="43.64643" lon="5.82032">
        <ele>408</ele>
        <time>2016-04-10T07:14:21.138Z</time>
      </trkpt>
      <trkpt lat="43.64644" lon="5.82029">
        <ele>407</ele>
        <time>2016-04-10T07:14:22.103Z</time>
      </trkpt>
      <trkpt lat="43.64645" lon="5.82018">
        <ele>408</ele>
        <time>2016-04-10T07:14:26.128Z</time>
      </trkpt>
      <trkpt lat="43.64645" lon="5.82015">
        <ele>408</ele>
        <time>2016-04-10T07:14:27.102Z</time>
      </trkpt>
      <trkpt lat="43.64641" lon="5.82006">
        <ele>407</ele>
        <time>2016-04-10T07:14:31.129Z</time>
      </trkpt>
      <trkpt lat="43.64639" lon="5.82004">
        <ele>407</ele>
        <time>2016-04-10T07:14:32.105Z</time>
      </trkpt>
      <trkpt lat="43.64636" lon="5.81993">
        <ele>407</ele>
        <time>2016-04-10T07:14:36.130Z</time>
      </trkpt>
      <trkpt lat="43.64634" lon="5.8199">
        <ele>407</ele>
        <time>2016-04-10T07:14:37.103Z</time>
      </trkpt>
      <trkpt lat="43.64631" lon="5.81981">
        <ele>406</ele>
        <time>2016-04-10T07:14:40.155Z</time>
      </trkpt>
      <trkpt lat="43.6463" lon="5.81978">
        <ele>406</ele>
        <time>2016-04-10T07:14:41.102Z</time>
      </trkpt>
      <trkpt lat="43.64627" lon="5.8197">
        <ele>406</ele>
        <time>2016-04-10T07:14:44.129Z</time>
      </trkpt>
      <trkpt lat="43.64626" lon="5.81967">
        <ele>406</ele>
        <time>2016-04-10T07:14:45.104Z</time>
      </trkpt>
      <trkpt lat="43.64622" lon="5.81959">
        <ele>406</ele>
        <time>2016-04-10T07:14:48.128Z</time>
      </trkpt>
      <trkpt lat="43.6462" lon="5.81957">
        <ele>406</ele>
        <time>2016-04-10T07:14:49.115Z</time>
      </trkpt>
      <trkpt lat="43.64612" lon="5.81952">
        <ele>407</ele>
        <time>2016-04-10T07:14:53.129Z</time>
      </trkpt>
      <trkpt lat="43.64609" lon="5.81953">
        <ele>407</ele>
        <time>2016-04-10T07:14:54.103Z</time>
      </trkpt>
      <trkpt lat="43.64601" lon="5.81956">
        <ele>407</ele>
        <time>2016-04-10T07:14:57.128Z</time>
      </trkpt>
      <trkpt lat="43.64598" lon="5.81958">
        <ele>407</ele>
        <time>2016-04-10T07:14:58.104Z</time>
      </trkpt>
      <trkpt lat="43.64591" lon="5.81962">
        <ele>408</ele>
        <time>2016-04-10T07:15:01.130Z</time>
      </trkpt>
      <trkpt lat="43.64588" lon="5.81964">
        <ele>407</ele>
        <time>2016-04-10T07:15:02.103Z</time>
      </trkpt>
      <trkpt lat="43.6458" lon="5.81968">
        <ele>408</ele>
        <time>2016-04-10T07:15:05.252Z</time>
      </trkpt>
      <trkpt lat="43.64577" lon="5.8197">
        <ele>408</ele>
        <time>2016-04-10T07:15:06.104Z</time>
      </trkpt>
      <trkpt lat="43.64571" lon="5.81972">
        <ele>409</ele>
        <time>2016-04-10T07:15:08.140Z</time>
      </trkpt>
      <trkpt lat="43.64568" lon="5.81972">
        <ele>409</ele>
        <time>2016-04-10T07:15:09.105Z</time>
      </trkpt>
      <trkpt lat="43.64561" lon="5.81972">
        <ele>408</ele>
        <time>2016-04-10T07:15:11.128Z</time>
      </trkpt>
      <trkpt lat="43.64557" lon="5.81972">
        <ele>408</ele>
        <time>2016-04-10T07:15:12.130Z</time>
      </trkpt>
      <trkpt lat="43.6455" lon="5.81972">
        <ele>408</ele>
        <time>2016-04-10T07:15:14.129Z</time>
      </trkpt>
      <trkpt lat="43.64546" lon="5.81972">
        <ele>408</ele>
        <time>2016-04-10T07:15:15.104Z</time>
      </trkpt>
      <trkpt lat="43.64539" lon="5.81971">
        <ele>407</ele>
        <time>2016-04-10T07:15:17.130Z</time>
      </trkpt>
      <trkpt lat="43.64535" lon="5.81971">
        <ele>407</ele>
        <time>2016-04-10T07:15:18.103Z</time>
      </trkpt>
      <trkpt lat="43.64528" lon="5.81971">
        <ele>407</ele>
        <time>2016-04-10T07:15:20.128Z</time>
      </trkpt>
      <trkpt lat="43.64524" lon="5.81971">
        <ele>406</ele>
        <time>2016-04-10T07:15:21.106Z</time>
      </trkpt>
      <trkpt lat="43.64517" lon="5.81969">
        <ele>405</ele>
        <time>2016-04-10T07:15:23.130Z</time>
      </trkpt>
      <trkpt lat="43.64514" lon="5.81968">
        <ele>405</ele>
        <time>2016-04-10T07:15:24.104Z</time>
      </trkpt>
      <trkpt lat="43.64508" lon="5.81962">
        <ele>405</ele>
        <time>2016-04-10T07:15:26.131Z</time>
      </trkpt>
      <trkpt lat="43.64505" lon="5.81958">
        <ele>405</ele>
        <time>2016-04-10T07:15:27.102Z</time>
      </trkpt>
      <trkpt lat="43.64502" lon="5.81948">
        <ele>404</ele>
        <time>2016-04-10T07:15:29.205Z</time>
      </trkpt>
      <trkpt lat="43.64501" lon="5.81943">
        <ele>404</ele>
        <time>2016-04-10T07:15:30.104Z</time>
      </trkpt>
      <trkpt lat="43.64499" lon="5.81934">
        <ele>404</ele>
        <time>2016-04-10T07:15:32.121Z</time>
      </trkpt>
      <trkpt lat="43.64497" lon="5.81929">
        <ele>404</ele>
        <time>2016-04-10T07:15:33.102Z</time>
      </trkpt>
      <trkpt lat="43.64495" lon="5.8192">
        <ele>404</ele>
        <time>2016-04-10T07:15:35.129Z</time>
      </trkpt>
      <trkpt lat="43.64494" lon="5.81916">
        <ele>404</ele>
        <time>2016-04-10T07:15:36.105Z</time>
      </trkpt>
      <trkpt lat="43.64491" lon="5.81907">
        <ele>404</ele>
        <time>2016-04-10T07:15:38.138Z</time>
      </trkpt>
      <trkpt lat="43.6449" lon="5.81903">
        <ele>404</ele>
        <time>2016-04-10T07:15:39.100Z</time>
      </trkpt>
      <trkpt lat="43.64487" lon="5.81894">
        <ele>404</ele>
        <time>2016-04-10T07:15:41.128Z</time>
      </trkpt>
      <trkpt lat="43.64486" lon="5.8189">
        <ele>404</ele>
        <time>2016-04-10T07:15:42.106Z</time>
      </trkpt>
      <trkpt lat="43.64483" lon="5.81881">
        <ele>404</ele>
        <time>2016-04-10T07:15:44.154Z</time>
      </trkpt>
      <trkpt lat="43.64482" lon="5.81876">
        <ele>404</ele>
        <time>2016-04-10T07:15:45.103Z</time>
      </trkpt>
      <trkpt lat="43.6448" lon="5.81867">
        <ele>404</ele>
        <time>2016-04-10T07:15:47.192Z</time>
      </trkpt>
      <trkpt lat="43.64479" lon="5.81862">
        <ele>404</ele>
        <time>2016-04-10T07:15:48.104Z</time>
      </trkpt>
      <trkpt lat="43.64479" lon="5.81852">
        <ele>404</ele>
        <time>2016-04-10T07:15:50.128Z</time>
      </trkpt>
      <trkpt lat="43.64479" lon="5.81847">
        <ele>404</ele>
        <time>2016-04-10T07:15:51.106Z</time>
      </trkpt>
      <trkpt lat="43.64481" lon="5.81837">
        <ele>404</ele>
        <time>2016-04-10T07:15:53.129Z</time>
      </trkpt>
      <trkpt lat="43.64482" lon="5.81832">
        <ele>404</ele>
        <time>2016-04-10T07:15:54.103Z</time>
      </trkpt>
      <trkpt lat="43.64483" lon="5.81822">
        <ele>404</ele>
        <time>2016-04-10T07:15:56.139Z</time>
      </trkpt>
      <trkpt lat="43.64484" lon="5.81817">
        <ele>405</ele>
        <time>2016-04-10T07:15:57.105Z</time>
      </trkpt>
      <trkpt lat="43.64486" lon="5.81808">
        <ele>405</ele>
        <time>2016-04-10T07:15:59.127Z</time>
      </trkpt>
      <trkpt lat="43.64487" lon="5.81803">
        <ele>404</ele>
        <time>2016-04-10T07:16:00.132Z</time>
      </trkpt>
      <trkpt lat="43.64487" lon="5.81793">
        <ele>405</ele>
        <time>2016-04-10T07:16:02.130Z</time>
      </trkpt>
      <trkpt lat="43.64486" lon="5.81788">
        <ele>405</ele>
        <time>2016-04-10T07:16:03.106Z</time>
      </trkpt>
      <trkpt lat="43.64482" lon="5.8178">
        <ele>405</ele>
        <time>2016-04-10T07:16:05.130Z</time>
      </trkpt>
      <trkpt lat="43.64479" lon="5.81777">
        <ele>405</ele>
        <time>2016-04-10T07:16:06.106Z</time>
      </trkpt>
      <trkpt lat="43.64473" lon="5.81771">
        <ele>405</ele>
        <time>2016-04-10T07:16:08.208Z</time>
      </trkpt>
      <trkpt lat="43.64471" lon="5.81768">
        <ele>405</ele>
        <time>2016-04-10T07:16:09.102Z</time>
      </trkpt>
      <trkpt lat="43.64467" lon="5.81757">
        <ele>408</ele>
        <time>2016-04-10T07:16:55.130Z</time>
      </trkpt>
      <trkpt lat="43.64466" lon="5.81755">
        <ele>407</ele>
        <time>2016-04-10T07:16:56.107Z</time>
      </trkpt>
      <trkpt lat="43.64461" lon="5.81745">
        <ele>407</ele>
        <time>2016-04-10T07:17:00.142Z</time>
      </trkpt>
      <trkpt lat="43.6446" lon="5.81743">
        <ele>407</ele>
        <time>2016-04-10T07:17:01.104Z</time>
      </trkpt>
      <trkpt lat="43.64456" lon="5.81735">
        <ele>406</ele>
        <time>2016-04-10T07:17:04.131Z</time>
      </trkpt>
      <trkpt lat="43.64454" lon="5.81733">
        <ele>406</ele>
        <time>2016-04-10T07:17:05.104Z</time>
      </trkpt>
      <trkpt lat="43.6445" lon="5.81725">
        <ele>406</ele>
        <time>2016-04-10T07:17:08.128Z</time>
      </trkpt>
      <trkpt lat="43.64449" lon="5.81722">
        <ele>406</ele>
        <time>2016-04-10T07:17:09.104Z</time>
      </trkpt>
      <trkpt lat="43.64446" lon="5.81715">
        <ele>406</ele>
        <time>2016-04-10T07:17:11.130Z</time>
      </trkpt>
      <trkpt lat="43.64444" lon="5.81711">
        <ele>406</ele>
        <time>2016-04-10T07:17:12.107Z</time>
      </trkpt>
      <trkpt lat="43.64443" lon="5.81702">
        <ele>406</ele>
        <time>2016-04-10T07:17:14.127Z</time>
      </trkpt>
      <trkpt lat="43.64443" lon="5.81698">
        <ele>406</ele>
        <time>2016-04-10T07:17:15.105Z</time>
      </trkpt>
      <trkpt lat="43.64443" lon="5.81689">
        <ele>405</ele>
        <time>2016-04-10T07:17:17.131Z</time>
      </trkpt>
      <trkpt lat="43.64442" lon="5.81685">
        <ele>405</ele>
        <time>2016-04-10T07:17:18.106Z</time>
      </trkpt>
      <trkpt lat="43.64442" lon="5.81675">
        <ele>405</ele>
        <time>2016-04-10T07:17:20.129Z</time>
      </trkpt>
      <trkpt lat="43.64441" lon="5.81671">
        <ele>406</ele>
        <time>2016-04-10T07:17:21.132Z</time>
      </trkpt>
      <trkpt lat="43.64441" lon="5.81661">
        <ele>406</ele>
        <time>2016-04-10T07:17:23.124Z</time>
      </trkpt>
      <trkpt lat="43.64441" lon="5.81656">
        <ele>406</ele>
        <time>2016-04-10T07:17:24.106Z</time>
      </trkpt>
      <trkpt lat="43.6444" lon="5.81647">
        <ele>406</ele>
        <time>2016-04-10T07:17:26.131Z</time>
      </trkpt>
      <trkpt lat="43.64439" lon="5.81642">
        <ele>406</ele>
        <time>2016-04-10T07:17:27.104Z</time>
      </trkpt>
      <trkpt lat="43.64439" lon="5.81633">
        <ele>406</ele>
        <time>2016-04-10T07:17:29.131Z</time>
      </trkpt>
      <trkpt lat="43.64439" lon="5.81629">
        <ele>406</ele>
        <time>2016-04-10T07:17:30.106Z</time>
      </trkpt>
      <trkpt lat="43.64437" lon="5.8162">
        <ele>406</ele>
        <time>2016-04-10T07:17:33.129Z</time>
      </trkpt>
      <trkpt lat="43.64437" lon="5.81616">
        <ele>406</ele>
        <time>2016-04-10T07:17:34.114Z</time>
      </trkpt>
      <trkpt lat="43.64436" lon="5.81605">
        <ele>405</ele>
        <time>2016-04-10T07:17:36.130Z</time>
      </trkpt>
      <trkpt lat="43.64436" lon="5.816">
        <ele>405</ele>
        <time>2016-04-10T07:17:37.104Z</time>
      </trkpt>
      <trkpt lat="43.64435" lon="5.81588">
        <ele>405</ele>
        <time>2016-04-10T07:17:39.139Z</time>
      </trkpt>
      <trkpt lat="43.64434" lon="5.81583">
        <ele>406</ele>
        <time>2016-04-10T07:17:40.104Z</time>
      </trkpt>
      <trkpt lat="43.64434" lon="5.81572">
        <ele>405</ele>
        <time>2016-04-10T07:17:42.131Z</time>
      </trkpt>
      <trkpt lat="43.64433" lon="5.81566">
        <ele>405</ele>
        <time>2016-04-10T07:17:43.105Z</time>
      </trkpt>
      <trkpt lat="43.64432" lon="5.81556">
        <ele>405</ele>
        <time>2016-04-10T07:17:45.129Z</time>
      </trkpt>
      <trkpt lat="43.64432" lon="5.81551">
        <ele>405</ele>
        <time>2016-04-10T07:17:46.106Z</time>
      </trkpt>
      <trkpt lat="43.64431" lon="5.81541">
        <ele>405</ele>
        <time>2016-04-10T07:17:48.156Z</time>
      </trkpt>
      <trkpt lat="43.64431" lon="5.81536">
        <ele>405</ele>
        <time>2016-04-10T07:17:49.106Z</time>
      </trkpt>
      <trkpt lat="43.6443" lon="5.81526">
        <ele>405</ele>
        <time>2016-04-10T07:17:51.131Z</time>
      </trkpt>
      <trkpt lat="43.6443" lon="5.81521">
        <ele>404</ele>
        <time>2016-04-10T07:17:52.106Z</time>
      </trkpt>
      <trkpt lat="43.64429" lon="5.81512">
        <ele>404</ele>
        <time>2016-04-10T07:17:54.130Z</time>
      </trkpt>
      <trkpt lat="43.64428" lon="5.81507">
        <ele>403</ele>
        <time>2016-04-10T07:17:55.104Z</time>
      </trkpt>
      <trkpt lat="43.64428" lon="5.81499">
        <ele>403</ele>
        <time>2016-04-10T07:17:57.130Z</time>
      </trkpt>
      <trkpt lat="43.64428" lon="5.81494">
        <ele>403</ele>
        <time>2016-04-10T07:17:58.104Z</time>
      </trkpt>
      <trkpt lat="43.64428" lon="5.81485">
        <ele>404</ele>
        <time>2016-04-10T07:18:00.130Z</time>
      </trkpt>
      <trkpt lat="43.64429" lon="5.81481">
        <ele>404</ele>
        <time>2016-04-10T07:18:01.105Z</time>
      </trkpt>
      <trkpt lat="43.64432" lon="5.81472">
        <ele>404</ele>
        <time>2016-04-10T07:18:03.131Z</time>
      </trkpt>
      <trkpt lat="43.64433" lon="5.81468">
        <ele>404</ele>
        <time>2016-04-10T07:18:04.107Z</time>
      </trkpt>
      <trkpt lat="43.64435" lon="5.81459">
        <ele>404</ele>
        <time>2016-04-10T07:18:06.130Z</time>
      </trkpt>
      <trkpt lat="43.64436" lon="5.81455">
        <ele>404</ele>
        <time>2016-04-10T07:18:07.102Z</time>
      </trkpt>
      <trkpt lat="43.64438" lon="5.81446">
        <ele>404</ele>
        <time>2016-04-10T07:18:09.385Z</time>
      </trkpt>
      <trkpt lat="43.64439" lon="5.81442">
        <ele>404</ele>
        <time>2016-04-10T07:18:10.102Z</time>
      </trkpt>
      <trkpt lat="43.64441" lon="5.81433">
        <ele>404</ele>
        <time>2016-04-10T07:18:12.170Z</time>
      </trkpt>
      <trkpt lat="43.64443" lon="5.81428">
        <ele>405</ele>
        <time>2016-04-10T07:18:13.105Z</time>
      </trkpt>
      <trkpt lat="43.64445" lon="5.8142">
        <ele>405</ele>
        <time>2016-04-10T07:18:15.131Z</time>
      </trkpt>
      <trkpt lat="43.64446" lon="5.81415">
        <ele>405</ele>
        <time>2016-04-10T07:18:16.106Z</time>
      </trkpt>
      <trkpt lat="43.64449" lon="5.81406">
        <ele>406</ele>
        <time>2016-04-10T07:18:18.130Z</time>
      </trkpt>
      <trkpt lat="43.6445" lon="5.81401">
        <ele>406</ele>
        <time>2016-04-10T07:18:19.109Z</time>
      </trkpt>
      <trkpt lat="43.64449" lon="5.81392">
        <ele>405</ele>
        <time>2016-04-10T07:18:30.133Z</time>
      </trkpt>
      <trkpt lat="43.64449" lon="5.81388">
        <ele>406</ele>
        <time>2016-04-10T07:18:31.105Z</time>
      </trkpt>
      <trkpt lat="43.64448" lon="5.81378">
        <ele>405</ele>
        <time>2016-04-10T07:18:34.131Z</time>
      </trkpt>
      <trkpt lat="43.64447" lon="5.81374">
        <ele>405</ele>
        <time>2016-04-10T07:18:35.330Z</time>
      </trkpt>
      <trkpt lat="43.64447" lon="5.81362">
        <ele>405</ele>
        <time>2016-04-10T07:18:38.130Z</time>
      </trkpt>
      <trkpt lat="43.64446" lon="5.81357">
        <ele>405</ele>
        <time>2016-04-10T07:18:39.106Z</time>
      </trkpt>
      <trkpt lat="43.64446" lon="5.81348">
        <ele>404</ele>
        <time>2016-04-10T07:18:41.129Z</time>
      </trkpt>
      <trkpt lat="43.64446" lon="5.81344">
        <ele>404</ele>
        <time>2016-04-10T07:18:42.102Z</time>
      </trkpt>
      <trkpt lat="43.64446" lon="5.81335">
        <ele>404</ele>
        <time>2016-04-10T07:18:44.130Z</time>
      </trkpt>
      <trkpt lat="43.64445" lon="5.8133">
        <ele>404</ele>
        <time>2016-04-10T07:18:45.106Z</time>
      </trkpt>
      <trkpt lat="43.64445" lon="5.81321">
        <ele>404</ele>
        <time>2016-04-10T07:18:47.358Z</time>
      </trkpt>
      <trkpt lat="43.64445" lon="5.81317">
        <ele>404</ele>
        <time>2016-04-10T07:18:48.102Z</time>
      </trkpt>
      <trkpt lat="43.64445" lon="5.81307">
        <ele>404</ele>
        <time>2016-04-10T07:18:50.131Z</time>
      </trkpt>
      <trkpt lat="43.64445" lon="5.81302">
        <ele>404</ele>
        <time>2016-04-10T07:18:51.103Z</time>
      </trkpt>
      <trkpt lat="43.64445" lon="5.81293">
        <ele>404</ele>
        <time>2016-04-10T07:18:53.130Z</time>
      </trkpt>
      <trkpt lat="43.64444" lon="5.81288">
        <ele>405</ele>
        <time>2016-04-10T07:18:54.106Z</time>
      </trkpt>
      <trkpt lat="43.64444" lon="5.81278">
        <ele>405</ele>
        <time>2016-04-10T07:18:56.132Z</time>
      </trkpt>
      <trkpt lat="43.64444" lon="5.81273">
        <ele>405</ele>
        <time>2016-04-10T07:18:57.105Z</time>
      </trkpt>
      <trkpt lat="43.64444" lon="5.81263">
        <ele>405</ele>
        <time>2016-04-10T07:18:59.360Z</time>
      </trkpt>
      <trkpt lat="43.64444" lon="5.81258">
        <ele>405</ele>
        <time>2016-04-10T07:19:00.104Z</time>
      </trkpt>
      <trkpt lat="43.64443" lon="5.81248">
        <ele>405</ele>
        <time>2016-04-10T07:19:02.141Z</time>
      </trkpt>
      <trkpt lat="43.64443" lon="5.81243">
        <ele>405</ele>
        <time>2016-04-10T07:19:03.105Z</time>
      </trkpt>
      <trkpt lat="43.64443" lon="5.81233">
        <ele>404</ele>
        <time>2016-04-10T07:19:05.128Z</time>
      </trkpt>
      <trkpt lat="43.64443" lon="5.81228">
        <ele>404</ele>
        <time>2016-04-10T07:19:06.106Z</time>
      </trkpt>
      <trkpt lat="43.64443" lon="5.81219">
        <ele>404</ele>
        <time>2016-04-10T07:19:08.157Z</time>
      </trkpt>
      <trkpt lat="43.64442" lon="5.81215">
        <ele>404</ele>
        <time>2016-04-10T07:19:09.109Z</time>
      </trkpt>
      <trkpt lat="43.64442" lon="5.81203">
        <ele>403</ele>
        <time>2016-04-10T07:19:12.139Z</time>
      </trkpt>
      <trkpt lat="43.64442" lon="5.81199">
        <ele>403</ele>
        <time>2016-04-10T07:19:13.111Z</time>
      </trkpt>
      <trkpt lat="43.64442" lon="5.8119">
        <ele>403</ele>
        <time>2016-04-10T07:19:15.137Z</time>
      </trkpt>
      <trkpt lat="43.64441" lon="5.81185">
        <ele>403</ele>
        <time>2016-04-10T07:19:16.108Z</time>
      </trkpt>
      <trkpt lat="43.6444" lon="5.81175">
        <ele>402</ele>
        <time>2016-04-10T07:19:18.138Z</time>
      </trkpt>
      <trkpt lat="43.64439" lon="5.8117">
        <ele>402</ele>
        <time>2016-04-10T07:19:19.105Z</time>
      </trkpt>
      <trkpt lat="43.64437" lon="5.8116">
        <ele>403</ele>
        <time>2016-04-10T07:19:21.128Z</time>
      </trkpt>
      <trkpt lat="43.64437" lon="5.81155">
        <ele>402</ele>
        <time>2016-04-10T07:19:22.105Z</time>
      </trkpt>
      <trkpt lat="43.64435" lon="5.81145">
        <ele>402</ele>
        <time>2016-04-10T07:19:24.126Z</time>
      </trkpt>
      <trkpt lat="43.64434" lon="5.81141">
        <ele>402</ele>
        <time>2016-04-10T07:19:25.103Z</time>
      </trkpt>
      <trkpt lat="43.64433" lon="5.81132">
        <ele>403</ele>
        <time>2016-04-10T07:19:27.130Z</time>
      </trkpt>
      <trkpt lat="43.64432" lon="5.81128">
        <ele>402</ele>
        <time>2016-04-10T07:19:28.108Z</time>
      </trkpt>
      <trkpt lat="43.64431" lon="5.81119">
        <ele>402</ele>
        <time>2016-04-10T07:19:30.137Z</time>
      </trkpt>
      <trkpt lat="43.6443" lon="5.81115">
        <ele>402</ele>
        <time>2016-04-10T07:19:31.107Z</time>
      </trkpt>
      <trkpt lat="43.64429" lon="5.81106">
        <ele>402</ele>
        <time>2016-04-10T07:19:33.134Z</time>
      </trkpt>
      <trkpt lat="43.64429" lon="5.81102">
        <ele>403</ele>
        <time>2016-04-10T07:19:34.113Z</time>
      </trkpt>
      <trkpt lat="43.64428" lon="5.81093">
        <ele>402</ele>
        <time>2016-04-10T07:19:36.133Z</time>
      </trkpt>
      <trkpt lat="43.64427" lon="5.81089">
        <ele>402</ele>
        <time>2016-04-10T07:19:37.110Z</time>
      </trkpt>
      <trkpt lat="43.64426" lon="5.8108">
        <ele>402</ele>
        <time>2016-04-10T07:19:39.121Z</time>
      </trkpt>
      <trkpt lat="43.64425" lon="5.81076">
        <ele>403</ele>
        <time>2016-04-10T07:19:40.094Z</time>
      </trkpt>
      <trkpt lat="43.64424" lon="5.81067">
        <ele>404</ele>
        <time>2016-04-10T07:19:42.158Z</time>
      </trkpt>
      <trkpt lat="43.64424" lon="5.81062">
        <ele>403</ele>
        <time>2016-04-10T07:19:43.109Z</time>
      </trkpt>
      <trkpt lat="43.64423" lon="5.81053">
        <ele>404</ele>
        <time>2016-04-10T07:19:45.134Z</time>
      </trkpt>
      <trkpt lat="43.64423" lon="5.81048">
        <ele>404</ele>
        <time>2016-04-10T07:19:46.136Z</time>
      </trkpt>
      <trkpt lat="43.64422" lon="5.81037">
        <ele>404</ele>
        <time>2016-04-10T07:19:48.132Z</time>
      </trkpt>
      <trkpt lat="43.64422" lon="5.81032">
        <ele>405</ele>
        <time>2016-04-10T07:19:49.108Z</time>
      </trkpt>
      <trkpt lat="43.64422" lon="5.81022">
        <ele>405</ele>
        <time>2016-04-10T07:19:51.131Z</time>
      </trkpt>
      <trkpt lat="43.64421" lon="5.81017">
        <ele>404</ele>
        <time>2016-04-10T07:19:52.107Z</time>
      </trkpt>
      <trkpt lat="43.6442" lon="5.81007">
        <ele>404</ele>
        <time>2016-04-10T07:19:54.136Z</time>
      </trkpt>
      <trkpt lat="43.6442" lon="5.81001">
        <ele>403</ele>
        <time>2016-04-10T07:19:55.102Z</time>
      </trkpt>
      <trkpt lat="43.64419" lon="5.80991">
        <ele>404</ele>
        <time>2016-04-10T07:19:57.155Z</time>
      </trkpt>
      <trkpt lat="43.64419" lon="5.80987">
        <ele>403</ele>
        <time>2016-04-10T07:19:58.105Z</time>
      </trkpt>
      <trkpt lat="43.64419" lon="5.80977">
        <ele>403</ele>
        <time>2016-04-10T07:20:00.136Z</time>
      </trkpt>
      <trkpt lat="43.64419" lon="5.80972">
        <ele>403</ele>
        <time>2016-04-10T07:20:01.104Z</time>
      </trkpt>
      <trkpt lat="43.64419" lon="5.80962">
        <ele>403</ele>
        <time>2016-04-10T07:20:03.129Z</time>
      </trkpt>
      <trkpt lat="43.64418" lon="5.80958">
        <ele>403</ele>
        <time>2016-04-10T07:20:04.106Z</time>
      </trkpt>
      <trkpt lat="43.6442" lon="5.80945">
        <ele>403</ele>
        <time>2016-04-10T07:20:07.136Z</time>
      </trkpt>
      <trkpt lat="43.6442" lon="5.80941">
        <ele>403</ele>
        <time>2016-04-10T07:20:08.131Z</time>
      </trkpt>
      <trkpt lat="43.64421" lon="5.80933">
        <ele>403</ele>
        <time>2016-04-10T07:20:10.131Z</time>
      </trkpt>
      <trkpt lat="43.64422" lon="5.80928">
        <ele>402</ele>
        <time>2016-04-10T07:20:11.104Z</time>
      </trkpt>
      <trkpt lat="43.64423" lon="5.80919">
        <ele>403</ele>
        <time>2016-04-10T07:20:13.130Z</time>
      </trkpt>
      <trkpt lat="43.64424" lon="5.80914">
        <ele>403</ele>
        <time>2016-04-10T07:20:14.105Z</time>
      </trkpt>
      <trkpt lat="43.64425" lon="5.80905">
        <ele>403</ele>
        <time>2016-04-10T07:20:16.130Z</time>
      </trkpt>
      <trkpt lat="43.64426" lon="5.809">
        <ele>403</ele>
        <time>2016-04-10T07:20:17.106Z</time>
      </trkpt>
      <trkpt lat="43.64427" lon="5.80892">
        <ele>404</ele>
        <time>2016-04-10T07:20:19.138Z</time>
      </trkpt>
      <trkpt lat="43.64428" lon="5.80887">
        <ele>403</ele>
        <time>2016-04-10T07:20:20.106Z</time>
      </trkpt>
      <trkpt lat="43.64429" lon="5.80877">
        <ele>403</ele>
        <time>2016-04-10T07:20:22.131Z</time>
      </trkpt>
      <trkpt lat="43.6443" lon="5.80872">
        <ele>403</ele>
        <time>2016-04-10T07:20:23.105Z</time>
      </trkpt>
      <trkpt lat="43.64431" lon="5.80862">
        <ele>403</ele>
        <time>2016-04-10T07:20:25.129Z</time>
      </trkpt>
      <trkpt lat="43.64432" lon="5.80856">
        <ele>403</ele>
        <time>2016-04-10T07:20:26.107Z</time>
      </trkpt>
      <trkpt lat="43.64434" lon="5.80846">
        <ele>402</ele>
        <time>2016-04-10T07:20:28.128Z</time>
      </trkpt>
      <trkpt lat="43.64436" lon="5.80842">
        <ele>403</ele>
        <time>2016-04-10T07:20:29.309Z</time>
      </trkpt>
      <trkpt lat="43.64442" lon="5.80836">
        <ele>404</ele>
        <time>2016-04-10T07:20:31.130Z</time>
      </trkpt>
      <trkpt lat="43.64446" lon="5.80835">
        <ele>405</ele>
        <time>2016-04-10T07:20:32.105Z</time>
      </trkpt>
      <trkpt lat="43.64455" lon="5.80836">
        <ele>405</ele>
        <time>2016-04-10T07:20:34.131Z</time>
      </trkpt>
      <trkpt lat="43.64459" lon="5.80836">
        <ele>406</ele>
        <time>2016-04-10T07:20:35.106Z</time>
      </trkpt>
      <trkpt lat="43.64467" lon="5.80836">
        <ele>406</ele>
        <time>2016-04-10T07:20:37.210Z</time>
      </trkpt>
      <trkpt lat="43.64471" lon="5.80836">
        <ele>406</ele>
        <time>2016-04-10T07:20:38.103Z</time>
      </trkpt>
      <trkpt lat="43.64478" lon="5.80837">
        <ele>406</ele>
        <time>2016-04-10T07:20:40.153Z</time>
      </trkpt>
      <trkpt lat="43.64482" lon="5.80837">
        <ele>407</ele>
        <time>2016-04-10T07:20:41.108Z</time>
      </trkpt>
      <trkpt lat="43.64489" lon="5.80835">
        <ele>407</ele>
        <time>2016-04-10T07:20:43.128Z</time>
      </trkpt>
      <trkpt lat="43.64492" lon="5.80834">
        <ele>407</ele>
        <time>2016-04-10T07:20:44.104Z</time>
      </trkpt>
      <trkpt lat="43.64499" lon="5.80829">
        <ele>407</ele>
        <time>2016-04-10T07:20:46.130Z</time>
      </trkpt>
      <trkpt lat="43.64502" lon="5.80827">
        <ele>407</ele>
        <time>2016-04-10T07:20:47.105Z</time>
      </trkpt>
      <trkpt lat="43.64508" lon="5.80821">
        <ele>407</ele>
        <time>2016-04-10T07:20:49.128Z</time>
      </trkpt>
      <trkpt lat="43.64511" lon="5.80818">
        <ele>407</ele>
        <time>2016-04-10T07:20:50.107Z</time>
      </trkpt>
      <trkpt lat="43.64517" lon="5.80814">
        <ele>407</ele>
        <time>2016-04-10T07:20:52.130Z</time>
      </trkpt>
      <trkpt lat="43.64521" lon="5.80813">
        <ele>407</ele>
        <time>2016-04-10T07:20:53.103Z</time>
      </trkpt>
      <trkpt lat="43.64528" lon="5.80814">
        <ele>407</ele>
        <time>2016-04-10T07:20:55.130Z</time>
      </trkpt>
      <trkpt lat="43.64531" lon="5.80815">
        <ele>408</ele>
        <time>2016-04-10T07:20:56.129Z</time>
      </trkpt>
      <trkpt lat="43.64538" lon="5.80818">
        <ele>408</ele>
        <time>2016-04-10T07:20:58.139Z</time>
      </trkpt>
      <trkpt lat="43.64541" lon="5.80819">
        <ele>408</ele>
        <time>2016-04-10T07:20:59.104Z</time>
      </trkpt>
      <trkpt lat="43.64548" lon="5.80822">
        <ele>408</ele>
        <time>2016-04-10T07:21:01.129Z</time>
      </trkpt>
      <trkpt lat="43.64551" lon="5.80823">
        <ele>409</ele>
        <time>2016-04-10T07:21:02.105Z</time>
      </trkpt>
      <trkpt lat="43.64558" lon="5.80826">
        <ele>408</ele>
        <time>2016-04-10T07:21:04.128Z</time>
      </trkpt>
      <trkpt lat="43.64561" lon="5.80828">
        <ele>409</ele>
        <time>2016-04-10T07:21:05.107Z</time>
      </trkpt>
      <trkpt lat="43.64568" lon="5.80829">
        <ele>407</ele>
        <time>2016-04-10T07:21:07.136Z</time>
      </trkpt>
      <trkpt lat="43.64572" lon="5.8083">
        <ele>407</ele>
        <time>2016-04-10T07:21:08.107Z</time>
      </trkpt>
      <trkpt lat="43.64579" lon="5.80829">
        <ele>406</ele>
        <time>2016-04-10T07:21:10.208Z</time>
      </trkpt>
      <trkpt lat="43.64582" lon="5.80828">
        <ele>405</ele>
        <time>2016-04-10T07:21:11.106Z</time>
      </trkpt>
      <trkpt lat="43.64589" lon="5.80824">
        <ele>405</ele>
        <time>2016-04-10T07:21:13.133Z</time>
      </trkpt>
      <trkpt lat="43.64593" lon="5.80822">
        <ele>406</ele>
        <time>2016-04-10T07:21:14.106Z</time>
      </trkpt>
      <trkpt lat="43.64599" lon="5.80816">
        <ele>406</ele>
        <time>2016-04-10T07:21:16.131Z</time>
      </trkpt>
      <trkpt lat="43.64602" lon="5.80814">
        <ele>406</ele>
        <time>2016-04-10T07:21:17.105Z</time>
      </trkpt>
      <trkpt lat="43.64609" lon="5.80808">
        <ele>404</ele>
        <time>2016-04-10T07:21:19.129Z</time>
      </trkpt>
      <trkpt lat="43.64611" lon="5.80804">
        <ele>404</ele>
        <time>2016-04-10T07:21:20.105Z</time>
      </trkpt>
      <trkpt lat="43.64611" lon="5.80792">
        <ele>407</ele>
        <time>2016-04-10T07:21:38.130Z</time>
      </trkpt>
      <trkpt lat="43.64611" lon="5.80791">
        <ele>408</ele>
        <time>2016-04-10T07:21:39.107Z</time>
      </trkpt>
      <trkpt lat="43.64618" lon="5.80795">
        <ele>408</ele>
        <time>2016-04-10T07:22:54.132Z</time>
      </trkpt>
      <trkpt lat="43.6462" lon="5.80794">
        <ele>407</ele>
        <time>2016-04-10T07:22:55.107Z</time>
      </trkpt>
      <trkpt lat="43.64627" lon="5.80796">
        <ele>407</ele>
        <time>2016-04-10T07:22:58.134Z</time>
      </trkpt>
      <trkpt lat="43.6463" lon="5.80799">
        <ele>407</ele>
        <time>2016-04-10T07:22:59.107Z</time>
      </trkpt>
      <trkpt lat="43.64635" lon="5.80806">
        <ele>406</ele>
        <time>2016-04-10T07:23:01.133Z</time>
      </trkpt>
      <trkpt lat="43.64638" lon="5.8081">
        <ele>406</ele>
        <time>2016-04-10T07:23:02.104Z</time>
      </trkpt>
      <trkpt lat="43.64644" lon="5.80816">
        <ele>405</ele>
        <time>2016-04-10T07:23:04.352Z</time>
      </trkpt>
      <trkpt lat="43.64647" lon="5.80817">
        <ele>406</ele>
        <time>2016-04-10T07:23:05.106Z</time>
      </trkpt>
      <trkpt lat="43.64648" lon="5.80808">
        <ele>405</ele>
        <time>2016-04-10T07:23:09.131Z</time>
      </trkpt>
      <trkpt lat="43.64647" lon="5.80805">
        <ele>405</ele>
        <time>2016-04-10T07:23:10.106Z</time>
      </trkpt>
      <trkpt lat="43.64645" lon="5.80795">
        <ele>405</ele>
        <time>2016-04-10T07:23:12.122Z</time>
      </trkpt>
      <trkpt lat="43.64644" lon="5.8079">
        <ele>405</ele>
        <time>2016-04-10T07:23:13.106Z</time>
      </trkpt>
      <trkpt lat="43.64642" lon="5.80779">
        <ele>404</ele>
        <time>2016-04-10T07:23:15.131Z</time>
      </trkpt>
      <trkpt lat="43.6464" lon="5.80774">
        <ele>403</ele>
        <time>2016-04-10T07:23:16.131Z</time>
      </trkpt>
      <trkpt lat="43.64636" lon="5.80764">
        <ele>402</ele>
        <time>2016-04-10T07:23:18.127Z</time>
      </trkpt>
      <trkpt lat="43.64634" lon="5.80759">
        <ele>401</ele>
        <time>2016-04-10T07:23:19.103Z</time>
      </trkpt>
      <trkpt lat="43.64627" lon="5.80753">
        <ele>401</ele>
        <time>2016-04-10T07:23:21.131Z</time>
      </trkpt>
      <trkpt lat="43.64623" lon="5.80751">
        <ele>400</ele>
        <time>2016-04-10T07:23:22.100Z</time>
      </trkpt>
      <trkpt lat="43.64614" lon="5.80752">
        <ele>400</ele>
        <time>2016-04-10T07:23:24.132Z</time>
      </trkpt>
      <trkpt lat="43.6461" lon="5.80753">
        <ele>400</ele>
        <time>2016-04-10T07:23:25.100Z</time>
      </trkpt>
      <trkpt lat="43.64601" lon="5.80756">
        <ele>399</ele>
        <time>2016-04-10T07:23:27.156Z</time>
      </trkpt>
      <trkpt lat="43.64597" lon="5.80761">
        <ele>399</ele>
        <time>2016-04-10T07:23:28.106Z</time>
      </trkpt>
      <trkpt lat="43.64591" lon="5.80765">
        <ele>398</ele>
        <time>2016-04-10T07:23:30.131Z</time>
      </trkpt>
      <trkpt lat="43.64587" lon="5.80767">
        <ele>398</ele>
        <time>2016-04-10T07:23:31.104Z</time>
      </trkpt>
      <trkpt lat="43.6458" lon="5.80768">
        <ele>398</ele>
        <time>2016-04-10T07:23:34.132Z</time>
      </trkpt>
      <trkpt lat="43.64577" lon="5.8077">
        <ele>398</ele>
        <time>2016-04-10T07:23:35.100Z</time>
      </trkpt>
      <trkpt lat="43.64572" lon="5.80773">
        <ele>397</ele>
        <time>2016-04-10T07:23:36.130Z</time>
      </trkpt>
      <trkpt lat="43.64567" lon="5.80774">
        <ele>396</ele>
        <time>2016-04-10T07:23:37.103Z</time>
      </trkpt>
      <trkpt lat="43.6456" lon="5.80769">
        <ele>395</ele>
        <time>2016-04-10T07:23:39.356Z</time>
      </trkpt>
      <trkpt lat="43.64558" lon="5.80764">
        <ele>395</ele>
        <time>2016-04-10T07:23:40.105Z</time>
      </trkpt>
      <trkpt lat="43.64557" lon="5.80753">
        <ele>393</ele>
        <time>2016-04-10T07:23:42.140Z</time>
      </trkpt>
      <trkpt lat="43.64556" lon="5.80748">
        <ele>392</ele>
        <time>2016-04-10T07:23:43.131Z</time>
      </trkpt>
      <trkpt lat="43.6455" lon="5.80739">
        <ele>391</ele>
        <time>2016-04-10T07:23:45.132Z</time>
      </trkpt>
      <trkpt lat="43.64546" lon="5.80735">
        <ele>390</ele>
        <time>2016-04-10T07:23:46.106Z</time>
      </trkpt>
      <trkpt lat="43.64541" lon="5.80732">
        <ele>390</ele>
        <time>2016-04-10T07:23:47.130Z</time>
      </trkpt>
      <trkpt lat="43.64537" lon="5.80729">
        <ele>390</ele>
        <time>2016-04-10T07:23:48.106Z</time>
      </trkpt>
      <trkpt lat="43.64533" lon="5.80726">
        <ele>388</ele>
        <time>2016-04-10T07:23:49.131Z</time>
      </trkpt>
      <trkpt lat="43.64528" lon="5.80725">
        <ele>389</ele>
        <time>2016-04-10T07:23:50.095Z</time>
      </trkpt>
      <trkpt lat="43.64523" lon="5.80726">
        <ele>389</ele>
        <time>2016-04-10T07:23:51.133Z</time>
      </trkpt>
      <trkpt lat="43.64518" lon="5.80729">
        <ele>389</ele>
        <time>2016-04-10T07:23:52.107Z</time>
      </trkpt>
      <trkpt lat="43.64515" lon="5.80733">
        <ele>389</ele>
        <time>2016-04-10T07:23:53.133Z</time>
      </trkpt>
      <trkpt lat="43.64512" lon="5.80738">
        <ele>390</ele>
        <time>2016-04-10T07:23:54.104Z</time>
      </trkpt>
      <trkpt lat="43.6451" lon="5.80744">
        <ele>391</ele>
        <time>2016-04-10T07:23:55.131Z</time>
      </trkpt>
      <trkpt lat="43.64507" lon="5.80749">
        <ele>390</ele>
        <time>2016-04-10T07:23:56.106Z</time>
      </trkpt>
      <trkpt lat="43.64502" lon="5.80757">
        <ele>391</ele>
        <time>2016-04-10T07:23:58.131Z</time>
      </trkpt>
      <trkpt lat="43.64498" lon="5.80761">
        <ele>390</ele>
        <time>2016-04-10T07:23:59.103Z</time>
      </trkpt>
      <trkpt lat="43.6449" lon="5.80763">
        <ele>390</ele>
        <time>2016-04-10T07:24:01.130Z</time>
      </trkpt>
      <trkpt lat="43.64485" lon="5.80764">
        <ele>389</ele>
        <time>2016-04-10T07:24:02.103Z</time>
      </trkpt>
      <trkpt lat="43.6448" lon="5.80766">
        <ele>389</ele>
        <time>2016-04-10T07:24:03.129Z</time>
      </trkpt>
      <trkpt lat="43.64474" lon="5.80767">
        <ele>388</ele>
        <time>2016-04-10T07:24:04.132Z</time>
      </trkpt>
      <trkpt lat="43.64468" lon="5.80766">
        <ele>387</ele>
        <time>2016-04-10T07:24:05.132Z</time>
      </trkpt>
      <trkpt lat="43.64463" lon="5.80764">
        <ele>387</ele>
        <time>2016-04-10T07:24:06.102Z</time>
      </trkpt>
      <trkpt lat="43.64458" lon="5.80761">
        <ele>387</ele>
        <time>2016-04-10T07:24:07.133Z</time>
      </trkpt>
      <trkpt lat="43.64453" lon="5.80758">
        <ele>386</ele>
        <time>2016-04-10T07:24:08.108Z</time>
      </trkpt>
      <trkpt lat="43.64449" lon="5.80752">
        <ele>386</ele>
        <time>2016-04-10T07:24:09.132Z</time>
      </trkpt>
      <trkpt lat="43.64445" lon="5.80746">
        <ele>385</ele>
        <time>2016-04-10T07:24:10.107Z</time>
      </trkpt>
      <trkpt lat="43.64443" lon="5.80739">
        <ele>385</ele>
        <time>2016-04-10T07:24:11.141Z</time>
      </trkpt>
      <trkpt lat="43.64441" lon="5.80732">
        <ele>385</ele>
        <time>2016-04-10T07:24:12.108Z</time>
      </trkpt>
      <trkpt lat="43.64441" lon="5.80726">
        <ele>385</ele>
        <time>2016-04-10T07:24:13.132Z</time>
      </trkpt>
      <trkpt lat="43.64443" lon="5.80719">
        <ele>384</ele>
        <time>2016-04-10T07:24:14.119Z</time>
      </trkpt>
      <trkpt lat="43.64443" lon="5.80713">
        <ele>383</ele>
        <time>2016-04-10T07:24:15.157Z</time>
      </trkpt>
      <trkpt lat="43.64442" lon="5.80706">
        <ele>383</ele>
        <time>2016-04-10T07:24:16.103Z</time>
      </trkpt>
      <trkpt lat="43.6444" lon="5.80696">
        <ele>383</ele>
        <time>2016-04-10T07:24:18.130Z</time>
      </trkpt>
      <trkpt lat="43.6444" lon="5.80693">
        <ele>383</ele>
        <time>2016-04-10T07:24:19.106Z</time>
      </trkpt>
      <trkpt lat="43.64437" lon="5.80683">
        <ele>382</ele>
        <time>2016-04-10T07:24:23.143Z</time>
      </trkpt>
      <trkpt lat="43.64434" lon="5.80681">
        <ele>382</ele>
        <time>2016-04-10T07:24:24.106Z</time>
      </trkpt>
      <trkpt lat="43.64427" lon="5.80676">
        <ele>383</ele>
        <time>2016-04-10T07:24:27.132Z</time>
      </trkpt>
      <trkpt lat="43.64424" lon="5.80676">
        <ele>383</ele>
        <time>2016-04-10T07:24:28.103Z</time>
      </trkpt>
      <trkpt lat="43.64418" lon="5.80671">
        <ele>384</ele>
        <time>2016-04-10T07:24:31.157Z</time>
      </trkpt>
      <trkpt lat="43.64415" lon="5.80669">
        <ele>384</ele>
        <time>2016-04-10T07:24:32.108Z</time>
      </trkpt>
      <trkpt lat="43.64408" lon="5.80665">
        <ele>384</ele>
        <time>2016-04-10T07:24:35.131Z</time>
      </trkpt>
      <trkpt lat="43.64405" lon="5.80665">
        <ele>383</ele>
        <time>2016-04-10T07:24:36.106Z</time>
      </trkpt>
      <trkpt lat="43.64397" lon="5.80664">
        <ele>383</ele>
        <time>2016-04-10T07:24:38.140Z</time>
      </trkpt>
      <trkpt lat="43.64393" lon="5.80664">
        <ele>382</ele>
        <time>2016-04-10T07:24:39.105Z</time>
      </trkpt>
      <trkpt lat="43.64385" lon="5.80664">
        <ele>382</ele>
        <time>2016-04-10T07:24:41.129Z</time>
      </trkpt>
      <trkpt lat="43.64381" lon="5.80663">
        <ele>382</ele>
        <time>2016-04-10T07:24:42.106Z</time>
      </trkpt>
      <trkpt lat="43.64376" lon="5.80662">
        <ele>382</ele>
        <time>2016-04-10T07:24:43.132Z</time>
      </trkpt>
      <trkpt lat="43.6437" lon="5.80661">
        <ele>382</ele>
        <time>2016-04-10T07:24:44.116Z</time>
      </trkpt>
      <trkpt lat="43.64366" lon="5.80659">
        <ele>382</ele>
        <time>2016-04-10T07:24:45.133Z</time>
      </trkpt>
      <trkpt lat="43.64362" lon="5.80657">
        <ele>382</ele>
        <time>2016-04-10T07:24:46.108Z</time>
      </trkpt>
      <trkpt lat="43.64357" lon="5.80654">
        <ele>381</ele>
        <time>2016-04-10T07:24:47.158Z</time>
      </trkpt>
      <trkpt lat="43.64353" lon="5.80651">
        <ele>381</ele>
        <time>2016-04-10T07:24:48.104Z</time>
      </trkpt>
      <trkpt lat="43.64346" lon="5.80644">
        <ele>380</ele>
        <time>2016-04-10T07:24:50.134Z</time>
      </trkpt>
      <trkpt lat="43.64342" lon="5.80641">
        <ele>380</ele>
        <time>2016-04-10T07:24:51.106Z</time>
      </trkpt>
      <trkpt lat="43.64338" lon="5.80639">
        <ele>379</ele>
        <time>2016-04-10T07:24:52.135Z</time>
      </trkpt>
      <trkpt lat="43.64334" lon="5.80637">
        <ele>379</ele>
        <time>2016-04-10T07:24:53.099Z</time>
      </trkpt>
      <trkpt lat="43.64329" lon="5.80636">
        <ele>378</ele>
        <time>2016-04-10T07:24:54.128Z</time>
      </trkpt>
      <trkpt lat="43.64324" lon="5.80634">
        <ele>378</ele>
        <time>2016-04-10T07:24:55.105Z</time>
      </trkpt>
      <trkpt lat="43.64318" lon="5.80634">
        <ele>377</ele>
        <time>2016-04-10T07:24:56.131Z</time>
      </trkpt>
      <trkpt lat="43.64312" lon="5.80633">
        <ele>377</ele>
        <time>2016-04-10T07:24:57.106Z</time>
      </trkpt>
      <trkpt lat="43.64306" lon="5.80631">
        <ele>376</ele>
        <time>2016-04-10T07:24:58.130Z</time>
      </trkpt>
      <trkpt lat="43.64299" lon="5.8063">
        <ele>376</ele>
        <time>2016-04-10T07:24:59.105Z</time>
      </trkpt>
      <trkpt lat="43.64293" lon="5.80628">
        <ele>375</ele>
        <time>2016-04-10T07:25:00.140Z</time>
      </trkpt>
      <trkpt lat="43.64286" lon="5.80626">
        <ele>375</ele>
        <time>2016-04-10T07:25:01.103Z</time>
      </trkpt>
      <trkpt lat="43.6428" lon="5.80625">
        <ele>375</ele>
        <time>2016-04-10T07:25:02.131Z</time>
      </trkpt>
      <trkpt lat="43.64273" lon="5.80624">
        <ele>375</ele>
        <time>2016-04-10T07:25:03.132Z</time>
      </trkpt>
      <trkpt lat="43.64267" lon="5.80623">
        <ele>375</ele>
        <time>2016-04-10T07:25:04.133Z</time>
      </trkpt>
      <trkpt lat="43.64261" lon="5.80622">
        <ele>375</ele>
        <time>2016-04-10T07:25:05.106Z</time>
      </trkpt>
      <trkpt lat="43.64255" lon="5.80621">
        <ele>375</ele>
        <time>2016-04-10T07:25:06.128Z</time>
      </trkpt>
      <trkpt lat="43.6425" lon="5.80619">
        <ele>375</ele>
        <time>2016-04-10T07:25:07.103Z</time>
      </trkpt>
      <trkpt lat="43.64244" lon="5.80617">
        <ele>374</ele>
        <time>2016-04-10T07:25:08.129Z</time>
      </trkpt>
      <trkpt lat="43.64239" lon="5.80616">
        <ele>374</ele>
        <time>2016-04-10T07:25:09.106Z</time>
      </trkpt>
      <trkpt lat="43.64233" lon="5.80614">
        <ele>374</ele>
        <time>2016-04-10T07:25:10.130Z</time>
      </trkpt>
      <trkpt lat="43.64228" lon="5.80612">
        <ele>373</ele>
        <time>2016-04-10T07:25:11.100Z</time>
      </trkpt>
      <trkpt lat="43.64223" lon="5.80611">
        <ele>374</ele>
        <time>2016-04-10T07:25:12.122Z</time>
      </trkpt>
      <trkpt lat="43.64218" lon="5.8061">
        <ele>374</ele>
        <time>2016-04-10T07:25:13.106Z</time>
      </trkpt>
      <trkpt lat="43.64211" lon="5.80608">
        <ele>373</ele>
        <time>2016-04-10T07:25:14.244Z</time>
      </trkpt>
      <trkpt lat="43.64206" lon="5.80607">
        <ele>373</ele>
        <time>2016-04-10T07:25:15.117Z</time>
      </trkpt>
      <trkpt lat="43.64201" lon="5.80606">
        <ele>373</ele>
        <time>2016-04-10T07:25:16.128Z</time>
      </trkpt>
      <trkpt lat="43.64196" lon="5.80605">
        <ele>373</ele>
        <time>2016-04-10T07:25:17.106Z</time>
      </trkpt>
      <trkpt lat="43.64189" lon="5.80603">
        <ele>372</ele>
        <time>2016-04-10T07:25:19.128Z</time>
      </trkpt>
      <trkpt lat="43.64187" lon="5.80602">
        <ele>373</ele>
        <time>2016-04-10T07:25:20.107Z</time>
      </trkpt>
      <trkpt lat="43.64181" lon="5.806">
        <ele>372</ele>
        <time>2016-04-10T07:25:22.140Z</time>
      </trkpt>
      <trkpt lat="43.64178" lon="5.80599">
        <ele>372</ele>
        <time>2016-04-10T07:25:23.106Z</time>
      </trkpt>
      <trkpt lat="43.64171" lon="5.80597">
        <ele>372</ele>
        <time>2016-04-10T07:25:25.156Z</time>
      </trkpt>
      <trkpt lat="43.64167" lon="5.80596">
        <ele>371</ele>
        <time>2016-04-10T07:25:26.103Z</time>
      </trkpt>
      <trkpt lat="43.64159" lon="5.80594">
        <ele>372</ele>
        <time>2016-04-10T07:25:28.133Z</time>
      </trkpt>
      <trkpt lat="43.64155" lon="5.80593">
        <ele>372</ele>
        <time>2016-04-10T07:25:29.106Z</time>
      </trkpt>
      <trkpt lat="43.64151" lon="5.80592">
        <ele>372</ele>
        <time>2016-04-10T07:25:30.126Z</time>
      </trkpt>
      <trkpt lat="43.64146" lon="5.8059">
        <ele>372</ele>
        <time>2016-04-10T07:25:31.106Z</time>
      </trkpt>
      <trkpt lat="43.64141" lon="5.80588">
        <ele>372</ele>
        <time>2016-04-10T07:25:32.133Z</time>
      </trkpt>
      <trkpt lat="43.64137" lon="5.80587">
        <ele>372</ele>
        <time>2016-04-10T07:25:33.106Z</time>
      </trkpt>
      <trkpt lat="43.64132" lon="5.80585">
        <ele>372</ele>
        <time>2016-04-10T07:25:34.131Z</time>
      </trkpt>
      <trkpt lat="43.64127" lon="5.80584">
        <ele>372</ele>
        <time>2016-04-10T07:25:35.106Z</time>
      </trkpt>
      <trkpt lat="43.64119" lon="5.80581">
        <ele>372</ele>
        <time>2016-04-10T07:25:37.139Z</time>
      </trkpt>
      <trkpt lat="43.64114" lon="5.8058">
        <ele>372</ele>
        <time>2016-04-10T07:25:38.106Z</time>
      </trkpt>
      <trkpt lat="43.6411" lon="5.80579">
        <ele>372</ele>
        <time>2016-04-10T07:25:39.131Z</time>
      </trkpt>
      <trkpt lat="43.64105" lon="5.80578">
        <ele>372</ele>
        <time>2016-04-10T07:25:40.106Z</time>
      </trkpt>
      <trkpt lat="43.641" lon="5.80576">
        <ele>372</ele>
        <time>2016-04-10T07:25:41.156Z</time>
      </trkpt>
      <trkpt lat="43.64096" lon="5.80575">
        <ele>371</ele>
        <time>2016-04-10T07:25:42.105Z</time>
      </trkpt>
      <trkpt lat="43.64091" lon="5.80574">
        <ele>371</ele>
        <time>2016-04-10T07:25:43.130Z</time>
      </trkpt>
      <trkpt lat="43.64087" lon="5.80573">
        <ele>371</ele>
        <time>2016-04-10T07:25:44.106Z</time>
      </trkpt>
      <trkpt lat="43.64078" lon="5.80571">
        <ele>371</ele>
        <time>2016-04-10T07:25:46.131Z</time>
      </trkpt>
      <trkpt lat="43.64074" lon="5.8057">
        <ele>371</ele>
        <time>2016-04-10T07:25:47.106Z</time>
      </trkpt>
      <trkpt lat="43.64069" lon="5.80568">
        <ele>371</ele>
        <time>2016-04-10T07:25:48.131Z</time>
      </trkpt>
      <trkpt lat="43.64064" lon="5.80567">
        <ele>371</ele>
        <time>2016-04-10T07:25:49.106Z</time>
      </trkpt>
      <trkpt lat="43.64056" lon="5.80564">
        <ele>371</ele>
        <time>2016-04-10T07:25:51.119Z</time>
      </trkpt>
      <trkpt lat="43.64052" lon="5.80563">
        <ele>371</ele>
        <time>2016-04-10T07:25:52.096Z</time>
      </trkpt>
      <trkpt lat="43.64044" lon="5.80561">
        <ele>370</ele>
        <time>2016-04-10T07:25:54.131Z</time>
      </trkpt>
      <trkpt lat="43.64041" lon="5.8056">
        <ele>370</ele>
        <time>2016-04-10T07:25:55.106Z</time>
      </trkpt>
      <trkpt lat="43.64033" lon="5.80558">
        <ele>370</ele>
        <time>2016-04-10T07:25:57.159Z</time>
      </trkpt>
      <trkpt lat="43.64029" lon="5.80556">
        <ele>370</ele>
        <time>2016-04-10T07:25:58.107Z</time>
      </trkpt>
      <trkpt lat="43.64021" lon="5.80553">
        <ele>370</ele>
        <time>2016-04-10T07:26:00.139Z</time>
      </trkpt>
      <trkpt lat="43.64017" lon="5.8055">
        <ele>370</ele>
        <time>2016-04-10T07:26:01.105Z</time>
      </trkpt>
      <trkpt lat="43.64013" lon="5.80547">
        <ele>370</ele>
        <time>2016-04-10T07:26:02.130Z</time>
      </trkpt>
      <trkpt lat="43.64009" lon="5.80544">
        <ele>370</ele>
        <time>2016-04-10T07:26:03.106Z</time>
      </trkpt>
      <trkpt lat="43.64005" lon="5.80541">
        <ele>369</ele>
        <time>2016-04-10T07:26:04.140Z</time>
      </trkpt>
      <trkpt lat="43.64001" lon="5.80538">
        <ele>369</ele>
        <time>2016-04-10T07:26:05.106Z</time>
      </trkpt>
      <trkpt lat="43.63993" lon="5.80537">
        <ele>369</ele>
        <time>2016-04-10T07:26:07.140Z</time>
      </trkpt>
      <trkpt lat="43.6399" lon="5.8054">
        <ele>369</ele>
        <time>2016-04-10T07:26:08.326Z</time>
      </trkpt>
      <trkpt lat="43.63987" lon="5.80552">
        <ele>369</ele>
        <time>2016-04-10T07:26:10.129Z</time>
      </trkpt>
      <trkpt lat="43.63988" lon="5.80557">
        <ele>368</ele>
        <time>2016-04-10T07:26:11.108Z</time>
      </trkpt>
      <trkpt lat="43.63984" lon="5.80565">
        <ele>368</ele>
        <time>2016-04-10T07:26:13.133Z</time>
      </trkpt>
      <trkpt lat="43.63981" lon="5.80567">
        <ele>368</ele>
        <time>2016-04-10T07:26:14.104Z</time>
      </trkpt>
      <trkpt lat="43.63973" lon="5.80568">
        <ele>368</ele>
        <time>2016-04-10T07:26:16.131Z</time>
      </trkpt>
      <trkpt lat="43.63969" lon="5.80567">
        <ele>368</ele>
        <time>2016-04-10T07:26:17.106Z</time>
      </trkpt>
      <trkpt lat="43.63962" lon="5.80567">
        <ele>368</ele>
        <time>2016-04-10T07:26:19.160Z</time>
      </trkpt>
      <trkpt lat="43.6396" lon="5.80567">
        <ele>368</ele>
        <time>2016-04-10T07:26:20.108Z</time>
      </trkpt>
      <trkpt lat="43.63952" lon="5.80567">
        <ele>370</ele>
        <time>2016-04-10T07:26:23.131Z</time>
      </trkpt>
      <trkpt lat="43.63949" lon="5.80567">
        <ele>370</ele>
        <time>2016-04-10T07:26:24.106Z</time>
      </trkpt>
      <trkpt lat="43.63942" lon="5.80566">
        <ele>370</ele>
        <time>2016-04-10T07:26:27.132Z</time>
      </trkpt>
      <trkpt lat="43.6394" lon="5.80566">
        <ele>371</ele>
        <time>2016-04-10T07:26:28.107Z</time>
      </trkpt>
      <trkpt lat="43.63933" lon="5.80566">
        <ele>371</ele>
        <time>2016-04-10T07:26:31.214Z</time>
      </trkpt>
      <trkpt lat="43.6393" lon="5.80566">
        <ele>371</ele>
        <time>2016-04-10T07:26:32.105Z</time>
      </trkpt>
      <trkpt lat="43.63924" lon="5.80567">
        <ele>372</ele>
        <time>2016-04-10T07:26:35.158Z</time>
      </trkpt>
      <trkpt lat="43.63921" lon="5.80567">
        <ele>372</ele>
        <time>2016-04-10T07:26:36.106Z</time>
      </trkpt>
      <trkpt lat="43.63914" lon="5.80567">
        <ele>372</ele>
        <time>2016-04-10T07:26:39.133Z</time>
      </trkpt>
      <trkpt lat="43.63912" lon="5.80567">
        <ele>372</ele>
        <time>2016-04-10T07:26:40.116Z</time>
      </trkpt>
      <trkpt lat="43.63905" lon="5.80567">
        <ele>373</ele>
        <time>2016-04-10T07:26:43.131Z</time>
      </trkpt>
      <trkpt lat="43.63903" lon="5.80567">
        <ele>373</ele>
        <time>2016-04-10T07:26:44.106Z</time>
      </trkpt>
      <trkpt lat="43.63896" lon="5.80568">
        <ele>373</ele>
        <time>2016-04-10T07:26:47.140Z</time>
      </trkpt>
      <trkpt lat="43.63893" lon="5.80568">
        <ele>373</ele>
        <time>2016-04-10T07:26:48.106Z</time>
      </trkpt>
      <trkpt lat="43.63886" lon="5.80568">
        <ele>372</ele>
        <time>2016-04-10T07:26:51.132Z</time>
      </trkpt>
      <trkpt lat="43.63884" lon="5.80568">
        <ele>372</ele>
        <time>2016-04-10T07:26:52.107Z</time>
      </trkpt>
      <trkpt lat="43.63877" lon="5.80568">
        <ele>373</ele>
        <time>2016-04-10T07:26:55.132Z</time>
      </trkpt>
      <trkpt lat="43.63875" lon="5.80568">
        <ele>373</ele>
        <time>2016-04-10T07:26:56.105Z</time>
      </trkpt>
      <trkpt lat="43.63868" lon="5.80568">
        <ele>373</ele>
        <time>2016-04-10T07:26:59.132Z</time>
      </trkpt>
      <trkpt lat="43.63865" lon="5.80567">
        <ele>373</ele>
        <time>2016-04-10T07:27:00.107Z</time>
      </trkpt>
      <trkpt lat="43.63858" lon="5.80568">
        <ele>373</ele>
        <time>2016-04-10T07:27:03.131Z</time>
      </trkpt>
      <trkpt lat="43.63856" lon="5.80568">
        <ele>374</ele>
        <time>2016-04-10T07:27:04.106Z</time>
      </trkpt>
      <trkpt lat="43.63848" lon="5.80568">
        <ele>373</ele>
        <time>2016-04-10T07:27:07.129Z</time>
      </trkpt>
      <trkpt lat="43.63846" lon="5.80568">
        <ele>374</ele>
        <time>2016-04-10T07:27:08.106Z</time>
      </trkpt>
      <trkpt lat="43.63838" lon="5.80568">
        <ele>373</ele>
        <time>2016-04-10T07:27:11.133Z</time>
      </trkpt>
      <trkpt lat="43.63835" lon="5.80568">
        <ele>373</ele>
        <time>2016-04-10T07:27:12.140Z</time>
      </trkpt>
      <trkpt lat="43.63828" lon="5.80567">
        <ele>374</ele>
        <time>2016-04-10T07:27:15.134Z</time>
      </trkpt>
      <trkpt lat="43.63826" lon="5.80567">
        <ele>374</ele>
        <time>2016-04-10T07:27:16.107Z</time>
      </trkpt>
      <trkpt lat="43.63819" lon="5.80566">
        <ele>374</ele>
        <time>2016-04-10T07:27:19.128Z</time>
      </trkpt>
      <trkpt lat="43.63817" lon="5.80566">
        <ele>374</ele>
        <time>2016-04-10T07:27:20.108Z</time>
      </trkpt>
      <trkpt lat="43.6381" lon="5.80567">
        <ele>375</ele>
        <time>2016-04-10T07:27:23.118Z</time>
      </trkpt>
      <trkpt lat="43.63807" lon="5.80567">
        <ele>374</ele>
        <time>2016-04-10T07:27:24.104Z</time>
      </trkpt>
      <trkpt lat="43.63799" lon="5.80564">
        <ele>374</ele>
        <time>2016-04-10T07:27:28.127Z</time>
      </trkpt>
      <trkpt lat="43.63797" lon="5.80564">
        <ele>374</ele>
        <time>2016-04-10T07:27:29.129Z</time>
      </trkpt>
      <trkpt lat="43.63788" lon="5.80564">
        <ele>374</ele>
        <time>2016-04-10T07:27:33.129Z</time>
      </trkpt>
      <trkpt lat="43.63785" lon="5.80564">
        <ele>374</ele>
        <time>2016-04-10T07:27:34.106Z</time>
      </trkpt>
      <trkpt lat="43.63778" lon="5.80564">
        <ele>375</ele>
        <time>2016-04-10T07:27:37.131Z</time>
      </trkpt>
      <trkpt lat="43.63776" lon="5.80564">
        <ele>376</ele>
        <time>2016-04-10T07:27:38.104Z</time>
      </trkpt>
      <trkpt lat="43.63768" lon="5.80563">
        <ele>378</ele>
        <time>2016-04-10T07:27:43.131Z</time>
      </trkpt>
      <trkpt lat="43.63766" lon="5.80563">
        <ele>378</ele>
        <time>2016-04-10T07:27:44.107Z</time>
      </trkpt>
      <trkpt lat="43.63759" lon="5.80562">
        <ele>380</ele>
        <time>2016-04-10T07:27:49.137Z</time>
      </trkpt>
      <trkpt lat="43.63757" lon="5.80562">
        <ele>381</ele>
        <time>2016-04-10T07:27:50.106Z</time>
      </trkpt>
      <trkpt lat="43.63748" lon="5.80563">
        <ele>380</ele>
        <time>2016-04-10T07:27:55.129Z</time>
      </trkpt>
      <trkpt lat="43.63746" lon="5.80563">
        <ele>380</ele>
        <time>2016-04-10T07:27:56.104Z</time>
      </trkpt>
      <trkpt lat="43.63738" lon="5.80561">
        <ele>383</ele>
        <time>2016-04-10T07:28:01.156Z</time>
      </trkpt>
      <trkpt lat="43.63736" lon="5.8056">
        <ele>382</ele>
        <time>2016-04-10T07:28:02.107Z</time>
      </trkpt>
      <trkpt lat="43.63727" lon="5.80557">
        <ele>381</ele>
        <time>2016-04-10T07:28:07.131Z</time>
      </trkpt>
      <trkpt lat="43.63726" lon="5.80556">
        <ele>382</ele>
        <time>2016-04-10T07:28:08.106Z</time>
      </trkpt>
      <trkpt lat="43.63718" lon="5.80551">
        <ele>382</ele>
        <time>2016-04-10T07:28:12.133Z</time>
      </trkpt>
      <trkpt lat="43.63716" lon="5.8055">
        <ele>382</ele>
        <time>2016-04-10T07:28:13.108Z</time>
      </trkpt>
      <trkpt lat="43.63707" lon="5.80548">
        <ele>383</ele>
        <time>2016-04-10T07:28:18.131Z</time>
      </trkpt>
      <trkpt lat="43.63705" lon="5.80549">
        <ele>384</ele>
        <time>2016-04-10T07:28:19.108Z</time>
      </trkpt>
      <trkpt lat="43.63698" lon="5.8055">
        <ele>383</ele>
        <time>2016-04-10T07:28:22.368Z</time>
      </trkpt>
      <trkpt lat="43.63695" lon="5.80551">
        <ele>383</ele>
        <time>2016-04-10T07:28:23.109Z</time>
      </trkpt>
      <trkpt lat="43.63688" lon="5.80552">
        <ele>383</ele>
        <time>2016-04-10T07:28:26.134Z</time>
      </trkpt>
      <trkpt lat="43.63686" lon="5.80553">
        <ele>384</ele>
        <time>2016-04-10T07:28:27.107Z</time>
      </trkpt>
      <trkpt lat="43.63677" lon="5.80555">
        <ele>385</ele>
        <time>2016-04-10T07:28:33.158Z</time>
      </trkpt>
      <trkpt lat="43.63676" lon="5.80555">
        <ele>385</ele>
        <time>2016-04-10T07:28:34.115Z</time>
      </trkpt>
      <trkpt lat="43.6367" lon="5.80563">
        <ele>387</ele>
        <time>2016-04-10T07:28:41.133Z</time>
      </trkpt>
      <trkpt lat="43.63669" lon="5.80565">
        <ele>389</ele>
        <time>2016-04-10T07:28:42.107Z</time>
      </trkpt>
      <trkpt lat="43.63665" lon="5.80574">
        <ele>389</ele>
        <time>2016-04-10T07:28:47.133Z</time>
      </trkpt>
      <trkpt lat="43.63664" lon="5.80577">
        <ele>389</ele>
        <time>2016-04-10T07:28:48.108Z</time>
      </trkpt>
      <trkpt lat="43.6366" lon="5.80584">
        <ele>388</ele>
        <time>2016-04-10T07:28:50.126Z</time>
      </trkpt>
      <trkpt lat="43.63658" lon="5.80587">
        <ele>389</ele>
        <time>2016-04-10T07:28:51.105Z</time>
      </trkpt>
      <trkpt lat="43.63652" lon="5.80594">
        <ele>391</ele>
        <time>2016-04-10T07:28:54.129Z</time>
      </trkpt>
      <trkpt lat="43.6365" lon="5.80597">
        <ele>391</ele>
        <time>2016-04-10T07:28:55.107Z</time>
      </trkpt>
      <trkpt lat="43.63644" lon="5.80604">
        <ele>390</ele>
        <time>2016-04-10T07:28:58.355Z</time>
      </trkpt>
      <trkpt lat="43.63642" lon="5.80607">
        <ele>389</ele>
        <time>2016-04-10T07:28:59.109Z</time>
      </trkpt>
      <trkpt lat="43.63636" lon="5.80611">
        <ele>390</ele>
        <time>2016-04-10T07:29:02.150Z</time>
      </trkpt>
      <trkpt lat="43.63633" lon="5.80612">
        <ele>389</ele>
        <time>2016-04-10T07:29:03.107Z</time>
      </trkpt>
      <trkpt lat="43.63626" lon="5.80615">
        <ele>389</ele>
        <time>2016-04-10T07:29:06.132Z</time>
      </trkpt>
      <trkpt lat="43.63624" lon="5.80616">
        <ele>389</ele>
        <time>2016-04-10T07:29:07.106Z</time>
      </trkpt>
      <trkpt lat="43.63616" lon="5.80622">
        <ele>388</ele>
        <time>2016-04-10T07:29:11.121Z</time>
      </trkpt>
      <trkpt lat="43.63615" lon="5.80623">
        <ele>388</ele>
        <time>2016-04-10T07:29:12.102Z</time>
      </trkpt>
      <trkpt lat="43.63607" lon="5.80628">
        <ele>387</ele>
        <time>2016-04-10T07:29:17.126Z</time>
      </trkpt>
      <trkpt lat="43.63605" lon="5.8063">
        <ele>388</ele>
        <time>2016-04-10T07:29:18.134Z</time>
      </trkpt>
      <trkpt lat="43.63597" lon="5.80633">
        <ele>388</ele>
        <time>2016-04-10T07:29:22.136Z</time>
      </trkpt>
      <trkpt lat="43.63595" lon="5.80634">
        <ele>387</ele>
        <time>2016-04-10T07:29:23.107Z</time>
      </trkpt>
      <trkpt lat="43.63587" lon="5.80639">
        <ele>387</ele>
        <time>2016-04-10T07:29:27.130Z</time>
      </trkpt>
      <trkpt lat="43.63585" lon="5.8064">
        <ele>388</ele>
        <time>2016-04-10T07:29:28.107Z</time>
      </trkpt>
      <trkpt lat="43.63578" lon="5.80645">
        <ele>388</ele>
        <time>2016-04-10T07:29:32.132Z</time>
      </trkpt>
      <trkpt lat="43.63576" lon="5.80646">
        <ele>388</ele>
        <time>2016-04-10T07:29:33.104Z</time>
      </trkpt>
      <trkpt lat="43.63568" lon="5.80648">
        <ele>387</ele>
        <time>2016-04-10T07:29:37.129Z</time>
      </trkpt>
      <trkpt lat="43.63566" lon="5.80645">
        <ele>387</ele>
        <time>2016-04-10T07:29:38.107Z</time>
      </trkpt>
      <trkpt lat="43.63564" lon="5.80636">
        <ele>386</ele>
        <time>2016-04-10T07:29:40.128Z</time>
      </trkpt>
      <trkpt lat="43.63564" lon="5.80631">
        <ele>386</ele>
        <time>2016-04-10T07:29:41.108Z</time>
      </trkpt>
      <trkpt lat="43.63566" lon="5.80621">
        <ele>385</ele>
        <time>2016-04-10T07:29:43.132Z</time>
      </trkpt>
      <trkpt lat="43.63567" lon="5.80617">
        <ele>385</ele>
        <time>2016-04-10T07:29:44.104Z</time>
      </trkpt>
      <trkpt lat="43.63572" lon="5.80608">
        <ele>384</ele>
        <time>2016-04-10T07:29:47.131Z</time>
      </trkpt>
      <trkpt lat="43.63573" lon="5.80605">
        <ele>384</ele>
        <time>2016-04-10T07:29:48.104Z</time>
      </trkpt>
      <trkpt lat="43.63576" lon="5.80596">
        <ele>383</ele>
        <time>2016-04-10T07:29:51.130Z</time>
      </trkpt>
      <trkpt lat="43.63578" lon="5.80593">
        <ele>383</ele>
        <time>2016-04-10T07:29:52.107Z</time>
      </trkpt>
      <trkpt lat="43.63581" lon="5.80584">
        <ele>383</ele>
        <time>2016-04-10T07:29:55.132Z</time>
      </trkpt>
      <trkpt lat="43.63582" lon="5.80581">
        <ele>383</ele>
        <time>2016-04-10T07:29:56.108Z</time>
      </trkpt>
      <trkpt lat="43.63583" lon="5.80572">
        <ele>386</ele>
        <time>2016-04-10T07:29:59.129Z</time>
      </trkpt>
      <trkpt lat="43.63585" lon="5.80569">
        <ele>387</ele>
        <time>2016-04-10T07:30:00.127Z</time>
      </trkpt>
      <trkpt lat="43.63588" lon="5.8056">
        <ele>390</ele>
        <time>2016-04-10T07:30:04.157Z</time>
      </trkpt>
      <trkpt lat="43.63589" lon="5.80557">
        <ele>390</ele>
        <time>2016-04-10T07:30:05.107Z</time>
      </trkpt>
      <trkpt lat="43.63591" lon="5.80547">
        <ele>389</ele>
        <time>2016-04-10T07:30:09.132Z</time>
      </trkpt>
      <trkpt lat="43.63592" lon="5.80544">
        <ele>388</ele>
        <time>2016-04-10T07:30:10.110Z</time>
      </trkpt>
      <trkpt lat="43.63593" lon="5.80534">
        <ele>387</ele>
        <time>2016-04-10T07:30:13.134Z</time>
      </trkpt>
      <trkpt lat="43.63594" lon="5.80531">
        <ele>387</ele>
        <time>2016-04-10T07:30:14.110Z</time>
      </trkpt>
      <trkpt lat="43.63596" lon="5.80521">
        <ele>386</ele>
        <time>2016-04-10T07:30:17.133Z</time>
      </trkpt>
      <trkpt lat="43.63597" lon="5.80518">
        <ele>386</ele>
        <time>2016-04-10T07:30:18.107Z</time>
      </trkpt>
      <trkpt lat="43.63599" lon="5.80508">
        <ele>384</ele>
        <time>2016-04-10T07:30:21.132Z</time>
      </trkpt>
      <trkpt lat="43.636" lon="5.80504">
        <ele>384</ele>
        <time>2016-04-10T07:30:22.107Z</time>
      </trkpt>
      <trkpt lat="43.63602" lon="5.80494">
        <ele>384</ele>
        <time>2016-04-10T07:30:25.129Z</time>
      </trkpt>
      <trkpt lat="43.63602" lon="5.8049">
        <ele>383</ele>
        <time>2016-04-10T07:30:26.109Z</time>
      </trkpt>
      <trkpt lat="43.63604" lon="5.8048">
        <ele>385</ele>
        <time>2016-04-10T07:30:29.130Z</time>
      </trkpt>
      <trkpt lat="43.63604" lon="5.80477">
        <ele>384</ele>
        <time>2016-04-10T07:30:30.112Z</time>
      </trkpt>
      <trkpt lat="43.63605" lon="5.80466">
        <ele>385</ele>
        <time>2016-04-10T07:30:33.131Z</time>
      </trkpt>
      <trkpt lat="43.63605" lon="5.80463">
        <ele>385</ele>
        <time>2016-04-10T07:30:34.107Z</time>
      </trkpt>
      <trkpt lat="43.63607" lon="5.80453">
        <ele>385</ele>
        <time>2016-04-10T07:30:37.132Z</time>
      </trkpt>
      <trkpt lat="43.63608" lon="5.80449">
        <ele>385</ele>
        <time>2016-04-10T07:30:38.109Z</time>
      </trkpt>
      <trkpt lat="43.6361" lon="5.80438">
        <ele>386</ele>
        <time>2016-04-10T07:30:41.133Z</time>
      </trkpt>
      <trkpt lat="43.6361" lon="5.80435">
        <ele>385</ele>
        <time>2016-04-10T07:30:42.119Z</time>
      </trkpt>
      <trkpt lat="43.63612" lon="5.80424">
        <ele>386</ele>
        <time>2016-04-10T07:30:45.130Z</time>
      </trkpt>
      <trkpt lat="43.63613" lon="5.8042">
        <ele>387</ele>
        <time>2016-04-10T07:30:46.105Z</time>
      </trkpt>
      <trkpt lat="43.63615" lon="5.80409">
        <ele>387</ele>
        <time>2016-04-10T07:30:49.135Z</time>
      </trkpt>
      <trkpt lat="43.63615" lon="5.80406">
        <ele>387</ele>
        <time>2016-04-10T07:30:50.110Z</time>
      </trkpt>
      <trkpt lat="43.63615" lon="5.80396">
        <ele>387</ele>
        <time>2016-04-10T07:30:53.130Z</time>
      </trkpt>
      <trkpt lat="43.63614" lon="5.80393">
        <ele>387</ele>
        <time>2016-04-10T07:30:54.106Z</time>
      </trkpt>
      <trkpt lat="43.63615" lon="5.80382">
        <ele>388</ele>
        <time>2016-04-10T07:30:58.134Z</time>
      </trkpt>
      <trkpt lat="43.63614" lon="5.80379">
        <ele>388</ele>
        <time>2016-04-10T07:30:59.108Z</time>
      </trkpt>
      <trkpt lat="43.6361" lon="5.8037">
        <ele>389</ele>
        <time>2016-04-10T07:31:04.132Z</time>
      </trkpt>
      <trkpt lat="43.63609" lon="5.80369">
        <ele>389</ele>
        <time>2016-04-10T07:31:05.107Z</time>
      </trkpt>
      <trkpt lat="43.63604" lon="5.8036">
        <ele>391</ele>
        <time>2016-04-10T07:31:10.131Z</time>
      </trkpt>
      <trkpt lat="43.63603" lon="5.80358">
        <ele>391</ele>
        <time>2016-04-10T07:31:11.109Z</time>
      </trkpt>
      <trkpt lat="43.63599" lon="5.80349">
        <ele>392</ele>
        <time>2016-04-10T07:31:16.140Z</time>
      </trkpt>
      <trkpt lat="43.63598" lon="5.80348">
        <ele>393</ele>
        <time>2016-04-10T07:31:17.108Z</time>
      </trkpt>
      <trkpt lat="43.63593" lon="5.80338">
        <ele>394</ele>
        <time>2016-04-10T07:31:25.134Z</time>
      </trkpt>
      <trkpt lat="43.63591" lon="5.80335">
        <ele>392</ele>
        <time>2016-04-10T07:31:26.107Z</time>
      </trkpt>
      <trkpt lat="43.63585" lon="5.80326">
        <ele>391</ele>
        <time>2016-04-10T07:31:28.134Z</time>
      </trkpt>
      <trkpt lat="43.63583" lon="5.80321">
        <ele>391</ele>
        <time>2016-04-10T07:31:29.102Z</time>
      </trkpt>
      <trkpt lat="43.63577" lon="5.80311">
        <ele>391</ele>
        <time>2016-04-10T07:31:31.135Z</time>
      </trkpt>
      <trkpt lat="43.63574" lon="5.80306">
        <ele>391</ele>
        <time>2016-04-10T07:31:32.109Z</time>
      </trkpt>
      <trkpt lat="43.63571" lon="5.80299">
        <ele>391</ele>
        <time>2016-04-10T07:31:34.359Z</time>
      </trkpt>
      <trkpt lat="43.63569" lon="5.80295">
        <ele>392</ele>
        <time>2016-04-10T07:31:35.132Z</time>
      </trkpt>
      <trkpt lat="43.63565" lon="5.80284">
        <ele>391</ele>
        <time>2016-04-10T07:31:38.131Z</time>
      </trkpt>
      <trkpt lat="43.63564" lon="5.80281">
        <ele>391</ele>
        <time>2016-04-10T07:31:39.108Z</time>
      </trkpt>
      <trkpt lat="43.63556" lon="5.80283">
        <ele>393</ele>
        <time>2016-04-10T07:31:46.141Z</time>
      </trkpt>
      <trkpt lat="43.63555" lon="5.80286">
        <ele>393</ele>
        <time>2016-04-10T07:31:47.107Z</time>
      </trkpt>
      <trkpt lat="43.63551" lon="5.80295">
        <ele>395</ele>
        <time>2016-04-10T07:31:51.158Z</time>
      </trkpt>
      <trkpt lat="43.63549" lon="5.80296">
        <ele>395</ele>
        <time>2016-04-10T07:31:52.116Z</time>
      </trkpt>
      <trkpt lat="43.63542" lon="5.80303">
        <ele>397</ele>
        <time>2016-04-10T07:31:59.133Z</time>
      </trkpt>
      <trkpt lat="43.6354" lon="5.80303">
        <ele>397</ele>
        <time>2016-04-10T07:32:00.129Z</time>
      </trkpt>
      <trkpt lat="43.63531" lon="5.80304">
        <ele>398</ele>
        <time>2016-04-10T07:32:07.134Z</time>
      </trkpt>
      <trkpt lat="43.6353" lon="5.80304">
        <ele>398</ele>
        <time>2016-04-10T07:32:08.108Z</time>
      </trkpt>
      <trkpt lat="43.63522" lon="5.80305">
        <ele>399</ele>
        <time>2016-04-10T07:32:16.133Z</time>
      </trkpt>
      <trkpt lat="43.63521" lon="5.80306">
        <ele>400</ele>
        <time>2016-04-10T07:32:17.108Z</time>
      </trkpt>
      <trkpt lat="43.63516" lon="5.80315">
        <ele>401</ele>
        <time>2016-04-10T07:32:24.133Z</time>
      </trkpt>
      <trkpt lat="43.63516" lon="5.80317">
        <ele>402</ele>
        <time>2016-04-10T07:32:25.109Z</time>
      </trkpt>
      <trkpt lat="43.63516" lon="5.80329">
        <ele>403</ele>
        <time>2016-04-10T07:32:31.130Z</time>
      </trkpt>
      <trkpt lat="43.63516" lon="5.80331">
        <ele>403</ele>
        <time>2016-04-10T07:32:32.151Z</time>
      </trkpt>
      <trkpt lat="43.63515" lon="5.80343">
        <ele>405</ele>
        <time>2016-04-10T07:32:39.130Z</time>
      </trkpt>
      <trkpt lat="43.63515" lon="5.80345">
        <ele>405</ele>
        <time>2016-04-10T07:32:40.108Z</time>
      </trkpt>
      <trkpt lat="43.63514" lon="5.80356">
        <ele>407</ele>
        <time>2016-04-10T07:32:47.134Z</time>
      </trkpt>
      <trkpt lat="43.63513" lon="5.80357">
        <ele>407</ele>
        <time>2016-04-10T07:32:48.109Z</time>
      </trkpt>
      <trkpt lat="43.63514" lon="5.80369">
        <ele>410</ele>
        <time>2016-04-10T07:32:56.132Z</time>
      </trkpt>
      <trkpt lat="43.63514" lon="5.80371">
        <ele>410</ele>
        <time>2016-04-10T07:32:57.108Z</time>
      </trkpt>
      <trkpt lat="43.63515" lon="5.80383">
        <ele>411</ele>
        <time>2016-04-10T07:33:35.135Z</time>
      </trkpt>
      <trkpt lat="43.63515" lon="5.80385">
        <ele>411</ele>
        <time>2016-04-10T07:33:36.107Z</time>
      </trkpt>
      <trkpt lat="43.63515" lon="5.80396">
        <ele>413</ele>
        <time>2016-04-10T07:33:41.136Z</time>
      </trkpt>
      <trkpt lat="43.63515" lon="5.80398">
        <ele>413</ele>
        <time>2016-04-10T07:33:42.109Z</time>
      </trkpt>
      <trkpt lat="43.63514" lon="5.80409">
        <ele>414</ele>
        <time>2016-04-10T07:33:47.135Z</time>
      </trkpt>
      <trkpt lat="43.63514" lon="5.80411">
        <ele>414</ele>
        <time>2016-04-10T07:33:48.106Z</time>
      </trkpt>
      <trkpt lat="43.63514" lon="5.80422">
        <ele>414</ele>
        <time>2016-04-10T07:33:54.134Z</time>
      </trkpt>
      <trkpt lat="43.63514" lon="5.80424">
        <ele>415</ele>
        <time>2016-04-10T07:33:55.106Z</time>
      </trkpt>
      <trkpt lat="43.63514" lon="5.80434">
        <ele>417</ele>
        <time>2016-04-10T07:34:01.130Z</time>
      </trkpt>
      <trkpt lat="43.63514" lon="5.80436">
        <ele>417</ele>
        <time>2016-04-10T07:34:02.110Z</time>
      </trkpt>
      <trkpt lat="43.63512" lon="5.80448">
        <ele>418</ele>
        <time>2016-04-10T07:34:09.132Z</time>
      </trkpt>
      <trkpt lat="43.63512" lon="5.8045">
        <ele>418</ele>
        <time>2016-04-10T07:34:10.134Z</time>
      </trkpt>
      <trkpt lat="43.63507" lon="5.8046">
        <ele>419</ele>
        <time>2016-04-10T07:34:17.132Z</time>
      </trkpt>
      <trkpt lat="43.63506" lon="5.80461">
        <ele>420</ele>
        <time>2016-04-10T07:34:18.112Z</time>
      </trkpt>
      <trkpt lat="43.635" lon="5.80469">
        <ele>422</ele>
        <time>2016-04-10T07:34:24.134Z</time>
      </trkpt>
      <trkpt lat="43.63499" lon="5.80471">
        <ele>422</ele>
        <time>2016-04-10T07:34:25.109Z</time>
      </trkpt>
      <trkpt lat="43.63495" lon="5.8048">
        <ele>424</ele>
        <time>2016-04-10T07:34:30.144Z</time>
      </trkpt>
      <trkpt lat="43.63494" lon="5.80481">
        <ele>424</ele>
        <time>2016-04-10T07:34:31.107Z</time>
      </trkpt>
      <trkpt lat="43.6349" lon="5.80489">
        <ele>424</ele>
        <time>2016-04-10T07:34:35.142Z</time>
      </trkpt>
      <trkpt lat="43.63489" lon="5.80491">
        <ele>424</ele>
        <time>2016-04-10T07:34:36.111Z</time>
      </trkpt>
      <trkpt lat="43.63483" lon="5.80499">
        <ele>428</ele>
        <time>2016-04-10T07:34:40.137Z</time>
      </trkpt>
      <trkpt lat="43.63481" lon="5.805">
        <ele>428</ele>
        <time>2016-04-10T07:34:41.110Z</time>
      </trkpt>
      <trkpt lat="43.63474" lon="5.80504">
        <ele>428</ele>
        <time>2016-04-10T07:34:46.135Z</time>
      </trkpt>
      <trkpt lat="43.63473" lon="5.80504">
        <ele>428</ele>
        <time>2016-04-10T07:34:47.109Z</time>
      </trkpt>
      <trkpt lat="43.63465" lon="5.80501">
        <ele>427</ele>
        <time>2016-04-10T07:34:52.136Z</time>
      </trkpt>
      <trkpt lat="43.63463" lon="5.80501">
        <ele>427</ele>
        <time>2016-04-10T07:34:53.109Z</time>
      </trkpt>
      <trkpt lat="43.63454" lon="5.80497">
        <ele>426</ele>
        <time>2016-04-10T07:34:58.377Z</time>
      </trkpt>
      <trkpt lat="43.63453" lon="5.80497">
        <ele>426</ele>
        <time>2016-04-10T07:34:59.109Z</time>
      </trkpt>
      <trkpt lat="43.63444" lon="5.80495">
        <ele>426</ele>
        <time>2016-04-10T07:35:04.126Z</time>
      </trkpt>
      <trkpt lat="43.63442" lon="5.80495">
        <ele>426</ele>
        <time>2016-04-10T07:35:05.108Z</time>
      </trkpt>
      <trkpt lat="43.63435" lon="5.80498">
        <ele>427</ele>
        <time>2016-04-10T07:35:10.137Z</time>
      </trkpt>
      <trkpt lat="43.63433" lon="5.805">
        <ele>427</ele>
        <time>2016-04-10T07:35:11.284Z</time>
      </trkpt>
      <trkpt lat="43.63425" lon="5.80503">
        <ele>428</ele>
        <time>2016-04-10T07:35:16.129Z</time>
      </trkpt>
      <trkpt lat="43.63423" lon="5.80503">
        <ele>428</ele>
        <time>2016-04-10T07:35:17.108Z</time>
      </trkpt>
      <trkpt lat="43.63416" lon="5.80502">
        <ele>427</ele>
        <time>2016-04-10T07:35:21.144Z</time>
      </trkpt>
      <trkpt lat="43.63414" lon="5.80501">
        <ele>428</ele>
        <time>2016-04-10T07:35:22.107Z</time>
      </trkpt>
      <trkpt lat="43.63408" lon="5.80501">
        <ele>427</ele>
        <time>2016-04-10T07:35:24.142Z</time>
      </trkpt>
      <trkpt lat="43.63405" lon="5.80501">
        <ele>427</ele>
        <time>2016-04-10T07:35:25.134Z</time>
      </trkpt>
      <trkpt lat="43.63397" lon="5.805">
        <ele>426</ele>
        <time>2016-04-10T07:35:27.132Z</time>
      </trkpt>
      <trkpt lat="43.63393" lon="5.80499">
        <ele>426</ele>
        <time>2016-04-10T07:35:28.111Z</time>
      </trkpt>
      <trkpt lat="43.63386" lon="5.805">
        <ele>426</ele>
        <time>2016-04-10T07:35:30.136Z</time>
      </trkpt>
      <trkpt lat="43.63383" lon="5.805">
        <ele>426</ele>
        <time>2016-04-10T07:35:31.113Z</time>
      </trkpt>
      <trkpt lat="43.63375" lon="5.80501">
        <ele>426</ele>
        <time>2016-04-10T07:35:35.135Z</time>
      </trkpt>
      <trkpt lat="43.63374" lon="5.80502">
        <ele>427</ele>
        <time>2016-04-10T07:35:36.110Z</time>
      </trkpt>
      <trkpt lat="43.63366" lon="5.80504">
        <ele>427</ele>
        <time>2016-04-10T07:35:40.127Z</time>
      </trkpt>
      <trkpt lat="43.63364" lon="5.80504">
        <ele>428</ele>
        <time>2016-04-10T07:35:41.134Z</time>
      </trkpt>
      <trkpt lat="43.63357" lon="5.80506">
        <ele>429</ele>
        <time>2016-04-10T07:35:45.134Z</time>
      </trkpt>
      <trkpt lat="43.63355" lon="5.80507">
        <ele>429</ele>
        <time>2016-04-10T07:35:46.109Z</time>
      </trkpt>
      <trkpt lat="43.63346" lon="5.80509">
        <ele>431</ele>
        <time>2016-04-10T07:35:51.131Z</time>
      </trkpt>
      <trkpt lat="43.63345" lon="5.80509">
        <ele>431</ele>
        <time>2016-04-10T07:35:52.106Z</time>
      </trkpt>
      <trkpt lat="43.63337" lon="5.80511">
        <ele>433</ele>
        <time>2016-04-10T07:35:57.161Z</time>
      </trkpt>
      <trkpt lat="43.63335" lon="5.80511">
        <ele>434</ele>
        <time>2016-04-10T07:35:58.110Z</time>
      </trkpt>
      <trkpt lat="43.63328" lon="5.80515">
        <ele>437</ele>
        <time>2016-04-10T07:36:03.134Z</time>
      </trkpt>
      <trkpt lat="43.63327" lon="5.80516">
        <ele>437</ele>
        <time>2016-04-10T07:36:04.110Z</time>
      </trkpt>
      <trkpt lat="43.63318" lon="5.80517">
        <ele>436</ele>
        <time>2016-04-10T07:36:09.206Z</time>
      </trkpt>
      <trkpt lat="43.63317" lon="5.80517">
        <ele>437</ele>
        <time>2016-04-10T07:36:10.110Z</time>
      </trkpt>
      <trkpt lat="43.63309" lon="5.80514">
        <ele>439</ele>
        <time>2016-04-10T07:36:16.135Z</time>
      </trkpt>
      <trkpt lat="43.63307" lon="5.80514">
        <ele>439</ele>
        <time>2016-04-10T07:36:17.109Z</time>
      </trkpt>
      <trkpt lat="43.63299" lon="5.80514">
        <ele>438</ele>
        <time>2016-04-10T07:36:23.136Z</time>
      </trkpt>
      <trkpt lat="43.63297" lon="5.80514">
        <ele>439</ele>
        <time>2016-04-10T07:36:24.146Z</time>
      </trkpt>
      <trkpt lat="43.63289" lon="5.80512">
        <ele>437</ele>
        <time>2016-04-10T07:36:29.134Z</time>
      </trkpt>
      <trkpt lat="43.63288" lon="5.80512">
        <ele>438</ele>
        <time>2016-04-10T07:36:30.110Z</time>
      </trkpt>
      <trkpt lat="43.6328" lon="5.80511">
        <ele>437</ele>
        <time>2016-04-10T07:36:35.159Z</time>
      </trkpt>
      <trkpt lat="43.63278" lon="5.80511">
        <ele>437</ele>
        <time>2016-04-10T07:36:36.110Z</time>
      </trkpt>
      <trkpt lat="43.63271" lon="5.80507">
        <ele>438</ele>
        <time>2016-04-10T07:36:41.133Z</time>
      </trkpt>
      <trkpt lat="43.6327" lon="5.80506">
        <ele>438</ele>
        <time>2016-04-10T07:36:42.110Z</time>
      </trkpt>
      <trkpt lat="43.63263" lon="5.80498">
        <ele>437</ele>
        <time>2016-04-10T07:36:51.134Z</time>
      </trkpt>
      <trkpt lat="43.63263" lon="5.80497">
        <ele>437</ele>
        <time>2016-04-10T07:36:52.101Z</time>
      </trkpt>
      <trkpt lat="43.6326" lon="5.80485">
        <ele>437</ele>
        <time>2016-04-10T07:37:03.144Z</time>
      </trkpt>
      <trkpt lat="43.63259" lon="5.80485">
        <ele>437</ele>
        <time>2016-04-10T07:37:04.114Z</time>
      </trkpt>
      <trkpt lat="43.63253" lon="5.80476">
        <ele>439</ele>
        <time>2016-04-10T07:37:12.137Z</time>
      </trkpt>
      <trkpt lat="43.63252" lon="5.80474">
        <ele>439</ele>
        <time>2016-04-10T07:37:13.122Z</time>
      </trkpt>
      <trkpt lat="43.63244" lon="5.8047">
        <ele>438</ele>
        <time>2016-04-10T07:37:19.140Z</time>
      </trkpt>
      <trkpt lat="43.63242" lon="5.80469">
        <ele>438</ele>
        <time>2016-04-10T07:37:20.108Z</time>
      </trkpt>
      <trkpt lat="43.63234" lon="5.80464">
        <ele>438</ele>
        <time>2016-04-10T07:37:25.136Z</time>
      </trkpt>
      <trkpt lat="43.63233" lon="5.80464">
        <ele>438</ele>
        <time>2016-04-10T07:37:26.111Z</time>
      </trkpt>
      <trkpt lat="43.63225" lon="5.8046">
        <ele>439</ele>
        <time>2016-04-10T07:37:31.137Z</time>
      </trkpt>
      <trkpt lat="43.63224" lon="5.80459">
        <ele>439</ele>
        <time>2016-04-10T07:37:32.112Z</time>
      </trkpt>
      <trkpt lat="43.63217" lon="5.80455">
        <ele>438</ele>
        <time>2016-04-10T07:37:37.131Z</time>
      </trkpt>
      <trkpt lat="43.63216" lon="5.80455">
        <ele>439</ele>
        <time>2016-04-10T07:37:38.107Z</time>
      </trkpt>
      <trkpt lat="43.63207" lon="5.80452">
        <ele>441</ele>
        <time>2016-04-10T07:37:44.132Z</time>
      </trkpt>
      <trkpt lat="43.63205" lon="5.80453">
        <ele>442</ele>
        <time>2016-04-10T07:37:45.109Z</time>
      </trkpt>
      <trkpt lat="43.63199" lon="5.80459">
        <ele>443</ele>
        <time>2016-04-10T07:37:50.135Z</time>
      </trkpt>
      <trkpt lat="43.63198" lon="5.8046">
        <ele>444</ele>
        <time>2016-04-10T07:37:51.112Z</time>
      </trkpt>
      <trkpt lat="43.6319" lon="5.80466">
        <ele>446</ele>
        <time>2016-04-10T07:37:56.160Z</time>
      </trkpt>
      <trkpt lat="43.63189" lon="5.80467">
        <ele>447</ele>
        <time>2016-04-10T07:37:57.107Z</time>
      </trkpt>
      <trkpt lat="43.63183" lon="5.80473">
        <ele>449</ele>
        <time>2016-04-10T07:38:01.134Z</time>
      </trkpt>
      <trkpt lat="43.63181" lon="5.80474">
        <ele>449</ele>
        <time>2016-04-10T07:38:02.107Z</time>
      </trkpt>
      <trkpt lat="43.63175" lon="5.8048">
        <ele>450</ele>
        <time>2016-04-10T07:38:06.368Z</time>
      </trkpt>
      <trkpt lat="43.63173" lon="5.80481">
        <ele>450</ele>
        <time>2016-04-10T07:38:07.108Z</time>
      </trkpt>
      <trkpt lat="43.63166" lon="5.80485">
        <ele>454</ele>
        <time>2016-04-10T07:38:12.137Z</time>
      </trkpt>
      <trkpt lat="43.63164" lon="5.80486">
        <ele>454</ele>
        <time>2016-04-10T07:38:13.111Z</time>
      </trkpt>
      <trkpt lat="43.63156" lon="5.80489">
        <ele>453</ele>
        <time>2016-04-10T07:38:19.184Z</time>
      </trkpt>
      <trkpt lat="43.63155" lon="5.80487">
        <ele>453</ele>
        <time>2016-04-10T07:38:20.110Z</time>
      </trkpt>
      <trkpt lat="43.63147" lon="5.80486">
        <ele>453</ele>
        <time>2016-04-10T07:38:26.134Z</time>
      </trkpt>
      <trkpt lat="43.63145" lon="5.80485">
        <ele>453</ele>
        <time>2016-04-10T07:38:27.110Z</time>
      </trkpt>
      <trkpt lat="43.63139" lon="5.80476">
        <ele>456</ele>
        <time>2016-04-10T07:38:34.136Z</time>
      </trkpt>
      <trkpt lat="43.63138" lon="5.80475">
        <ele>456</ele>
        <time>2016-04-10T07:38:35.107Z</time>
      </trkpt>
      <trkpt lat="43.6313" lon="5.8047">
        <ele>456</ele>
        <time>2016-04-10T07:38:40.136Z</time>
      </trkpt>
      <trkpt lat="43.63129" lon="5.80469">
        <ele>456</ele>
        <time>2016-04-10T07:38:41.111Z</time>
      </trkpt>
      <trkpt lat="43.63122" lon="5.80464">
        <ele>454</ele>
        <time>2016-04-10T07:38:45.357Z</time>
      </trkpt>
      <trkpt lat="43.6312" lon="5.80463">
        <ele>454</ele>
        <time>2016-04-10T07:38:46.109Z</time>
      </trkpt>
      <trkpt lat="43.63113" lon="5.8046">
        <ele>453</ele>
        <time>2016-04-10T07:38:50.138Z</time>
      </trkpt>
      <trkpt lat="43.63111" lon="5.8046">
        <ele>454</ele>
        <time>2016-04-10T07:38:51.109Z</time>
      </trkpt>
      <trkpt lat="43.63105" lon="5.80451">
        <ele>455</ele>
        <time>2016-04-10T07:38:56.379Z</time>
      </trkpt>
      <trkpt lat="43.63104" lon="5.80449">
        <ele>455</ele>
        <time>2016-04-10T07:38:57.107Z</time>
      </trkpt>
      <trkpt lat="43.63098" lon="5.80441">
        <ele>456</ele>
        <time>2016-04-10T07:39:02.138Z</time>
      </trkpt>
      <trkpt lat="43.63097" lon="5.8044">
        <ele>457</ele>
        <time>2016-04-10T07:39:03.110Z</time>
      </trkpt>
      <trkpt lat="43.63092" lon="5.8043">
        <ele>454</ele>
        <time>2016-04-10T07:39:08.136Z</time>
      </trkpt>
      <trkpt lat="43.63092" lon="5.80427">
        <ele>455</ele>
        <time>2016-04-10T07:39:09.112Z</time>
      </trkpt>
      <trkpt lat="43.63097" lon="5.80419">
        <ele>456</ele>
        <time>2016-04-10T07:39:14.135Z</time>
      </trkpt>
      <trkpt lat="43.63098" lon="5.80417">
        <ele>458</ele>
        <time>2016-04-10T07:39:15.110Z</time>
      </trkpt>
      <trkpt lat="43.63103" lon="5.8041">
        <ele>458</ele>
        <time>2016-04-10T07:39:20.133Z</time>
      </trkpt>
      <trkpt lat="43.63104" lon="5.80408">
        <ele>457</ele>
        <time>2016-04-10T07:39:21.112Z</time>
      </trkpt>
      <trkpt lat="43.63108" lon="5.80398">
        <ele>456</ele>
        <time>2016-04-10T07:39:25.136Z</time>
      </trkpt>
      <trkpt lat="43.63109" lon="5.80396">
        <ele>455</ele>
        <time>2016-04-10T07:39:26.135Z</time>
      </trkpt>
      <trkpt lat="43.63115" lon="5.80389">
        <ele>456</ele>
        <time>2016-04-10T07:39:29.137Z</time>
      </trkpt>
      <trkpt lat="43.63117" lon="5.80387">
        <ele>457</ele>
        <time>2016-04-10T07:39:30.112Z</time>
      </trkpt>
      <trkpt lat="43.6312" lon="5.80376">
        <ele>455</ele>
        <time>2016-04-10T07:39:34.358Z</time>
      </trkpt>
      <trkpt lat="43.6312" lon="5.80374">
        <ele>455</ele>
        <time>2016-04-10T07:39:35.109Z</time>
      </trkpt>
      <trkpt lat="43.63114" lon="5.80368">
        <ele>453</ele>
        <time>2016-04-10T07:39:40.114Z</time>
      </trkpt>
      <trkpt lat="43.63112" lon="5.80368">
        <ele>453</ele>
        <time>2016-04-10T07:39:41.110Z</time>
      </trkpt>
      <trkpt lat="43.63104" lon="5.80369">
        <ele>452</ele>
        <time>2016-04-10T07:39:46.135Z</time>
      </trkpt>
      <trkpt lat="43.63102" lon="5.80369">
        <ele>451</ele>
        <time>2016-04-10T07:39:47.111Z</time>
      </trkpt>
      <trkpt lat="43.63094" lon="5.80367">
        <ele>452</ele>
        <time>2016-04-10T07:39:51.145Z</time>
      </trkpt>
      <trkpt lat="43.63092" lon="5.80365">
        <ele>451</ele>
        <time>2016-04-10T07:39:52.110Z</time>
      </trkpt>
      <trkpt lat="43.63084" lon="5.80362">
        <ele>450</ele>
        <time>2016-04-10T07:39:55.138Z</time>
      </trkpt>
      <trkpt lat="43.63081" lon="5.80361">
        <ele>450</ele>
        <time>2016-04-10T07:39:56.122Z</time>
      </trkpt>
      <trkpt lat="43.63075" lon="5.80357">
        <ele>449</ele>
        <time>2016-04-10T07:39:58.138Z</time>
      </trkpt>
      <trkpt lat="43.63072" lon="5.80355">
        <ele>449</ele>
        <time>2016-04-10T07:39:59.134Z</time>
      </trkpt>
      <trkpt lat="43.63068" lon="5.80353">
        <ele>448</ele>
        <time>2016-04-10T07:40:00.182Z</time>
      </trkpt>
      <trkpt lat="43.63063" lon="5.80351">
        <ele>448</ele>
        <time>2016-04-10T07:40:01.112Z</time>
      </trkpt>
      <trkpt lat="43.63058" lon="5.80349">
        <ele>447</ele>
        <time>2016-04-10T07:40:02.134Z</time>
      </trkpt>
      <trkpt lat="43.63052" lon="5.80346">
        <ele>446</ele>
        <time>2016-04-10T07:40:03.112Z</time>
      </trkpt>
      <trkpt lat="43.63047" lon="5.80344">
        <ele>446</ele>
        <time>2016-04-10T07:40:04.135Z</time>
      </trkpt>
      <trkpt lat="43.63041" lon="5.80342">
        <ele>445</ele>
        <time>2016-04-10T07:40:05.112Z</time>
      </trkpt>
      <trkpt lat="43.63035" lon="5.80338">
        <ele>445</ele>
        <time>2016-04-10T07:40:06.135Z</time>
      </trkpt>
      <trkpt lat="43.63029" lon="5.80334">
        <ele>445</ele>
        <time>2016-04-10T07:40:07.112Z</time>
      </trkpt>
      <trkpt lat="43.63024" lon="5.80331">
        <ele>444</ele>
        <time>2016-04-10T07:40:08.135Z</time>
      </trkpt>
      <trkpt lat="43.63018" lon="5.8033">
        <ele>444</ele>
        <time>2016-04-10T07:40:09.111Z</time>
      </trkpt>
      <trkpt lat="43.63011" lon="5.8033">
        <ele>444</ele>
        <time>2016-04-10T07:40:10.133Z</time>
      </trkpt>
      <trkpt lat="43.63005" lon="5.8033">
        <ele>444</ele>
        <time>2016-04-10T07:40:11.113Z</time>
      </trkpt>
      <trkpt lat="43.63" lon="5.8033">
        <ele>443</ele>
        <time>2016-04-10T07:40:12.138Z</time>
      </trkpt>
      <trkpt lat="43.62994" lon="5.8033">
        <ele>443</ele>
        <time>2016-04-10T07:40:13.111Z</time>
      </trkpt>
      <trkpt lat="43.62989" lon="5.8033">
        <ele>443</ele>
        <time>2016-04-10T07:40:14.136Z</time>
      </trkpt>
      <trkpt lat="43.62984" lon="5.80329">
        <ele>443</ele>
        <time>2016-04-10T07:40:15.110Z</time>
      </trkpt>
      <trkpt lat="43.62975" lon="5.80328">
        <ele>442</ele>
        <time>2016-04-10T07:40:17.136Z</time>
      </trkpt>
      <trkpt lat="43.62971" lon="5.80325">
        <ele>442</ele>
        <time>2016-04-10T07:40:18.111Z</time>
      </trkpt>
      <trkpt lat="43.62966" lon="5.80317">
        <ele>441</ele>
        <time>2016-04-10T07:40:20.160Z</time>
      </trkpt>
      <trkpt lat="43.62963" lon="5.80311">
        <ele>441</ele>
        <time>2016-04-10T07:40:21.111Z</time>
      </trkpt>
      <trkpt lat="43.62956" lon="5.80307">
        <ele>440</ele>
        <time>2016-04-10T07:40:23.135Z</time>
      </trkpt>
      <trkpt lat="43.62951" lon="5.80306">
        <ele>440</ele>
        <time>2016-04-10T07:40:24.111Z</time>
      </trkpt>
      <trkpt lat="43.62947" lon="5.80307">
        <ele>439</ele>
        <time>2016-04-10T07:40:25.135Z</time>
      </trkpt>
      <trkpt lat="43.62942" lon="5.80308">
        <ele>439</ele>
        <time>2016-04-10T07:40:26.111Z</time>
      </trkpt>
      <trkpt lat="43.62938" lon="5.80305">
        <ele>438</ele>
        <time>2016-04-10T07:40:27.136Z</time>
      </trkpt>
      <trkpt lat="43.62933" lon="5.80302">
        <ele>438</ele>
        <time>2016-04-10T07:40:28.112Z</time>
      </trkpt>
      <trkpt lat="43.62929" lon="5.80299">
        <ele>438</ele>
        <time>2016-04-10T07:40:29.135Z</time>
      </trkpt>
      <trkpt lat="43.62924" lon="5.80298">
        <ele>437</ele>
        <time>2016-04-10T07:40:30.110Z</time>
      </trkpt>
      <trkpt lat="43.62916" lon="5.80295">
        <ele>437</ele>
        <time>2016-04-10T07:40:32.133Z</time>
      </trkpt>
      <trkpt lat="43.62911" lon="5.80295">
        <ele>437</ele>
        <time>2016-04-10T07:40:33.112Z</time>
      </trkpt>
      <trkpt lat="43.62903" lon="5.80294">
        <ele>437</ele>
        <time>2016-04-10T07:40:35.136Z</time>
      </trkpt>
      <trkpt lat="43.629" lon="5.80295">
        <ele>437</ele>
        <time>2016-04-10T07:40:36.109Z</time>
      </trkpt>
      <trkpt lat="43.62892" lon="5.80296">
        <ele>437</ele>
        <time>2016-04-10T07:40:39.136Z</time>
      </trkpt>
      <trkpt lat="43.62889" lon="5.80297">
        <ele>437</ele>
        <time>2016-04-10T07:40:40.111Z</time>
      </trkpt>
      <trkpt lat="43.62883" lon="5.80302">
        <ele>438</ele>
        <time>2016-04-10T07:40:43.147Z</time>
      </trkpt>
      <trkpt lat="43.62881" lon="5.80304">
        <ele>438</ele>
        <time>2016-04-10T07:40:44.109Z</time>
      </trkpt>
      <trkpt lat="43.62875" lon="5.8031">
        <ele>439</ele>
        <time>2016-04-10T07:40:49.243Z</time>
      </trkpt>
      <trkpt lat="43.62874" lon="5.80311">
        <ele>439</ele>
        <time>2016-04-10T07:40:50.119Z</time>
      </trkpt>
      <trkpt lat="43.62867" lon="5.80316">
        <ele>440</ele>
        <time>2016-04-10T07:40:55.135Z</time>
      </trkpt>
      <trkpt lat="43.62866" lon="5.80316">
        <ele>440</ele>
        <time>2016-04-10T07:40:56.113Z</time>
      </trkpt>
      <trkpt lat="43.62857" lon="5.80315">
        <ele>441</ele>
        <time>2016-04-10T07:41:01.138Z</time>
      </trkpt>
      <trkpt lat="43.62856" lon="5.80315">
        <ele>441</ele>
        <time>2016-04-10T07:41:02.134Z</time>
      </trkpt>
      <trkpt lat="43.62849" lon="5.80311">
        <ele>441</ele>
        <time>2016-04-10T07:41:07.385Z</time>
      </trkpt>
      <trkpt lat="43.62847" lon="5.80311">
        <ele>441</ele>
        <time>2016-04-10T07:41:08.120Z</time>
      </trkpt>
      <trkpt lat="43.62839" lon="5.80305">
        <ele>441</ele>
        <time>2016-04-10T07:41:14.133Z</time>
      </trkpt>
      <trkpt lat="43.62838" lon="5.80304">
        <ele>442</ele>
        <time>2016-04-10T07:41:15.110Z</time>
      </trkpt>
      <trkpt lat="43.62834" lon="5.80294">
        <ele>442</ele>
        <time>2016-04-10T07:41:20.195Z</time>
      </trkpt>
      <trkpt lat="43.62834" lon="5.80292">
        <ele>443</ele>
        <time>2016-04-10T07:41:21.112Z</time>
      </trkpt>
      <trkpt lat="43.6283" lon="5.80283">
        <ele>444</ele>
        <time>2016-04-10T07:41:26.135Z</time>
      </trkpt>
      <trkpt lat="43.62829" lon="5.80281">
        <ele>444</ele>
        <time>2016-04-10T07:41:27.112Z</time>
      </trkpt>
      <trkpt lat="43.62824" lon="5.80271">
        <ele>446</ele>
        <time>2016-04-10T07:41:32.134Z</time>
      </trkpt>
      <trkpt lat="43.62823" lon="5.8027">
        <ele>446</ele>
        <time>2016-04-10T07:41:33.111Z</time>
      </trkpt>
      <trkpt lat="43.62819" lon="5.80261">
        <ele>447</ele>
        <time>2016-04-10T07:41:38.137Z</time>
      </trkpt>
      <trkpt lat="43.62818" lon="5.8026">
        <ele>447</ele>
        <time>2016-04-10T07:41:39.112Z</time>
      </trkpt>
      <trkpt lat="43.62813" lon="5.8025">
        <ele>448</ele>
        <time>2016-04-10T07:41:45.137Z</time>
      </trkpt>
      <trkpt lat="43.62812" lon="5.80248">
        <ele>448</ele>
        <time>2016-04-10T07:41:46.111Z</time>
      </trkpt>
      <trkpt lat="43.62807" lon="5.80238">
        <ele>451</ele>
        <time>2016-04-10T07:41:52.133Z</time>
      </trkpt>
      <trkpt lat="43.62806" lon="5.80236">
        <ele>450</ele>
        <time>2016-04-10T07:41:53.110Z</time>
      </trkpt>
      <trkpt lat="43.62802" lon="5.80225">
        <ele>451</ele>
        <time>2016-04-10T07:41:59.132Z</time>
      </trkpt>
      <trkpt lat="43.62801" lon="5.80224">
        <ele>451</ele>
        <time>2016-04-10T07:42:00.137Z</time>
      </trkpt>
      <trkpt lat="43.62797" lon="5.80214">
        <ele>451</ele>
        <time>2016-04-10T07:42:06.136Z</time>
      </trkpt>
      <trkpt lat="43.62796" lon="5.80212">
        <ele>451</ele>
        <time>2016-04-10T07:42:07.113Z</time>
      </trkpt>
      <trkpt lat="43.62794" lon="5.802">
        <ele>452</ele>
        <time>2016-04-10T07:42:13.138Z</time>
      </trkpt>
      <trkpt lat="43.62794" lon="5.80198">
        <ele>452</ele>
        <time>2016-04-10T07:42:14.112Z</time>
      </trkpt>
      <trkpt lat="43.62793" lon="5.80187">
        <ele>451</ele>
        <time>2016-04-10T07:42:19.135Z</time>
      </trkpt>
      <trkpt lat="43.62793" lon="5.80185">
        <ele>451</ele>
        <time>2016-04-10T07:42:20.113Z</time>
      </trkpt>
      <trkpt lat="43.62786" lon="5.80183">
        <ele>451</ele>
        <time>2016-04-10T07:42:25.136Z</time>
      </trkpt>
      <trkpt lat="43.62784" lon="5.80184">
        <ele>451</ele>
        <time>2016-04-10T07:42:26.111Z</time>
      </trkpt>
      <trkpt lat="43.62777" lon="5.8019">
        <ele>451</ele>
        <time>2016-04-10T07:42:30.137Z</time>
      </trkpt>
      <trkpt lat="43.62775" lon="5.80192">
        <ele>451</ele>
        <time>2016-04-10T07:42:31.112Z</time>
      </trkpt>
      <trkpt lat="43.62768" lon="5.80198">
        <ele>452</ele>
        <time>2016-04-10T07:42:36.134Z</time>
      </trkpt>
      <trkpt lat="43.62766" lon="5.802">
        <ele>452</ele>
        <time>2016-04-10T07:42:37.112Z</time>
      </trkpt>
      <trkpt lat="43.62759" lon="5.80206">
        <ele>452</ele>
        <time>2016-04-10T07:42:42.136Z</time>
      </trkpt>
      <trkpt lat="43.62758" lon="5.80207">
        <ele>452</ele>
        <time>2016-04-10T07:42:43.113Z</time>
      </trkpt>
      <trkpt lat="43.62749" lon="5.80211">
        <ele>453</ele>
        <time>2016-04-10T07:42:48.367Z</time>
      </trkpt>
      <trkpt lat="43.62748" lon="5.80213">
        <ele>453</ele>
        <time>2016-04-10T07:42:49.138Z</time>
      </trkpt>
      <trkpt lat="43.62742" lon="5.80222">
        <ele>453</ele>
        <time>2016-04-10T07:42:54.148Z</time>
      </trkpt>
      <trkpt lat="43.62741" lon="5.80224">
        <ele>453</ele>
        <time>2016-04-10T07:42:55.114Z</time>
      </trkpt>
      <trkpt lat="43.62738" lon="5.80233">
        <ele>454</ele>
        <time>2016-04-10T07:42:59.139Z</time>
      </trkpt>
      <trkpt lat="43.62737" lon="5.80235">
        <ele>454</ele>
        <time>2016-04-10T07:43:00.134Z</time>
      </trkpt>
      <trkpt lat="43.62731" lon="5.80242">
        <ele>455</ele>
        <time>2016-04-10T07:43:04.135Z</time>
      </trkpt>
      <trkpt lat="43.6273" lon="5.80243">
        <ele>455</ele>
        <time>2016-04-10T07:43:05.109Z</time>
      </trkpt>
      <trkpt lat="43.62722" lon="5.80247">
        <ele>455</ele>
        <time>2016-04-10T07:43:10.136Z</time>
      </trkpt>
      <trkpt lat="43.6272" lon="5.80249">
        <ele>455</ele>
        <time>2016-04-10T07:43:11.136Z</time>
      </trkpt>
      <trkpt lat="43.62713" lon="5.80254">
        <ele>456</ele>
        <time>2016-04-10T07:43:16.149Z</time>
      </trkpt>
      <trkpt lat="43.62712" lon="5.80255">
        <ele>456</ele>
        <time>2016-04-10T07:43:17.118Z</time>
      </trkpt>
      <trkpt lat="43.62705" lon="5.80262">
        <ele>457</ele>
        <time>2016-04-10T07:43:23.138Z</time>
      </trkpt>
      <trkpt lat="43.62704" lon="5.80263">
        <ele>457</ele>
        <time>2016-04-10T07:43:24.113Z</time>
      </trkpt>
      <trkpt lat="43.62696" lon="5.80268">
        <ele>459</ele>
        <time>2016-04-10T07:43:30.207Z</time>
      </trkpt>
      <trkpt lat="43.62695" lon="5.80268">
        <ele>460</ele>
        <time>2016-04-10T07:43:31.112Z</time>
      </trkpt>
      <trkpt lat="43.62686" lon="5.80273">
        <ele>461</ele>
        <time>2016-04-10T07:43:37.133Z</time>
      </trkpt>
      <trkpt lat="43.62685" lon="5.80274">
        <ele>461</ele>
        <time>2016-04-10T07:43:38.136Z</time>
      </trkpt>
      <trkpt lat="43.62678" lon="5.80277">
        <ele>461</ele>
        <time>2016-04-10T07:43:41.153Z</time>
      </trkpt>
      <trkpt lat="43.62676" lon="5.80278">
        <ele>461</ele>
        <time>2016-04-10T07:43:42.109Z</time>
      </trkpt>
      <trkpt lat="43.62668" lon="5.80282">
        <ele>462</ele>
        <time>2016-04-10T07:43:45.171Z</time>
      </trkpt>
      <trkpt lat="43.62666" lon="5.80283">
        <ele>461</ele>
        <time>2016-04-10T07:43:46.112Z</time>
      </trkpt>
      <trkpt lat="43.62659" lon="5.80288">
        <ele>461</ele>
        <time>2016-04-10T07:43:49.158Z</time>
      </trkpt>
      <trkpt lat="43.62656" lon="5.80289">
        <ele>461</ele>
        <time>2016-04-10T07:43:50.117Z</time>
      </trkpt>
      <trkpt lat="43.62649" lon="5.80292">
        <ele>461</ele>
        <time>2016-04-10T07:43:53.147Z</time>
      </trkpt>
      <trkpt lat="43.62647" lon="5.80293">
        <ele>461</ele>
        <time>2016-04-10T07:43:54.114Z</time>
      </trkpt>
      <trkpt lat="43.6264" lon="5.80294">
        <ele>460</ele>
        <time>2016-04-10T07:43:57.157Z</time>
      </trkpt>
      <trkpt lat="43.62638" lon="5.80295">
        <ele>460</ele>
        <time>2016-04-10T07:43:58.111Z</time>
      </trkpt>
      <trkpt lat="43.62629" lon="5.80298">
        <ele>460</ele>
        <time>2016-04-10T07:44:02.138Z</time>
      </trkpt>
      <trkpt lat="43.62628" lon="5.80298">
        <ele>459</ele>
        <time>2016-04-10T07:44:03.114Z</time>
      </trkpt>
      <trkpt lat="43.62621" lon="5.80303">
        <ele>459</ele>
        <time>2016-04-10T07:44:07.210Z</time>
      </trkpt>
      <trkpt lat="43.6262" lon="5.80304">
        <ele>460</ele>
        <time>2016-04-10T07:44:08.113Z</time>
      </trkpt>
      <trkpt lat="43.62611" lon="5.80308">
        <ele>461</ele>
        <time>2016-04-10T07:44:13.137Z</time>
      </trkpt>
      <trkpt lat="43.6261" lon="5.80308">
        <ele>461</ele>
        <time>2016-04-10T07:44:14.113Z</time>
      </trkpt>
      <trkpt lat="43.62602" lon="5.80305">
        <ele>460</ele>
        <time>2016-04-10T07:44:19.138Z</time>
      </trkpt>
      <trkpt lat="43.626" lon="5.80304">
        <ele>461</ele>
        <time>2016-04-10T07:44:20.113Z</time>
      </trkpt>
      <trkpt lat="43.62594" lon="5.80296">
        <ele>460</ele>
        <time>2016-04-10T07:44:25.138Z</time>
      </trkpt>
      <trkpt lat="43.62593" lon="5.80294">
        <ele>460</ele>
        <time>2016-04-10T07:44:26.139Z</time>
      </trkpt>
      <trkpt lat="43.62589" lon="5.80284">
        <ele>460</ele>
        <time>2016-04-10T07:44:30.138Z</time>
      </trkpt>
      <trkpt lat="43.62588" lon="5.80282">
        <ele>460</ele>
        <time>2016-04-10T07:44:31.114Z</time>
      </trkpt>
      <trkpt lat="43.62583" lon="5.80274">
        <ele>458</ele>
        <time>2016-04-10T07:48:38.142Z</time>
      </trkpt>
      <trkpt lat="43.62582" lon="5.80272">
        <ele>458</ele>
        <time>2016-04-10T07:48:39.115Z</time>
      </trkpt>
      <trkpt lat="43.62576" lon="5.80262">
        <ele>458</ele>
        <time>2016-04-10T07:48:44.168Z</time>
      </trkpt>
      <trkpt lat="43.62575" lon="5.8026">
        <ele>458</ele>
        <time>2016-04-10T07:48:45.113Z</time>
      </trkpt>
      <trkpt lat="43.62571" lon="5.8025">
        <ele>457</ele>
        <time>2016-04-10T07:48:50.131Z</time>
      </trkpt>
      <trkpt lat="43.6257" lon="5.80247">
        <ele>457</ele>
        <time>2016-04-10T07:48:51.112Z</time>
      </trkpt>
      <trkpt lat="43.62566" lon="5.80241">
        <ele>457</ele>
        <time>2016-04-10T07:48:53.135Z</time>
      </trkpt>
      <trkpt lat="43.62564" lon="5.80238">
        <ele>457</ele>
        <time>2016-04-10T07:48:54.111Z</time>
      </trkpt>
      <trkpt lat="43.62559" lon="5.80231">
        <ele>456</ele>
        <time>2016-04-10T07:48:56.423Z</time>
      </trkpt>
      <trkpt lat="43.62558" lon="5.80227">
        <ele>456</ele>
        <time>2016-04-10T07:48:57.109Z</time>
      </trkpt>
      <trkpt lat="43.62554" lon="5.80219">
        <ele>456</ele>
        <time>2016-04-10T07:48:59.165Z</time>
      </trkpt>
      <trkpt lat="43.62553" lon="5.80215">
        <ele>455</ele>
        <time>2016-04-10T07:49:00.109Z</time>
      </trkpt>
      <trkpt lat="43.62549" lon="5.80207">
        <ele>455</ele>
        <time>2016-04-10T07:49:02.151Z</time>
      </trkpt>
      <trkpt lat="43.62548" lon="5.80203">
        <ele>455</ele>
        <time>2016-04-10T07:49:03.113Z</time>
      </trkpt>
      <trkpt lat="43.62545" lon="5.80194">
        <ele>454</ele>
        <time>2016-04-10T07:49:05.138Z</time>
      </trkpt>
      <trkpt lat="43.62544" lon="5.80189">
        <ele>454</ele>
        <time>2016-04-10T07:49:06.115Z</time>
      </trkpt>
      <trkpt lat="43.62542" lon="5.8018">
        <ele>454</ele>
        <time>2016-04-10T07:49:08.141Z</time>
      </trkpt>
      <trkpt lat="43.62541" lon="5.80175">
        <ele>453</ele>
        <time>2016-04-10T07:49:09.114Z</time>
      </trkpt>
      <trkpt lat="43.62538" lon="5.80166">
        <ele>453</ele>
        <time>2016-04-10T07:49:11.138Z</time>
      </trkpt>
      <trkpt lat="43.62537" lon="5.80163">
        <ele>453</ele>
        <time>2016-04-10T07:49:12.114Z</time>
      </trkpt>
      <trkpt lat="43.62532" lon="5.80155">
        <ele>453</ele>
        <time>2016-04-10T07:49:14.139Z</time>
      </trkpt>
      <trkpt lat="43.62531" lon="5.80151">
        <ele>453</ele>
        <time>2016-04-10T07:49:15.140Z</time>
      </trkpt>
      <trkpt lat="43.62529" lon="5.80143">
        <ele>452</ele>
        <time>2016-04-10T07:49:17.139Z</time>
      </trkpt>
      <trkpt lat="43.62529" lon="5.80139">
        <ele>452</ele>
        <time>2016-04-10T07:49:18.114Z</time>
      </trkpt>
      <trkpt lat="43.62531" lon="5.8013">
        <ele>451</ele>
        <time>2016-04-10T07:49:20.140Z</time>
      </trkpt>
      <trkpt lat="43.62535" lon="5.80122">
        <ele>451</ele>
        <time>2016-04-10T07:49:21.115Z</time>
      </trkpt>
      <trkpt lat="43.62536" lon="5.80115">
        <ele>451</ele>
        <time>2016-04-10T07:49:22.152Z</time>
      </trkpt>
      <trkpt lat="43.62537" lon="5.80109">
        <ele>451</ele>
        <time>2016-04-10T07:49:23.111Z</time>
      </trkpt>
      <trkpt lat="43.6254" lon="5.80104">
        <ele>450</ele>
        <time>2016-04-10T07:49:24.139Z</time>
      </trkpt>
      <trkpt lat="43.62544" lon="5.801">
        <ele>450</ele>
        <time>2016-04-10T07:49:25.117Z</time>
      </trkpt>
      <trkpt lat="43.62549" lon="5.80092">
        <ele>449</ele>
        <time>2016-04-10T07:49:27.140Z</time>
      </trkpt>
      <trkpt lat="43.62553" lon="5.80087">
        <ele>449</ele>
        <time>2016-04-10T07:49:28.113Z</time>
      </trkpt>
      <trkpt lat="43.62557" lon="5.80083">
        <ele>449</ele>
        <time>2016-04-10T07:49:29.137Z</time>
      </trkpt>
      <trkpt lat="43.6256" lon="5.80078">
        <ele>448</ele>
        <time>2016-04-10T07:49:30.114Z</time>
      </trkpt>
      <trkpt lat="43.62563" lon="5.80071">
        <ele>448</ele>
        <time>2016-04-10T07:49:31.165Z</time>
      </trkpt>
      <trkpt lat="43.62563" lon="5.80064">
        <ele>448</ele>
        <time>2016-04-10T07:49:32.116Z</time>
      </trkpt>
      <trkpt lat="43.62563" lon="5.80057">
        <ele>448</ele>
        <time>2016-04-10T07:49:33.139Z</time>
      </trkpt>
      <trkpt lat="43.62563" lon="5.8005">
        <ele>448</ele>
        <time>2016-04-10T07:49:34.113Z</time>
      </trkpt>
      <trkpt lat="43.6256" lon="5.80041">
        <ele>449</ele>
        <time>2016-04-10T07:49:36.139Z</time>
      </trkpt>
      <trkpt lat="43.62559" lon="5.80039">
        <ele>449</ele>
        <time>2016-04-10T07:49:37.114Z</time>
      </trkpt>
      <trkpt lat="43.62554" lon="5.80029">
        <ele>450</ele>
        <time>2016-04-10T07:49:41.140Z</time>
      </trkpt>
      <trkpt lat="43.62553" lon="5.80027">
        <ele>450</ele>
        <time>2016-04-10T07:49:42.113Z</time>
      </trkpt>
      <trkpt lat="43.62549" lon="5.80018">
        <ele>450</ele>
        <time>2016-04-10T07:49:46.204Z</time>
      </trkpt>
      <trkpt lat="43.62548" lon="5.80016">
        <ele>451</ele>
        <time>2016-04-10T07:49:47.139Z</time>
      </trkpt>
      <trkpt lat="43.62544" lon="5.80006">
        <ele>451</ele>
        <time>2016-04-10T07:49:52.139Z</time>
      </trkpt>
      <trkpt lat="43.62542" lon="5.80004">
        <ele>452</ele>
        <time>2016-04-10T07:49:53.114Z</time>
      </trkpt>
      <trkpt lat="43.62538" lon="5.79998">
        <ele>452</ele>
        <time>2016-04-10T07:49:55.140Z</time>
      </trkpt>
      <trkpt lat="43.62535" lon="5.79995">
        <ele>451</ele>
        <time>2016-04-10T07:49:56.113Z</time>
      </trkpt>
      <trkpt lat="43.62528" lon="5.79988">
        <ele>451</ele>
        <time>2016-04-10T07:49:58.141Z</time>
      </trkpt>
      <trkpt lat="43.62525" lon="5.79984">
        <ele>450</ele>
        <time>2016-04-10T07:49:59.116Z</time>
      </trkpt>
      <trkpt lat="43.62519" lon="5.79976">
        <ele>450</ele>
        <time>2016-04-10T07:50:01.139Z</time>
      </trkpt>
      <trkpt lat="43.62516" lon="5.79972">
        <ele>450</ele>
        <time>2016-04-10T07:50:02.115Z</time>
      </trkpt>
      <trkpt lat="43.62511" lon="5.79963">
        <ele>450</ele>
        <time>2016-04-10T07:50:04.139Z</time>
      </trkpt>
      <trkpt lat="43.62508" lon="5.79959">
        <ele>450</ele>
        <time>2016-04-10T07:50:05.113Z</time>
      </trkpt>
      <trkpt lat="43.62503" lon="5.79951">
        <ele>451</ele>
        <time>2016-04-10T07:50:07.141Z</time>
      </trkpt>
      <trkpt lat="43.625" lon="5.79947">
        <ele>451</ele>
        <time>2016-04-10T07:50:08.116Z</time>
      </trkpt>
      <trkpt lat="43.62496" lon="5.79939">
        <ele>451</ele>
        <time>2016-04-10T07:50:11.137Z</time>
      </trkpt>
      <trkpt lat="43.62495" lon="5.79936">
        <ele>451</ele>
        <time>2016-04-10T07:50:12.113Z</time>
      </trkpt>
      <trkpt lat="43.6249" lon="5.79925">
        <ele>451</ele>
        <time>2016-04-10T07:50:16.142Z</time>
      </trkpt>
      <trkpt lat="43.62489" lon="5.79923">
        <ele>451</ele>
        <time>2016-04-10T07:50:17.115Z</time>
      </trkpt>
      <trkpt lat="43.62486" lon="5.79916">
        <ele>451</ele>
        <time>2016-04-10T07:50:19.142Z</time>
      </trkpt>
      <trkpt lat="43.62483" lon="5.7991">
        <ele>450</ele>
        <time>2016-04-10T07:50:20.115Z</time>
      </trkpt>
      <trkpt lat="43.62479" lon="5.79901">
        <ele>450</ele>
        <time>2016-04-10T07:50:21.139Z</time>
      </trkpt>
      <trkpt lat="43.62475" lon="5.79895">
        <ele>450</ele>
        <time>2016-04-10T07:50:22.112Z</time>
      </trkpt>
      <trkpt lat="43.62471" lon="5.79887">
        <ele>449</ele>
        <time>2016-04-10T07:50:23.151Z</time>
      </trkpt>
      <trkpt lat="43.62467" lon="5.7988">
        <ele>449</ele>
        <time>2016-04-10T07:50:24.139Z</time>
      </trkpt>
      <trkpt lat="43.62464" lon="5.79874">
        <ele>449</ele>
        <time>2016-04-10T07:50:25.139Z</time>
      </trkpt>
      <trkpt lat="43.6246" lon="5.79868">
        <ele>449</ele>
        <time>2016-04-10T07:50:26.114Z</time>
      </trkpt>
      <trkpt lat="43.62457" lon="5.79862">
        <ele>449</ele>
        <time>2016-04-10T07:50:27.138Z</time>
      </trkpt>
      <trkpt lat="43.62454" lon="5.79856">
        <ele>449</ele>
        <time>2016-04-10T07:50:28.113Z</time>
      </trkpt>
      <trkpt lat="43.62451" lon="5.79851">
        <ele>449</ele>
        <time>2016-04-10T07:50:29.141Z</time>
      </trkpt>
      <trkpt lat="43.62448" lon="5.79846">
        <ele>448</ele>
        <time>2016-04-10T07:50:30.115Z</time>
      </trkpt>
      <trkpt lat="43.62445" lon="5.79837">
        <ele>450</ele>
        <time>2016-04-10T07:50:32.140Z</time>
      </trkpt>
      <trkpt lat="43.62443" lon="5.79834">
        <ele>450</ele>
        <time>2016-04-10T07:50:33.114Z</time>
      </trkpt>
      <trkpt lat="43.62437" lon="5.79825">
        <ele>451</ele>
        <time>2016-04-10T07:50:36.139Z</time>
      </trkpt>
      <trkpt lat="43.62436" lon="5.79823">
        <ele>452</ele>
        <time>2016-04-10T07:50:37.114Z</time>
      </trkpt>
      <trkpt lat="43.62431" lon="5.79815">
        <ele>452</ele>
        <time>2016-04-10T07:50:40.164Z</time>
      </trkpt>
      <trkpt lat="43.62429" lon="5.79812">
        <ele>453</ele>
        <time>2016-04-10T07:50:41.114Z</time>
      </trkpt>
      <trkpt lat="43.62424" lon="5.79805">
        <ele>454</ele>
        <time>2016-04-10T07:50:44.139Z</time>
      </trkpt>
      <trkpt lat="43.62424" lon="5.79802">
        <ele>454</ele>
        <time>2016-04-10T07:50:45.100Z</time>
      </trkpt>
      <trkpt lat="43.62425" lon="5.7979">
        <ele>453</ele>
        <time>2016-04-10T07:50:50.139Z</time>
      </trkpt>
      <trkpt lat="43.62426" lon="5.79788">
        <ele>453</ele>
        <time>2016-04-10T07:50:51.152Z</time>
      </trkpt>
      <trkpt lat="43.62431" lon="5.79782">
        <ele>453</ele>
        <time>2016-04-10T07:50:55.139Z</time>
      </trkpt>
      <trkpt lat="43.62433" lon="5.79781">
        <ele>453</ele>
        <time>2016-04-10T07:50:56.113Z</time>
      </trkpt>
      <trkpt lat="43.62442" lon="5.79781">
        <ele>454</ele>
        <time>2016-04-10T07:51:01.139Z</time>
      </trkpt>
      <trkpt lat="43.62443" lon="5.79781">
        <ele>455</ele>
        <time>2016-04-10T07:51:02.138Z</time>
      </trkpt>
      <trkpt lat="43.62451" lon="5.79785">
        <ele>457</ele>
        <time>2016-04-10T07:51:07.139Z</time>
      </trkpt>
      <trkpt lat="43.62452" lon="5.79786">
        <ele>457</ele>
        <time>2016-04-10T07:51:08.114Z</time>
      </trkpt>
      <trkpt lat="43.6246" lon="5.79787">
        <ele>459</ele>
        <time>2016-04-10T07:51:13.140Z</time>
      </trkpt>
      <trkpt lat="43.62462" lon="5.79787">
        <ele>459</ele>
        <time>2016-04-10T07:51:14.113Z</time>
      </trkpt>
      <trkpt lat="43.6247" lon="5.79788">
        <ele>462</ele>
        <time>2016-04-10T07:51:19.148Z</time>
      </trkpt>
      <trkpt lat="43.62471" lon="5.79788">
        <ele>462</ele>
        <time>2016-04-10T07:51:20.115Z</time>
      </trkpt>
      <trkpt lat="43.62478" lon="5.79781">
        <ele>463</ele>
        <time>2016-04-10T07:51:26.139Z</time>
      </trkpt>
      <trkpt lat="43.62479" lon="5.79779">
        <ele>463</ele>
        <time>2016-04-10T07:51:27.123Z</time>
      </trkpt>
      <trkpt lat="43.62478" lon="5.79769">
        <ele>464</ele>
        <time>2016-04-10T07:51:32.141Z</time>
      </trkpt>
      <trkpt lat="43.62477" lon="5.79767">
        <ele>464</ele>
        <time>2016-04-10T07:51:33.115Z</time>
      </trkpt>
      <trkpt lat="43.62476" lon="5.79755">
        <ele>465</ele>
        <time>2016-04-10T07:51:39.153Z</time>
      </trkpt>
      <trkpt lat="43.62476" lon="5.79753">
        <ele>465</ele>
        <time>2016-04-10T07:51:40.115Z</time>
      </trkpt>
      <trkpt lat="43.6248" lon="5.79744">
        <ele>465</ele>
        <time>2016-04-10T07:51:49.140Z</time>
      </trkpt>
      <trkpt lat="43.62481" lon="5.79743">
        <ele>465</ele>
        <time>2016-04-10T07:51:50.114Z</time>
      </trkpt>
      <trkpt lat="43.62489" lon="5.79738">
        <ele>464</ele>
        <time>2016-04-10T07:51:55.140Z</time>
      </trkpt>
      <trkpt lat="43.62491" lon="5.79737">
        <ele>464</ele>
        <time>2016-04-10T07:51:56.114Z</time>
      </trkpt>
      <trkpt lat="43.62496" lon="5.79732">
        <ele>464</ele>
        <time>2016-04-10T07:51:58.139Z</time>
      </trkpt>
      <trkpt lat="43.62499" lon="5.79728">
        <ele>464</ele>
        <time>2016-04-10T07:51:59.115Z</time>
      </trkpt>
      <trkpt lat="43.62505" lon="5.7972">
        <ele>464</ele>
        <time>2016-04-10T07:52:01.175Z</time>
      </trkpt>
      <trkpt lat="43.62507" lon="5.79715">
        <ele>464</ele>
        <time>2016-04-10T07:52:02.114Z</time>
      </trkpt>
      <trkpt lat="43.6251" lon="5.79709">
        <ele>464</ele>
        <time>2016-04-10T07:52:03.140Z</time>
      </trkpt>
      <trkpt lat="43.62513" lon="5.79702">
        <ele>464</ele>
        <time>2016-04-10T07:52:04.114Z</time>
      </trkpt>
      <trkpt lat="43.62515" lon="5.79696">
        <ele>463</ele>
        <time>2016-04-10T07:52:05.137Z</time>
      </trkpt>
      <trkpt lat="43.62517" lon="5.79689">
        <ele>463</ele>
        <time>2016-04-10T07:52:06.113Z</time>
      </trkpt>
      <trkpt lat="43.62519" lon="5.79681">
        <ele>462</ele>
        <time>2016-04-10T07:52:07.151Z</time>
      </trkpt>
      <trkpt lat="43.62519" lon="5.79673">
        <ele>462</ele>
        <time>2016-04-10T07:52:08.115Z</time>
      </trkpt>
      <trkpt lat="43.6252" lon="5.79665">
        <ele>463</ele>
        <time>2016-04-10T07:52:09.140Z</time>
      </trkpt>
      <trkpt lat="43.62521" lon="5.79658">
        <ele>462</ele>
        <time>2016-04-10T07:52:10.115Z</time>
      </trkpt>
      <trkpt lat="43.62527" lon="5.7965">
        <ele>461</ele>
        <time>2016-04-10T07:52:13.141Z</time>
      </trkpt>
      <trkpt lat="43.6253" lon="5.79649">
        <ele>460</ele>
        <time>2016-04-10T07:52:14.114Z</time>
      </trkpt>
      <trkpt lat="43.62533" lon="5.79649">
        <ele>459</ele>
        <time>2016-04-10T07:52:15.140Z</time>
      </trkpt>
      <trkpt lat="43.62539" lon="5.79648">
        <ele>460</ele>
        <time>2016-04-10T07:52:16.114Z</time>
      </trkpt>
      <trkpt lat="43.62544" lon="5.79645">
        <ele>459</ele>
        <time>2016-04-10T07:52:17.379Z</time>
      </trkpt>
      <trkpt lat="43.62548" lon="5.79643">
        <ele>458</ele>
        <time>2016-04-10T07:52:18.110Z</time>
      </trkpt>
      <trkpt lat="43.62552" lon="5.79638">
        <ele>457</ele>
        <time>2016-04-10T07:52:19.141Z</time>
      </trkpt>
      <trkpt lat="43.62556" lon="5.79633">
        <ele>457</ele>
        <time>2016-04-10T07:52:20.125Z</time>
      </trkpt>
      <trkpt lat="43.62559" lon="5.79626">
        <ele>456</ele>
        <time>2016-04-10T07:52:21.142Z</time>
      </trkpt>
      <trkpt lat="43.62561" lon="5.79619">
        <ele>457</ele>
        <time>2016-04-10T07:52:22.115Z</time>
      </trkpt>
      <trkpt lat="43.62565" lon="5.79613">
        <ele>456</ele>
        <time>2016-04-10T07:52:23.144Z</time>
      </trkpt>
      <trkpt lat="43.62568" lon="5.79606">
        <ele>455</ele>
        <time>2016-04-10T07:52:24.116Z</time>
      </trkpt>
      <trkpt lat="43.62573" lon="5.796">
        <ele>455</ele>
        <time>2016-04-10T07:52:25.206Z</time>
      </trkpt>
      <trkpt lat="43.62576" lon="5.79592">
        <ele>454</ele>
        <time>2016-04-10T07:52:26.110Z</time>
      </trkpt>
      <trkpt lat="43.62578" lon="5.79583">
        <ele>454</ele>
        <time>2016-04-10T07:52:27.141Z</time>
      </trkpt>
      <trkpt lat="43.62578" lon="5.79574">
        <ele>453</ele>
        <time>2016-04-10T07:52:28.141Z</time>
      </trkpt>
      <trkpt lat="43.62578" lon="5.79565">
        <ele>453</ele>
        <time>2016-04-10T07:52:29.143Z</time>
      </trkpt>
      <trkpt lat="43.62577" lon="5.79556">
        <ele>453</ele>
        <time>2016-04-10T07:52:30.127Z</time>
      </trkpt>
      <trkpt lat="43.62576" lon="5.79548">
        <ele>453</ele>
        <time>2016-04-10T07:52:31.141Z</time>
      </trkpt>
      <trkpt lat="43.62573" lon="5.7954">
        <ele>453</ele>
        <time>2016-04-10T07:52:32.116Z</time>
      </trkpt>
      <trkpt lat="43.62572" lon="5.79533">
        <ele>453</ele>
        <time>2016-04-10T07:52:33.144Z</time>
      </trkpt>
      <trkpt lat="43.62571" lon="5.79526">
        <ele>453</ele>
        <time>2016-04-10T07:52:34.115Z</time>
      </trkpt>
      <trkpt lat="43.62571" lon="5.79519">
        <ele>453</ele>
        <time>2016-04-10T07:52:35.153Z</time>
      </trkpt>
      <trkpt lat="43.6257" lon="5.79513">
        <ele>453</ele>
        <time>2016-04-10T07:52:36.114Z</time>
      </trkpt>
      <trkpt lat="43.62569" lon="5.79507">
        <ele>454</ele>
        <time>2016-04-10T07:52:37.142Z</time>
      </trkpt>
      <trkpt lat="43.62569" lon="5.795">
        <ele>453</ele>
        <time>2016-04-10T07:52:38.125Z</time>
      </trkpt>
      <trkpt lat="43.62568" lon="5.7949">
        <ele>453</ele>
        <time>2016-04-10T07:52:40.140Z</time>
      </trkpt>
      <trkpt lat="43.62567" lon="5.79484">
        <ele>453</ele>
        <time>2016-04-10T07:52:41.114Z</time>
      </trkpt>
      <trkpt lat="43.62567" lon="5.79472">
        <ele>452</ele>
        <time>2016-04-10T07:52:43.142Z</time>
      </trkpt>
      <trkpt lat="43.62567" lon="5.79466">
        <ele>453</ele>
        <time>2016-04-10T07:52:44.111Z</time>
      </trkpt>
      <trkpt lat="43.62568" lon="5.79456">
        <ele>453</ele>
        <time>2016-04-10T07:52:46.140Z</time>
      </trkpt>
      <trkpt lat="43.62569" lon="5.7945">
        <ele>453</ele>
        <time>2016-04-10T07:52:47.114Z</time>
      </trkpt>
      <trkpt lat="43.6257" lon="5.79438">
        <ele>452</ele>
        <time>2016-04-10T07:52:50.139Z</time>
      </trkpt>
      <trkpt lat="43.62571" lon="5.79437">
        <ele>452</ele>
        <time>2016-04-10T07:52:51.114Z</time>
      </trkpt>
      <trkpt lat="43.62577" lon="5.7943">
        <ele>451</ele>
        <time>2016-04-10T07:52:56.139Z</time>
      </trkpt>
      <trkpt lat="43.62579" lon="5.79429">
        <ele>451</ele>
        <time>2016-04-10T07:52:57.114Z</time>
      </trkpt>
      <trkpt lat="43.62585" lon="5.79426">
        <ele>451</ele>
        <time>2016-04-10T07:53:00.142Z</time>
      </trkpt>
      <trkpt lat="43.62588" lon="5.79424">
        <ele>450</ele>
        <time>2016-04-10T07:53:01.111Z</time>
      </trkpt>
      <trkpt lat="43.62594" lon="5.79422">
        <ele>450</ele>
        <time>2016-04-10T07:53:03.221Z</time>
      </trkpt>
      <trkpt lat="43.62598" lon="5.79423">
        <ele>449</ele>
        <time>2016-04-10T07:53:04.114Z</time>
      </trkpt>
      <trkpt lat="43.62606" lon="5.79429">
        <ele>448</ele>
        <time>2016-04-10T07:53:05.151Z</time>
      </trkpt>
      <trkpt lat="43.62611" lon="5.7943">
        <ele>448</ele>
        <time>2016-04-10T07:53:06.115Z</time>
      </trkpt>
      <trkpt lat="43.62614" lon="5.79436">
        <ele>449</ele>
        <time>2016-04-10T07:53:07.139Z</time>
      </trkpt>
      <trkpt lat="43.62618" lon="5.7944">
        <ele>449</ele>
        <time>2016-04-10T07:53:08.114Z</time>
      </trkpt>
      <trkpt lat="43.62626" lon="5.79438">
        <ele>449</ele>
        <time>2016-04-10T07:53:10.164Z</time>
      </trkpt>
      <trkpt lat="43.62629" lon="5.79433">
        <ele>451</ele>
        <time>2016-04-10T07:53:11.114Z</time>
      </trkpt>
      <trkpt lat="43.62631" lon="5.79427">
        <ele>450</ele>
        <time>2016-04-10T07:53:12.141Z</time>
      </trkpt>
      <trkpt lat="43.62634" lon="5.79421">
        <ele>449</ele>
        <time>2016-04-10T07:53:13.339Z</time>
      </trkpt>
      <trkpt lat="43.62636" lon="5.79415">
        <ele>448</ele>
        <time>2016-04-10T07:53:14.140Z</time>
      </trkpt>
      <trkpt lat="43.62639" lon="5.79407">
        <ele>447</ele>
        <time>2016-04-10T07:53:15.115Z</time>
      </trkpt>
      <trkpt lat="43.62641" lon="5.79399">
        <ele>445</ele>
        <time>2016-04-10T07:53:16.142Z</time>
      </trkpt>
      <trkpt lat="43.62643" lon="5.79389">
        <ele>446</ele>
        <time>2016-04-10T07:53:17.115Z</time>
      </trkpt>
      <trkpt lat="43.62646" lon="5.79381">
        <ele>445</ele>
        <time>2016-04-10T07:53:18.139Z</time>
      </trkpt>
      <trkpt lat="43.6265" lon="5.79375">
        <ele>444</ele>
        <time>2016-04-10T07:53:19.114Z</time>
      </trkpt>
      <trkpt lat="43.62653" lon="5.79368">
        <ele>443</ele>
        <time>2016-04-10T07:53:20.141Z</time>
      </trkpt>
      <trkpt lat="43.62656" lon="5.79362">
        <ele>443</ele>
        <time>2016-04-10T07:53:21.115Z</time>
      </trkpt>
      <trkpt lat="43.62658" lon="5.7935">
        <ele>441</ele>
        <time>2016-04-10T07:53:23.139Z</time>
      </trkpt>
      <trkpt lat="43.62657" lon="5.79344">
        <ele>441</ele>
        <time>2016-04-10T07:53:24.115Z</time>
      </trkpt>
      <trkpt lat="43.62655" lon="5.79338">
        <ele>441</ele>
        <time>2016-04-10T07:53:25.140Z</time>
      </trkpt>
      <trkpt lat="43.62652" lon="5.79333">
        <ele>440</ele>
        <time>2016-04-10T07:53:26.139Z</time>
      </trkpt>
      <trkpt lat="43.62647" lon="5.79323">
        <ele>440</ele>
        <time>2016-04-10T07:53:28.138Z</time>
      </trkpt>
      <trkpt lat="43.62645" lon="5.79318">
        <ele>439</ele>
        <time>2016-04-10T07:53:29.115Z</time>
      </trkpt>
      <trkpt lat="43.62643" lon="5.79311">
        <ele>439</ele>
        <time>2016-04-10T07:53:30.139Z</time>
      </trkpt>
      <trkpt lat="43.62641" lon="5.79305">
        <ele>439</ele>
        <time>2016-04-10T07:53:31.114Z</time>
      </trkpt>
      <trkpt lat="43.62639" lon="5.79299">
        <ele>438</ele>
        <time>2016-04-10T07:53:32.139Z</time>
      </trkpt>
      <trkpt lat="43.62637" lon="5.79293">
        <ele>438</ele>
        <time>2016-04-10T07:53:33.114Z</time>
      </trkpt>
      <trkpt lat="43.62636" lon="5.79286">
        <ele>438</ele>
        <time>2016-04-10T07:53:34.138Z</time>
      </trkpt>
      <trkpt lat="43.62635" lon="5.79279">
        <ele>439</ele>
        <time>2016-04-10T07:53:35.113Z</time>
      </trkpt>
      <trkpt lat="43.62634" lon="5.79273">
        <ele>439</ele>
        <time>2016-04-10T07:53:36.150Z</time>
      </trkpt>
      <trkpt lat="43.62633" lon="5.79267">
        <ele>440</ele>
        <time>2016-04-10T07:53:37.114Z</time>
      </trkpt>
      <trkpt lat="43.62631" lon="5.79256">
        <ele>440</ele>
        <time>2016-04-10T07:53:39.134Z</time>
      </trkpt>
      <trkpt lat="43.62631" lon="5.79251">
        <ele>440</ele>
        <time>2016-04-10T07:53:40.113Z</time>
      </trkpt>
      <trkpt lat="43.6263" lon="5.7924">
        <ele>440</ele>
        <time>2016-04-10T07:53:42.158Z</time>
      </trkpt>
      <trkpt lat="43.62629" lon="5.79235">
        <ele>441</ele>
        <time>2016-04-10T07:53:43.112Z</time>
      </trkpt>
      <trkpt lat="43.62628" lon="5.79225">
        <ele>440</ele>
        <time>2016-04-10T07:53:45.139Z</time>
      </trkpt>
      <trkpt lat="43.62628" lon="5.79219">
        <ele>440</ele>
        <time>2016-04-10T07:53:46.124Z</time>
      </trkpt>
      <trkpt lat="43.62628" lon="5.79207">
        <ele>440</ele>
        <time>2016-04-10T07:53:48.139Z</time>
      </trkpt>
      <trkpt lat="43.62628" lon="5.79202">
        <ele>440</ele>
        <time>2016-04-10T07:53:49.126Z</time>
      </trkpt>
      <trkpt lat="43.62629" lon="5.7919">
        <ele>439</ele>
        <time>2016-04-10T07:53:51.141Z</time>
      </trkpt>
      <trkpt lat="43.62629" lon="5.79184">
        <ele>439</ele>
        <time>2016-04-10T07:53:52.116Z</time>
      </trkpt>
      <trkpt lat="43.62628" lon="5.79173">
        <ele>439</ele>
        <time>2016-04-10T07:53:54.140Z</time>
      </trkpt>
      <trkpt lat="43.62627" lon="5.79168">
        <ele>438</ele>
        <time>2016-04-10T07:53:55.125Z</time>
      </trkpt>
      <trkpt lat="43.62629" lon="5.79157">
        <ele>438</ele>
        <time>2016-04-10T07:53:57.139Z</time>
      </trkpt>
      <trkpt lat="43.6263" lon="5.79153">
        <ele>438</ele>
        <time>2016-04-10T07:53:58.147Z</time>
      </trkpt>
      <trkpt lat="43.62634" lon="5.79144">
        <ele>438</ele>
        <time>2016-04-10T07:54:00.158Z</time>
      </trkpt>
      <trkpt lat="43.62635" lon="5.7914">
        <ele>438</ele>
        <time>2016-04-10T07:54:01.112Z</time>
      </trkpt>
      <trkpt lat="43.62635" lon="5.79131">
        <ele>438</ele>
        <time>2016-04-10T07:54:03.156Z</time>
      </trkpt>
      <trkpt lat="43.62635" lon="5.79127">
        <ele>439</ele>
        <time>2016-04-10T07:54:04.116Z</time>
      </trkpt>
      <trkpt lat="43.62636" lon="5.79116">
        <ele>439</ele>
        <time>2016-04-10T07:54:09.150Z</time>
      </trkpt>
      <trkpt lat="43.62636" lon="5.79114">
        <ele>439</ele>
        <time>2016-04-10T07:54:10.331Z</time>
      </trkpt>
      <trkpt lat="43.62638" lon="5.79102">
        <ele>441</ele>
        <time>2016-04-10T07:54:16.184Z</time>
      </trkpt>
      <trkpt lat="43.62638" lon="5.791">
        <ele>442</ele>
        <time>2016-04-10T07:54:17.113Z</time>
      </trkpt>
      <trkpt lat="43.62637" lon="5.79089">
        <ele>443</ele>
        <time>2016-04-10T07:54:23.140Z</time>
      </trkpt>
      <trkpt lat="43.62637" lon="5.79087">
        <ele>443</ele>
        <time>2016-04-10T07:54:24.114Z</time>
      </trkpt>
      <trkpt lat="43.62638" lon="5.79076">
        <ele>445</ele>
        <time>2016-04-10T07:54:31.138Z</time>
      </trkpt>
      <trkpt lat="43.62638" lon="5.79074">
        <ele>445</ele>
        <time>2016-04-10T07:54:32.115Z</time>
      </trkpt>
      <trkpt lat="43.62633" lon="5.79065">
        <ele>447</ele>
        <time>2016-04-10T07:54:39.141Z</time>
      </trkpt>
      <trkpt lat="43.62632" lon="5.79064">
        <ele>447</ele>
        <time>2016-04-10T07:54:40.114Z</time>
      </trkpt>
      <trkpt lat="43.62624" lon="5.79059">
        <ele>448</ele>
        <time>2016-04-10T07:54:46.171Z</time>
      </trkpt>
      <trkpt lat="43.62623" lon="5.79058">
        <ele>448</ele>
        <time>2016-04-10T07:54:47.114Z</time>
      </trkpt>
      <trkpt lat="43.62614" lon="5.79054">
        <ele>449</ele>
        <time>2016-04-10T07:54:53.139Z</time>
      </trkpt>
      <trkpt lat="43.62613" lon="5.79054">
        <ele>449</ele>
        <time>2016-04-10T07:54:54.114Z</time>
      </trkpt>
      <trkpt lat="43.62605" lon="5.7905">
        <ele>450</ele>
        <time>2016-04-10T07:55:00.137Z</time>
      </trkpt>
      <trkpt lat="43.62603" lon="5.7905">
        <ele>450</ele>
        <time>2016-04-10T07:55:01.113Z</time>
      </trkpt>
      <trkpt lat="43.62595" lon="5.79048">
        <ele>450</ele>
        <time>2016-04-10T07:55:07.140Z</time>
      </trkpt>
      <trkpt lat="43.62594" lon="5.79047">
        <ele>450</ele>
        <time>2016-04-10T07:55:08.115Z</time>
      </trkpt>
      <trkpt lat="43.62587" lon="5.79044">
        <ele>450</ele>
        <time>2016-04-10T07:55:14.335Z</time>
      </trkpt>
      <trkpt lat="43.62585" lon="5.79043">
        <ele>450</ele>
        <time>2016-04-10T07:55:15.113Z</time>
      </trkpt>
      <trkpt lat="43.62578" lon="5.79039">
        <ele>450</ele>
        <time>2016-04-10T07:55:19.141Z</time>
      </trkpt>
      <trkpt lat="43.62577" lon="5.79038">
        <ele>450</ele>
        <time>2016-04-10T07:55:20.116Z</time>
      </trkpt>
      <trkpt lat="43.62569" lon="5.79035">
        <ele>450</ele>
        <time>2016-04-10T07:55:24.139Z</time>
      </trkpt>
      <trkpt lat="43.62567" lon="5.79035">
        <ele>451</ele>
        <time>2016-04-10T07:55:25.115Z</time>
      </trkpt>
      <trkpt lat="43.62559" lon="5.79031">
        <ele>451</ele>
        <time>2016-04-10T07:55:29.141Z</time>
      </trkpt>
      <trkpt lat="43.62558" lon="5.7903">
        <ele>451</ele>
        <time>2016-04-10T07:55:30.115Z</time>
      </trkpt>
      <trkpt lat="43.6255" lon="5.79026">
        <ele>451</ele>
        <time>2016-04-10T07:55:34.166Z</time>
      </trkpt>
      <trkpt lat="43.62549" lon="5.79024">
        <ele>451</ele>
        <time>2016-04-10T07:55:35.115Z</time>
      </trkpt>
      <trkpt lat="43.62542" lon="5.79019">
        <ele>451</ele>
        <time>2016-04-10T07:55:39.139Z</time>
      </trkpt>
      <trkpt lat="43.62541" lon="5.79017">
        <ele>451</ele>
        <time>2016-04-10T07:55:40.117Z</time>
      </trkpt>
      <trkpt lat="43.62534" lon="5.79013">
        <ele>452</ele>
        <time>2016-04-10T07:55:45.163Z</time>
      </trkpt>
      <trkpt lat="43.62532" lon="5.79013">
        <ele>452</ele>
        <time>2016-04-10T07:55:46.115Z</time>
      </trkpt>
      <trkpt lat="43.62525" lon="5.79013">
        <ele>454</ele>
        <time>2016-04-10T07:55:51.139Z</time>
      </trkpt>
      <trkpt lat="43.62523" lon="5.79013">
        <ele>454</ele>
        <time>2016-04-10T07:55:52.114Z</time>
      </trkpt>
      <trkpt lat="43.62514" lon="5.79015">
        <ele>456</ele>
        <time>2016-04-10T07:55:58.141Z</time>
      </trkpt>
      <trkpt lat="43.62513" lon="5.79015">
        <ele>456</ele>
        <time>2016-04-10T07:55:59.115Z</time>
      </trkpt>
      <trkpt lat="43.62505" lon="5.79015">
        <ele>457</ele>
        <time>2016-04-10T07:56:04.290Z</time>
      </trkpt>
      <trkpt lat="43.62503" lon="5.79015">
        <ele>457</ele>
        <time>2016-04-10T07:56:05.116Z</time>
      </trkpt>
      <trkpt lat="43.62496" lon="5.79014">
        <ele>457</ele>
        <time>2016-04-10T07:56:10.157Z</time>
      </trkpt>
      <trkpt lat="43.62494" lon="5.79014">
        <ele>457</ele>
        <time>2016-04-10T07:56:11.111Z</time>
      </trkpt>
      <trkpt lat="43.62486" lon="5.79015">
        <ele>458</ele>
        <time>2016-04-10T07:56:17.139Z</time>
      </trkpt>
      <trkpt lat="43.62484" lon="5.79014">
        <ele>459</ele>
        <time>2016-04-10T07:56:18.123Z</time>
      </trkpt>
      <trkpt lat="43.62476" lon="5.79013">
        <ele>460</ele>
        <time>2016-04-10T07:56:24.142Z</time>
      </trkpt>
      <trkpt lat="43.62475" lon="5.79014">
        <ele>459</ele>
        <time>2016-04-10T07:56:25.115Z</time>
      </trkpt>
      <trkpt lat="43.62469" lon="5.79021">
        <ele>459</ele>
        <time>2016-04-10T07:56:30.140Z</time>
      </trkpt>
      <trkpt lat="43.62468" lon="5.79024">
        <ele>459</ele>
        <time>2016-04-10T07:56:31.115Z</time>
      </trkpt>
      <trkpt lat="43.62463" lon="5.79033">
        <ele>462</ele>
        <time>2016-04-10T07:56:36.137Z</time>
      </trkpt>
      <trkpt lat="43.62462" lon="5.79034">
        <ele>462</ele>
        <time>2016-04-10T07:56:37.115Z</time>
      </trkpt>
      <trkpt lat="43.62455" lon="5.7904">
        <ele>462</ele>
        <time>2016-04-10T07:56:42.194Z</time>
      </trkpt>
      <trkpt lat="43.62454" lon="5.79041">
        <ele>463</ele>
        <time>2016-04-10T07:56:43.115Z</time>
      </trkpt>
      <trkpt lat="43.62447" lon="5.79049">
        <ele>466</ele>
        <time>2016-04-10T07:56:49.141Z</time>
      </trkpt>
      <trkpt lat="43.62446" lon="5.7905">
        <ele>467</ele>
        <time>2016-04-10T07:56:50.139Z</time>
      </trkpt>
      <trkpt lat="43.62438" lon="5.79055">
        <ele>467</ele>
        <time>2016-04-10T07:56:56.140Z</time>
      </trkpt>
      <trkpt lat="43.62436" lon="5.79056">
        <ele>466</ele>
        <time>2016-04-10T07:56:57.126Z</time>
      </trkpt>
      <trkpt lat="43.62429" lon="5.79061">
        <ele>468</ele>
        <time>2016-04-10T07:57:03.141Z</time>
      </trkpt>
      <trkpt lat="43.62427" lon="5.79062">
        <ele>468</ele>
        <time>2016-04-10T07:57:04.116Z</time>
      </trkpt>
      <trkpt lat="43.62419" lon="5.79063">
        <ele>470</ele>
        <time>2016-04-10T07:57:10.139Z</time>
      </trkpt>
      <trkpt lat="43.62417" lon="5.79063">
        <ele>470</ele>
        <time>2016-04-10T07:57:11.115Z</time>
      </trkpt>
      <trkpt lat="43.62409" lon="5.79061">
        <ele>471</ele>
        <time>2016-04-10T07:57:17.148Z</time>
      </trkpt>
      <trkpt lat="43.62407" lon="5.7906">
        <ele>471</ele>
        <time>2016-04-10T07:57:18.112Z</time>
      </trkpt>
      <trkpt lat="43.624" lon="5.79057">
        <ele>471</ele>
        <time>2016-04-10T07:57:23.140Z</time>
      </trkpt>
      <trkpt lat="43.62399" lon="5.79056">
        <ele>471</ele>
        <time>2016-04-10T07:57:24.110Z</time>
      </trkpt>
      <trkpt lat="43.62391" lon="5.79053">
        <ele>473</ele>
        <time>2016-04-10T07:57:29.141Z</time>
      </trkpt>
      <trkpt lat="43.6239" lon="5.79052">
        <ele>473</ele>
        <time>2016-04-10T07:57:30.114Z</time>
      </trkpt>
      <trkpt lat="43.62382" lon="5.79046">
        <ele>475</ele>
        <time>2016-04-10T07:57:36.141Z</time>
      </trkpt>
      <trkpt lat="43.62381" lon="5.79046">
        <ele>475</ele>
        <time>2016-04-10T07:57:37.118Z</time>
      </trkpt>
      <trkpt lat="43.62373" lon="5.79044">
        <ele>474</ele>
        <time>2016-04-10T07:57:42.140Z</time>
      </trkpt>
      <trkpt lat="43.62372" lon="5.79044">
        <ele>474</ele>
        <time>2016-04-10T07:57:43.113Z</time>
      </trkpt>
      <trkpt lat="43.62364" lon="5.79041">
        <ele>475</ele>
        <time>2016-04-10T07:57:48.140Z</time>
      </trkpt>
      <trkpt lat="43.62362" lon="5.79041">
        <ele>474</ele>
        <time>2016-04-10T07:57:49.115Z</time>
      </trkpt>
      <trkpt lat="43.62355" lon="5.79038">
        <ele>474</ele>
        <time>2016-04-10T07:57:53.140Z</time>
      </trkpt>
      <trkpt lat="43.62353" lon="5.79037">
        <ele>474</ele>
        <time>2016-04-10T07:57:54.115Z</time>
      </trkpt>
      <trkpt lat="43.62346" lon="5.79034">
        <ele>474</ele>
        <time>2016-04-10T07:57:58.140Z</time>
      </trkpt>
      <trkpt lat="43.62344" lon="5.79034">
        <ele>474</ele>
        <time>2016-04-10T07:57:59.115Z</time>
      </trkpt>
      <trkpt lat="43.62337" lon="5.79032">
        <ele>474</ele>
        <time>2016-04-10T07:58:03.140Z</time>
      </trkpt>
      <trkpt lat="43.62335" lon="5.79031">
        <ele>475</ele>
        <time>2016-04-10T07:58:04.126Z</time>
      </trkpt>
      <trkpt lat="43.62328" lon="5.79029">
        <ele>476</ele>
        <time>2016-04-10T07:58:08.140Z</time>
      </trkpt>
      <trkpt lat="43.62326" lon="5.79028">
        <ele>476</ele>
        <time>2016-04-10T07:58:09.115Z</time>
      </trkpt>
      <trkpt lat="43.62318" lon="5.79024">
        <ele>477</ele>
        <time>2016-04-10T07:58:14.142Z</time>
      </trkpt>
      <trkpt lat="43.62316" lon="5.79023">
        <ele>477</ele>
        <time>2016-04-10T07:58:15.116Z</time>
      </trkpt>
      <trkpt lat="43.62308" lon="5.7902">
        <ele>478</ele>
        <time>2016-04-10T07:58:20.141Z</time>
      </trkpt>
      <trkpt lat="43.62306" lon="5.79019">
        <ele>478</ele>
        <time>2016-04-10T07:58:21.112Z</time>
      </trkpt>
      <trkpt lat="43.62298" lon="5.79018">
        <ele>478</ele>
        <time>2016-04-10T07:58:26.140Z</time>
      </trkpt>
      <trkpt lat="43.62296" lon="5.79018">
        <ele>478</ele>
        <time>2016-04-10T07:58:27.113Z</time>
      </trkpt>
      <trkpt lat="43.62288" lon="5.79017">
        <ele>479</ele>
        <time>2016-04-10T07:58:32.140Z</time>
      </trkpt>
      <trkpt lat="43.62286" lon="5.79017">
        <ele>479</ele>
        <time>2016-04-10T07:58:33.140Z</time>
      </trkpt>
      <trkpt lat="43.62277" lon="5.79019">
        <ele>479</ele>
        <time>2016-04-10T07:58:38.141Z</time>
      </trkpt>
      <trkpt lat="43.62275" lon="5.7902">
        <ele>479</ele>
        <time>2016-04-10T07:58:39.116Z</time>
      </trkpt>
      <trkpt lat="43.62267" lon="5.79022">
        <ele>480</ele>
        <time>2016-04-10T07:58:44.126Z</time>
      </trkpt>
      <trkpt lat="43.62265" lon="5.79022">
        <ele>480</ele>
        <time>2016-04-10T07:58:45.115Z</time>
      </trkpt>
      <trkpt lat="43.62256" lon="5.79024">
        <ele>480</ele>
        <time>2016-04-10T07:58:50.150Z</time>
      </trkpt>
      <trkpt lat="43.62255" lon="5.79024">
        <ele>480</ele>
        <time>2016-04-10T07:58:51.117Z</time>
      </trkpt>
      <trkpt lat="43.62247" lon="5.79027">
        <ele>482</ele>
        <time>2016-04-10T07:58:55.151Z</time>
      </trkpt>
      <trkpt lat="43.62245" lon="5.79028">
        <ele>482</ele>
        <time>2016-04-10T07:58:56.116Z</time>
      </trkpt>
      <trkpt lat="43.62237" lon="5.7903">
        <ele>483</ele>
        <time>2016-04-10T07:59:00.125Z</time>
      </trkpt>
      <trkpt lat="43.62235" lon="5.7903">
        <ele>482</ele>
        <time>2016-04-10T07:59:01.113Z</time>
      </trkpt>
      <trkpt lat="43.62226" lon="5.79028">
        <ele>482</ele>
        <time>2016-04-10T07:59:05.151Z</time>
      </trkpt>
      <trkpt lat="43.62224" lon="5.79028">
        <ele>482</ele>
        <time>2016-04-10T07:59:06.116Z</time>
      </trkpt>
      <trkpt lat="43.62216" lon="5.79028">
        <ele>483</ele>
        <time>2016-04-10T07:59:10.162Z</time>
      </trkpt>
      <trkpt lat="43.62213" lon="5.79028">
        <ele>483</ele>
        <time>2016-04-10T07:59:11.116Z</time>
      </trkpt>
      <trkpt lat="43.62206" lon="5.79027">
        <ele>483</ele>
        <time>2016-04-10T07:59:14.141Z</time>
      </trkpt>
      <trkpt lat="43.62204" lon="5.79026">
        <ele>483</ele>
        <time>2016-04-10T07:59:15.115Z</time>
      </trkpt>
      <trkpt lat="43.62197" lon="5.79023">
        <ele>483</ele>
        <time>2016-04-10T07:59:18.141Z</time>
      </trkpt>
      <trkpt lat="43.62194" lon="5.79022">
        <ele>483</ele>
        <time>2016-04-10T07:59:19.116Z</time>
      </trkpt>
      <trkpt lat="43.62187" lon="5.79019">
        <ele>483</ele>
        <time>2016-04-10T07:59:22.357Z</time>
      </trkpt>
      <trkpt lat="43.62185" lon="5.79018">
        <ele>483</ele>
        <time>2016-04-10T07:59:23.115Z</time>
      </trkpt>
      <trkpt lat="43.62179" lon="5.79014">
        <ele>483</ele>
        <time>2016-04-10T07:59:26.166Z</time>
      </trkpt>
      <trkpt lat="43.62177" lon="5.79013">
        <ele>483</ele>
        <time>2016-04-10T07:59:27.116Z</time>
      </trkpt>
      <trkpt lat="43.62171" lon="5.79008">
        <ele>482</ele>
        <time>2016-04-10T07:59:30.141Z</time>
      </trkpt>
      <trkpt lat="43.62169" lon="5.79006">
        <ele>483</ele>
        <time>2016-04-10T07:59:31.115Z</time>
      </trkpt>
      <trkpt lat="43.62164" lon="5.79">
        <ele>483</ele>
        <time>2016-04-10T07:59:34.141Z</time>
      </trkpt>
      <trkpt lat="43.62163" lon="5.78997">
        <ele>483</ele>
        <time>2016-04-10T07:59:35.115Z</time>
      </trkpt>
      <trkpt lat="43.62157" lon="5.78992">
        <ele>483</ele>
        <time>2016-04-10T07:59:38.140Z</time>
      </trkpt>
      <trkpt lat="43.62155" lon="5.78991">
        <ele>483</ele>
        <time>2016-04-10T07:59:39.115Z</time>
      </trkpt>
      <trkpt lat="43.62146" lon="5.78993">
        <ele>484</ele>
        <time>2016-04-10T07:59:43.139Z</time>
      </trkpt>
      <trkpt lat="43.62144" lon="5.78994">
        <ele>484</ele>
        <time>2016-04-10T07:59:44.119Z</time>
      </trkpt>
      <trkpt lat="43.62137" lon="5.78997">
        <ele>484</ele>
        <time>2016-04-10T07:59:47.139Z</time>
      </trkpt>
      <trkpt lat="43.62135" lon="5.78998">
        <ele>485</ele>
        <time>2016-04-10T07:59:48.116Z</time>
      </trkpt>
      <trkpt lat="43.62127" lon="5.79002">
        <ele>485</ele>
        <time>2016-04-10T07:59:51.141Z</time>
      </trkpt>
      <trkpt lat="43.62124" lon="5.79003">
        <ele>485</ele>
        <time>2016-04-10T07:59:52.116Z</time>
      </trkpt>
      <trkpt lat="43.62117" lon="5.79008">
        <ele>484</ele>
        <time>2016-04-10T07:59:55.140Z</time>
      </trkpt>
      <trkpt lat="43.62114" lon="5.79009">
        <ele>484</ele>
        <time>2016-04-10T07:59:56.117Z</time>
      </trkpt>
      <trkpt lat="43.62107" lon="5.79012">
        <ele>484</ele>
        <time>2016-04-10T07:59:59.140Z</time>
      </trkpt>
      <trkpt lat="43.62104" lon="5.79012">
        <ele>485</ele>
        <time>2016-04-10T08:00:00.287Z</time>
      </trkpt>
      <trkpt lat="43.62098" lon="5.79015">
        <ele>484</ele>
        <time>2016-04-10T08:00:03.143Z</time>
      </trkpt>
      <trkpt lat="43.62095" lon="5.79016">
        <ele>485</ele>
        <time>2016-04-10T08:00:04.110Z</time>
      </trkpt>
      <trkpt lat="43.62089" lon="5.7902">
        <ele>486</ele>
        <time>2016-04-10T08:00:08.141Z</time>
      </trkpt>
      <trkpt lat="43.62087" lon="5.79022">
        <ele>486</ele>
        <time>2016-04-10T08:00:09.116Z</time>
      </trkpt>
      <trkpt lat="43.62081" lon="5.79028">
        <ele>488</ele>
        <time>2016-04-10T08:00:13.140Z</time>
      </trkpt>
      <trkpt lat="43.62079" lon="5.79029">
        <ele>488</ele>
        <time>2016-04-10T08:00:14.148Z</time>
      </trkpt>
      <trkpt lat="43.62072" lon="5.79034">
        <ele>489</ele>
        <time>2016-04-10T08:00:18.141Z</time>
      </trkpt>
      <trkpt lat="43.6207" lon="5.79035">
        <ele>489</ele>
        <time>2016-04-10T08:00:19.128Z</time>
      </trkpt>
      <trkpt lat="43.62062" lon="5.79039">
        <ele>490</ele>
        <time>2016-04-10T08:00:23.140Z</time>
      </trkpt>
      <trkpt lat="43.62061" lon="5.79039">
        <ele>490</ele>
        <time>2016-04-10T08:00:24.113Z</time>
      </trkpt>
      <trkpt lat="43.62053" lon="5.79044">
        <ele>490</ele>
        <time>2016-04-10T08:00:30.142Z</time>
      </trkpt>
      <trkpt lat="43.62052" lon="5.79044">
        <ele>490</ele>
        <time>2016-04-10T08:00:31.118Z</time>
      </trkpt>
      <trkpt lat="43.62044" lon="5.79048">
        <ele>490</ele>
        <time>2016-04-10T08:00:35.141Z</time>
      </trkpt>
      <trkpt lat="43.62043" lon="5.79049">
        <ele>490</ele>
        <time>2016-04-10T08:00:36.116Z</time>
      </trkpt>
      <trkpt lat="43.62035" lon="5.79054">
        <ele>491</ele>
        <time>2016-04-10T08:00:40.143Z</time>
      </trkpt>
      <trkpt lat="43.62033" lon="5.79055">
        <ele>491</ele>
        <time>2016-04-10T08:00:41.141Z</time>
      </trkpt>
      <trkpt lat="43.62028" lon="5.7906">
        <ele>491</ele>
        <time>2016-04-10T08:00:44.141Z</time>
      </trkpt>
      <trkpt lat="43.62026" lon="5.79062">
        <ele>491</ele>
        <time>2016-04-10T08:00:45.117Z</time>
      </trkpt>
      <trkpt lat="43.62019" lon="5.79069">
        <ele>491</ele>
        <time>2016-04-10T08:00:48.141Z</time>
      </trkpt>
      <trkpt lat="43.62017" lon="5.79071">
        <ele>491</ele>
        <time>2016-04-10T08:00:49.116Z</time>
      </trkpt>
      <trkpt lat="43.6201" lon="5.79075">
        <ele>491</ele>
        <time>2016-04-10T08:00:52.141Z</time>
      </trkpt>
      <trkpt lat="43.62007" lon="5.79077">
        <ele>491</ele>
        <time>2016-04-10T08:00:53.127Z</time>
      </trkpt>
      <trkpt lat="43.62" lon="5.79081">
        <ele>491</ele>
        <time>2016-04-10T08:00:56.138Z</time>
      </trkpt>
      <trkpt lat="43.61998" lon="5.79082">
        <ele>491</ele>
        <time>2016-04-10T08:00:57.140Z</time>
      </trkpt>
      <trkpt lat="43.61991" lon="5.79086">
        <ele>491</ele>
        <time>2016-04-10T08:01:00.140Z</time>
      </trkpt>
      <trkpt lat="43.61988" lon="5.79087">
        <ele>491</ele>
        <time>2016-04-10T08:01:01.116Z</time>
      </trkpt>
      <trkpt lat="43.61981" lon="5.79089">
        <ele>491</ele>
        <time>2016-04-10T08:01:04.137Z</time>
      </trkpt>
      <trkpt lat="43.61979" lon="5.7909">
        <ele>491</ele>
        <time>2016-04-10T08:01:05.116Z</time>
      </trkpt>
      <trkpt lat="43.61971" lon="5.79091">
        <ele>491</ele>
        <time>2016-04-10T08:01:08.142Z</time>
      </trkpt>
      <trkpt lat="43.61969" lon="5.79092">
        <ele>491</ele>
        <time>2016-04-10T08:01:09.117Z</time>
      </trkpt>
      <trkpt lat="43.61961" lon="5.79092">
        <ele>492</ele>
        <time>2016-04-10T08:01:12.141Z</time>
      </trkpt>
      <trkpt lat="43.61958" lon="5.79092">
        <ele>492</ele>
        <time>2016-04-10T08:01:13.116Z</time>
      </trkpt>
      <trkpt lat="43.61951" lon="5.79092">
        <ele>492</ele>
        <time>2016-04-10T08:01:16.134Z</time>
      </trkpt>
      <trkpt lat="43.61949" lon="5.79092">
        <ele>492</ele>
        <time>2016-04-10T08:01:17.116Z</time>
      </trkpt>
      <trkpt lat="43.6194" lon="5.79092">
        <ele>493</ele>
        <time>2016-04-10T08:01:21.141Z</time>
      </trkpt>
      <trkpt lat="43.61939" lon="5.79092">
        <ele>492</ele>
        <time>2016-04-10T08:01:22.116Z</time>
      </trkpt>
      <trkpt lat="43.61931" lon="5.79091">
        <ele>493</ele>
        <time>2016-04-10T08:01:28.150Z</time>
      </trkpt>
      <trkpt lat="43.61929" lon="5.79091">
        <ele>492</ele>
        <time>2016-04-10T08:01:29.120Z</time>
      </trkpt>
      <trkpt lat="43.61921" lon="5.79092">
        <ele>492</ele>
        <time>2016-04-10T08:01:33.141Z</time>
      </trkpt>
      <trkpt lat="43.61919" lon="5.79092">
        <ele>492</ele>
        <time>2016-04-10T08:01:34.123Z</time>
      </trkpt>
      <trkpt lat="43.6191" lon="5.79093">
        <ele>493</ele>
        <time>2016-04-10T08:01:38.140Z</time>
      </trkpt>
      <trkpt lat="43.61908" lon="5.79093">
        <ele>493</ele>
        <time>2016-04-10T08:01:39.117Z</time>
      </trkpt>
      <trkpt lat="43.61899" lon="5.79092">
        <ele>493</ele>
        <time>2016-04-10T08:01:43.143Z</time>
      </trkpt>
      <trkpt lat="43.61897" lon="5.79092">
        <ele>493</ele>
        <time>2016-04-10T08:01:44.117Z</time>
      </trkpt>
      <trkpt lat="43.6189" lon="5.79094">
        <ele>494</ele>
        <time>2016-04-10T08:01:47.143Z</time>
      </trkpt>
      <trkpt lat="43.61887" lon="5.79094">
        <ele>494</ele>
        <time>2016-04-10T08:01:48.116Z</time>
      </trkpt>
      <trkpt lat="43.6188" lon="5.79097">
        <ele>494</ele>
        <time>2016-04-10T08:01:51.144Z</time>
      </trkpt>
      <trkpt lat="43.61878" lon="5.79097">
        <ele>494</ele>
        <time>2016-04-10T08:01:52.116Z</time>
      </trkpt>
      <trkpt lat="43.61871" lon="5.79099">
        <ele>495</ele>
        <time>2016-04-10T08:01:55.141Z</time>
      </trkpt>
      <trkpt lat="43.61868" lon="5.791">
        <ele>495</ele>
        <time>2016-04-10T08:01:56.116Z</time>
      </trkpt>
      <trkpt lat="43.61861" lon="5.79103">
        <ele>496</ele>
        <time>2016-04-10T08:01:59.142Z</time>
      </trkpt>
      <trkpt lat="43.61859" lon="5.79104">
        <ele>496</ele>
        <time>2016-04-10T08:02:00.109Z</time>
      </trkpt>
      <trkpt lat="43.61852" lon="5.79108">
        <ele>496</ele>
        <time>2016-04-10T08:02:03.141Z</time>
      </trkpt>
      <trkpt lat="43.6185" lon="5.7911">
        <ele>496</ele>
        <time>2016-04-10T08:02:04.116Z</time>
      </trkpt>
      <trkpt lat="43.61843" lon="5.79114">
        <ele>496</ele>
        <time>2016-04-10T08:02:07.142Z</time>
      </trkpt>
      <trkpt lat="43.61841" lon="5.79115">
        <ele>496</ele>
        <time>2016-04-10T08:02:08.119Z</time>
      </trkpt>
      <trkpt lat="43.61833" lon="5.79119">
        <ele>496</ele>
        <time>2016-04-10T08:02:11.141Z</time>
      </trkpt>
      <trkpt lat="43.61831" lon="5.7912">
        <ele>496</ele>
        <time>2016-04-10T08:02:12.115Z</time>
      </trkpt>
      <trkpt lat="43.61825" lon="5.79126">
        <ele>496</ele>
        <time>2016-04-10T08:02:15.123Z</time>
      </trkpt>
      <trkpt lat="43.61823" lon="5.79128">
        <ele>496</ele>
        <time>2016-04-10T08:02:16.113Z</time>
      </trkpt>
      <trkpt lat="43.61817" lon="5.79134">
        <ele>496</ele>
        <time>2016-04-10T08:02:19.143Z</time>
      </trkpt>
      <trkpt lat="43.61814" lon="5.79136">
        <ele>497</ele>
        <time>2016-04-10T08:02:20.117Z</time>
      </trkpt>
      <trkpt lat="43.61809" lon="5.79144">
        <ele>497</ele>
        <time>2016-04-10T08:02:23.150Z</time>
      </trkpt>
      <trkpt lat="43.61807" lon="5.79147">
        <ele>497</ele>
        <time>2016-04-10T08:02:24.116Z</time>
      </trkpt>
      <trkpt lat="43.61802" lon="5.79154">
        <ele>496</ele>
        <time>2016-04-10T08:02:26.143Z</time>
      </trkpt>
      <trkpt lat="43.618" lon="5.79157">
        <ele>496</ele>
        <time>2016-04-10T08:02:27.117Z</time>
      </trkpt>
      <trkpt lat="43.61796" lon="5.79167">
        <ele>496</ele>
        <time>2016-04-10T08:02:30.139Z</time>
      </trkpt>
      <trkpt lat="43.61795" lon="5.7917">
        <ele>496</ele>
        <time>2016-04-10T08:02:31.118Z</time>
      </trkpt>
      <trkpt lat="43.61792" lon="5.79181">
        <ele>496</ele>
        <time>2016-04-10T08:02:35.143Z</time>
      </trkpt>
      <trkpt lat="43.61791" lon="5.79184">
        <ele>496</ele>
        <time>2016-04-10T08:02:36.117Z</time>
      </trkpt>
      <trkpt lat="43.61789" lon="5.79194">
        <ele>496</ele>
        <time>2016-04-10T08:02:40.358Z</time>
      </trkpt>
      <trkpt lat="43.61789" lon="5.79197">
        <ele>496</ele>
        <time>2016-04-10T08:02:41.117Z</time>
      </trkpt>
      <trkpt lat="43.6179" lon="5.79207">
        <ele>496</ele>
        <time>2016-04-10T08:02:45.142Z</time>
      </trkpt>
      <trkpt lat="43.61791" lon="5.7921">
        <ele>497</ele>
        <time>2016-04-10T08:02:46.117Z</time>
      </trkpt>
      <trkpt lat="43.61792" lon="5.7922">
        <ele>497</ele>
        <time>2016-04-10T08:02:50.143Z</time>
      </trkpt>
      <trkpt lat="43.61793" lon="5.79222">
        <ele>497</ele>
        <time>2016-04-10T08:02:51.118Z</time>
      </trkpt>
      <trkpt lat="43.61792" lon="5.79234">
        <ele>498</ele>
        <time>2016-04-10T08:02:56.141Z</time>
      </trkpt>
      <trkpt lat="43.61792" lon="5.79236">
        <ele>498</ele>
        <time>2016-04-10T08:02:57.117Z</time>
      </trkpt>
      <trkpt lat="43.6179" lon="5.79247">
        <ele>498</ele>
        <time>2016-04-10T08:03:02.142Z</time>
      </trkpt>
      <trkpt lat="43.61789" lon="5.79249">
        <ele>499</ele>
        <time>2016-04-10T08:03:03.116Z</time>
      </trkpt>
      <trkpt lat="43.61786" lon="5.79258">
        <ele>500</ele>
        <time>2016-04-10T08:03:08.141Z</time>
      </trkpt>
      <trkpt lat="43.61786" lon="5.7926">
        <ele>500</ele>
        <time>2016-04-10T08:03:09.116Z</time>
      </trkpt>
      <trkpt lat="43.61782" lon="5.79271">
        <ele>501</ele>
        <time>2016-04-10T08:03:15.142Z</time>
      </trkpt>
      <trkpt lat="43.61782" lon="5.79273">
        <ele>501</ele>
        <time>2016-04-10T08:03:16.117Z</time>
      </trkpt>
      <trkpt lat="43.61781" lon="5.79284">
        <ele>502</ele>
        <time>2016-04-10T08:03:22.142Z</time>
      </trkpt>
      <trkpt lat="43.61781" lon="5.79286">
        <ele>503</ele>
        <time>2016-04-10T08:03:23.117Z</time>
      </trkpt>
      <trkpt lat="43.61783" lon="5.79297">
        <ele>503</ele>
        <time>2016-04-10T08:03:29.141Z</time>
      </trkpt>
      <trkpt lat="43.61784" lon="5.79299">
        <ele>504</ele>
        <time>2016-04-10T08:03:30.118Z</time>
      </trkpt>
      <trkpt lat="43.61786" lon="5.7931">
        <ele>504</ele>
        <time>2016-04-10T08:03:36.190Z</time>
      </trkpt>
      <trkpt lat="43.61787" lon="5.79312">
        <ele>504</ele>
        <time>2016-04-10T08:03:37.115Z</time>
      </trkpt>
      <trkpt lat="43.61788" lon="5.79323">
        <ele>505</ele>
        <time>2016-04-10T08:03:43.374Z</time>
      </trkpt>
      <trkpt lat="43.61788" lon="5.79326">
        <ele>505</ele>
        <time>2016-04-10T08:03:44.116Z</time>
      </trkpt>
      <trkpt lat="43.61784" lon="5.79336">
        <ele>507</ele>
        <time>2016-04-10T08:03:50.139Z</time>
      </trkpt>
      <trkpt lat="43.61783" lon="5.79338">
        <ele>507</ele>
        <time>2016-04-10T08:03:51.118Z</time>
      </trkpt>
      <trkpt lat="43.61779" lon="5.79348">
        <ele>508</ele>
        <time>2016-04-10T08:03:57.139Z</time>
      </trkpt>
      <trkpt lat="43.61778" lon="5.7935">
        <ele>508</ele>
        <time>2016-04-10T08:03:58.121Z</time>
      </trkpt>
      <trkpt lat="43.61772" lon="5.79358">
        <ele>509</ele>
        <time>2016-04-10T08:04:04.138Z</time>
      </trkpt>
      <trkpt lat="43.61771" lon="5.79359">
        <ele>509</ele>
        <time>2016-04-10T08:04:05.122Z</time>
      </trkpt>
      <trkpt lat="43.61765" lon="5.79368">
        <ele>511</ele>
        <time>2016-04-10T08:04:11.150Z</time>
      </trkpt>
      <trkpt lat="43.61764" lon="5.79369">
        <ele>511</ele>
        <time>2016-04-10T08:04:12.117Z</time>
      </trkpt>
      <trkpt lat="43.61758" lon="5.79375">
        <ele>511</ele>
        <time>2016-04-10T08:04:18.142Z</time>
      </trkpt>
      <trkpt lat="43.61757" lon="5.79377">
        <ele>512</ele>
        <time>2016-04-10T08:04:19.128Z</time>
      </trkpt>
      <trkpt lat="43.61754" lon="5.79387">
        <ele>513</ele>
        <time>2016-04-10T08:04:25.142Z</time>
      </trkpt>
      <trkpt lat="43.61753" lon="5.79388">
        <ele>513</ele>
        <time>2016-04-10T08:04:26.117Z</time>
      </trkpt>
      <trkpt lat="43.61747" lon="5.79396">
        <ele>515</ele>
        <time>2016-04-10T08:04:32.142Z</time>
      </trkpt>
      <trkpt lat="43.61746" lon="5.79397">
        <ele>515</ele>
        <time>2016-04-10T08:04:33.125Z</time>
      </trkpt>
      <trkpt lat="43.61738" lon="5.794">
        <ele>517</ele>
        <time>2016-04-10T08:04:39.143Z</time>
      </trkpt>
      <trkpt lat="43.61736" lon="5.79401">
        <ele>517</ele>
        <time>2016-04-10T08:04:40.116Z</time>
      </trkpt>
      <trkpt lat="43.61727" lon="5.79402">
        <ele>518</ele>
        <time>2016-04-10T08:04:46.167Z</time>
      </trkpt>
      <trkpt lat="43.61726" lon="5.79402">
        <ele>518</ele>
        <time>2016-04-10T08:04:47.117Z</time>
      </trkpt>
      <trkpt lat="43.61718" lon="5.79404">
        <ele>518</ele>
        <time>2016-04-10T08:04:52.144Z</time>
      </trkpt>
      <trkpt lat="43.61717" lon="5.79404">
        <ele>518</ele>
        <time>2016-04-10T08:04:53.115Z</time>
      </trkpt>
      <trkpt lat="43.6171" lon="5.79409">
        <ele>519</ele>
        <time>2016-04-10T08:05:00.394Z</time>
      </trkpt>
      <trkpt lat="43.61709" lon="5.79411">
        <ele>519</ele>
        <time>2016-04-10T08:05:01.117Z</time>
      </trkpt>
      <trkpt lat="43.61705" lon="5.7942">
        <ele>519</ele>
        <time>2016-04-10T08:05:07.148Z</time>
      </trkpt>
      <trkpt lat="43.61705" lon="5.79422">
        <ele>519</ele>
        <time>2016-04-10T08:05:08.121Z</time>
      </trkpt>
      <trkpt lat="43.61704" lon="5.79433">
        <ele>520</ele>
        <time>2016-04-10T08:05:14.144Z</time>
      </trkpt>
      <trkpt lat="43.61704" lon="5.79435">
        <ele>521</ele>
        <time>2016-04-10T08:05:15.119Z</time>
      </trkpt>
      <trkpt lat="43.61704" lon="5.79446">
        <ele>521</ele>
        <time>2016-04-10T08:05:21.144Z</time>
      </trkpt>
      <trkpt lat="43.61704" lon="5.79448">
        <ele>522</ele>
        <time>2016-04-10T08:05:22.118Z</time>
      </trkpt>
      <trkpt lat="43.61704" lon="5.7946">
        <ele>522</ele>
        <time>2016-04-10T08:05:28.154Z</time>
      </trkpt>
      <trkpt lat="43.61704" lon="5.79462">
        <ele>521</ele>
        <time>2016-04-10T08:05:29.114Z</time>
      </trkpt>
      <trkpt lat="43.61704" lon="5.79473">
        <ele>522</ele>
        <time>2016-04-10T08:05:34.167Z</time>
      </trkpt>
      <trkpt lat="43.61703" lon="5.79475">
        <ele>522</ele>
        <time>2016-04-10T08:05:35.117Z</time>
      </trkpt>
      <trkpt lat="43.61701" lon="5.79485">
        <ele>522</ele>
        <time>2016-04-10T08:05:40.155Z</time>
      </trkpt>
      <trkpt lat="43.617" lon="5.79487">
        <ele>523</ele>
        <time>2016-04-10T08:05:41.120Z</time>
      </trkpt>
      <trkpt lat="43.61695" lon="5.79495">
        <ele>523</ele>
        <time>2016-04-10T08:05:46.142Z</time>
      </trkpt>
      <trkpt lat="43.61694" lon="5.79496">
        <ele>522</ele>
        <time>2016-04-10T08:05:47.119Z</time>
      </trkpt>
      <trkpt lat="43.61689" lon="5.79506">
        <ele>522</ele>
        <time>2016-04-10T08:05:52.144Z</time>
      </trkpt>
      <trkpt lat="43.61689" lon="5.79508">
        <ele>522</ele>
        <time>2016-04-10T08:05:53.114Z</time>
      </trkpt>
      <trkpt lat="43.61686" lon="5.79519">
        <ele>522</ele>
        <time>2016-04-10T08:05:58.142Z</time>
      </trkpt>
      <trkpt lat="43.61685" lon="5.7952">
        <ele>523</ele>
        <time>2016-04-10T08:05:59.117Z</time>
      </trkpt>
      <trkpt lat="43.61678" lon="5.79527">
        <ele>523</ele>
        <time>2016-04-10T08:06:04.144Z</time>
      </trkpt>
      <trkpt lat="43.61676" lon="5.79528">
        <ele>523</ele>
        <time>2016-04-10T08:06:05.118Z</time>
      </trkpt>
      <trkpt lat="43.6167" lon="5.79534">
        <ele>524</ele>
        <time>2016-04-10T08:06:09.144Z</time>
      </trkpt>
      <trkpt lat="43.61668" lon="5.79535">
        <ele>524</ele>
        <time>2016-04-10T08:06:10.115Z</time>
      </trkpt>
      <trkpt lat="43.6166" lon="5.79535">
        <ele>524</ele>
        <time>2016-04-10T08:06:13.140Z</time>
      </trkpt>
      <trkpt lat="43.61658" lon="5.79535">
        <ele>524</ele>
        <time>2016-04-10T08:06:14.114Z</time>
      </trkpt>
      <trkpt lat="43.6165" lon="5.79534">
        <ele>523</ele>
        <time>2016-04-10T08:06:17.172Z</time>
      </trkpt>
      <trkpt lat="43.61648" lon="5.79533">
        <ele>523</ele>
        <time>2016-04-10T08:06:18.116Z</time>
      </trkpt>
      <trkpt lat="43.61641" lon="5.79532">
        <ele>522</ele>
        <time>2016-04-10T08:06:20.143Z</time>
      </trkpt>
      <trkpt lat="43.61637" lon="5.79532">
        <ele>522</ele>
        <time>2016-04-10T08:06:21.119Z</time>
      </trkpt>
      <trkpt lat="43.61629" lon="5.7953">
        <ele>521</ele>
        <time>2016-04-10T08:06:23.144Z</time>
      </trkpt>
      <trkpt lat="43.61626" lon="5.79529">
        <ele>521</ele>
        <time>2016-04-10T08:06:24.115Z</time>
      </trkpt>
      <trkpt lat="43.61618" lon="5.79528">
        <ele>521</ele>
        <time>2016-04-10T08:06:26.137Z</time>
      </trkpt>
      <trkpt lat="43.61614" lon="5.79526">
        <ele>520</ele>
        <time>2016-04-10T08:06:27.119Z</time>
      </trkpt>
      <trkpt lat="43.61606" lon="5.79521">
        <ele>519</ele>
        <time>2016-04-10T08:06:29.145Z</time>
      </trkpt>
      <trkpt lat="43.616" lon="5.79516">
        <ele>519</ele>
        <time>2016-04-10T08:06:30.117Z</time>
      </trkpt>
      <trkpt lat="43.61595" lon="5.79513">
        <ele>519</ele>
        <time>2016-04-10T08:06:31.144Z</time>
      </trkpt>
      <trkpt lat="43.61591" lon="5.79509">
        <ele>518</ele>
        <time>2016-04-10T08:06:32.119Z</time>
      </trkpt>
      <trkpt lat="43.61587" lon="5.79504">
        <ele>517</ele>
        <time>2016-04-10T08:06:33.169Z</time>
      </trkpt>
      <trkpt lat="43.61584" lon="5.79497">
        <ele>516</ele>
        <time>2016-04-10T08:06:34.118Z</time>
      </trkpt>
      <trkpt lat="43.61582" lon="5.79489">
        <ele>516</ele>
        <time>2016-04-10T08:06:35.151Z</time>
      </trkpt>
      <trkpt lat="43.61579" lon="5.79483">
        <ele>516</ele>
        <time>2016-04-10T08:06:36.118Z</time>
      </trkpt>
      <trkpt lat="43.61576" lon="5.79479">
        <ele>515</ele>
        <time>2016-04-10T08:06:37.139Z</time>
      </trkpt>
      <trkpt lat="43.61572" lon="5.79476">
        <ele>515</ele>
        <time>2016-04-10T08:06:38.118Z</time>
      </trkpt>
      <trkpt lat="43.61563" lon="5.79472">
        <ele>515</ele>
        <time>2016-04-10T08:06:40.139Z</time>
      </trkpt>
      <trkpt lat="43.6156" lon="5.79471">
        <ele>515</ele>
        <time>2016-04-10T08:06:41.117Z</time>
      </trkpt>
      <trkpt lat="43.61554" lon="5.79468">
        <ele>515</ele>
        <time>2016-04-10T08:06:43.144Z</time>
      </trkpt>
      <trkpt lat="43.61551" lon="5.79467">
        <ele>514</ele>
        <time>2016-04-10T08:06:44.118Z</time>
      </trkpt>
      <trkpt lat="43.61543" lon="5.79465">
        <ele>516</ele>
        <time>2016-04-10T08:06:51.145Z</time>
      </trkpt>
      <trkpt lat="43.61542" lon="5.79465">
        <ele>516</ele>
        <time>2016-04-10T08:06:52.119Z</time>
      </trkpt>
      <trkpt lat="43.61536" lon="5.79472">
        <ele>518</ele>
        <time>2016-04-10T08:06:58.144Z</time>
      </trkpt>
      <trkpt lat="43.61535" lon="5.79473">
        <ele>519</ele>
        <time>2016-04-10T08:06:59.119Z</time>
      </trkpt>
      <trkpt lat="43.61529" lon="5.79482">
        <ele>520</ele>
        <time>2016-04-10T08:07:05.145Z</time>
      </trkpt>
      <trkpt lat="43.61528" lon="5.79483">
        <ele>520</ele>
        <time>2016-04-10T08:07:06.130Z</time>
      </trkpt>
      <trkpt lat="43.61521" lon="5.79489">
        <ele>521</ele>
        <time>2016-04-10T08:07:12.147Z</time>
      </trkpt>
      <trkpt lat="43.61519" lon="5.7949">
        <ele>521</ele>
        <time>2016-04-10T08:07:13.120Z</time>
      </trkpt>
      <trkpt lat="43.61511" lon="5.79494">
        <ele>523</ele>
        <time>2016-04-10T08:07:19.143Z</time>
      </trkpt>
      <trkpt lat="43.6151" lon="5.79495">
        <ele>523</ele>
        <time>2016-04-10T08:07:20.117Z</time>
      </trkpt>
      <trkpt lat="43.61503" lon="5.79501">
        <ele>525</ele>
        <time>2016-04-10T08:07:27.144Z</time>
      </trkpt>
      <trkpt lat="43.61502" lon="5.79502">
        <ele>526</ele>
        <time>2016-04-10T08:07:28.118Z</time>
      </trkpt>
      <trkpt lat="43.61495" lon="5.79509">
        <ele>527</ele>
        <time>2016-04-10T08:07:35.143Z</time>
      </trkpt>
      <trkpt lat="43.61495" lon="5.7951">
        <ele>528</ele>
        <time>2016-04-10T08:07:36.119Z</time>
      </trkpt>
      <trkpt lat="43.61487" lon="5.79516">
        <ele>529</ele>
        <time>2016-04-10T08:07:43.145Z</time>
      </trkpt>
      <trkpt lat="43.61486" lon="5.79516">
        <ele>530</ele>
        <time>2016-04-10T08:07:44.115Z</time>
      </trkpt>
      <trkpt lat="43.61478" lon="5.7952">
        <ele>532</ele>
        <time>2016-04-10T08:07:51.376Z</time>
      </trkpt>
      <trkpt lat="43.61477" lon="5.7952">
        <ele>532</ele>
        <time>2016-04-10T08:07:52.116Z</time>
      </trkpt>
      <trkpt lat="43.61476" lon="5.79532">
        <ele>533</ele>
        <time>2016-04-10T08:08:02.140Z</time>
      </trkpt>
      <trkpt lat="43.61477" lon="5.79534">
        <ele>533</ele>
        <time>2016-04-10T08:08:03.118Z</time>
      </trkpt>
      <trkpt lat="43.61479" lon="5.79545">
        <ele>534</ele>
        <time>2016-04-10T08:09:34.154Z</time>
      </trkpt>
      <trkpt lat="43.61479" lon="5.79545">
        <ele>534</ele>
        <time>2016-04-10T08:09:35.116Z</time>
      </trkpt>
      <trkpt lat="43.61478" lon="5.79557">
        <ele>537</ele>
        <time>2016-04-10T08:10:15.143Z</time>
      </trkpt>
      <trkpt lat="43.61478" lon="5.79558">
        <ele>537</ele>
        <time>2016-04-10T08:10:16.115Z</time>
      </trkpt>
      <trkpt lat="43.61478" lon="5.7957">
        <ele>539</ele>
        <time>2016-04-10T08:10:27.144Z</time>
      </trkpt>
      <trkpt lat="43.61478" lon="5.79571">
        <ele>539</ele>
        <time>2016-04-10T08:10:28.118Z</time>
      </trkpt>
      <trkpt lat="43.61475" lon="5.79582">
        <ele>541</ele>
        <time>2016-04-10T08:10:38.143Z</time>
      </trkpt>
      <trkpt lat="43.61474" lon="5.79583">
        <ele>541</ele>
        <time>2016-04-10T08:10:39.120Z</time>
      </trkpt>
      <trkpt lat="43.61469" lon="5.79593">
        <ele>541</ele>
        <time>2016-04-10T08:10:50.143Z</time>
      </trkpt>
      <trkpt lat="43.61469" lon="5.79594">
        <ele>541</ele>
        <time>2016-04-10T08:10:51.119Z</time>
      </trkpt>
      <trkpt lat="43.61469" lon="5.79605">
        <ele>542</ele>
        <time>2016-04-10T08:11:01.155Z</time>
      </trkpt>
      <trkpt lat="43.61469" lon="5.79606">
        <ele>542</ele>
        <time>2016-04-10T08:11:02.119Z</time>
      </trkpt>
      <trkpt lat="43.61463" lon="5.79615">
        <ele>547</ele>
        <time>2016-04-10T08:11:19.145Z</time>
      </trkpt>
      <trkpt lat="43.61462" lon="5.79615">
        <ele>547</ele>
        <time>2016-04-10T08:11:20.119Z</time>
      </trkpt>
      <trkpt lat="43.61453" lon="5.79618">
        <ele>550</ele>
        <time>2016-04-10T08:11:43.145Z</time>
      </trkpt>
      <trkpt lat="43.61453" lon="5.79617">
        <ele>550</ele>
        <time>2016-04-10T08:11:44.120Z</time>
      </trkpt>
      <trkpt lat="43.61444" lon="5.79615">
        <ele>551</ele>
        <time>2016-04-10T08:11:55.134Z</time>
      </trkpt>
      <trkpt lat="43.61444" lon="5.79615">
        <ele>550</ele>
        <time>2016-04-10T08:11:56.110Z</time>
      </trkpt>
      <trkpt lat="43.61435" lon="5.79618">
        <ele>551</ele>
        <time>2016-04-10T08:12:12.138Z</time>
      </trkpt>
      <trkpt lat="43.61435" lon="5.79618">
        <ele>551</ele>
        <time>2016-04-10T08:12:13.118Z</time>
      </trkpt>
      <trkpt lat="43.61427" lon="5.79624">
        <ele>553</ele>
        <time>2016-04-10T08:12:28.141Z</time>
      </trkpt>
      <trkpt lat="43.61427" lon="5.79625">
        <ele>553</ele>
        <time>2016-04-10T08:12:29.115Z</time>
      </trkpt>
      <trkpt lat="43.61422" lon="5.79635">
        <ele>558</ele>
        <time>2016-04-10T08:12:48.145Z</time>
      </trkpt>
      <trkpt lat="43.61422" lon="5.79636">
        <ele>558</ele>
        <time>2016-04-10T08:12:49.121Z</time>
      </trkpt>
      <trkpt lat="43.61415" lon="5.79644">
        <ele>561</ele>
        <time>2016-04-10T08:13:06.194Z</time>
      </trkpt>
      <trkpt lat="43.61415" lon="5.79645">
        <ele>562</ele>
        <time>2016-04-10T08:13:07.116Z</time>
      </trkpt>
      <trkpt lat="43.61416" lon="5.79657">
        <ele>565</ele>
        <time>2016-04-10T08:14:04.143Z</time>
      </trkpt>
      <trkpt lat="43.61416" lon="5.79657">
        <ele>565</ele>
        <time>2016-04-10T08:14:05.119Z</time>
      </trkpt>
      <trkpt lat="43.61412" lon="5.79668">
        <ele>568</ele>
        <time>2016-04-10T08:14:29.145Z</time>
      </trkpt>
      <trkpt lat="43.61412" lon="5.79669">
        <ele>568</ele>
        <time>2016-04-10T08:14:30.121Z</time>
      </trkpt>
      <trkpt lat="43.61409" lon="5.79681">
        <ele>573</ele>
        <time>2016-04-10T08:15:24.146Z</time>
      </trkpt>
      <trkpt lat="43.61408" lon="5.79681">
        <ele>574</ele>
        <time>2016-04-10T08:15:25.122Z</time>
      </trkpt>
      <trkpt lat="43.61407" lon="5.79693">
        <ele>577</ele>
        <time>2016-04-10T08:16:04.146Z</time>
      </trkpt>
      <trkpt lat="43.61407" lon="5.79694">
        <ele>577</ele>
        <time>2016-04-10T08:16:05.121Z</time>
      </trkpt>
      <trkpt lat="43.61404" lon="5.79705">
        <ele>578</ele>
        <time>2016-04-10T08:16:48.147Z</time>
      </trkpt>
      <trkpt lat="43.61403" lon="5.79705">
        <ele>578</ele>
        <time>2016-04-10T08:16:49.119Z</time>
      </trkpt>
      <trkpt lat="43.61402" lon="5.79717">
        <ele>583</ele>
        <time>2016-04-10T08:17:31.151Z</time>
      </trkpt>
      <trkpt lat="43.61402" lon="5.79718">
        <ele>583</ele>
        <time>2016-04-10T08:17:32.120Z</time>
      </trkpt>
      <trkpt lat="43.61394" lon="5.79725">
        <ele>587</ele>
        <time>2016-04-10T08:17:52.145Z</time>
      </trkpt>
      <trkpt lat="43.61394" lon="5.79725">
        <ele>587</ele>
        <time>2016-04-10T08:17:53.117Z</time>
      </trkpt>
      <trkpt lat="43.61391" lon="5.79737">
        <ele>589</ele>
        <time>2016-04-10T08:18:12.159Z</time>
      </trkpt>
      <trkpt lat="43.61391" lon="5.79738">
        <ele>590</ele>
        <time>2016-04-10T08:18:13.120Z</time>
      </trkpt>
      <trkpt lat="43.61382" lon="5.79741">
        <ele>590</ele>
        <time>2016-04-10T08:18:27.146Z</time>
      </trkpt>
      <trkpt lat="43.61382" lon="5.79741">
        <ele>590</ele>
        <time>2016-04-10T08:18:28.122Z</time>
      </trkpt>
      <trkpt lat="43.61374" lon="5.79744">
        <ele>591</ele>
        <time>2016-04-10T08:18:42.147Z</time>
      </trkpt>
      <trkpt lat="43.61373" lon="5.79745">
        <ele>592</ele>
        <time>2016-04-10T08:18:43.120Z</time>
      </trkpt>
      <trkpt lat="43.61372" lon="5.79757">
        <ele>594</ele>
        <time>2016-04-10T08:19:02.147Z</time>
      </trkpt>
      <trkpt lat="43.61372" lon="5.79758">
        <ele>594</ele>
        <time>2016-04-10T08:19:03.122Z</time>
      </trkpt>
      <trkpt lat="43.61374" lon="5.79769">
        <ele>597</ele>
        <time>2016-04-10T08:19:22.145Z</time>
      </trkpt>
      <trkpt lat="43.61374" lon="5.7977">
        <ele>597</ele>
        <time>2016-04-10T08:19:23.120Z</time>
      </trkpt>
      <trkpt lat="43.61372" lon="5.79782">
        <ele>600</ele>
        <time>2016-04-10T08:19:39.148Z</time>
      </trkpt>
      <trkpt lat="43.61371" lon="5.79782">
        <ele>600</ele>
        <time>2016-04-10T08:19:40.123Z</time>
      </trkpt>
      <trkpt lat="43.6137" lon="5.79794">
        <ele>602</ele>
        <time>2016-04-10T08:19:55.132Z</time>
      </trkpt>
      <trkpt lat="43.6137" lon="5.79795">
        <ele>602</ele>
        <time>2016-04-10T08:19:56.121Z</time>
      </trkpt>
      <trkpt lat="43.61372" lon="5.79807">
        <ele>605</ele>
        <time>2016-04-10T08:20:21.142Z</time>
      </trkpt>
      <trkpt lat="43.61372" lon="5.79807">
        <ele>605</ele>
        <time>2016-04-10T08:20:22.120Z</time>
      </trkpt>
      <trkpt lat="43.61375" lon="5.79819">
        <ele>608</ele>
        <time>2016-04-10T08:20:39.146Z</time>
      </trkpt>
      <trkpt lat="43.61375" lon="5.79819">
        <ele>608</ele>
        <time>2016-04-10T08:20:40.122Z</time>
      </trkpt>
      <trkpt lat="43.6138" lon="5.7983">
        <ele>610</ele>
        <time>2016-04-10T08:21:14.145Z</time>
      </trkpt>
      <trkpt lat="43.61381" lon="5.7983">
        <ele>610</ele>
        <time>2016-04-10T08:21:15.121Z</time>
      </trkpt>
      <trkpt lat="43.61389" lon="5.79825">
        <ele>614</ele>
        <time>2016-04-10T08:21:39.146Z</time>
      </trkpt>
      <trkpt lat="43.61389" lon="5.79825">
        <ele>614</ele>
        <time>2016-04-10T08:21:40.122Z</time>
      </trkpt>
      <trkpt lat="43.61397" lon="5.7982">
        <ele>615</ele>
        <time>2016-04-10T08:21:52.175Z</time>
      </trkpt>
      <trkpt lat="43.61398" lon="5.79819">
        <ele>615</ele>
        <time>2016-04-10T08:21:53.117Z</time>
      </trkpt>
      <trkpt lat="43.61405" lon="5.79812">
        <ele>615</ele>
        <time>2016-04-10T08:22:04.148Z</time>
      </trkpt>
      <trkpt lat="43.61406" lon="5.79812">
        <ele>615</ele>
        <time>2016-04-10T08:22:05.123Z</time>
      </trkpt>
      <trkpt lat="43.61415" lon="5.79811">
        <ele>617</ele>
        <time>2016-04-10T08:22:25.137Z</time>
      </trkpt>
      <trkpt lat="43.61416" lon="5.79811">
        <ele>617</ele>
        <time>2016-04-10T08:22:26.119Z</time>
      </trkpt>
      <trkpt lat="43.61422" lon="5.7982">
        <ele>619</ele>
        <time>2016-04-10T08:22:39.142Z</time>
      </trkpt>
      <trkpt lat="43.61422" lon="5.79821">
        <ele>619</ele>
        <time>2016-04-10T08:22:40.122Z</time>
      </trkpt>
      <trkpt lat="43.61429" lon="5.79827">
        <ele>621</ele>
        <time>2016-04-10T08:22:53.145Z</time>
      </trkpt>
      <trkpt lat="43.6143" lon="5.79827">
        <ele>621</ele>
        <time>2016-04-10T08:22:54.120Z</time>
      </trkpt>
      <trkpt lat="43.61439" lon="5.79828">
        <ele>623</ele>
        <time>2016-04-10T08:23:08.147Z</time>
      </trkpt>
      <trkpt lat="43.61439" lon="5.79828">
        <ele>623</ele>
        <time>2016-04-10T08:23:09.120Z</time>
      </trkpt>
      <trkpt lat="43.61447" lon="5.79833">
        <ele>625</ele>
        <time>2016-04-10T08:23:22.142Z</time>
      </trkpt>
      <trkpt lat="43.61448" lon="5.79833">
        <ele>626</ele>
        <time>2016-04-10T08:23:23.120Z</time>
      </trkpt>
      <trkpt lat="43.61455" lon="5.79839">
        <ele>627</ele>
        <time>2016-04-10T08:23:35.144Z</time>
      </trkpt>
      <trkpt lat="43.61456" lon="5.7984">
        <ele>628</ele>
        <time>2016-04-10T08:23:36.120Z</time>
      </trkpt>
      <trkpt lat="43.61464" lon="5.79842">
        <ele>630</ele>
        <time>2016-04-10T08:24:18.146Z</time>
      </trkpt>
      <trkpt lat="43.61465" lon="5.79843">
        <ele>630</ele>
        <time>2016-04-10T08:24:19.121Z</time>
      </trkpt>
      <trkpt lat="43.61473" lon="5.79849">
        <ele>632</ele>
        <time>2016-04-10T08:24:29.147Z</time>
      </trkpt>
      <trkpt lat="43.61474" lon="5.7985">
        <ele>631</ele>
        <time>2016-04-10T08:24:30.117Z</time>
      </trkpt>
      <trkpt lat="43.61482" lon="5.79853">
        <ele>631</ele>
        <time>2016-04-10T08:24:48.147Z</time>
      </trkpt>
      <trkpt lat="43.61483" lon="5.79854">
        <ele>631</ele>
        <time>2016-04-10T08:24:49.132Z</time>
      </trkpt>
      <trkpt lat="43.61491" lon="5.79859">
        <ele>632</ele>
        <time>2016-04-10T08:24:58.147Z</time>
      </trkpt>
      <trkpt lat="43.61491" lon="5.7986">
        <ele>632</ele>
        <time>2016-04-10T08:24:59.122Z</time>
      </trkpt>
      <trkpt lat="43.615" lon="5.79863">
        <ele>634</ele>
        <time>2016-04-10T08:25:11.145Z</time>
      </trkpt>
      <trkpt lat="43.615" lon="5.79863">
        <ele>634</ele>
        <time>2016-04-10T08:25:12.122Z</time>
      </trkpt>
      <trkpt lat="43.61509" lon="5.79861">
        <ele>635</ele>
        <time>2016-04-10T08:25:33.148Z</time>
      </trkpt>
      <trkpt lat="43.6151" lon="5.79861">
        <ele>636</ele>
        <time>2016-04-10T08:25:34.123Z</time>
      </trkpt>
      <trkpt lat="43.61518" lon="5.79858">
        <ele>636</ele>
        <time>2016-04-10T08:25:40.148Z</time>
      </trkpt>
      <trkpt lat="43.61519" lon="5.79857">
        <ele>637</ele>
        <time>2016-04-10T08:25:41.112Z</time>
      </trkpt>
      <trkpt lat="43.61526" lon="5.7985">
        <ele>638</ele>
        <time>2016-04-10T08:25:47.147Z</time>
      </trkpt>
      <trkpt lat="43.61528" lon="5.79849">
        <ele>638</ele>
        <time>2016-04-10T08:25:48.121Z</time>
      </trkpt>
      <trkpt lat="43.61535" lon="5.79847">
        <ele>639</ele>
        <time>2016-04-10T08:25:54.157Z</time>
      </trkpt>
      <trkpt lat="43.61537" lon="5.79847">
        <ele>638</ele>
        <time>2016-04-10T08:25:55.122Z</time>
      </trkpt>
      <trkpt lat="43.61545" lon="5.79847">
        <ele>639</ele>
        <time>2016-04-10T08:26:01.147Z</time>
      </trkpt>
      <trkpt lat="43.61546" lon="5.79846">
        <ele>639</ele>
        <time>2016-04-10T08:26:02.118Z</time>
      </trkpt>
      <trkpt lat="43.61554" lon="5.7984">
        <ele>639</ele>
        <time>2016-04-10T08:26:09.172Z</time>
      </trkpt>
      <trkpt lat="43.61555" lon="5.7984">
        <ele>639</ele>
        <time>2016-04-10T08:26:10.118Z</time>
      </trkpt>
      <trkpt lat="43.61562" lon="5.79836">
        <ele>639</ele>
        <time>2016-04-10T08:26:18.146Z</time>
      </trkpt>
      <trkpt lat="43.61563" lon="5.79835">
        <ele>639</ele>
        <time>2016-04-10T08:26:19.122Z</time>
      </trkpt>
      <trkpt lat="43.61558" lon="5.79841">
        <ele>639</ele>
        <time>2016-04-10T08:40:34.145Z</time>
      </trkpt>
      <trkpt lat="43.61557" lon="5.79844">
        <ele>639</ele>
        <time>2016-04-10T08:40:35.124Z</time>
      </trkpt>
      <trkpt lat="43.61555" lon="5.79855">
        <ele>638</ele>
        <time>2016-04-10T08:40:38.151Z</time>
      </trkpt>
      <trkpt lat="43.61556" lon="5.7986">
        <ele>638</ele>
        <time>2016-04-10T08:40:39.124Z</time>
      </trkpt>
      <trkpt lat="43.61557" lon="5.79871">
        <ele>637</ele>
        <time>2016-04-10T08:40:41.159Z</time>
      </trkpt>
      <trkpt lat="43.61557" lon="5.79877">
        <ele>637</ele>
        <time>2016-04-10T08:40:42.149Z</time>
      </trkpt>
      <trkpt lat="43.61556" lon="5.79888">
        <ele>636</ele>
        <time>2016-04-10T08:40:44.150Z</time>
      </trkpt>
      <trkpt lat="43.61555" lon="5.79894">
        <ele>636</ele>
        <time>2016-04-10T08:40:45.121Z</time>
      </trkpt>
      <trkpt lat="43.61551" lon="5.79904">
        <ele>636</ele>
        <time>2016-04-10T08:40:47.151Z</time>
      </trkpt>
      <trkpt lat="43.61549" lon="5.79909">
        <ele>636</ele>
        <time>2016-04-10T08:40:48.121Z</time>
      </trkpt>
      <trkpt lat="43.61547" lon="5.79919">
        <ele>636</ele>
        <time>2016-04-10T08:40:50.151Z</time>
      </trkpt>
      <trkpt lat="43.61547" lon="5.79924">
        <ele>636</ele>
        <time>2016-04-10T08:40:51.126Z</time>
      </trkpt>
      <trkpt lat="43.61548" lon="5.79931">
        <ele>635</ele>
        <time>2016-04-10T08:40:53.151Z</time>
      </trkpt>
      <trkpt lat="43.61548" lon="5.79936">
        <ele>635</ele>
        <time>2016-04-10T08:40:54.125Z</time>
      </trkpt>
      <trkpt lat="43.61549" lon="5.79948">
        <ele>635</ele>
        <time>2016-04-10T08:40:56.145Z</time>
      </trkpt>
      <trkpt lat="43.61549" lon="5.79953">
        <ele>635</ele>
        <time>2016-04-10T08:40:57.123Z</time>
      </trkpt>
      <trkpt lat="43.61547" lon="5.79964">
        <ele>636</ele>
        <time>2016-04-10T08:41:00.169Z</time>
      </trkpt>
      <trkpt lat="43.61546" lon="5.79965">
        <ele>636</ele>
        <time>2016-04-10T08:41:01.128Z</time>
      </trkpt>
      <trkpt lat="43.61541" lon="5.79975">
        <ele>636</ele>
        <time>2016-04-10T08:41:07.388Z</time>
      </trkpt>
      <trkpt lat="43.6154" lon="5.79977">
        <ele>636</ele>
        <time>2016-04-10T08:41:08.126Z</time>
      </trkpt>
      <trkpt lat="43.61539" lon="5.79988">
        <ele>636</ele>
        <time>2016-04-10T08:41:13.152Z</time>
      </trkpt>
      <trkpt lat="43.61539" lon="5.7999">
        <ele>636</ele>
        <time>2016-04-10T08:41:14.151Z</time>
      </trkpt>
      <trkpt lat="43.6154" lon="5.80002">
        <ele>636</ele>
        <time>2016-04-10T08:41:19.150Z</time>
      </trkpt>
      <trkpt lat="43.61541" lon="5.80004">
        <ele>636</ele>
        <time>2016-04-10T08:41:20.127Z</time>
      </trkpt>
      <trkpt lat="43.61542" lon="5.80015">
        <ele>637</ele>
        <time>2016-04-10T08:41:24.150Z</time>
      </trkpt>
      <trkpt lat="43.61542" lon="5.80018">
        <ele>637</ele>
        <time>2016-04-10T08:41:25.125Z</time>
      </trkpt>
      <trkpt lat="43.61542" lon="5.8003">
        <ele>637</ele>
        <time>2016-04-10T08:41:29.150Z</time>
      </trkpt>
      <trkpt lat="43.61542" lon="5.80033">
        <ele>637</ele>
        <time>2016-04-10T08:41:30.151Z</time>
      </trkpt>
      <trkpt lat="43.61541" lon="5.80043">
        <ele>638</ele>
        <time>2016-04-10T08:41:34.150Z</time>
      </trkpt>
      <trkpt lat="43.61541" lon="5.80045">
        <ele>638</ele>
        <time>2016-04-10T08:41:35.121Z</time>
      </trkpt>
      <trkpt lat="43.61542" lon="5.80056">
        <ele>638</ele>
        <time>2016-04-10T08:41:39.150Z</time>
      </trkpt>
      <trkpt lat="43.61543" lon="5.80059">
        <ele>638</ele>
        <time>2016-04-10T08:41:40.121Z</time>
      </trkpt>
      <trkpt lat="43.61546" lon="5.80068">
        <ele>637</ele>
        <time>2016-04-10T08:41:44.378Z</time>
      </trkpt>
      <trkpt lat="43.61547" lon="5.8007">
        <ele>637</ele>
        <time>2016-04-10T08:41:45.122Z</time>
      </trkpt>
      <trkpt lat="43.61552" lon="5.80077">
        <ele>636</ele>
        <time>2016-04-10T08:47:12.147Z</time>
      </trkpt>
      <trkpt lat="43.61554" lon="5.80081">
        <ele>636</ele>
        <time>2016-04-10T08:47:13.137Z</time>
      </trkpt>
      <trkpt lat="43.61558" lon="5.80092">
        <ele>636</ele>
        <time>2016-04-10T08:47:16.152Z</time>
      </trkpt>
      <trkpt lat="43.61558" lon="5.80094">
        <ele>636</ele>
        <time>2016-04-10T08:47:17.127Z</time>
      </trkpt>
      <trkpt lat="43.61563" lon="5.80104">
        <ele>634</ele>
        <time>2016-04-10T08:47:22.177Z</time>
      </trkpt>
      <trkpt lat="43.61564" lon="5.80109">
        <ele>634</ele>
        <time>2016-04-10T08:47:23.126Z</time>
      </trkpt>
      <trkpt lat="43.61567" lon="5.80119">
        <ele>633</ele>
        <time>2016-04-10T08:47:25.152Z</time>
      </trkpt>
      <trkpt lat="43.61569" lon="5.80125">
        <ele>633</ele>
        <time>2016-04-10T08:47:26.126Z</time>
      </trkpt>
      <trkpt lat="43.61571" lon="5.80131">
        <ele>633</ele>
        <time>2016-04-10T08:47:27.152Z</time>
      </trkpt>
      <trkpt lat="43.61574" lon="5.80137">
        <ele>633</ele>
        <time>2016-04-10T08:47:28.126Z</time>
      </trkpt>
      <trkpt lat="43.61575" lon="5.80144">
        <ele>632</ele>
        <time>2016-04-10T08:47:29.163Z</time>
      </trkpt>
      <trkpt lat="43.61577" lon="5.80152">
        <ele>632</ele>
        <time>2016-04-10T08:47:30.129Z</time>
      </trkpt>
      <trkpt lat="43.61579" lon="5.80159">
        <ele>631</ele>
        <time>2016-04-10T08:47:31.151Z</time>
      </trkpt>
      <trkpt lat="43.61582" lon="5.80165">
        <ele>631</ele>
        <time>2016-04-10T08:47:32.122Z</time>
      </trkpt>
      <trkpt lat="43.61585" lon="5.80171">
        <ele>631</ele>
        <time>2016-04-10T08:47:33.147Z</time>
      </trkpt>
      <trkpt lat="43.61588" lon="5.80177">
        <ele>631</ele>
        <time>2016-04-10T08:47:34.125Z</time>
      </trkpt>
      <trkpt lat="43.6159" lon="5.80183">
        <ele>630</ele>
        <time>2016-04-10T08:47:35.358Z</time>
      </trkpt>
      <trkpt lat="43.61593" lon="5.8019">
        <ele>630</ele>
        <time>2016-04-10T08:47:36.122Z</time>
      </trkpt>
      <trkpt lat="43.61596" lon="5.80196">
        <ele>630</ele>
        <time>2016-04-10T08:47:37.147Z</time>
      </trkpt>
      <trkpt lat="43.61598" lon="5.80203">
        <ele>629</ele>
        <time>2016-04-10T08:47:38.151Z</time>
      </trkpt>
      <trkpt lat="43.61601" lon="5.8021">
        <ele>629</ele>
        <time>2016-04-10T08:47:39.162Z</time>
      </trkpt>
      <trkpt lat="43.61604" lon="5.80217">
        <ele>629</ele>
        <time>2016-04-10T08:47:40.127Z</time>
      </trkpt>
      <trkpt lat="43.61609" lon="5.80222">
        <ele>629</ele>
        <time>2016-04-10T08:47:41.153Z</time>
      </trkpt>
      <trkpt lat="43.61613" lon="5.80226">
        <ele>629</ele>
        <time>2016-04-10T08:47:42.127Z</time>
      </trkpt>
      <trkpt lat="43.61621" lon="5.80232">
        <ele>628</ele>
        <time>2016-04-10T08:47:51.153Z</time>
      </trkpt>
      <trkpt lat="43.61622" lon="5.80234">
        <ele>627</ele>
        <time>2016-04-10T08:47:52.126Z</time>
      </trkpt>
      <trkpt lat="43.61624" lon="5.80244">
        <ele>627</ele>
        <time>2016-04-10T08:47:55.151Z</time>
      </trkpt>
      <trkpt lat="43.61626" lon="5.80248">
        <ele>627</ele>
        <time>2016-04-10T08:47:56.127Z</time>
      </trkpt>
      <trkpt lat="43.6163" lon="5.80257">
        <ele>625</ele>
        <time>2016-04-10T08:47:58.152Z</time>
      </trkpt>
      <trkpt lat="43.61632" lon="5.80262">
        <ele>625</ele>
        <time>2016-04-10T08:47:59.152Z</time>
      </trkpt>
      <trkpt lat="43.61632" lon="5.80271">
        <ele>625</ele>
        <time>2016-04-10T08:48:00.152Z</time>
      </trkpt>
      <trkpt lat="43.61634" lon="5.80279">
        <ele>625</ele>
        <time>2016-04-10T08:48:01.126Z</time>
      </trkpt>
      <trkpt lat="43.61635" lon="5.80287">
        <ele>624</ele>
        <time>2016-04-10T08:48:02.152Z</time>
      </trkpt>
      <trkpt lat="43.61636" lon="5.80295">
        <ele>624</ele>
        <time>2016-04-10T08:48:03.128Z</time>
      </trkpt>
      <trkpt lat="43.61637" lon="5.80304">
        <ele>624</ele>
        <time>2016-04-10T08:48:04.153Z</time>
      </trkpt>
      <trkpt lat="43.61638" lon="5.80312">
        <ele>624</ele>
        <time>2016-04-10T08:48:05.126Z</time>
      </trkpt>
      <trkpt lat="43.61638" lon="5.80321">
        <ele>624</ele>
        <time>2016-04-10T08:48:06.150Z</time>
      </trkpt>
      <trkpt lat="43.61639" lon="5.80329">
        <ele>624</ele>
        <time>2016-04-10T08:48:07.127Z</time>
      </trkpt>
      <trkpt lat="43.61641" lon="5.80338">
        <ele>624</ele>
        <time>2016-04-10T08:48:08.153Z</time>
      </trkpt>
      <trkpt lat="43.61642" lon="5.80346">
        <ele>623</ele>
        <time>2016-04-10T08:48:09.138Z</time>
      </trkpt>
      <trkpt lat="43.61643" lon="5.80353">
        <ele>623</ele>
        <time>2016-04-10T08:48:10.152Z</time>
      </trkpt>
      <trkpt lat="43.61644" lon="5.80361">
        <ele>623</ele>
        <time>2016-04-10T08:48:11.126Z</time>
      </trkpt>
      <trkpt lat="43.61646" lon="5.80372">
        <ele>622</ele>
        <time>2016-04-10T08:48:13.152Z</time>
      </trkpt>
      <trkpt lat="43.61647" lon="5.80376">
        <ele>623</ele>
        <time>2016-04-10T08:48:14.127Z</time>
      </trkpt>
      <trkpt lat="43.61645" lon="5.80384">
        <ele>622</ele>
        <time>2016-04-10T08:48:16.152Z</time>
      </trkpt>
      <trkpt lat="43.61642" lon="5.80388">
        <ele>622</ele>
        <time>2016-04-10T08:48:17.126Z</time>
      </trkpt>
      <trkpt lat="43.61639" lon="5.80398">
        <ele>622</ele>
        <time>2016-04-10T08:48:19.151Z</time>
      </trkpt>
      <trkpt lat="43.61639" lon="5.80403">
        <ele>622</ele>
        <time>2016-04-10T08:48:20.138Z</time>
      </trkpt>
      <trkpt lat="43.61638" lon="5.80413">
        <ele>622</ele>
        <time>2016-04-10T08:48:22.153Z</time>
      </trkpt>
      <trkpt lat="43.61637" lon="5.80418">
        <ele>622</ele>
        <time>2016-04-10T08:48:23.127Z</time>
      </trkpt>
      <trkpt lat="43.61635" lon="5.80428">
        <ele>621</ele>
        <time>2016-04-10T08:48:25.151Z</time>
      </trkpt>
      <trkpt lat="43.61634" lon="5.80434">
        <ele>621</ele>
        <time>2016-04-10T08:48:26.127Z</time>
      </trkpt>
      <trkpt lat="43.61634" lon="5.80442">
        <ele>621</ele>
        <time>2016-04-10T08:48:27.161Z</time>
      </trkpt>
      <trkpt lat="43.61632" lon="5.80448">
        <ele>621</ele>
        <time>2016-04-10T08:48:28.127Z</time>
      </trkpt>
      <trkpt lat="43.61629" lon="5.80453">
        <ele>621</ele>
        <time>2016-04-10T08:48:29.150Z</time>
      </trkpt>
      <trkpt lat="43.61627" lon="5.80459">
        <ele>621</ele>
        <time>2016-04-10T08:48:30.125Z</time>
      </trkpt>
      <trkpt lat="43.61626" lon="5.80465">
        <ele>621</ele>
        <time>2016-04-10T08:48:31.175Z</time>
      </trkpt>
      <trkpt lat="43.61627" lon="5.80471">
        <ele>620</ele>
        <time>2016-04-10T08:48:32.125Z</time>
      </trkpt>
      <trkpt lat="43.61631" lon="5.80482">
        <ele>619</ele>
        <time>2016-04-10T08:48:34.228Z</time>
      </trkpt>
      <trkpt lat="43.61633" lon="5.80486">
        <ele>619</ele>
        <time>2016-04-10T08:48:35.126Z</time>
      </trkpt>
      <trkpt lat="43.61641" lon="5.80488">
        <ele>619</ele>
        <time>2016-04-10T08:48:37.151Z</time>
      </trkpt>
      <trkpt lat="43.61645" lon="5.80487">
        <ele>619</ele>
        <time>2016-04-10T08:48:38.126Z</time>
      </trkpt>
      <trkpt lat="43.61652" lon="5.80484">
        <ele>618</ele>
        <time>2016-04-10T08:48:40.150Z</time>
      </trkpt>
      <trkpt lat="43.61655" lon="5.80485">
        <ele>618</ele>
        <time>2016-04-10T08:48:41.125Z</time>
      </trkpt>
      <trkpt lat="43.6166" lon="5.80494">
        <ele>617</ele>
        <time>2016-04-10T08:48:45.150Z</time>
      </trkpt>
      <trkpt lat="43.6166" lon="5.80497">
        <ele>617</ele>
        <time>2016-04-10T08:48:46.126Z</time>
      </trkpt>
      <trkpt lat="43.6166" lon="5.80507">
        <ele>615</ele>
        <time>2016-04-10T08:48:49.152Z</time>
      </trkpt>
      <trkpt lat="43.61659" lon="5.80511">
        <ele>614</ele>
        <time>2016-04-10T08:48:50.127Z</time>
      </trkpt>
      <trkpt lat="43.61658" lon="5.80523">
        <ele>615</ele>
        <time>2016-04-10T08:48:52.147Z</time>
      </trkpt>
      <trkpt lat="43.61657" lon="5.80529">
        <ele>614</ele>
        <time>2016-04-10T08:48:53.150Z</time>
      </trkpt>
      <trkpt lat="43.61657" lon="5.80536">
        <ele>614</ele>
        <time>2016-04-10T08:48:54.150Z</time>
      </trkpt>
      <trkpt lat="43.61658" lon="5.80545">
        <ele>614</ele>
        <time>2016-04-10T08:48:55.122Z</time>
      </trkpt>
      <trkpt lat="43.61659" lon="5.80551">
        <ele>613</ele>
        <time>2016-04-10T08:48:56.151Z</time>
      </trkpt>
      <trkpt lat="43.61659" lon="5.80559">
        <ele>613</ele>
        <time>2016-04-10T08:48:57.126Z</time>
      </trkpt>
      <trkpt lat="43.61659" lon="5.80567">
        <ele>612</ele>
        <time>2016-04-10T08:48:58.150Z</time>
      </trkpt>
      <trkpt lat="43.61657" lon="5.80576">
        <ele>612</ele>
        <time>2016-04-10T08:48:59.126Z</time>
      </trkpt>
      <trkpt lat="43.61654" lon="5.80584">
        <ele>611</ele>
        <time>2016-04-10T08:49:00.386Z</time>
      </trkpt>
      <trkpt lat="43.61652" lon="5.80592">
        <ele>611</ele>
        <time>2016-04-10T08:49:01.123Z</time>
      </trkpt>
      <trkpt lat="43.61651" lon="5.80601">
        <ele>611</ele>
        <time>2016-04-10T08:49:02.163Z</time>
      </trkpt>
      <trkpt lat="43.61652" lon="5.80609">
        <ele>610</ele>
        <time>2016-04-10T08:49:03.126Z</time>
      </trkpt>
      <trkpt lat="43.61652" lon="5.80617">
        <ele>610</ele>
        <time>2016-04-10T08:49:04.151Z</time>
      </trkpt>
      <trkpt lat="43.61652" lon="5.80624">
        <ele>609</ele>
        <time>2016-04-10T08:49:05.126Z</time>
      </trkpt>
      <trkpt lat="43.61652" lon="5.80631">
        <ele>608</ele>
        <time>2016-04-10T08:49:06.150Z</time>
      </trkpt>
      <trkpt lat="43.61652" lon="5.80638">
        <ele>608</ele>
        <time>2016-04-10T08:49:07.138Z</time>
      </trkpt>
      <trkpt lat="43.61652" lon="5.80646">
        <ele>607</ele>
        <time>2016-04-10T08:49:08.130Z</time>
      </trkpt>
      <trkpt lat="43.61651" lon="5.80655">
        <ele>606</ele>
        <time>2016-04-10T08:49:09.153Z</time>
      </trkpt>
      <trkpt lat="43.61649" lon="5.80664">
        <ele>605</ele>
        <time>2016-04-10T08:49:10.164Z</time>
      </trkpt>
      <trkpt lat="43.6165" lon="5.80672">
        <ele>604</ele>
        <time>2016-04-10T08:49:11.127Z</time>
      </trkpt>
      <trkpt lat="43.6165" lon="5.80679">
        <ele>603</ele>
        <time>2016-04-10T08:49:12.151Z</time>
      </trkpt>
      <trkpt lat="43.61651" lon="5.80685">
        <ele>603</ele>
        <time>2016-04-10T08:49:13.127Z</time>
      </trkpt>
      <trkpt lat="43.61654" lon="5.80689">
        <ele>603</ele>
        <time>2016-04-10T08:49:14.154Z</time>
      </trkpt>
      <trkpt lat="43.61659" lon="5.80693">
        <ele>602</ele>
        <time>2016-04-10T08:49:15.139Z</time>
      </trkpt>
      <trkpt lat="43.61663" lon="5.80695">
        <ele>601</ele>
        <time>2016-04-10T08:49:16.154Z</time>
      </trkpt>
      <trkpt lat="43.61668" lon="5.80699">
        <ele>601</ele>
        <time>2016-04-10T08:49:17.128Z</time>
      </trkpt>
      <trkpt lat="43.61673" lon="5.80702">
        <ele>601</ele>
        <time>2016-04-10T08:49:18.149Z</time>
      </trkpt>
      <trkpt lat="43.61679" lon="5.80706">
        <ele>599</ele>
        <time>2016-04-10T08:49:19.129Z</time>
      </trkpt>
      <trkpt lat="43.61685" lon="5.8071">
        <ele>599</ele>
        <time>2016-04-10T08:49:20.153Z</time>
      </trkpt>
      <trkpt lat="43.61689" lon="5.80713">
        <ele>598</ele>
        <time>2016-04-10T08:49:21.130Z</time>
      </trkpt>
      <trkpt lat="43.61692" lon="5.80719">
        <ele>598</ele>
        <time>2016-04-10T08:49:22.154Z</time>
      </trkpt>
      <trkpt lat="43.61693" lon="5.80725">
        <ele>598</ele>
        <time>2016-04-10T08:49:23.129Z</time>
      </trkpt>
      <trkpt lat="43.61695" lon="5.8073">
        <ele>597</ele>
        <time>2016-04-10T08:49:24.154Z</time>
      </trkpt>
      <trkpt lat="43.61699" lon="5.80735">
        <ele>597</ele>
        <time>2016-04-10T08:49:25.154Z</time>
      </trkpt>
      <trkpt lat="43.61703" lon="5.80739">
        <ele>595</ele>
        <time>2016-04-10T08:49:26.155Z</time>
      </trkpt>
      <trkpt lat="43.61708" lon="5.80742">
        <ele>595</ele>
        <time>2016-04-10T08:49:27.129Z</time>
      </trkpt>
      <trkpt lat="43.61714" lon="5.80743">
        <ele>595</ele>
        <time>2016-04-10T08:49:28.151Z</time>
      </trkpt>
      <trkpt lat="43.61718" lon="5.80745">
        <ele>594</ele>
        <time>2016-04-10T08:49:29.127Z</time>
      </trkpt>
      <trkpt lat="43.61721" lon="5.8075">
        <ele>593</ele>
        <time>2016-04-10T08:49:30.164Z</time>
      </trkpt>
      <trkpt lat="43.61723" lon="5.80756">
        <ele>592</ele>
        <time>2016-04-10T08:49:31.127Z</time>
      </trkpt>
      <trkpt lat="43.61722" lon="5.80763">
        <ele>592</ele>
        <time>2016-04-10T08:49:32.152Z</time>
      </trkpt>
      <trkpt lat="43.61721" lon="5.80769">
        <ele>591</ele>
        <time>2016-04-10T08:49:33.128Z</time>
      </trkpt>
      <trkpt lat="43.6172" lon="5.80776">
        <ele>591</ele>
        <time>2016-04-10T08:49:34.152Z</time>
      </trkpt>
      <trkpt lat="43.61721" lon="5.80783">
        <ele>590</ele>
        <time>2016-04-10T08:49:35.126Z</time>
      </trkpt>
      <trkpt lat="43.61724" lon="5.80789">
        <ele>590</ele>
        <time>2016-04-10T08:49:36.402Z</time>
      </trkpt>
      <trkpt lat="43.61728" lon="5.80795">
        <ele>590</ele>
        <time>2016-04-10T08:49:37.128Z</time>
      </trkpt>
      <trkpt lat="43.61731" lon="5.808">
        <ele>590</ele>
        <time>2016-04-10T08:49:38.165Z</time>
      </trkpt>
      <trkpt lat="43.61736" lon="5.80802">
        <ele>589</ele>
        <time>2016-04-10T08:49:39.128Z</time>
      </trkpt>
      <trkpt lat="43.6174" lon="5.8081">
        <ele>588</ele>
        <time>2016-04-10T08:49:41.162Z</time>
      </trkpt>
      <trkpt lat="43.61741" lon="5.80815">
        <ele>588</ele>
        <time>2016-04-10T08:49:42.128Z</time>
      </trkpt>
      <trkpt lat="43.61747" lon="5.80823">
        <ele>587</ele>
        <time>2016-04-10T08:49:44.151Z</time>
      </trkpt>
      <trkpt lat="43.61751" lon="5.80824">
        <ele>587</ele>
        <time>2016-04-10T08:49:45.127Z</time>
      </trkpt>
      <trkpt lat="43.61755" lon="5.80826">
        <ele>587</ele>
        <time>2016-04-10T08:49:46.152Z</time>
      </trkpt>
      <trkpt lat="43.6176" lon="5.80827">
        <ele>586</ele>
        <time>2016-04-10T08:49:47.152Z</time>
      </trkpt>
      <trkpt lat="43.61765" lon="5.80828">
        <ele>586</ele>
        <time>2016-04-10T08:49:48.153Z</time>
      </trkpt>
      <trkpt lat="43.6177" lon="5.80828">
        <ele>585</ele>
        <time>2016-04-10T08:49:49.127Z</time>
      </trkpt>
      <trkpt lat="43.61776" lon="5.80828">
        <ele>585</ele>
        <time>2016-04-10T08:49:50.152Z</time>
      </trkpt>
      <trkpt lat="43.61781" lon="5.8083">
        <ele>584</ele>
        <time>2016-04-10T08:49:51.127Z</time>
      </trkpt>
      <trkpt lat="43.61787" lon="5.80833">
        <ele>584</ele>
        <time>2016-04-10T08:49:52.152Z</time>
      </trkpt>
      <trkpt lat="43.61791" lon="5.80836">
        <ele>584</ele>
        <time>2016-04-10T08:49:53.138Z</time>
      </trkpt>
      <trkpt lat="43.618" lon="5.80836">
        <ele>583</ele>
        <time>2016-04-10T08:49:56.152Z</time>
      </trkpt>
      <trkpt lat="43.61801" lon="5.80836">
        <ele>583</ele>
        <time>2016-04-10T08:49:57.126Z</time>
      </trkpt>
      <trkpt lat="43.61805" lon="5.80829">
        <ele>582</ele>
        <time>2016-04-10T08:50:33.162Z</time>
      </trkpt>
      <trkpt lat="43.61808" lon="5.80827">
        <ele>582</ele>
        <time>2016-04-10T08:50:34.123Z</time>
      </trkpt>
      <trkpt lat="43.61816" lon="5.80825">
        <ele>581</ele>
        <time>2016-04-10T08:50:36.150Z</time>
      </trkpt>
      <trkpt lat="43.6182" lon="5.80824">
        <ele>581</ele>
        <time>2016-04-10T08:50:37.147Z</time>
      </trkpt>
      <trkpt lat="43.61827" lon="5.80821">
        <ele>580</ele>
        <time>2016-04-10T08:50:39.151Z</time>
      </trkpt>
      <trkpt lat="43.61831" lon="5.80818">
        <ele>579</ele>
        <time>2016-04-10T08:50:40.347Z</time>
      </trkpt>
      <trkpt lat="43.61837" lon="5.80813">
        <ele>578</ele>
        <time>2016-04-10T08:50:41.151Z</time>
      </trkpt>
      <trkpt lat="43.61844" lon="5.8081">
        <ele>578</ele>
        <time>2016-04-10T08:50:42.126Z</time>
      </trkpt>
      <trkpt lat="43.61851" lon="5.80807">
        <ele>576</ele>
        <time>2016-04-10T08:50:43.153Z</time>
      </trkpt>
      <trkpt lat="43.61858" lon="5.80803">
        <ele>576</ele>
        <time>2016-04-10T08:50:44.127Z</time>
      </trkpt>
      <trkpt lat="43.61865" lon="5.808">
        <ele>575</ele>
        <time>2016-04-10T08:50:45.151Z</time>
      </trkpt>
      <trkpt lat="43.61871" lon="5.80797">
        <ele>574</ele>
        <time>2016-04-10T08:50:46.128Z</time>
      </trkpt>
      <trkpt lat="43.61876" lon="5.80795">
        <ele>574</ele>
        <time>2016-04-10T08:50:47.151Z</time>
      </trkpt>
      <trkpt lat="43.6188" lon="5.80793">
        <ele>573</ele>
        <time>2016-04-10T08:50:48.127Z</time>
      </trkpt>
      <trkpt lat="43.61887" lon="5.80786">
        <ele>570</ele>
        <time>2016-04-10T08:50:50.368Z</time>
      </trkpt>
      <trkpt lat="43.61892" lon="5.80785">
        <ele>569</ele>
        <time>2016-04-10T08:50:51.127Z</time>
      </trkpt>
      <trkpt lat="43.61897" lon="5.80785">
        <ele>568</ele>
        <time>2016-04-10T08:50:52.152Z</time>
      </trkpt>
      <trkpt lat="43.61904" lon="5.80785">
        <ele>567</ele>
        <time>2016-04-10T08:50:53.127Z</time>
      </trkpt>
      <trkpt lat="43.61911" lon="5.80783">
        <ele>567</ele>
        <time>2016-04-10T08:50:54.152Z</time>
      </trkpt>
      <trkpt lat="43.61918" lon="5.80781">
        <ele>567</ele>
        <time>2016-04-10T08:50:55.125Z</time>
      </trkpt>
      <trkpt lat="43.61925" lon="5.80779">
        <ele>567</ele>
        <time>2016-04-10T08:50:56.180Z</time>
      </trkpt>
      <trkpt lat="43.61931" lon="5.80777">
        <ele>567</ele>
        <time>2016-04-10T08:50:57.127Z</time>
      </trkpt>
      <trkpt lat="43.61936" lon="5.80775">
        <ele>566</ele>
        <time>2016-04-10T08:50:58.163Z</time>
      </trkpt>
      <trkpt lat="43.6194" lon="5.80774">
        <ele>566</ele>
        <time>2016-04-10T08:50:59.128Z</time>
      </trkpt>
      <trkpt lat="43.61948" lon="5.80777">
        <ele>565</ele>
        <time>2016-04-10T08:51:01.150Z</time>
      </trkpt>
      <trkpt lat="43.61953" lon="5.80777">
        <ele>565</ele>
        <time>2016-04-10T08:51:02.123Z</time>
      </trkpt>
      <trkpt lat="43.61958" lon="5.80777">
        <ele>566</ele>
        <time>2016-04-10T08:51:03.151Z</time>
      </trkpt>
      <trkpt lat="43.61962" lon="5.80777">
        <ele>565</ele>
        <time>2016-04-10T08:51:04.127Z</time>
      </trkpt>
      <trkpt lat="43.6197" lon="5.80774">
        <ele>562</ele>
        <time>2016-04-10T08:51:06.158Z</time>
      </trkpt>
      <trkpt lat="43.61974" lon="5.80773">
        <ele>560</ele>
        <time>2016-04-10T08:51:07.124Z</time>
      </trkpt>
      <trkpt lat="43.61983" lon="5.80773">
        <ele>558</ele>
        <time>2016-04-10T08:51:09.230Z</time>
      </trkpt>
      <trkpt lat="43.61986" lon="5.80774">
        <ele>556</ele>
        <time>2016-04-10T08:51:10.124Z</time>
      </trkpt>
      <trkpt lat="43.61994" lon="5.8077">
        <ele>554</ele>
        <time>2016-04-10T08:51:12.178Z</time>
      </trkpt>
      <trkpt lat="43.61999" lon="5.80768">
        <ele>553</ele>
        <time>2016-04-10T08:51:13.127Z</time>
      </trkpt>
      <trkpt lat="43.62003" lon="5.80766">
        <ele>552</ele>
        <time>2016-04-10T08:51:14.165Z</time>
      </trkpt>
      <trkpt lat="43.62007" lon="5.80764">
        <ele>550</ele>
        <time>2016-04-10T08:51:15.127Z</time>
      </trkpt>
      <trkpt lat="43.62012" lon="5.80763">
        <ele>549</ele>
        <time>2016-04-10T08:51:16.154Z</time>
      </trkpt>
      <trkpt lat="43.62017" lon="5.80762">
        <ele>548</ele>
        <time>2016-04-10T08:51:17.136Z</time>
      </trkpt>
      <trkpt lat="43.62025" lon="5.80761">
        <ele>547</ele>
        <time>2016-04-10T08:51:19.152Z</time>
      </trkpt>
      <trkpt lat="43.62028" lon="5.80761">
        <ele>546</ele>
        <time>2016-04-10T08:51:20.127Z</time>
      </trkpt>
      <trkpt lat="43.62034" lon="5.80759">
        <ele>545</ele>
        <time>2016-04-10T08:51:22.151Z</time>
      </trkpt>
      <trkpt lat="43.62036" lon="5.80755">
        <ele>544</ele>
        <time>2016-04-10T08:51:23.127Z</time>
      </trkpt>
      <trkpt lat="43.62042" lon="5.80746">
        <ele>542</ele>
        <time>2016-04-10T08:51:26.152Z</time>
      </trkpt>
      <trkpt lat="43.62044" lon="5.80745">
        <ele>542</ele>
        <time>2016-04-10T08:51:27.127Z</time>
      </trkpt>
      <trkpt lat="43.62052" lon="5.80743">
        <ele>540</ele>
        <time>2016-04-10T08:51:30.151Z</time>
      </trkpt>
      <trkpt lat="43.62056" lon="5.8074">
        <ele>539</ele>
        <time>2016-04-10T08:51:31.127Z</time>
      </trkpt>
      <trkpt lat="43.62062" lon="5.80736">
        <ele>537</ele>
        <time>2016-04-10T08:51:33.184Z</time>
      </trkpt>
      <trkpt lat="43.62065" lon="5.80736">
        <ele>537</ele>
        <time>2016-04-10T08:51:34.123Z</time>
      </trkpt>
      <trkpt lat="43.6207" lon="5.80746">
        <ele>536</ele>
        <time>2016-04-10T08:51:37.151Z</time>
      </trkpt>
      <trkpt lat="43.62071" lon="5.80751">
        <ele>536</ele>
        <time>2016-04-10T08:51:38.127Z</time>
      </trkpt>
      <trkpt lat="43.62073" lon="5.80761">
        <ele>535</ele>
        <time>2016-04-10T08:51:40.152Z</time>
      </trkpt>
      <trkpt lat="43.62074" lon="5.80767">
        <ele>535</ele>
        <time>2016-04-10T08:51:41.127Z</time>
      </trkpt>
      <trkpt lat="43.62075" lon="5.80774">
        <ele>534</ele>
        <time>2016-04-10T08:51:42.150Z</time>
      </trkpt>
      <trkpt lat="43.62075" lon="5.80784">
        <ele>534</ele>
        <time>2016-04-10T08:51:43.127Z</time>
      </trkpt>
      <trkpt lat="43.62077" lon="5.80792">
        <ele>533</ele>
        <time>2016-04-10T08:51:44.154Z</time>
      </trkpt>
      <trkpt lat="43.62078" lon="5.808">
        <ele>533</ele>
        <time>2016-04-10T08:51:45.130Z</time>
      </trkpt>
      <trkpt lat="43.62079" lon="5.80812">
        <ele>531</ele>
        <time>2016-04-10T08:51:47.152Z</time>
      </trkpt>
      <trkpt lat="43.62079" lon="5.80816">
        <ele>530</ele>
        <time>2016-04-10T08:51:48.127Z</time>
      </trkpt>
      <trkpt lat="43.62079" lon="5.80828">
        <ele>529</ele>
        <time>2016-04-10T08:51:50.163Z</time>
      </trkpt>
      <trkpt lat="43.62079" lon="5.80835">
        <ele>529</ele>
        <time>2016-04-10T08:51:51.127Z</time>
      </trkpt>
      <trkpt lat="43.62079" lon="5.80846">
        <ele>528</ele>
        <time>2016-04-10T08:51:53.152Z</time>
      </trkpt>
      <trkpt lat="43.62079" lon="5.80849">
        <ele>529</ele>
        <time>2016-04-10T08:51:54.127Z</time>
      </trkpt>
      <trkpt lat="43.6208" lon="5.80861">
        <ele>532</ele>
        <time>2016-04-10T08:52:08.152Z</time>
      </trkpt>
      <trkpt lat="43.6208" lon="5.80862">
        <ele>532</ele>
        <time>2016-04-10T08:52:09.127Z</time>
      </trkpt>
      <trkpt lat="43.62085" lon="5.80871">
        <ele>533</ele>
        <time>2016-04-10T08:52:20.156Z</time>
      </trkpt>
      <trkpt lat="43.62086" lon="5.80872">
        <ele>533</ele>
        <time>2016-04-10T08:52:21.127Z</time>
      </trkpt>
      <trkpt lat="43.62092" lon="5.80881">
        <ele>534</ele>
        <time>2016-04-10T08:52:25.152Z</time>
      </trkpt>
      <trkpt lat="43.62093" lon="5.80883">
        <ele>535</ele>
        <time>2016-04-10T08:52:26.330Z</time>
      </trkpt>
      <trkpt lat="43.62097" lon="5.80892">
        <ele>535</ele>
        <time>2016-04-10T08:52:29.151Z</time>
      </trkpt>
      <trkpt lat="43.62099" lon="5.80894">
        <ele>534</ele>
        <time>2016-04-10T08:52:30.127Z</time>
      </trkpt>
      <trkpt lat="43.62104" lon="5.80902">
        <ele>535</ele>
        <time>2016-04-10T08:52:33.151Z</time>
      </trkpt>
      <trkpt lat="43.62105" lon="5.80905">
        <ele>535</ele>
        <time>2016-04-10T08:52:34.126Z</time>
      </trkpt>
      <trkpt lat="43.6211" lon="5.80913">
        <ele>535</ele>
        <time>2016-04-10T08:52:37.173Z</time>
      </trkpt>
      <trkpt lat="43.62112" lon="5.80916">
        <ele>535</ele>
        <time>2016-04-10T08:52:38.127Z</time>
      </trkpt>
      <trkpt lat="43.62118" lon="5.80924">
        <ele>535</ele>
        <time>2016-04-10T08:52:41.158Z</time>
      </trkpt>
      <trkpt lat="43.6212" lon="5.80927">
        <ele>535</ele>
        <time>2016-04-10T08:52:42.127Z</time>
      </trkpt>
      <trkpt lat="43.62125" lon="5.80935">
        <ele>535</ele>
        <time>2016-04-10T08:52:45.151Z</time>
      </trkpt>
      <trkpt lat="43.62127" lon="5.80938">
        <ele>535</ele>
        <time>2016-04-10T08:52:46.128Z</time>
      </trkpt>
      <trkpt lat="43.62131" lon="5.80949">
        <ele>535</ele>
        <time>2016-04-10T08:52:49.376Z</time>
      </trkpt>
      <trkpt lat="43.62131" lon="5.80953">
        <ele>535</ele>
        <time>2016-04-10T08:52:50.127Z</time>
      </trkpt>
      <trkpt lat="43.62131" lon="5.80965">
        <ele>536</ele>
        <time>2016-04-10T08:53:54.153Z</time>
      </trkpt>
      <trkpt lat="43.62131" lon="5.80968">
        <ele>536</ele>
        <time>2016-04-10T08:53:55.128Z</time>
      </trkpt>
      <trkpt lat="43.62131" lon="5.80978">
        <ele>536</ele>
        <time>2016-04-10T08:53:59.152Z</time>
      </trkpt>
      <trkpt lat="43.6213" lon="5.8098">
        <ele>536</ele>
        <time>2016-04-10T08:54:00.554Z</time>
      </trkpt>
      <trkpt lat="43.62129" lon="5.8099">
        <ele>537</ele>
        <time>2016-04-10T08:54:06.146Z</time>
      </trkpt>
      <trkpt lat="43.62129" lon="5.80992">
        <ele>537</ele>
        <time>2016-04-10T08:54:07.135Z</time>
      </trkpt>
      <trkpt lat="43.6213" lon="5.81004">
        <ele>537</ele>
        <time>2016-04-10T08:54:11.153Z</time>
      </trkpt>
      <trkpt lat="43.6213" lon="5.81007">
        <ele>536</ele>
        <time>2016-04-10T08:54:12.128Z</time>
      </trkpt>
      <trkpt lat="43.62132" lon="5.81018">
        <ele>535</ele>
        <time>2016-04-10T08:54:15.164Z</time>
      </trkpt>
      <trkpt lat="43.62133" lon="5.8103">
        <ele>534</ele>
        <time>2016-04-10T08:54:16.128Z</time>
      </trkpt>
      <trkpt lat="43.62134" lon="5.81037">
        <ele>534</ele>
        <time>2016-04-10T08:54:17.154Z</time>
      </trkpt>
      <trkpt lat="43.62134" lon="5.81045">
        <ele>533</ele>
        <time>2016-04-10T08:54:18.128Z</time>
      </trkpt>
      <trkpt lat="43.62136" lon="5.81057">
        <ele>532</ele>
        <time>2016-04-10T08:54:21.152Z</time>
      </trkpt>
      <trkpt lat="43.62138" lon="5.8106">
        <ele>532</ele>
        <time>2016-04-10T08:54:22.127Z</time>
      </trkpt>
      <trkpt lat="43.62144" lon="5.81068">
        <ele>529</ele>
        <time>2016-04-10T08:54:25.153Z</time>
      </trkpt>
      <trkpt lat="43.62145" lon="5.81071">
        <ele>528</ele>
        <time>2016-04-10T08:54:26.127Z</time>
      </trkpt>
      <trkpt lat="43.62148" lon="5.81079">
        <ele>527</ele>
        <time>2016-04-10T08:54:29.152Z</time>
      </trkpt>
      <trkpt lat="43.6215" lon="5.81082">
        <ele>526</ele>
        <time>2016-04-10T08:54:30.164Z</time>
      </trkpt>
      <trkpt lat="43.62154" lon="5.81092">
        <ele>525</ele>
        <time>2016-04-10T08:54:33.370Z</time>
      </trkpt>
      <trkpt lat="43.62155" lon="5.81096">
        <ele>525</ele>
        <time>2016-04-10T08:54:34.127Z</time>
      </trkpt>
      <trkpt lat="43.62162" lon="5.81103">
        <ele>523</ele>
        <time>2016-04-10T08:54:50.157Z</time>
      </trkpt>
      <trkpt lat="43.62163" lon="5.81103">
        <ele>522</ele>
        <time>2016-04-10T08:54:51.127Z</time>
      </trkpt>
      <trkpt lat="43.62171" lon="5.81104">
        <ele>518</ele>
        <time>2016-04-10T08:55:09.158Z</time>
      </trkpt>
      <trkpt lat="43.62174" lon="5.81103">
        <ele>517</ele>
        <time>2016-04-10T08:55:10.124Z</time>
      </trkpt>
      <trkpt lat="43.62182" lon="5.81102">
        <ele>514</ele>
        <time>2016-04-10T08:55:13.386Z</time>
      </trkpt>
      <trkpt lat="43.62185" lon="5.81103">
        <ele>513</ele>
        <time>2016-04-10T08:55:14.124Z</time>
      </trkpt>
      <trkpt lat="43.62193" lon="5.81106">
        <ele>511</ele>
        <time>2016-04-10T08:55:19.154Z</time>
      </trkpt>
      <trkpt lat="43.62193" lon="5.81108">
        <ele>511</ele>
        <time>2016-04-10T08:55:20.127Z</time>
      </trkpt>
      <trkpt lat="43.62193" lon="5.81119">
        <ele>511</ele>
        <time>2016-04-10T08:55:24.152Z</time>
      </trkpt>
      <trkpt lat="43.62193" lon="5.81122">
        <ele>511</ele>
        <time>2016-04-10T08:55:25.128Z</time>
      </trkpt>
      <trkpt lat="43.62193" lon="5.81129">
        <ele>510</ele>
        <time>2016-04-10T08:55:27.153Z</time>
      </trkpt>
      <trkpt lat="43.62194" lon="5.81134">
        <ele>510</ele>
        <time>2016-04-10T08:55:28.128Z</time>
      </trkpt>
      <trkpt lat="43.62195" lon="5.8114">
        <ele>509</ele>
        <time>2016-04-10T08:55:29.147Z</time>
      </trkpt>
      <trkpt lat="43.62196" lon="5.81147">
        <ele>509</ele>
        <time>2016-04-10T08:55:30.127Z</time>
      </trkpt>
      <trkpt lat="43.62196" lon="5.81157">
        <ele>508</ele>
        <time>2016-04-10T08:55:32.153Z</time>
      </trkpt>
      <trkpt lat="43.62194" lon="5.81161">
        <ele>508</ele>
        <time>2016-04-10T08:55:33.127Z</time>
      </trkpt>
      <trkpt lat="43.62192" lon="5.81168">
        <ele>508</ele>
        <time>2016-04-10T08:55:36.148Z</time>
      </trkpt>
      <trkpt lat="43.62191" lon="5.81172">
        <ele>508</ele>
        <time>2016-04-10T08:55:37.128Z</time>
      </trkpt>
      <trkpt lat="43.62191" lon="5.81181">
        <ele>508</ele>
        <time>2016-04-10T08:55:39.152Z</time>
      </trkpt>
      <trkpt lat="43.62191" lon="5.81187">
        <ele>507</ele>
        <time>2016-04-10T08:55:40.128Z</time>
      </trkpt>
      <trkpt lat="43.62192" lon="5.81193">
        <ele>506</ele>
        <time>2016-04-10T08:55:41.203Z</time>
      </trkpt>
      <trkpt lat="43.62192" lon="5.81202">
        <ele>505</ele>
        <time>2016-04-10T08:55:42.127Z</time>
      </trkpt>
      <trkpt lat="43.62193" lon="5.8121">
        <ele>505</ele>
        <time>2016-04-10T08:55:43.153Z</time>
      </trkpt>
      <trkpt lat="43.62195" lon="5.81219">
        <ele>504</ele>
        <time>2016-04-10T08:55:44.127Z</time>
      </trkpt>
      <trkpt lat="43.62196" lon="5.81227">
        <ele>504</ele>
        <time>2016-04-10T08:55:45.152Z</time>
      </trkpt>
      <trkpt lat="43.62197" lon="5.81234">
        <ele>504</ele>
        <time>2016-04-10T08:55:46.139Z</time>
      </trkpt>
      <trkpt lat="43.62197" lon="5.81246">
        <ele>502</ele>
        <time>2016-04-10T08:55:48.152Z</time>
      </trkpt>
      <trkpt lat="43.62199" lon="5.81253">
        <ele>502</ele>
        <time>2016-04-10T08:55:49.126Z</time>
      </trkpt>
      <trkpt lat="43.62201" lon="5.81263">
        <ele>501</ele>
        <time>2016-04-10T08:55:51.164Z</time>
      </trkpt>
      <trkpt lat="43.62204" lon="5.81266">
        <ele>501</ele>
        <time>2016-04-10T08:55:52.129Z</time>
      </trkpt>
      <trkpt lat="43.6221" lon="5.81274">
        <ele>499</ele>
        <time>2016-04-10T08:55:54.152Z</time>
      </trkpt>
      <trkpt lat="43.62212" lon="5.81278">
        <ele>498</ele>
        <time>2016-04-10T08:55:55.128Z</time>
      </trkpt>
      <trkpt lat="43.62214" lon="5.81289">
        <ele>497</ele>
        <time>2016-04-10T08:55:57.151Z</time>
      </trkpt>
      <trkpt lat="43.62214" lon="5.81295">
        <ele>496</ele>
        <time>2016-04-10T08:55:58.128Z</time>
      </trkpt>
      <trkpt lat="43.62215" lon="5.81302">
        <ele>495</ele>
        <time>2016-04-10T08:55:59.214Z</time>
      </trkpt>
      <trkpt lat="43.62215" lon="5.81308">
        <ele>495</ele>
        <time>2016-04-10T08:56:00.154Z</time>
      </trkpt>
      <trkpt lat="43.62214" lon="5.8132">
        <ele>493</ele>
        <time>2016-04-10T08:56:03.163Z</time>
      </trkpt>
      <trkpt lat="43.62213" lon="5.81322">
        <ele>493</ele>
        <time>2016-04-10T08:56:04.128Z</time>
      </trkpt>
      <trkpt lat="43.62211" lon="5.81332">
        <ele>492</ele>
        <time>2016-04-10T08:56:10.153Z</time>
      </trkpt>
      <trkpt lat="43.62209" lon="5.81334">
        <ele>493</ele>
        <time>2016-04-10T08:56:11.129Z</time>
      </trkpt>
      <trkpt lat="43.62208" lon="5.8134">
        <ele>493</ele>
        <time>2016-04-10T08:56:13.155Z</time>
      </trkpt>
      <trkpt lat="43.62208" lon="5.81347">
        <ele>492</ele>
        <time>2016-04-10T08:56:14.128Z</time>
      </trkpt>
      <trkpt lat="43.62209" lon="5.81358">
        <ele>491</ele>
        <time>2016-04-10T08:56:16.176Z</time>
      </trkpt>
      <trkpt lat="43.62209" lon="5.81361">
        <ele>490</ele>
        <time>2016-04-10T08:56:17.129Z</time>
      </trkpt>
      <trkpt lat="43.62211" lon="5.81371">
        <ele>488</ele>
        <time>2016-04-10T08:56:20.154Z</time>
      </trkpt>
      <trkpt lat="43.62211" lon="5.81373">
        <ele>488</ele>
        <time>2016-04-10T08:56:21.129Z</time>
      </trkpt>
      <trkpt lat="43.62205" lon="5.81378">
        <ele>489</ele>
        <time>2016-04-10T08:56:24.153Z</time>
      </trkpt>
      <trkpt lat="43.62203" lon="5.81379">
        <ele>489</ele>
        <time>2016-04-10T08:56:25.125Z</time>
      </trkpt>
      <trkpt lat="43.62197" lon="5.81388">
        <ele>490</ele>
        <time>2016-04-10T08:56:30.154Z</time>
      </trkpt>
      <trkpt lat="43.62195" lon="5.81389">
        <ele>490</ele>
        <time>2016-04-10T08:56:31.129Z</time>
      </trkpt>
      <trkpt lat="43.6219" lon="5.81399">
        <ele>491</ele>
        <time>2016-04-10T08:56:36.154Z</time>
      </trkpt>
      <trkpt lat="43.62189" lon="5.81401">
        <ele>492</ele>
        <time>2016-04-10T08:56:37.125Z</time>
      </trkpt>
      <trkpt lat="43.62185" lon="5.8141">
        <ele>492</ele>
        <time>2016-04-10T08:56:41.155Z</time>
      </trkpt>
      <trkpt lat="43.62184" lon="5.81412">
        <ele>493</ele>
        <time>2016-04-10T08:56:42.130Z</time>
      </trkpt>
      <trkpt lat="43.62179" lon="5.8142">
        <ele>493</ele>
        <time>2016-04-10T08:56:46.154Z</time>
      </trkpt>
      <trkpt lat="43.62178" lon="5.81422">
        <ele>494</ele>
        <time>2016-04-10T08:56:47.128Z</time>
      </trkpt>
      <trkpt lat="43.62172" lon="5.81429">
        <ele>494</ele>
        <time>2016-04-10T08:56:52.153Z</time>
      </trkpt>
      <trkpt lat="43.62171" lon="5.81431">
        <ele>494</ele>
        <time>2016-04-10T08:56:53.128Z</time>
      </trkpt>
      <trkpt lat="43.62165" lon="5.81437">
        <ele>495</ele>
        <time>2016-04-10T08:56:59.152Z</time>
      </trkpt>
      <trkpt lat="43.62163" lon="5.81438">
        <ele>495</ele>
        <time>2016-04-10T08:57:00.128Z</time>
      </trkpt>
      <trkpt lat="43.62155" lon="5.8144">
        <ele>496</ele>
        <time>2016-04-10T08:57:07.153Z</time>
      </trkpt>
      <trkpt lat="43.62154" lon="5.81441">
        <ele>495</ele>
        <time>2016-04-10T08:57:08.129Z</time>
      </trkpt>
      <trkpt lat="43.62147" lon="5.81449">
        <ele>497</ele>
        <time>2016-04-10T08:57:15.152Z</time>
      </trkpt>
      <trkpt lat="43.62146" lon="5.8145">
        <ele>497</ele>
        <time>2016-04-10T08:57:16.129Z</time>
      </trkpt>
      <trkpt lat="43.62143" lon="5.8146">
        <ele>498</ele>
        <time>2016-04-10T08:57:22.152Z</time>
      </trkpt>
      <trkpt lat="43.62143" lon="5.81462">
        <ele>498</ele>
        <time>2016-04-10T08:57:23.128Z</time>
      </trkpt>
      <trkpt lat="43.6214" lon="5.81472">
        <ele>499</ele>
        <time>2016-04-10T08:57:29.152Z</time>
      </trkpt>
      <trkpt lat="43.62139" lon="5.81474">
        <ele>499</ele>
        <time>2016-04-10T08:57:30.128Z</time>
      </trkpt>
      <trkpt lat="43.62133" lon="5.81481">
        <ele>500</ele>
        <time>2016-04-10T08:57:36.155Z</time>
      </trkpt>
      <trkpt lat="43.62132" lon="5.81482">
        <ele>501</ele>
        <time>2016-04-10T08:57:37.124Z</time>
      </trkpt>
      <trkpt lat="43.62127" lon="5.81491">
        <ele>500</ele>
        <time>2016-04-10T08:57:43.154Z</time>
      </trkpt>
      <trkpt lat="43.62126" lon="5.81492">
        <ele>500</ele>
        <time>2016-04-10T08:57:44.125Z</time>
      </trkpt>
      <trkpt lat="43.62119" lon="5.81499">
        <ele>501</ele>
        <time>2016-04-10T08:57:51.153Z</time>
      </trkpt>
      <trkpt lat="43.62119" lon="5.815">
        <ele>502</ele>
        <time>2016-04-10T08:57:52.128Z</time>
      </trkpt>
      <trkpt lat="43.62112" lon="5.81506">
        <ele>503</ele>
        <time>2016-04-10T08:57:58.247Z</time>
      </trkpt>
      <trkpt lat="43.62111" lon="5.81507">
        <ele>503</ele>
        <time>2016-04-10T08:57:59.124Z</time>
      </trkpt>
      <trkpt lat="43.62104" lon="5.81514">
        <ele>503</ele>
        <time>2016-04-10T08:58:06.154Z</time>
      </trkpt>
      <trkpt lat="43.62103" lon="5.81514">
        <ele>503</ele>
        <time>2016-04-10T08:58:07.128Z</time>
      </trkpt>
      <trkpt lat="43.62106" lon="5.81525">
        <ele>505</ele>
        <time>2016-04-10T08:58:27.150Z</time>
      </trkpt>
      <trkpt lat="43.62108" lon="5.81527">
        <ele>504</ele>
        <time>2016-04-10T08:58:28.130Z</time>
      </trkpt>
      <trkpt lat="43.62115" lon="5.81533">
        <ele>504</ele>
        <time>2016-04-10T08:58:31.154Z</time>
      </trkpt>
      <trkpt lat="43.62117" lon="5.81535">
        <ele>503</ele>
        <time>2016-04-10T08:58:32.130Z</time>
      </trkpt>
      <trkpt lat="43.62122" lon="5.81543">
        <ele>503</ele>
        <time>2016-04-10T08:58:36.155Z</time>
      </trkpt>
      <trkpt lat="43.62123" lon="5.81545">
        <ele>503</ele>
        <time>2016-04-10T08:58:37.128Z</time>
      </trkpt>
      <trkpt lat="43.62118" lon="5.81554">
        <ele>504</ele>
        <time>2016-04-10T08:58:44.385Z</time>
      </trkpt>
      <trkpt lat="43.62117" lon="5.81555">
        <ele>504</ele>
        <time>2016-04-10T08:58:45.124Z</time>
      </trkpt>
      <trkpt lat="43.62114" lon="5.81565">
        <ele>505</ele>
        <time>2016-04-10T08:58:51.155Z</time>
      </trkpt>
      <trkpt lat="43.62113" lon="5.81567">
        <ele>505</ele>
        <time>2016-04-10T08:58:52.128Z</time>
      </trkpt>
      <trkpt lat="43.6211" lon="5.81579">
        <ele>505</ele>
        <time>2016-04-10T08:58:58.152Z</time>
      </trkpt>
      <trkpt lat="43.6211" lon="5.81581">
        <ele>505</ele>
        <time>2016-04-10T08:58:59.128Z</time>
      </trkpt>
      <trkpt lat="43.6211" lon="5.8159">
        <ele>505</ele>
        <time>2016-04-10T08:59:01.165Z</time>
      </trkpt>
      <trkpt lat="43.62109" lon="5.81594">
        <ele>505</ele>
        <time>2016-04-10T08:59:02.148Z</time>
      </trkpt>
      <trkpt lat="43.62107" lon="5.81603">
        <ele>505</ele>
        <time>2016-04-10T08:59:04.153Z</time>
      </trkpt>
      <trkpt lat="43.62107" lon="5.81607">
        <ele>505</ele>
        <time>2016-04-10T08:59:05.128Z</time>
      </trkpt>
      <trkpt lat="43.62104" lon="5.81615">
        <ele>505</ele>
        <time>2016-04-10T08:59:07.153Z</time>
      </trkpt>
      <trkpt lat="43.62102" lon="5.81618">
        <ele>505</ele>
        <time>2016-04-10T08:59:08.125Z</time>
      </trkpt>
      <trkpt lat="43.62096" lon="5.81625">
        <ele>504</ele>
        <time>2016-04-10T08:59:12.155Z</time>
      </trkpt>
      <trkpt lat="43.62096" lon="5.81628">
        <ele>504</ele>
        <time>2016-04-10T08:59:13.152Z</time>
      </trkpt>
      <trkpt lat="43.62092" lon="5.81635">
        <ele>504</ele>
        <time>2016-04-10T08:59:15.152Z</time>
      </trkpt>
      <trkpt lat="43.6209" lon="5.81638">
        <ele>504</ele>
        <time>2016-04-10T08:59:16.128Z</time>
      </trkpt>
      <trkpt lat="43.62084" lon="5.81647">
        <ele>504</ele>
        <time>2016-04-10T08:59:19.227Z</time>
      </trkpt>
      <trkpt lat="43.62082" lon="5.8165">
        <ele>504</ele>
        <time>2016-04-10T08:59:20.126Z</time>
      </trkpt>
      <trkpt lat="43.62076" lon="5.81654">
        <ele>504</ele>
        <time>2016-04-10T08:59:22.156Z</time>
      </trkpt>
      <trkpt lat="43.62074" lon="5.81657">
        <ele>505</ele>
        <time>2016-04-10T08:59:23.131Z</time>
      </trkpt>
      <trkpt lat="43.62072" lon="5.81665">
        <ele>505</ele>
        <time>2016-04-10T08:59:25.161Z</time>
      </trkpt>
      <trkpt lat="43.62072" lon="5.81669">
        <ele>505</ele>
        <time>2016-04-10T08:59:26.126Z</time>
      </trkpt>
      <trkpt lat="43.62071" lon="5.81677">
        <ele>504</ele>
        <time>2016-04-10T08:59:28.155Z</time>
      </trkpt>
      <trkpt lat="43.6207" lon="5.81681">
        <ele>505</ele>
        <time>2016-04-10T08:59:29.155Z</time>
      </trkpt>
      <trkpt lat="43.62067" lon="5.81689">
        <ele>506</ele>
        <time>2016-04-10T08:59:31.378Z</time>
      </trkpt>
      <trkpt lat="43.62065" lon="5.81694">
        <ele>507</ele>
        <time>2016-04-10T08:59:32.127Z</time>
      </trkpt>
      <trkpt lat="43.6206" lon="5.817">
        <ele>506</ele>
        <time>2016-04-10T08:59:34.155Z</time>
      </trkpt>
      <trkpt lat="43.62057" lon="5.81703">
        <ele>506</ele>
        <time>2016-04-10T08:59:35.128Z</time>
      </trkpt>
      <trkpt lat="43.62053" lon="5.8171">
        <ele>506</ele>
        <time>2016-04-10T08:59:37.154Z</time>
      </trkpt>
      <trkpt lat="43.62053" lon="5.81714">
        <ele>506</ele>
        <time>2016-04-10T08:59:38.138Z</time>
      </trkpt>
      <trkpt lat="43.62052" lon="5.81723">
        <ele>507</ele>
        <time>2016-04-10T08:59:40.188Z</time>
      </trkpt>
      <trkpt lat="43.62052" lon="5.81728">
        <ele>507</ele>
        <time>2016-04-10T08:59:41.129Z</time>
      </trkpt>
      <trkpt lat="43.62052" lon="5.81738">
        <ele>507</ele>
        <time>2016-04-10T08:59:43.386Z</time>
      </trkpt>
      <trkpt lat="43.62051" lon="5.81742">
        <ele>507</ele>
        <time>2016-04-10T08:59:44.128Z</time>
      </trkpt>
      <trkpt lat="43.62049" lon="5.81751">
        <ele>508</ele>
        <time>2016-04-10T08:59:46.154Z</time>
      </trkpt>
      <trkpt lat="43.62048" lon="5.81755">
        <ele>508</ele>
        <time>2016-04-10T08:59:47.127Z</time>
      </trkpt>
      <trkpt lat="43.62044" lon="5.81763">
        <ele>507</ele>
        <time>2016-04-10T08:59:49.155Z</time>
      </trkpt>
      <trkpt lat="43.62042" lon="5.81767">
        <ele>506</ele>
        <time>2016-04-10T08:59:50.131Z</time>
      </trkpt>
      <trkpt lat="43.62036" lon="5.81773">
        <ele>506</ele>
        <time>2016-04-10T08:59:52.148Z</time>
      </trkpt>
      <trkpt lat="43.62034" lon="5.81775">
        <ele>506</ele>
        <time>2016-04-10T08:59:53.127Z</time>
      </trkpt>
      <trkpt lat="43.62031" lon="5.81783">
        <ele>507</ele>
        <time>2016-04-10T08:59:55.152Z</time>
      </trkpt>
      <trkpt lat="43.6203" lon="5.81787">
        <ele>507</ele>
        <time>2016-04-10T08:59:56.128Z</time>
      </trkpt>
      <trkpt lat="43.62026" lon="5.81798">
        <ele>508</ele>
        <time>2016-04-10T08:59:59.248Z</time>
      </trkpt>
      <trkpt lat="43.62025" lon="5.81802">
        <ele>508</ele>
        <time>2016-04-10T09:00:00.124Z</time>
      </trkpt>
      <trkpt lat="43.62023" lon="5.8181">
        <ele>508</ele>
        <time>2016-04-10T09:00:02.165Z</time>
      </trkpt>
      <trkpt lat="43.62022" lon="5.81815">
        <ele>508</ele>
        <time>2016-04-10T09:00:03.124Z</time>
      </trkpt>
      <trkpt lat="43.62021" lon="5.81824">
        <ele>508</ele>
        <time>2016-04-10T09:00:05.153Z</time>
      </trkpt>
      <trkpt lat="43.62021" lon="5.81829">
        <ele>507</ele>
        <time>2016-04-10T09:00:06.129Z</time>
      </trkpt>
      <trkpt lat="43.62024" lon="5.81839">
        <ele>506</ele>
        <time>2016-04-10T09:00:08.150Z</time>
      </trkpt>
      <trkpt lat="43.62027" lon="5.81842">
        <ele>507</ele>
        <time>2016-04-10T09:00:09.128Z</time>
      </trkpt>
      <trkpt lat="43.62031" lon="5.81852">
        <ele>506</ele>
        <time>2016-04-10T09:00:12.178Z</time>
      </trkpt>
      <trkpt lat="43.62032" lon="5.81854">
        <ele>506</ele>
        <time>2016-04-10T09:00:13.128Z</time>
      </trkpt>
      <trkpt lat="43.62034" lon="5.81864">
        <ele>505</ele>
        <time>2016-04-10T09:00:16.153Z</time>
      </trkpt>
      <trkpt lat="43.62033" lon="5.81868">
        <ele>505</ele>
        <time>2016-04-10T09:00:17.128Z</time>
      </trkpt>
      <trkpt lat="43.62032" lon="5.81878">
        <ele>503</ele>
        <time>2016-04-10T09:00:20.152Z</time>
      </trkpt>
      <trkpt lat="43.62031" lon="5.8188">
        <ele>503</ele>
        <time>2016-04-10T09:00:21.128Z</time>
      </trkpt>
      <trkpt lat="43.62024" lon="5.81884">
        <ele>500</ele>
        <time>2016-04-10T09:00:24.154Z</time>
      </trkpt>
      <trkpt lat="43.62023" lon="5.81887">
        <ele>498</ele>
        <time>2016-04-10T09:00:25.128Z</time>
      </trkpt>
      <trkpt lat="43.62027" lon="5.81894">
        <ele>499</ele>
        <time>2016-04-10T09:00:28.181Z</time>
      </trkpt>
      <trkpt lat="43.62029" lon="5.81897">
        <ele>498</ele>
        <time>2016-04-10T09:00:29.128Z</time>
      </trkpt>
      <trkpt lat="43.62032" lon="5.819">
        <ele>497</ele>
        <time>2016-04-10T09:00:30.152Z</time>
      </trkpt>
      <trkpt lat="43.62041" lon="5.81909">
        <ele>496</ele>
        <time>2016-04-10T09:00:31.139Z</time>
      </trkpt>
      <trkpt lat="43.62045" lon="5.81915">
        <ele>496</ele>
        <time>2016-04-10T09:00:32.152Z</time>
      </trkpt>
      <trkpt lat="43.62049" lon="5.81921">
        <ele>496</ele>
        <time>2016-04-10T09:00:33.125Z</time>
      </trkpt>
      <trkpt lat="43.62053" lon="5.81927">
        <ele>495</ele>
        <time>2016-04-10T09:00:34.183Z</time>
      </trkpt>
      <trkpt lat="43.62056" lon="5.81931">
        <ele>495</ele>
        <time>2016-04-10T09:00:35.119Z</time>
      </trkpt>
      <trkpt lat="43.62061" lon="5.81941">
        <ele>495</ele>
        <time>2016-04-10T09:00:37.151Z</time>
      </trkpt>
      <trkpt lat="43.62065" lon="5.81944">
        <ele>495</ele>
        <time>2016-04-10T09:00:38.118Z</time>
      </trkpt>
      <trkpt lat="43.62072" lon="5.81952">
        <ele>493</ele>
        <time>2016-04-10T09:00:41.154Z</time>
      </trkpt>
      <trkpt lat="43.62074" lon="5.81955">
        <ele>493</ele>
        <time>2016-04-10T09:00:42.127Z</time>
      </trkpt>
      <trkpt lat="43.62081" lon="5.81962">
        <ele>492</ele>
        <time>2016-04-10T09:00:44.154Z</time>
      </trkpt>
      <trkpt lat="43.62085" lon="5.81965">
        <ele>492</ele>
        <time>2016-04-10T09:00:45.128Z</time>
      </trkpt>
      <trkpt lat="43.62093" lon="5.81968">
        <ele>491</ele>
        <time>2016-04-10T09:00:47.158Z</time>
      </trkpt>
      <trkpt lat="43.62096" lon="5.81971">
        <ele>491</ele>
        <time>2016-04-10T09:00:48.117Z</time>
      </trkpt>
      <trkpt lat="43.621" lon="5.81978">
        <ele>491</ele>
        <time>2016-04-10T09:00:49.190Z</time>
      </trkpt>
      <trkpt lat="43.62105" lon="5.81979">
        <ele>491</ele>
        <time>2016-04-10T09:00:50.138Z</time>
      </trkpt>
      <trkpt lat="43.6211" lon="5.8198">
        <ele>490</ele>
        <time>2016-04-10T09:00:51.153Z</time>
      </trkpt>
      <trkpt lat="43.62116" lon="5.81982">
        <ele>489</ele>
        <time>2016-04-10T09:00:52.128Z</time>
      </trkpt>
      <trkpt lat="43.62122" lon="5.81983">
        <ele>489</ele>
        <time>2016-04-10T09:00:53.153Z</time>
      </trkpt>
      <trkpt lat="43.62127" lon="5.81987">
        <ele>487</ele>
        <time>2016-04-10T09:00:54.127Z</time>
      </trkpt>
      <trkpt lat="43.62131" lon="5.81991">
        <ele>487</ele>
        <time>2016-04-10T09:00:55.149Z</time>
      </trkpt>
      <trkpt lat="43.62136" lon="5.81992">
        <ele>486</ele>
        <time>2016-04-10T09:00:56.130Z</time>
      </trkpt>
      <trkpt lat="43.62142" lon="5.81994">
        <ele>485</ele>
        <time>2016-04-10T09:00:57.152Z</time>
      </trkpt>
      <trkpt lat="43.62145" lon="5.82">
        <ele>486</ele>
        <time>2016-04-10T09:00:58.351Z</time>
      </trkpt>
      <trkpt lat="43.62148" lon="5.82011">
        <ele>485</ele>
        <time>2016-04-10T09:01:00.161Z</time>
      </trkpt>
      <trkpt lat="43.62151" lon="5.82014">
        <ele>485</ele>
        <time>2016-04-10T09:01:01.128Z</time>
      </trkpt>
      <trkpt lat="43.62156" lon="5.82021">
        <ele>484</ele>
        <time>2016-04-10T09:01:03.152Z</time>
      </trkpt>
      <trkpt lat="43.62159" lon="5.82025">
        <ele>484</ele>
        <time>2016-04-10T09:01:04.134Z</time>
      </trkpt>
      <trkpt lat="43.62161" lon="5.82034">
        <ele>483</ele>
        <time>2016-04-10T09:01:06.148Z</time>
      </trkpt>
      <trkpt lat="43.62161" lon="5.8204">
        <ele>483</ele>
        <time>2016-04-10T09:01:07.128Z</time>
      </trkpt>
      <trkpt lat="43.62159" lon="5.8205">
        <ele>483</ele>
        <time>2016-04-10T09:01:10.403Z</time>
      </trkpt>
      <trkpt lat="43.62158" lon="5.82052">
        <ele>483</ele>
        <time>2016-04-10T09:01:11.124Z</time>
      </trkpt>
      <trkpt lat="43.62155" lon="5.82062">
        <ele>483</ele>
        <time>2016-04-10T09:01:14.154Z</time>
      </trkpt>
      <trkpt lat="43.62154" lon="5.82067">
        <ele>482</ele>
        <time>2016-04-10T09:01:15.136Z</time>
      </trkpt>
      <trkpt lat="43.6215" lon="5.82077">
        <ele>481</ele>
        <time>2016-04-10T09:01:17.154Z</time>
      </trkpt>
      <trkpt lat="43.62149" lon="5.82082">
        <ele>481</ele>
        <time>2016-04-10T09:01:18.129Z</time>
      </trkpt>
      <trkpt lat="43.62148" lon="5.82088">
        <ele>481</ele>
        <time>2016-04-10T09:01:19.154Z</time>
      </trkpt>
      <trkpt lat="43.62146" lon="5.82097">
        <ele>481</ele>
        <time>2016-04-10T09:01:20.128Z</time>
      </trkpt>
      <trkpt lat="43.62145" lon="5.82104">
        <ele>482</ele>
        <time>2016-04-10T09:01:21.178Z</time>
      </trkpt>
      <trkpt lat="43.62144" lon="5.82111">
        <ele>481</ele>
        <time>2016-04-10T09:01:22.127Z</time>
      </trkpt>
      <trkpt lat="43.62143" lon="5.82117">
        <ele>480</ele>
        <time>2016-04-10T09:01:23.152Z</time>
      </trkpt>
      <trkpt lat="43.62142" lon="5.82124">
        <ele>480</ele>
        <time>2016-04-10T09:01:24.128Z</time>
      </trkpt>
      <trkpt lat="43.62141" lon="5.82131">
        <ele>481</ele>
        <time>2016-04-10T09:01:25.153Z</time>
      </trkpt>
      <trkpt lat="43.62139" lon="5.82138">
        <ele>481</ele>
        <time>2016-04-10T09:01:26.130Z</time>
      </trkpt>
      <trkpt lat="43.62138" lon="5.82146">
        <ele>480</ele>
        <time>2016-04-10T09:01:27.151Z</time>
      </trkpt>
      <trkpt lat="43.62137" lon="5.82154">
        <ele>480</ele>
        <time>2016-04-10T09:01:28.128Z</time>
      </trkpt>
      <trkpt lat="43.62136" lon="5.82162">
        <ele>480</ele>
        <time>2016-04-10T09:01:29.153Z</time>
      </trkpt>
      <trkpt lat="43.62136" lon="5.82171">
        <ele>480</ele>
        <time>2016-04-10T09:01:30.128Z</time>
      </trkpt>
      <trkpt lat="43.62135" lon="5.82179">
        <ele>480</ele>
        <time>2016-04-10T09:01:31.153Z</time>
      </trkpt>
      <trkpt lat="43.62133" lon="5.82187">
        <ele>480</ele>
        <time>2016-04-10T09:01:32.165Z</time>
      </trkpt>
      <trkpt lat="43.62132" lon="5.82195">
        <ele>479</ele>
        <time>2016-04-10T09:01:33.382Z</time>
      </trkpt>
      <trkpt lat="43.62128" lon="5.82201">
        <ele>479</ele>
        <time>2016-04-10T09:01:34.124Z</time>
      </trkpt>
      <trkpt lat="43.62125" lon="5.82207">
        <ele>479</ele>
        <time>2016-04-10T09:01:35.152Z</time>
      </trkpt>
      <trkpt lat="43.62121" lon="5.82213">
        <ele>479</ele>
        <time>2016-04-10T09:01:36.128Z</time>
      </trkpt>
      <trkpt lat="43.62119" lon="5.8222">
        <ele>479</ele>
        <time>2016-04-10T09:01:37.165Z</time>
      </trkpt>
      <trkpt lat="43.62116" lon="5.82227">
        <ele>479</ele>
        <time>2016-04-10T09:01:38.127Z</time>
      </trkpt>
      <trkpt lat="43.62113" lon="5.82234">
        <ele>479</ele>
        <time>2016-04-10T09:01:39.153Z</time>
      </trkpt>
      <trkpt lat="43.62111" lon="5.82242">
        <ele>479</ele>
        <time>2016-04-10T09:01:40.128Z</time>
      </trkpt>
      <trkpt lat="43.62108" lon="5.82249">
        <ele>479</ele>
        <time>2016-04-10T09:01:41.153Z</time>
      </trkpt>
      <trkpt lat="43.62105" lon="5.82256">
        <ele>478</ele>
        <time>2016-04-10T09:01:42.139Z</time>
      </trkpt>
      <trkpt lat="43.62103" lon="5.82263">
        <ele>478</ele>
        <time>2016-04-10T09:01:43.152Z</time>
      </trkpt>
      <trkpt lat="43.62102" lon="5.82271">
        <ele>479</ele>
        <time>2016-04-10T09:01:44.128Z</time>
      </trkpt>
      <trkpt lat="43.62102" lon="5.82279">
        <ele>478</ele>
        <time>2016-04-10T09:01:45.153Z</time>
      </trkpt>
      <trkpt lat="43.62102" lon="5.82284">
        <ele>477</ele>
        <time>2016-04-10T09:01:46.128Z</time>
      </trkpt>
      <trkpt lat="43.62103" lon="5.82295">
        <ele>477</ele>
        <time>2016-04-10T09:01:48.177Z</time>
      </trkpt>
      <trkpt lat="43.62108" lon="5.82299">
        <ele>476</ele>
        <time>2016-04-10T09:01:49.124Z</time>
      </trkpt>
      <trkpt lat="43.62112" lon="5.82302">
        <ele>475</ele>
        <time>2016-04-10T09:01:50.153Z</time>
      </trkpt>
      <trkpt lat="43.62117" lon="5.82305">
        <ele>474</ele>
        <time>2016-04-10T09:01:51.127Z</time>
      </trkpt>
      <trkpt lat="43.62121" lon="5.82305">
        <ele>474</ele>
        <time>2016-04-10T09:01:52.152Z</time>
      </trkpt>
      <trkpt lat="43.62126" lon="5.82309">
        <ele>474</ele>
        <time>2016-04-10T09:01:53.123Z</time>
      </trkpt>
      <trkpt lat="43.62129" lon="5.82314">
        <ele>475</ele>
        <time>2016-04-10T09:01:54.204Z</time>
      </trkpt>
      <trkpt lat="43.62132" lon="5.82321">
        <ele>474</ele>
        <time>2016-04-10T09:01:55.129Z</time>
      </trkpt>
      <trkpt lat="43.62136" lon="5.82324">
        <ele>475</ele>
        <time>2016-04-10T09:01:56.152Z</time>
      </trkpt>
      <trkpt lat="43.6214" lon="5.82326">
        <ele>475</ele>
        <time>2016-04-10T09:01:57.127Z</time>
      </trkpt>
      <trkpt lat="43.62147" lon="5.82333">
        <ele>475</ele>
        <time>2016-04-10T09:01:59.154Z</time>
      </trkpt>
      <trkpt lat="43.6215" lon="5.82335">
        <ele>474</ele>
        <time>2016-04-10T09:02:00.136Z</time>
      </trkpt>
      <trkpt lat="43.62151" lon="5.82347">
        <ele>475</ele>
        <time>2016-04-10T09:02:03.156Z</time>
      </trkpt>
      <trkpt lat="43.62153" lon="5.82351">
        <ele>474</ele>
        <time>2016-04-10T09:02:04.148Z</time>
      </trkpt>
      <trkpt lat="43.62159" lon="5.82359">
        <ele>473</ele>
        <time>2016-04-10T09:02:06.152Z</time>
      </trkpt>
      <trkpt lat="43.62161" lon="5.82361">
        <ele>473</ele>
        <time>2016-04-10T09:02:07.129Z</time>
      </trkpt>
      <trkpt lat="43.62166" lon="5.82366">
        <ele>473</ele>
        <time>2016-04-10T09:02:09.156Z</time>
      </trkpt>
      <trkpt lat="43.62168" lon="5.82369">
        <ele>473</ele>
        <time>2016-04-10T09:02:10.129Z</time>
      </trkpt>
      <trkpt lat="43.62171" lon="5.82379">
        <ele>473</ele>
        <time>2016-04-10T09:02:12.166Z</time>
      </trkpt>
      <trkpt lat="43.62171" lon="5.82384">
        <ele>473</ele>
        <time>2016-04-10T09:02:13.131Z</time>
      </trkpt>
      <trkpt lat="43.62171" lon="5.82393">
        <ele>473</ele>
        <time>2016-04-10T09:02:15.155Z</time>
      </trkpt>
      <trkpt lat="43.62169" lon="5.82398">
        <ele>473</ele>
        <time>2016-04-10T09:02:16.127Z</time>
      </trkpt>
      <trkpt lat="43.62165" lon="5.82405">
        <ele>474</ele>
        <time>2016-04-10T09:02:18.161Z</time>
      </trkpt>
      <trkpt lat="43.62163" lon="5.82408">
        <ele>474</ele>
        <time>2016-04-10T09:02:19.144Z</time>
      </trkpt>
      <trkpt lat="43.62158" lon="5.82414">
        <ele>474</ele>
        <time>2016-04-10T09:02:22.154Z</time>
      </trkpt>
      <trkpt lat="43.62156" lon="5.82416">
        <ele>474</ele>
        <time>2016-04-10T09:02:23.129Z</time>
      </trkpt>
      <trkpt lat="43.62151" lon="5.82422">
        <ele>475</ele>
        <time>2016-04-10T09:02:26.160Z</time>
      </trkpt>
      <trkpt lat="43.62149" lon="5.82425">
        <ele>475</ele>
        <time>2016-04-10T09:02:27.129Z</time>
      </trkpt>
      <trkpt lat="43.62146" lon="5.82435">
        <ele>475</ele>
        <time>2016-04-10T09:02:30.150Z</time>
      </trkpt>
      <trkpt lat="43.62145" lon="5.8244">
        <ele>475</ele>
        <time>2016-04-10T09:02:31.139Z</time>
      </trkpt>
      <trkpt lat="43.62144" lon="5.82449">
        <ele>476</ele>
        <time>2016-04-10T09:02:33.139Z</time>
      </trkpt>
      <trkpt lat="43.62144" lon="5.82454">
        <ele>476</ele>
        <time>2016-04-10T09:02:34.118Z</time>
      </trkpt>
      <trkpt lat="43.62143" lon="5.82464">
        <ele>476</ele>
        <time>2016-04-10T09:02:36.134Z</time>
      </trkpt>
      <trkpt lat="43.62142" lon="5.82469">
        <ele>476</ele>
        <time>2016-04-10T09:02:37.126Z</time>
      </trkpt>
      <trkpt lat="43.6214" lon="5.82478">
        <ele>477</ele>
        <time>2016-04-10T09:02:39.144Z</time>
      </trkpt>
      <trkpt lat="43.62138" lon="5.82482">
        <ele>477</ele>
        <time>2016-04-10T09:02:40.132Z</time>
      </trkpt>
      <trkpt lat="43.62135" lon="5.8249">
        <ele>477</ele>
        <time>2016-04-10T09:02:42.183Z</time>
      </trkpt>
      <trkpt lat="43.62133" lon="5.82494">
        <ele>477</ele>
        <time>2016-04-10T09:02:43.125Z</time>
      </trkpt>
      <trkpt lat="43.6213" lon="5.82502">
        <ele>478</ele>
        <time>2016-04-10T09:02:45.155Z</time>
      </trkpt>
      <trkpt lat="43.62129" lon="5.82506">
        <ele>477</ele>
        <time>2016-04-10T09:02:46.129Z</time>
      </trkpt>
      <trkpt lat="43.62127" lon="5.82516">
        <ele>477</ele>
        <time>2016-04-10T09:02:48.148Z</time>
      </trkpt>
      <trkpt lat="43.62125" lon="5.8252">
        <ele>477</ele>
        <time>2016-04-10T09:02:49.122Z</time>
      </trkpt>
      <trkpt lat="43.62123" lon="5.8253">
        <ele>478</ele>
        <time>2016-04-10T09:02:51.167Z</time>
      </trkpt>
      <trkpt lat="43.62122" lon="5.82534">
        <ele>477</ele>
        <time>2016-04-10T09:02:52.118Z</time>
      </trkpt>
      <trkpt lat="43.62121" lon="5.82545">
        <ele>478</ele>
        <time>2016-04-10T09:02:54.148Z</time>
      </trkpt>
      <trkpt lat="43.62121" lon="5.82551">
        <ele>477</ele>
        <time>2016-04-10T09:02:55.126Z</time>
      </trkpt>
      <trkpt lat="43.62118" lon="5.82562">
        <ele>476</ele>
        <time>2016-04-10T09:02:57.150Z</time>
      </trkpt>
      <trkpt lat="43.62116" lon="5.82566">
        <ele>476</ele>
        <time>2016-04-10T09:02:58.127Z</time>
      </trkpt>
      <trkpt lat="43.62111" lon="5.82576">
        <ele>476</ele>
        <time>2016-04-10T09:03:00.135Z</time>
      </trkpt>
      <trkpt lat="43.62109" lon="5.82581">
        <ele>476</ele>
        <time>2016-04-10T09:03:01.127Z</time>
      </trkpt>
      <trkpt lat="43.62105" lon="5.82592">
        <ele>476</ele>
        <time>2016-04-10T09:03:03.154Z</time>
      </trkpt>
      <trkpt lat="43.62103" lon="5.82596">
        <ele>476</ele>
        <time>2016-04-10T09:03:04.123Z</time>
      </trkpt>
      <trkpt lat="43.62099" lon="5.82605">
        <ele>476</ele>
        <time>2016-04-10T09:03:06.155Z</time>
      </trkpt>
      <trkpt lat="43.62096" lon="5.82608">
        <ele>477</ele>
        <time>2016-04-10T09:03:07.128Z</time>
      </trkpt>
      <trkpt lat="43.62091" lon="5.82615">
        <ele>476</ele>
        <time>2016-04-10T09:03:09.150Z</time>
      </trkpt>
      <trkpt lat="43.62089" lon="5.82618">
        <ele>476</ele>
        <time>2016-04-10T09:03:10.128Z</time>
      </trkpt>
      <trkpt lat="43.62083" lon="5.82626">
        <ele>476</ele>
        <time>2016-04-10T09:03:13.183Z</time>
      </trkpt>
      <trkpt lat="43.62081" lon="5.82628">
        <ele>477</ele>
        <time>2016-04-10T09:03:14.127Z</time>
      </trkpt>
      <trkpt lat="43.62075" lon="5.82637">
        <ele>476</ele>
        <time>2016-04-10T09:03:17.153Z</time>
      </trkpt>
      <trkpt lat="43.62073" lon="5.8264">
        <ele>476</ele>
        <time>2016-04-10T09:03:18.136Z</time>
      </trkpt>
      <trkpt lat="43.62069" lon="5.82646">
        <ele>476</ele>
        <time>2016-04-10T09:03:20.156Z</time>
      </trkpt>
      <trkpt lat="43.62066" lon="5.82649">
        <ele>476</ele>
        <time>2016-04-10T09:03:21.131Z</time>
      </trkpt>
      <trkpt lat="43.62062" lon="5.82656">
        <ele>477</ele>
        <time>2016-04-10T09:03:23.169Z</time>
      </trkpt>
      <trkpt lat="43.62061" lon="5.82659">
        <ele>476</ele>
        <time>2016-04-10T09:03:24.129Z</time>
      </trkpt>
      <trkpt lat="43.62055" lon="5.82666">
        <ele>476</ele>
        <time>2016-04-10T09:03:27.152Z</time>
      </trkpt>
      <trkpt lat="43.62053" lon="5.82668">
        <ele>476</ele>
        <time>2016-04-10T09:03:28.128Z</time>
      </trkpt>
      <trkpt lat="43.62046" lon="5.82673">
        <ele>476</ele>
        <time>2016-04-10T09:03:31.153Z</time>
      </trkpt>
      <trkpt lat="43.62043" lon="5.82674">
        <ele>476</ele>
        <time>2016-04-10T09:03:32.124Z</time>
      </trkpt>
      <trkpt lat="43.62035" lon="5.82678">
        <ele>477</ele>
        <time>2016-04-10T09:03:35.153Z</time>
      </trkpt>
      <trkpt lat="43.62033" lon="5.8268">
        <ele>477</ele>
        <time>2016-04-10T09:03:36.128Z</time>
      </trkpt>
      <trkpt lat="43.62025" lon="5.82684">
        <ele>477</ele>
        <time>2016-04-10T09:03:39.178Z</time>
      </trkpt>
      <trkpt lat="43.62023" lon="5.82685">
        <ele>477</ele>
        <time>2016-04-10T09:03:40.128Z</time>
      </trkpt>
      <trkpt lat="43.62015" lon="5.82692">
        <ele>478</ele>
        <time>2016-04-10T09:03:45.154Z</time>
      </trkpt>
      <trkpt lat="43.62015" lon="5.82694">
        <ele>478</ele>
        <time>2016-04-10T09:03:46.129Z</time>
      </trkpt>
      <trkpt lat="43.62021" lon="5.827">
        <ele>477</ele>
        <time>2016-04-10T09:03:50.155Z</time>
      </trkpt>
      <trkpt lat="43.62025" lon="5.82702">
        <ele>477</ele>
        <time>2016-04-10T09:03:51.139Z</time>
      </trkpt>
      <trkpt lat="43.62031" lon="5.82706">
        <ele>476</ele>
        <time>2016-04-10T09:03:53.154Z</time>
      </trkpt>
      <trkpt lat="43.62033" lon="5.82709">
        <ele>476</ele>
        <time>2016-04-10T09:03:54.128Z</time>
      </trkpt>
      <trkpt lat="43.62038" lon="5.82715">
        <ele>476</ele>
        <time>2016-04-10T09:03:56.150Z</time>
      </trkpt>
      <trkpt lat="43.62041" lon="5.82718">
        <ele>477</ele>
        <time>2016-04-10T09:03:57.124Z</time>
      </trkpt>
      <trkpt lat="43.62046" lon="5.82725">
        <ele>477</ele>
        <time>2016-04-10T09:03:59.150Z</time>
      </trkpt>
      <trkpt lat="43.62049" lon="5.82727">
        <ele>477</ele>
        <time>2016-04-10T09:04:00.316Z</time>
      </trkpt>
      <trkpt lat="43.62056" lon="5.82728">
        <ele>475</ele>
        <time>2016-04-10T09:04:02.155Z</time>
      </trkpt>
      <trkpt lat="43.6206" lon="5.82726">
        <ele>475</ele>
        <time>2016-04-10T09:04:03.126Z</time>
      </trkpt>
      <trkpt lat="43.62064" lon="5.82723">
        <ele>475</ele>
        <time>2016-04-10T09:04:04.151Z</time>
      </trkpt>
      <trkpt lat="43.62069" lon="5.82722">
        <ele>474</ele>
        <time>2016-04-10T09:04:05.130Z</time>
      </trkpt>
      <trkpt lat="43.62074" lon="5.82722">
        <ele>474</ele>
        <time>2016-04-10T09:04:06.154Z</time>
      </trkpt>
      <trkpt lat="43.6208" lon="5.82726">
        <ele>473</ele>
        <time>2016-04-10T09:04:07.129Z</time>
      </trkpt>
      <trkpt lat="43.62085" lon="5.82728">
        <ele>473</ele>
        <time>2016-04-10T09:04:08.154Z</time>
      </trkpt>
      <trkpt lat="43.62089" lon="5.82731">
        <ele>473</ele>
        <time>2016-04-10T09:04:09.139Z</time>
      </trkpt>
      <trkpt lat="43.62094" lon="5.82734">
        <ele>472</ele>
        <time>2016-04-10T09:04:10.154Z</time>
      </trkpt>
      <trkpt lat="43.62098" lon="5.82737">
        <ele>472</ele>
        <time>2016-04-10T09:04:11.155Z</time>
      </trkpt>
      <trkpt lat="43.62103" lon="5.8274">
        <ele>472</ele>
        <time>2016-04-10T09:04:12.154Z</time>
      </trkpt>
      <trkpt lat="43.62108" lon="5.82743">
        <ele>471</ele>
        <time>2016-04-10T09:04:13.128Z</time>
      </trkpt>
      <trkpt lat="43.62113" lon="5.82746">
        <ele>471</ele>
        <time>2016-04-10T09:04:14.153Z</time>
      </trkpt>
      <trkpt lat="43.62118" lon="5.82751">
        <ele>470</ele>
        <time>2016-04-10T09:04:15.130Z</time>
      </trkpt>
      <trkpt lat="43.62123" lon="5.82754">
        <ele>470</ele>
        <time>2016-04-10T09:04:16.189Z</time>
      </trkpt>
      <trkpt lat="43.62129" lon="5.82757">
        <ele>470</ele>
        <time>2016-04-10T09:04:17.126Z</time>
      </trkpt>
      <trkpt lat="43.62134" lon="5.82761">
        <ele>470</ele>
        <time>2016-04-10T09:04:18.155Z</time>
      </trkpt>
      <trkpt lat="43.62139" lon="5.82765">
        <ele>470</ele>
        <time>2016-04-10T09:04:19.128Z</time>
      </trkpt>
      <trkpt lat="43.62143" lon="5.8277">
        <ele>470</ele>
        <time>2016-04-10T09:04:20.149Z</time>
      </trkpt>
      <trkpt lat="43.62148" lon="5.82773">
        <ele>469</ele>
        <time>2016-04-10T09:04:21.128Z</time>
      </trkpt>
      <trkpt lat="43.62153" lon="5.82775">
        <ele>469</ele>
        <time>2016-04-10T09:04:22.155Z</time>
      </trkpt>
      <trkpt lat="43.62158" lon="5.82777">
        <ele>470</ele>
        <time>2016-04-10T09:04:23.128Z</time>
      </trkpt>
      <trkpt lat="43.62165" lon="5.8278">
        <ele>469</ele>
        <time>2016-04-10T09:04:25.154Z</time>
      </trkpt>
      <trkpt lat="43.62169" lon="5.82782">
        <ele>468</ele>
        <time>2016-04-10T09:04:26.128Z</time>
      </trkpt>
      <trkpt lat="43.62178" lon="5.82783">
        <ele>468</ele>
        <time>2016-04-10T09:04:28.206Z</time>
      </trkpt>
      <trkpt lat="43.62183" lon="5.82784">
        <ele>468</ele>
        <time>2016-04-10T09:04:29.128Z</time>
      </trkpt>
      <trkpt lat="43.62188" lon="5.82784">
        <ele>468</ele>
        <time>2016-04-10T09:04:30.155Z</time>
      </trkpt>
      <trkpt lat="43.62194" lon="5.82784">
        <ele>468</ele>
        <time>2016-04-10T09:04:31.129Z</time>
      </trkpt>
      <trkpt lat="43.62199" lon="5.82785">
        <ele>468</ele>
        <time>2016-04-10T09:04:32.166Z</time>
      </trkpt>
      <trkpt lat="43.62205" lon="5.82785">
        <ele>469</ele>
        <time>2016-04-10T09:04:33.128Z</time>
      </trkpt>
      <trkpt lat="43.62212" lon="5.82786">
        <ele>468</ele>
        <time>2016-04-10T09:04:34.154Z</time>
      </trkpt>
      <trkpt lat="43.62217" lon="5.82787">
        <ele>468</ele>
        <time>2016-04-10T09:04:35.128Z</time>
      </trkpt>
      <trkpt lat="43.62224" lon="5.82787">
        <ele>468</ele>
        <time>2016-04-10T09:04:36.153Z</time>
      </trkpt>
      <trkpt lat="43.62229" lon="5.82787">
        <ele>467</ele>
        <time>2016-04-10T09:04:37.128Z</time>
      </trkpt>
      <trkpt lat="43.62235" lon="5.82787">
        <ele>467</ele>
        <time>2016-04-10T09:04:38.153Z</time>
      </trkpt>
      <trkpt lat="43.6224" lon="5.82784">
        <ele>467</ele>
        <time>2016-04-10T09:04:39.353Z</time>
      </trkpt>
      <trkpt lat="43.62246" lon="5.82781">
        <ele>467</ele>
        <time>2016-04-10T09:04:40.154Z</time>
      </trkpt>
      <trkpt lat="43.62252" lon="5.8278">
        <ele>466</ele>
        <time>2016-04-10T09:04:41.128Z</time>
      </trkpt>
      <trkpt lat="43.62258" lon="5.82781">
        <ele>466</ele>
        <time>2016-04-10T09:04:42.154Z</time>
      </trkpt>
      <trkpt lat="43.62263" lon="5.82782">
        <ele>466</ele>
        <time>2016-04-10T09:04:43.155Z</time>
      </trkpt>
      <trkpt lat="43.62269" lon="5.82784">
        <ele>465</ele>
        <time>2016-04-10T09:04:44.154Z</time>
      </trkpt>
      <trkpt lat="43.62274" lon="5.82786">
        <ele>465</ele>
        <time>2016-04-10T09:04:45.128Z</time>
      </trkpt>
      <trkpt lat="43.62277" lon="5.82792">
        <ele>466</ele>
        <time>2016-04-10T09:04:46.166Z</time>
      </trkpt>
      <trkpt lat="43.6228" lon="5.82798">
        <ele>465</ele>
        <time>2016-04-10T09:04:47.128Z</time>
      </trkpt>
      <trkpt lat="43.62282" lon="5.82804">
        <ele>464</ele>
        <time>2016-04-10T09:04:48.153Z</time>
      </trkpt>
      <trkpt lat="43.62285" lon="5.82811">
        <ele>464</ele>
        <time>2016-04-10T09:04:49.128Z</time>
      </trkpt>
      <trkpt lat="43.62286" lon="5.82818">
        <ele>464</ele>
        <time>2016-04-10T09:04:50.377Z</time>
      </trkpt>
      <trkpt lat="43.62286" lon="5.82825">
        <ele>464</ele>
        <time>2016-04-10T09:04:51.125Z</time>
      </trkpt>
      <trkpt lat="43.62286" lon="5.82832">
        <ele>464</ele>
        <time>2016-04-10T09:04:52.153Z</time>
      </trkpt>
      <trkpt lat="43.62285" lon="5.82839">
        <ele>464</ele>
        <time>2016-04-10T09:04:53.124Z</time>
      </trkpt>
      <trkpt lat="43.62283" lon="5.82845">
        <ele>464</ele>
        <time>2016-04-10T09:04:54.153Z</time>
      </trkpt>
      <trkpt lat="43.62281" lon="5.82851">
        <ele>464</ele>
        <time>2016-04-10T09:04:55.129Z</time>
      </trkpt>
      <trkpt lat="43.62279" lon="5.82858">
        <ele>463</ele>
        <time>2016-04-10T09:04:56.155Z</time>
      </trkpt>
      <trkpt lat="43.62279" lon="5.82864">
        <ele>463</ele>
        <time>2016-04-10T09:04:57.128Z</time>
      </trkpt>
      <trkpt lat="43.62278" lon="5.82871">
        <ele>463</ele>
        <time>2016-04-10T09:04:58.153Z</time>
      </trkpt>
      <trkpt lat="43.62279" lon="5.82877">
        <ele>463</ele>
        <time>2016-04-10T09:04:59.165Z</time>
      </trkpt>
      <trkpt lat="43.62284" lon="5.82887">
        <ele>461</ele>
        <time>2016-04-10T09:05:01.203Z</time>
      </trkpt>
      <trkpt lat="43.62288" lon="5.8289">
        <ele>461</ele>
        <time>2016-04-10T09:05:02.129Z</time>
      </trkpt>
      <trkpt lat="43.62293" lon="5.82891">
        <ele>462</ele>
        <time>2016-04-10T09:05:03.159Z</time>
      </trkpt>
      <trkpt lat="43.62299" lon="5.8289">
        <ele>462</ele>
        <time>2016-04-10T09:05:04.129Z</time>
      </trkpt>
      <trkpt lat="43.62304" lon="5.8289">
        <ele>461</ele>
        <time>2016-04-10T09:05:05.166Z</time>
      </trkpt>
      <trkpt lat="43.6231" lon="5.82889">
        <ele>462</ele>
        <time>2016-04-10T09:05:06.128Z</time>
      </trkpt>
      <trkpt lat="43.62315" lon="5.82888">
        <ele>462</ele>
        <time>2016-04-10T09:05:07.153Z</time>
      </trkpt>
      <trkpt lat="43.62321" lon="5.82887">
        <ele>462</ele>
        <time>2016-04-10T09:05:08.130Z</time>
      </trkpt>
      <trkpt lat="43.62326" lon="5.82887">
        <ele>461</ele>
        <time>2016-04-10T09:05:09.155Z</time>
      </trkpt>
      <trkpt lat="43.62331" lon="5.82887">
        <ele>461</ele>
        <time>2016-04-10T09:05:10.130Z</time>
      </trkpt>
      <trkpt lat="43.62336" lon="5.82887">
        <ele>460</ele>
        <time>2016-04-10T09:05:11.154Z</time>
      </trkpt>
      <trkpt lat="43.62341" lon="5.82889">
        <ele>460</ele>
        <time>2016-04-10T09:05:12.133Z</time>
      </trkpt>
      <trkpt lat="43.62345" lon="5.82892">
        <ele>460</ele>
        <time>2016-04-10T09:05:13.154Z</time>
      </trkpt>
      <trkpt lat="43.62349" lon="5.82895">
        <ele>459</ele>
        <time>2016-04-10T09:05:14.129Z</time>
      </trkpt>
      <trkpt lat="43.62351" lon="5.82901">
        <ele>458</ele>
        <time>2016-04-10T09:05:15.181Z</time>
      </trkpt>
      <trkpt lat="43.62351" lon="5.82908">
        <ele>458</ele>
        <time>2016-04-10T09:05:16.128Z</time>
      </trkpt>
      <trkpt lat="43.62349" lon="5.82918">
        <ele>458</ele>
        <time>2016-04-10T09:05:18.154Z</time>
      </trkpt>
      <trkpt lat="43.62348" lon="5.82924">
        <ele>457</ele>
        <time>2016-04-10T09:05:19.129Z</time>
      </trkpt>
      <trkpt lat="43.62346" lon="5.8293">
        <ele>457</ele>
        <time>2016-04-10T09:05:20.154Z</time>
      </trkpt>
      <trkpt lat="43.62345" lon="5.82937">
        <ele>457</ele>
        <time>2016-04-10T09:05:21.129Z</time>
      </trkpt>
      <trkpt lat="43.62344" lon="5.82943">
        <ele>457</ele>
        <time>2016-04-10T09:05:22.162Z</time>
      </trkpt>
      <trkpt lat="43.62343" lon="5.8295">
        <ele>457</ele>
        <time>2016-04-10T09:05:23.129Z</time>
      </trkpt>
      <trkpt lat="43.62342" lon="5.82957">
        <ele>457</ele>
        <time>2016-04-10T09:05:24.155Z</time>
      </trkpt>
      <trkpt lat="43.62341" lon="5.82964">
        <ele>457</ele>
        <time>2016-04-10T09:05:25.131Z</time>
      </trkpt>
      <trkpt lat="43.6234" lon="5.82971">
        <ele>457</ele>
        <time>2016-04-10T09:05:26.150Z</time>
      </trkpt>
      <trkpt lat="43.62338" lon="5.82977">
        <ele>457</ele>
        <time>2016-04-10T09:05:27.129Z</time>
      </trkpt>
      <trkpt lat="43.62335" lon="5.82983">
        <ele>457</ele>
        <time>2016-04-10T09:05:28.159Z</time>
      </trkpt>
      <trkpt lat="43.62331" lon="5.82987">
        <ele>457</ele>
        <time>2016-04-10T09:05:29.129Z</time>
      </trkpt>
      <trkpt lat="43.62327" lon="5.8299">
        <ele>457</ele>
        <time>2016-04-10T09:05:30.155Z</time>
      </trkpt>
      <trkpt lat="43.62323" lon="5.82994">
        <ele>457</ele>
        <time>2016-04-10T09:05:31.129Z</time>
      </trkpt>
      <trkpt lat="43.62319" lon="5.82998">
        <ele>458</ele>
        <time>2016-04-10T09:05:32.154Z</time>
      </trkpt>
      <trkpt lat="43.62315" lon="5.83002">
        <ele>457</ele>
        <time>2016-04-10T09:05:33.128Z</time>
      </trkpt>
      <trkpt lat="43.62311" lon="5.83006">
        <ele>458</ele>
        <time>2016-04-10T09:05:34.156Z</time>
      </trkpt>
      <trkpt lat="43.62307" lon="5.8301">
        <ele>459</ele>
        <time>2016-04-10T09:05:35.129Z</time>
      </trkpt>
      <trkpt lat="43.62303" lon="5.83014">
        <ele>459</ele>
        <time>2016-04-10T09:05:36.153Z</time>
      </trkpt>
      <trkpt lat="43.623" lon="5.83019">
        <ele>459</ele>
        <time>2016-04-10T09:05:37.126Z</time>
      </trkpt>
      <trkpt lat="43.62296" lon="5.83024">
        <ele>458</ele>
        <time>2016-04-10T09:05:38.154Z</time>
      </trkpt>
      <trkpt lat="43.62293" lon="5.83029">
        <ele>460</ele>
        <time>2016-04-10T09:05:39.130Z</time>
      </trkpt>
      <trkpt lat="43.6229" lon="5.83035">
        <ele>461</ele>
        <time>2016-04-10T09:05:40.155Z</time>
      </trkpt>
      <trkpt lat="43.62286" lon="5.8304">
        <ele>460</ele>
        <time>2016-04-10T09:05:41.128Z</time>
      </trkpt>
      <trkpt lat="43.62283" lon="5.83045">
        <ele>460</ele>
        <time>2016-04-10T09:05:42.135Z</time>
      </trkpt>
      <trkpt lat="43.6228" lon="5.8305">
        <ele>460</ele>
        <time>2016-04-10T09:05:43.125Z</time>
      </trkpt>
      <trkpt lat="43.62276" lon="5.8306">
        <ele>461</ele>
        <time>2016-04-10T09:05:45.155Z</time>
      </trkpt>
      <trkpt lat="43.62274" lon="5.83065">
        <ele>461</ele>
        <time>2016-04-10T09:05:46.129Z</time>
      </trkpt>
      <trkpt lat="43.62271" lon="5.8307">
        <ele>461</ele>
        <time>2016-04-10T09:05:47.154Z</time>
      </trkpt>
      <trkpt lat="43.62267" lon="5.83074">
        <ele>460</ele>
        <time>2016-04-10T09:05:48.129Z</time>
      </trkpt>
      <trkpt lat="43.62259" lon="5.83079">
        <ele>460</ele>
        <time>2016-04-10T09:05:50.154Z</time>
      </trkpt>
      <trkpt lat="43.62254" lon="5.8308">
        <ele>461</ele>
        <time>2016-04-10T09:05:51.129Z</time>
      </trkpt>
      <trkpt lat="43.6225" lon="5.83083">
        <ele>462</ele>
        <time>2016-04-10T09:05:52.182Z</time>
      </trkpt>
      <trkpt lat="43.62245" lon="5.83087">
        <ele>462</ele>
        <time>2016-04-10T09:05:53.129Z</time>
      </trkpt>
      <trkpt lat="43.62238" lon="5.83092">
        <ele>462</ele>
        <time>2016-04-10T09:05:55.154Z</time>
      </trkpt>
      <trkpt lat="43.62233" lon="5.83096">
        <ele>462</ele>
        <time>2016-04-10T09:05:56.125Z</time>
      </trkpt>
      <trkpt lat="43.62229" lon="5.831">
        <ele>462</ele>
        <time>2016-04-10T09:05:57.153Z</time>
      </trkpt>
      <trkpt lat="43.62226" lon="5.83105">
        <ele>462</ele>
        <time>2016-04-10T09:05:58.129Z</time>
      </trkpt>
      <trkpt lat="43.62222" lon="5.83109">
        <ele>462</ele>
        <time>2016-04-10T09:05:59.153Z</time>
      </trkpt>
      <trkpt lat="43.62217" lon="5.83112">
        <ele>462</ele>
        <time>2016-04-10T09:06:00.140Z</time>
      </trkpt>
      <trkpt lat="43.62209" lon="5.83115">
        <ele>463</ele>
        <time>2016-04-10T09:06:02.157Z</time>
      </trkpt>
      <trkpt lat="43.62205" lon="5.83117">
        <ele>463</ele>
        <time>2016-04-10T09:06:03.129Z</time>
      </trkpt>
      <trkpt lat="43.62203" lon="5.83127">
        <ele>463</ele>
        <time>2016-04-10T09:06:05.149Z</time>
      </trkpt>
      <trkpt lat="43.62201" lon="5.83132">
        <ele>463</ele>
        <time>2016-04-10T09:06:06.131Z</time>
      </trkpt>
      <trkpt lat="43.62197" lon="5.83142">
        <ele>463</ele>
        <time>2016-04-10T09:06:08.225Z</time>
      </trkpt>
      <trkpt lat="43.62193" lon="5.83146">
        <ele>463</ele>
        <time>2016-04-10T09:06:09.124Z</time>
      </trkpt>
      <trkpt lat="43.62186" lon="5.83149">
        <ele>463</ele>
        <time>2016-04-10T09:06:11.153Z</time>
      </trkpt>
      <trkpt lat="43.62182" lon="5.83151">
        <ele>463</ele>
        <time>2016-04-10T09:06:12.129Z</time>
      </trkpt>
      <trkpt lat="43.62175" lon="5.83153">
        <ele>464</ele>
        <time>2016-04-10T09:06:14.230Z</time>
      </trkpt>
      <trkpt lat="43.62172" lon="5.83155">
        <ele>464</ele>
        <time>2016-04-10T09:06:15.128Z</time>
      </trkpt>
      <trkpt lat="43.62165" lon="5.83159">
        <ele>463</ele>
        <time>2016-04-10T09:06:17.154Z</time>
      </trkpt>
      <trkpt lat="43.62163" lon="5.83162">
        <ele>464</ele>
        <time>2016-04-10T09:06:18.129Z</time>
      </trkpt>
      <trkpt lat="43.6216" lon="5.83173">
        <ele>464</ele>
        <time>2016-04-10T09:06:21.153Z</time>
      </trkpt>
      <trkpt lat="43.62162" lon="5.83177">
        <ele>463</ele>
        <time>2016-04-10T09:06:22.129Z</time>
      </trkpt>
      <trkpt lat="43.62168" lon="5.83182">
        <ele>463</ele>
        <time>2016-04-10T09:06:24.154Z</time>
      </trkpt>
      <trkpt lat="43.62171" lon="5.83182">
        <ele>463</ele>
        <time>2016-04-10T09:06:25.128Z</time>
      </trkpt>
      <trkpt lat="43.62177" lon="5.83177">
        <ele>462</ele>
        <time>2016-04-10T09:06:28.206Z</time>
      </trkpt>
      <trkpt lat="43.62179" lon="5.83176">
        <ele>461</ele>
        <time>2016-04-10T09:06:29.130Z</time>
      </trkpt>
      <trkpt lat="43.62184" lon="5.83176">
        <ele>461</ele>
        <time>2016-04-10T09:06:30.186Z</time>
      </trkpt>
      <trkpt lat="43.62188" lon="5.83178">
        <ele>460</ele>
        <time>2016-04-10T09:06:31.125Z</time>
      </trkpt>
      <trkpt lat="43.62192" lon="5.83182">
        <ele>461</ele>
        <time>2016-04-10T09:06:32.149Z</time>
      </trkpt>
      <trkpt lat="43.62194" lon="5.83189">
        <ele>461</ele>
        <time>2016-04-10T09:06:33.128Z</time>
      </trkpt>
      <trkpt lat="43.62202" lon="5.83193">
        <ele>460</ele>
        <time>2016-04-10T09:06:35.180Z</time>
      </trkpt>
      <trkpt lat="43.62206" lon="5.83192">
        <ele>459</ele>
        <time>2016-04-10T09:06:36.132Z</time>
      </trkpt>
      <trkpt lat="43.62212" lon="5.83193">
        <ele>459</ele>
        <time>2016-04-10T09:06:38.154Z</time>
      </trkpt>
      <trkpt lat="43.62216" lon="5.83194">
        <ele>459</ele>
        <time>2016-04-10T09:06:39.132Z</time>
      </trkpt>
      <trkpt lat="43.62222" lon="5.83192">
        <ele>458</ele>
        <time>2016-04-10T09:06:41.155Z</time>
      </trkpt>
      <trkpt lat="43.62225" lon="5.83191">
        <ele>458</ele>
        <time>2016-04-10T09:06:42.137Z</time>
      </trkpt>
      <trkpt lat="43.62232" lon="5.83188">
        <ele>458</ele>
        <time>2016-04-10T09:06:44.153Z</time>
      </trkpt>
      <trkpt lat="43.62235" lon="5.83187">
        <ele>458</ele>
        <time>2016-04-10T09:06:45.129Z</time>
      </trkpt>
      <trkpt lat="43.62243" lon="5.83187">
        <ele>458</ele>
        <time>2016-04-10T09:06:47.162Z</time>
      </trkpt>
      <trkpt lat="43.62247" lon="5.8319">
        <ele>459</ele>
        <time>2016-04-10T09:06:48.129Z</time>
      </trkpt>
      <trkpt lat="43.62249" lon="5.83198">
        <ele>460</ele>
        <time>2016-04-10T09:06:50.154Z</time>
      </trkpt>
      <trkpt lat="43.62248" lon="5.83203">
        <ele>460</ele>
        <time>2016-04-10T09:06:51.130Z</time>
      </trkpt>
      <trkpt lat="43.62246" lon="5.83215">
        <ele>461</ele>
        <time>2016-04-10T09:06:53.157Z</time>
      </trkpt>
      <trkpt lat="43.62245" lon="5.83221">
        <ele>460</ele>
        <time>2016-04-10T09:06:54.344Z</time>
      </trkpt>
      <trkpt lat="43.62241" lon="5.83231">
        <ele>459</ele>
        <time>2016-04-10T09:06:55.157Z</time>
      </trkpt>
      <trkpt lat="43.62238" lon="5.83236">
        <ele>459</ele>
        <time>2016-04-10T09:06:56.129Z</time>
      </trkpt>
      <trkpt lat="43.62234" lon="5.83243">
        <ele>459</ele>
        <time>2016-04-10T09:06:58.150Z</time>
      </trkpt>
      <trkpt lat="43.62234" lon="5.83248">
        <ele>459</ele>
        <time>2016-04-10T09:06:59.128Z</time>
      </trkpt>
      <trkpt lat="43.62238" lon="5.83255">
        <ele>459</ele>
        <time>2016-04-10T09:07:01.155Z</time>
      </trkpt>
      <trkpt lat="43.62242" lon="5.83256">
        <ele>460</ele>
        <time>2016-04-10T09:07:02.129Z</time>
      </trkpt>
      <trkpt lat="43.62247" lon="5.83249">
        <ele>457</ele>
        <time>2016-04-10T09:07:04.167Z</time>
      </trkpt>
      <trkpt lat="43.6225" lon="5.83246">
        <ele>456</ele>
        <time>2016-04-10T09:07:05.129Z</time>
      </trkpt>
      <trkpt lat="43.62257" lon="5.83246">
        <ele>456</ele>
        <time>2016-04-10T09:07:07.167Z</time>
      </trkpt>
      <trkpt lat="43.62261" lon="5.83246">
        <ele>455</ele>
        <time>2016-04-10T09:07:08.130Z</time>
      </trkpt>
      <trkpt lat="43.6227" lon="5.83247">
        <ele>455</ele>
        <time>2016-04-10T09:07:10.168Z</time>
      </trkpt>
      <trkpt lat="43.62273" lon="5.83249">
        <ele>454</ele>
        <time>2016-04-10T09:07:11.124Z</time>
      </trkpt>
      <trkpt lat="43.62279" lon="5.83256">
        <ele>454</ele>
        <time>2016-04-10T09:07:13.181Z</time>
      </trkpt>
      <trkpt lat="43.62281" lon="5.8326">
        <ele>453</ele>
        <time>2016-04-10T09:07:14.130Z</time>
      </trkpt>
      <trkpt lat="43.62284" lon="5.83271">
        <ele>453</ele>
        <time>2016-04-10T09:07:16.155Z</time>
      </trkpt>
      <trkpt lat="43.62285" lon="5.83276">
        <ele>453</ele>
        <time>2016-04-10T09:07:17.125Z</time>
      </trkpt>
      <trkpt lat="43.62291" lon="5.83282">
        <ele>452</ele>
        <time>2016-04-10T09:07:19.169Z</time>
      </trkpt>
      <trkpt lat="43.62296" lon="5.83283">
        <ele>451</ele>
        <time>2016-04-10T09:07:20.128Z</time>
      </trkpt>
      <trkpt lat="43.62303" lon="5.8328">
        <ele>451</ele>
        <time>2016-04-10T09:07:22.167Z</time>
      </trkpt>
      <trkpt lat="43.62306" lon="5.83281">
        <ele>450</ele>
        <time>2016-04-10T09:07:23.124Z</time>
      </trkpt>
      <trkpt lat="43.62311" lon="5.83289">
        <ele>451</ele>
        <time>2016-04-10T09:07:25.154Z</time>
      </trkpt>
      <trkpt lat="43.62313" lon="5.83292">
        <ele>449</ele>
        <time>2016-04-10T09:07:26.129Z</time>
      </trkpt>
      <trkpt lat="43.62317" lon="5.833">
        <ele>449</ele>
        <time>2016-04-10T09:07:28.157Z</time>
      </trkpt>
      <trkpt lat="43.62319" lon="5.83302">
        <ele>449</ele>
        <time>2016-04-10T09:07:29.151Z</time>
      </trkpt>
      <trkpt lat="43.62327" lon="5.833">
        <ele>446</ele>
        <time>2016-04-10T09:07:32.147Z</time>
      </trkpt>
      <trkpt lat="43.6233" lon="5.83301">
        <ele>447</ele>
        <time>2016-04-10T09:07:33.126Z</time>
      </trkpt>
      <trkpt lat="43.62334" lon="5.83309">
        <ele>445</ele>
        <time>2016-04-10T09:07:35.163Z</time>
      </trkpt>
      <trkpt lat="43.62336" lon="5.83313">
        <ele>445</ele>
        <time>2016-04-10T09:07:36.128Z</time>
      </trkpt>
      <trkpt lat="43.62339" lon="5.83321">
        <ele>446</ele>
        <time>2016-04-10T09:07:38.154Z</time>
      </trkpt>
      <trkpt lat="43.62341" lon="5.83324">
        <ele>446</ele>
        <time>2016-04-10T09:07:39.128Z</time>
      </trkpt>
      <trkpt lat="43.62347" lon="5.83328">
        <ele>446</ele>
        <time>2016-04-10T09:07:43.154Z</time>
      </trkpt>
      <trkpt lat="43.62349" lon="5.8333">
        <ele>446</ele>
        <time>2016-04-10T09:07:44.129Z</time>
      </trkpt>
      <trkpt lat="43.62355" lon="5.83336">
        <ele>446</ele>
        <time>2016-04-10T09:07:47.155Z</time>
      </trkpt>
      <trkpt lat="43.62357" lon="5.83337">
        <ele>445</ele>
        <time>2016-04-10T09:07:48.128Z</time>
      </trkpt>
      <trkpt lat="43.62364" lon="5.83342">
        <ele>444</ele>
        <time>2016-04-10T09:07:51.152Z</time>
      </trkpt>
      <trkpt lat="43.62366" lon="5.83344">
        <ele>444</ele>
        <time>2016-04-10T09:07:52.127Z</time>
      </trkpt>
      <trkpt lat="43.62372" lon="5.83352">
        <ele>444</ele>
        <time>2016-04-10T09:07:55.158Z</time>
      </trkpt>
      <trkpt lat="43.62375" lon="5.83353">
        <ele>444</ele>
        <time>2016-04-10T09:07:56.137Z</time>
      </trkpt>
      <trkpt lat="43.6238" lon="5.83357">
        <ele>445</ele>
        <time>2016-04-10T09:07:58.184Z</time>
      </trkpt>
      <trkpt lat="43.62384" lon="5.83362">
        <ele>444</ele>
        <time>2016-04-10T09:07:59.127Z</time>
      </trkpt>
      <trkpt lat="43.6239" lon="5.83369">
        <ele>443</ele>
        <time>2016-04-10T09:08:00.155Z</time>
      </trkpt>
      <trkpt lat="43.62391" lon="5.83373">
        <ele>444</ele>
        <time>2016-04-10T09:08:01.157Z</time>
      </trkpt>
      <trkpt lat="43.62389" lon="5.83382">
        <ele>442</ele>
        <time>2016-04-10T09:08:03.156Z</time>
      </trkpt>
      <trkpt lat="43.62387" lon="5.83386">
        <ele>442</ele>
        <time>2016-04-10T09:08:04.130Z</time>
      </trkpt>
      <trkpt lat="43.62384" lon="5.83397">
        <ele>439</ele>
        <time>2016-04-10T09:08:07.227Z</time>
      </trkpt>
      <trkpt lat="43.62382" lon="5.83401">
        <ele>438</ele>
        <time>2016-04-10T09:08:08.124Z</time>
      </trkpt>
      <trkpt lat="43.62377" lon="5.83411">
        <ele>438</ele>
        <time>2016-04-10T09:08:11.155Z</time>
      </trkpt>
      <trkpt lat="43.62376" lon="5.83412">
        <ele>438</ele>
        <time>2016-04-10T09:08:12.129Z</time>
      </trkpt>
      <trkpt lat="43.62374" lon="5.83422">
        <ele>438</ele>
        <time>2016-04-10T09:08:16.151Z</time>
      </trkpt>
      <trkpt lat="43.62372" lon="5.83425">
        <ele>438</ele>
        <time>2016-04-10T09:08:17.157Z</time>
      </trkpt>
      <trkpt lat="43.62374" lon="5.83436">
        <ele>436</ele>
        <time>2016-04-10T09:08:20.151Z</time>
      </trkpt>
      <trkpt lat="43.62375" lon="5.8344">
        <ele>435</ele>
        <time>2016-04-10T09:08:21.125Z</time>
      </trkpt>
      <trkpt lat="43.62372" lon="5.83449">
        <ele>435</ele>
        <time>2016-04-10T09:08:23.157Z</time>
      </trkpt>
      <trkpt lat="43.6237" lon="5.83452">
        <ele>434</ele>
        <time>2016-04-10T09:08:24.125Z</time>
      </trkpt>
      <trkpt lat="43.62367" lon="5.8346">
        <ele>433</ele>
        <time>2016-04-10T09:08:26.150Z</time>
      </trkpt>
      <trkpt lat="43.62368" lon="5.83465">
        <ele>432</ele>
        <time>2016-04-10T09:08:27.129Z</time>
      </trkpt>
      <trkpt lat="43.62367" lon="5.83474">
        <ele>431</ele>
        <time>2016-04-10T09:08:29.150Z</time>
      </trkpt>
      <trkpt lat="43.62364" lon="5.83478">
        <ele>431</ele>
        <time>2016-04-10T09:08:30.129Z</time>
      </trkpt>
      <trkpt lat="43.6236" lon="5.83486">
        <ele>431</ele>
        <time>2016-04-10T09:08:32.159Z</time>
      </trkpt>
      <trkpt lat="43.62359" lon="5.83491">
        <ele>430</ele>
        <time>2016-04-10T09:08:33.129Z</time>
      </trkpt>
      <trkpt lat="43.62358" lon="5.83502">
        <ele>428</ele>
        <time>2016-04-10T09:08:35.160Z</time>
      </trkpt>
      <trkpt lat="43.62357" lon="5.83507">
        <ele>427</ele>
        <time>2016-04-10T09:08:36.143Z</time>
      </trkpt>
      <trkpt lat="43.62357" lon="5.83514">
        <ele>425</ele>
        <time>2016-04-10T09:08:37.154Z</time>
      </trkpt>
      <trkpt lat="43.62357" lon="5.8352">
        <ele>426</ele>
        <time>2016-04-10T09:08:38.131Z</time>
      </trkpt>
      <trkpt lat="43.62358" lon="5.83526">
        <ele>425</ele>
        <time>2016-04-10T09:08:39.151Z</time>
      </trkpt>
      <trkpt lat="43.6236" lon="5.83533">
        <ele>425</ele>
        <time>2016-04-10T09:08:40.131Z</time>
      </trkpt>
      <trkpt lat="43.6236" lon="5.83533">
        <ele>425</ele>
        <time>2016-04-10T09:08:40.205Z</time>
      </trkpt>
      <trkpt lat="43.62365" lon="5.83543">
        <ele>424</ele>
        <time>2016-04-10T09:08:41.130Z</time>
      </trkpt>
      <trkpt lat="43.62367" lon="5.83551">
        <ele>424</ele>
        <time>2016-04-10T09:08:42.151Z</time>
      </trkpt>
      <trkpt lat="43.62369" lon="5.83558">
        <ele>424</ele>
        <time>2016-04-10T09:08:43.130Z</time>
      </trkpt>
      <trkpt lat="43.6237" lon="5.83565">
        <ele>423</ele>
        <time>2016-04-10T09:08:44.158Z</time>
      </trkpt>
      <trkpt lat="43.62372" lon="5.83571">
        <ele>422</ele>
        <time>2016-04-10T09:08:45.125Z</time>
      </trkpt>
      <trkpt lat="43.62374" lon="5.83581">
        <ele>422</ele>
        <time>2016-04-10T09:08:47.157Z</time>
      </trkpt>
      <trkpt lat="43.62375" lon="5.83586">
        <ele>421</ele>
        <time>2016-04-10T09:08:48.119Z</time>
      </trkpt>
      <trkpt lat="43.62377" lon="5.83596">
        <ele>421</ele>
        <time>2016-04-10T09:08:50.152Z</time>
      </trkpt>
      <trkpt lat="43.62376" lon="5.83602">
        <ele>421</ele>
        <time>2016-04-10T09:08:51.126Z</time>
      </trkpt>
      <trkpt lat="43.62373" lon="5.83611">
        <ele>422</ele>
        <time>2016-04-10T09:08:53.155Z</time>
      </trkpt>
      <trkpt lat="43.6237" lon="5.83614">
        <ele>422</ele>
        <time>2016-04-10T09:08:54.132Z</time>
      </trkpt>
      <trkpt lat="43.62365" lon="5.83622">
        <ele>422</ele>
        <time>2016-04-10T09:08:56.158Z</time>
      </trkpt>
      <trkpt lat="43.62363" lon="5.83626">
        <ele>422</ele>
        <time>2016-04-10T09:08:57.130Z</time>
      </trkpt>
      <trkpt lat="43.62359" lon="5.83636">
        <ele>421</ele>
        <time>2016-04-10T09:08:59.391Z</time>
      </trkpt>
      <trkpt lat="43.62359" lon="5.83642">
        <ele>421</ele>
        <time>2016-04-10T09:09:00.121Z</time>
      </trkpt>
      <trkpt lat="43.62365" lon="5.8365">
        <ele>418</ele>
        <time>2016-04-10T09:09:02.159Z</time>
      </trkpt>
      <trkpt lat="43.6237" lon="5.83649">
        <ele>417</ele>
        <time>2016-04-10T09:09:03.130Z</time>
      </trkpt>
      <trkpt lat="43.62376" lon="5.83648">
        <ele>416</ele>
        <time>2016-04-10T09:09:04.159Z</time>
      </trkpt>
      <trkpt lat="43.62388" lon="5.83642">
        <ele>416</ele>
        <time>2016-04-10T09:09:05.131Z</time>
      </trkpt>
      <trkpt lat="43.62394" lon="5.83642">
        <ele>415</ele>
        <time>2016-04-10T09:09:06.168Z</time>
      </trkpt>
      <trkpt lat="43.62401" lon="5.83642">
        <ele>416</ele>
        <time>2016-04-10T09:09:07.127Z</time>
      </trkpt>
      <trkpt lat="43.62408" lon="5.83641">
        <ele>415</ele>
        <time>2016-04-10T09:09:08.160Z</time>
      </trkpt>
      <trkpt lat="43.62414" lon="5.8364">
        <ele>414</ele>
        <time>2016-04-10T09:09:09.130Z</time>
      </trkpt>
      <trkpt lat="43.6242" lon="5.83641">
        <ele>414</ele>
        <time>2016-04-10T09:09:10.185Z</time>
      </trkpt>
      <trkpt lat="43.62426" lon="5.83645">
        <ele>413</ele>
        <time>2016-04-10T09:09:11.131Z</time>
      </trkpt>
      <trkpt lat="43.62432" lon="5.83648">
        <ele>413</ele>
        <time>2016-04-10T09:09:12.152Z</time>
      </trkpt>
      <trkpt lat="43.62438" lon="5.83651">
        <ele>413</ele>
        <time>2016-04-10T09:09:13.131Z</time>
      </trkpt>
      <trkpt lat="43.62443" lon="5.83656">
        <ele>413</ele>
        <time>2016-04-10T09:09:14.157Z</time>
      </trkpt>
      <trkpt lat="43.62448" lon="5.83662">
        <ele>414</ele>
        <time>2016-04-10T09:09:15.125Z</time>
      </trkpt>
      <trkpt lat="43.62451" lon="5.83669">
        <ele>414</ele>
        <time>2016-04-10T09:09:16.161Z</time>
      </trkpt>
      <trkpt lat="43.62453" lon="5.83677">
        <ele>413</ele>
        <time>2016-04-10T09:09:17.129Z</time>
      </trkpt>
      <trkpt lat="43.62454" lon="5.83685">
        <ele>413</ele>
        <time>2016-04-10T09:09:18.156Z</time>
      </trkpt>
      <trkpt lat="43.62455" lon="5.83693">
        <ele>412</ele>
        <time>2016-04-10T09:09:19.129Z</time>
      </trkpt>
      <trkpt lat="43.62457" lon="5.83701">
        <ele>412</ele>
        <time>2016-04-10T09:09:20.158Z</time>
      </trkpt>
      <trkpt lat="43.62459" lon="5.8371">
        <ele>410</ele>
        <time>2016-04-10T09:09:21.156Z</time>
      </trkpt>
      <trkpt lat="43.6246" lon="5.83718">
        <ele>410</ele>
        <time>2016-04-10T09:09:22.151Z</time>
      </trkpt>
      <trkpt lat="43.6246" lon="5.83725">
        <ele>411</ele>
        <time>2016-04-10T09:09:23.131Z</time>
      </trkpt>
      <trkpt lat="43.62459" lon="5.83734">
        <ele>410</ele>
        <time>2016-04-10T09:09:24.152Z</time>
      </trkpt>
      <trkpt lat="43.62458" lon="5.83741">
        <ele>411</ele>
        <time>2016-04-10T09:09:25.131Z</time>
      </trkpt>
      <trkpt lat="43.6246" lon="5.83749">
        <ele>410</ele>
        <time>2016-04-10T09:09:26.152Z</time>
      </trkpt>
      <trkpt lat="43.62463" lon="5.83756">
        <ele>410</ele>
        <time>2016-04-10T09:09:27.130Z</time>
      </trkpt>
      <trkpt lat="43.62465" lon="5.83762">
        <ele>411</ele>
        <time>2016-04-10T09:09:28.155Z</time>
      </trkpt>
      <trkpt lat="43.62468" lon="5.83768">
        <ele>411</ele>
        <time>2016-04-10T09:09:29.127Z</time>
      </trkpt>
      <trkpt lat="43.62474" lon="5.83773">
        <ele>410</ele>
        <time>2016-04-10T09:09:30.151Z</time>
      </trkpt>
      <trkpt lat="43.62481" lon="5.83777">
        <ele>411</ele>
        <time>2016-04-10T09:09:31.155Z</time>
      </trkpt>
      <trkpt lat="43.62487" lon="5.8378">
        <ele>410</ele>
        <time>2016-04-10T09:09:32.185Z</time>
      </trkpt>
      <trkpt lat="43.62493" lon="5.83783">
        <ele>409</ele>
        <time>2016-04-10T09:09:33.140Z</time>
      </trkpt>
      <trkpt lat="43.62499" lon="5.83787">
        <ele>410</ele>
        <time>2016-04-10T09:09:34.151Z</time>
      </trkpt>
      <trkpt lat="43.62504" lon="5.83793">
        <ele>409</ele>
        <time>2016-04-10T09:09:35.127Z</time>
      </trkpt>
      <trkpt lat="43.62509" lon="5.83798">
        <ele>409</ele>
        <time>2016-04-10T09:09:36.162Z</time>
      </trkpt>
      <trkpt lat="43.62512" lon="5.83805">
        <ele>409</ele>
        <time>2016-04-10T09:09:37.131Z</time>
      </trkpt>
      <trkpt lat="43.62517" lon="5.83808">
        <ele>410</ele>
        <time>2016-04-10T09:09:38.156Z</time>
      </trkpt>
      <trkpt lat="43.62522" lon="5.8381">
        <ele>409</ele>
        <time>2016-04-10T09:09:39.130Z</time>
      </trkpt>
      <trkpt lat="43.6253" lon="5.83814">
        <ele>407</ele>
        <time>2016-04-10T09:09:41.167Z</time>
      </trkpt>
      <trkpt lat="43.62534" lon="5.83816">
        <ele>407</ele>
        <time>2016-04-10T09:09:42.126Z</time>
      </trkpt>
      <trkpt lat="43.62542" lon="5.83821">
        <ele>406</ele>
        <time>2016-04-10T09:09:44.157Z</time>
      </trkpt>
      <trkpt lat="43.62545" lon="5.83824">
        <ele>406</ele>
        <time>2016-04-10T09:09:45.130Z</time>
      </trkpt>
      <trkpt lat="43.62553" lon="5.83828">
        <ele>405</ele>
        <time>2016-04-10T09:09:47.150Z</time>
      </trkpt>
      <trkpt lat="43.62558" lon="5.83828">
        <ele>405</ele>
        <time>2016-04-10T09:09:48.169Z</time>
      </trkpt>
      <trkpt lat="43.62566" lon="5.83831">
        <ele>404</ele>
        <time>2016-04-10T09:09:50.156Z</time>
      </trkpt>
      <trkpt lat="43.62569" lon="5.83833">
        <ele>404</ele>
        <time>2016-04-10T09:09:51.125Z</time>
      </trkpt>
      <trkpt lat="43.62574" lon="5.83834">
        <ele>403</ele>
        <time>2016-04-10T09:09:52.157Z</time>
      </trkpt>
      <trkpt lat="43.62579" lon="5.83834">
        <ele>403</ele>
        <time>2016-04-10T09:09:53.142Z</time>
      </trkpt>
      <trkpt lat="43.62584" lon="5.83833">
        <ele>402</ele>
        <time>2016-04-10T09:09:54.156Z</time>
      </trkpt>
      <trkpt lat="43.6259" lon="5.83831">
        <ele>401</ele>
        <time>2016-04-10T09:09:55.125Z</time>
      </trkpt>
      <trkpt lat="43.62594" lon="5.83829">
        <ele>401</ele>
        <time>2016-04-10T09:09:56.142Z</time>
      </trkpt>
      <trkpt lat="43.62599" lon="5.83826">
        <ele>401</ele>
        <time>2016-04-10T09:09:57.124Z</time>
      </trkpt>
      <trkpt lat="43.62604" lon="5.83822">
        <ele>401</ele>
        <time>2016-04-10T09:09:58.154Z</time>
      </trkpt>
      <trkpt lat="43.62608" lon="5.83818">
        <ele>401</ele>
        <time>2016-04-10T09:09:59.156Z</time>
      </trkpt>
      <trkpt lat="43.62612" lon="5.83815">
        <ele>401</ele>
        <time>2016-04-10T09:10:00.154Z</time>
      </trkpt>
      <trkpt lat="43.62617" lon="5.83811">
        <ele>401</ele>
        <time>2016-04-10T09:10:01.121Z</time>
      </trkpt>
      <trkpt lat="43.6262" lon="5.83808">
        <ele>401</ele>
        <time>2016-04-10T09:10:02.157Z</time>
      </trkpt>
      <trkpt lat="43.62624" lon="5.83803">
        <ele>400</ele>
        <time>2016-04-10T09:10:03.126Z</time>
      </trkpt>
      <trkpt lat="43.62627" lon="5.83798">
        <ele>400</ele>
        <time>2016-04-10T09:10:04.153Z</time>
      </trkpt>
      <trkpt lat="43.62629" lon="5.83792">
        <ele>400</ele>
        <time>2016-04-10T09:10:05.129Z</time>
      </trkpt>
      <trkpt lat="43.62631" lon="5.83786">
        <ele>400</ele>
        <time>2016-04-10T09:10:06.155Z</time>
      </trkpt>
      <trkpt lat="43.62633" lon="5.8378">
        <ele>400</ele>
        <time>2016-04-10T09:10:07.129Z</time>
      </trkpt>
      <trkpt lat="43.62635" lon="5.83775">
        <ele>400</ele>
        <time>2016-04-10T09:10:08.156Z</time>
      </trkpt>
      <trkpt lat="43.62637" lon="5.83769">
        <ele>400</ele>
        <time>2016-04-10T09:10:09.130Z</time>
      </trkpt>
      <trkpt lat="43.62639" lon="5.83763">
        <ele>400</ele>
        <time>2016-04-10T09:10:10.161Z</time>
      </trkpt>
      <trkpt lat="43.62642" lon="5.83758">
        <ele>400</ele>
        <time>2016-04-10T09:10:11.126Z</time>
      </trkpt>
      <trkpt lat="43.62646" lon="5.83747">
        <ele>399</ele>
        <time>2016-04-10T09:10:13.157Z</time>
      </trkpt>
      <trkpt lat="43.62649" lon="5.83742">
        <ele>398</ele>
        <time>2016-04-10T09:10:14.130Z</time>
      </trkpt>
      <trkpt lat="43.62653" lon="5.83737">
        <ele>399</ele>
        <time>2016-04-10T09:10:15.157Z</time>
      </trkpt>
      <trkpt lat="43.62656" lon="5.83732">
        <ele>398</ele>
        <time>2016-04-10T09:10:16.131Z</time>
      </trkpt>
      <trkpt lat="43.62661" lon="5.83722">
        <ele>398</ele>
        <time>2016-04-10T09:10:18.156Z</time>
      </trkpt>
      <trkpt lat="43.62664" lon="5.83717">
        <ele>398</ele>
        <time>2016-04-10T09:10:19.123Z</time>
      </trkpt>
      <trkpt lat="43.62668" lon="5.83707">
        <ele>397</ele>
        <time>2016-04-10T09:10:21.192Z</time>
      </trkpt>
      <trkpt lat="43.62671" lon="5.83701">
        <ele>396</ele>
        <time>2016-04-10T09:10:22.129Z</time>
      </trkpt>
      <trkpt lat="43.62674" lon="5.83695">
        <ele>397</ele>
        <time>2016-04-10T09:10:23.158Z</time>
      </trkpt>
      <trkpt lat="43.62678" lon="5.83691">
        <ele>396</ele>
        <time>2016-04-10T09:10:24.130Z</time>
      </trkpt>
      <trkpt lat="43.62681" lon="5.83686">
        <ele>396</ele>
        <time>2016-04-10T09:10:25.153Z</time>
      </trkpt>
      <trkpt lat="43.62684" lon="5.8368">
        <ele>395</ele>
        <time>2016-04-10T09:10:26.129Z</time>
      </trkpt>
      <trkpt lat="43.62687" lon="5.83675">
        <ele>395</ele>
        <time>2016-04-10T09:10:27.156Z</time>
      </trkpt>
      <trkpt lat="43.6269" lon="5.83669">
        <ele>395</ele>
        <time>2016-04-10T09:10:28.129Z</time>
      </trkpt>
      <trkpt lat="43.62693" lon="5.83663">
        <ele>395</ele>
        <time>2016-04-10T09:10:29.156Z</time>
      </trkpt>
      <trkpt lat="43.62696" lon="5.83658">
        <ele>396</ele>
        <time>2016-04-10T09:10:30.127Z</time>
      </trkpt>
      <trkpt lat="43.62698" lon="5.83652">
        <ele>396</ele>
        <time>2016-04-10T09:10:31.156Z</time>
      </trkpt>
      <trkpt lat="43.627" lon="5.83646">
        <ele>395</ele>
        <time>2016-04-10T09:10:32.154Z</time>
      </trkpt>
      <trkpt lat="43.62703" lon="5.8364">
        <ele>395</ele>
        <time>2016-04-10T09:10:33.156Z</time>
      </trkpt>
      <trkpt lat="43.62705" lon="5.83635">
        <ele>395</ele>
        <time>2016-04-10T09:10:34.131Z</time>
      </trkpt>
      <trkpt lat="43.62707" lon="5.83628">
        <ele>395</ele>
        <time>2016-04-10T09:10:35.152Z</time>
      </trkpt>
      <trkpt lat="43.62709" lon="5.83621">
        <ele>396</ele>
        <time>2016-04-10T09:10:36.130Z</time>
      </trkpt>
      <trkpt lat="43.6271" lon="5.83613">
        <ele>396</ele>
        <time>2016-04-10T09:10:37.159Z</time>
      </trkpt>
      <trkpt lat="43.62711" lon="5.83606">
        <ele>396</ele>
        <time>2016-04-10T09:10:38.131Z</time>
      </trkpt>
      <trkpt lat="43.62713" lon="5.83598">
        <ele>396</ele>
        <time>2016-04-10T09:10:39.168Z</time>
      </trkpt>
      <trkpt lat="43.62714" lon="5.83591">
        <ele>396</ele>
        <time>2016-04-10T09:10:40.125Z</time>
      </trkpt>
      <trkpt lat="43.62717" lon="5.83584">
        <ele>396</ele>
        <time>2016-04-10T09:10:41.151Z</time>
      </trkpt>
      <trkpt lat="43.62719" lon="5.83577">
        <ele>396</ele>
        <time>2016-04-10T09:10:42.129Z</time>
      </trkpt>
      <trkpt lat="43.62722" lon="5.8357">
        <ele>396</ele>
        <time>2016-04-10T09:10:43.229Z</time>
      </trkpt>
      <trkpt lat="43.62724" lon="5.83562">
        <ele>395</ele>
        <time>2016-04-10T09:10:44.131Z</time>
      </trkpt>
      <trkpt lat="43.62726" lon="5.83554">
        <ele>395</ele>
        <time>2016-04-10T09:10:45.160Z</time>
      </trkpt>
      <trkpt lat="43.62729" lon="5.83547">
        <ele>395</ele>
        <time>2016-04-10T09:10:46.131Z</time>
      </trkpt>
      <trkpt lat="43.62733" lon="5.8354">
        <ele>395</ele>
        <time>2016-04-10T09:10:47.156Z</time>
      </trkpt>
      <trkpt lat="43.62736" lon="5.83533">
        <ele>395</ele>
        <time>2016-04-10T09:10:48.158Z</time>
      </trkpt>
      <trkpt lat="43.62739" lon="5.83527">
        <ele>395</ele>
        <time>2016-04-10T09:10:49.152Z</time>
      </trkpt>
      <trkpt lat="43.62742" lon="5.83521">
        <ele>394</ele>
        <time>2016-04-10T09:10:50.131Z</time>
      </trkpt>
      <trkpt lat="43.62746" lon="5.83516">
        <ele>394</ele>
        <time>2016-04-10T09:10:51.161Z</time>
      </trkpt>
      <trkpt lat="43.6275" lon="5.83512">
        <ele>395</ele>
        <time>2016-04-10T09:10:52.142Z</time>
      </trkpt>
      <trkpt lat="43.62754" lon="5.83507">
        <ele>394</ele>
        <time>2016-04-10T09:10:53.165Z</time>
      </trkpt>
      <trkpt lat="43.62759" lon="5.83505">
        <ele>394</ele>
        <time>2016-04-10T09:10:54.130Z</time>
      </trkpt>
      <trkpt lat="43.62763" lon="5.83503">
        <ele>394</ele>
        <time>2016-04-10T09:10:55.150Z</time>
      </trkpt>
      <trkpt lat="43.62768" lon="5.835">
        <ele>394</ele>
        <time>2016-04-10T09:10:56.126Z</time>
      </trkpt>
      <trkpt lat="43.62773" lon="5.83498">
        <ele>394</ele>
        <time>2016-04-10T09:10:57.157Z</time>
      </trkpt>
      <trkpt lat="43.62778" lon="5.83496">
        <ele>393</ele>
        <time>2016-04-10T09:10:58.129Z</time>
      </trkpt>
      <trkpt lat="43.62782" lon="5.83493">
        <ele>393</ele>
        <time>2016-04-10T09:10:59.159Z</time>
      </trkpt>
      <trkpt lat="43.62786" lon="5.8349">
        <ele>393</ele>
        <time>2016-04-10T09:11:00.129Z</time>
      </trkpt>
      <trkpt lat="43.6279" lon="5.83486">
        <ele>393</ele>
        <time>2016-04-10T09:11:01.160Z</time>
      </trkpt>
      <trkpt lat="43.62793" lon="5.83482">
        <ele>393</ele>
        <time>2016-04-10T09:11:02.130Z</time>
      </trkpt>
      <trkpt lat="43.62801" lon="5.83479">
        <ele>392</ele>
        <time>2016-04-10T09:11:04.183Z</time>
      </trkpt>
      <trkpt lat="43.62806" lon="5.8348">
        <ele>391</ele>
        <time>2016-04-10T09:11:05.129Z</time>
      </trkpt>
      <trkpt lat="43.62811" lon="5.8348">
        <ele>391</ele>
        <time>2016-04-10T09:11:06.155Z</time>
      </trkpt>
      <trkpt lat="43.62816" lon="5.8348">
        <ele>391</ele>
        <time>2016-04-10T09:11:07.130Z</time>
      </trkpt>
      <trkpt lat="43.6282" lon="5.8348">
        <ele>391</ele>
        <time>2016-04-10T09:11:08.157Z</time>
      </trkpt>
      <trkpt lat="43.62825" lon="5.83481">
        <ele>391</ele>
        <time>2016-04-10T09:11:09.131Z</time>
      </trkpt>
      <trkpt lat="43.62829" lon="5.83482">
        <ele>391</ele>
        <time>2016-04-10T09:11:10.165Z</time>
      </trkpt>
      <trkpt lat="43.62834" lon="5.83485">
        <ele>392</ele>
        <time>2016-04-10T09:11:11.125Z</time>
      </trkpt>
      <trkpt lat="43.62837" lon="5.8349">
        <ele>392</ele>
        <time>2016-04-10T09:11:12.159Z</time>
      </trkpt>
      <trkpt lat="43.6284" lon="5.83495">
        <ele>391</ele>
        <time>2016-04-10T09:11:13.138Z</time>
      </trkpt>
      <trkpt lat="43.62845" lon="5.83499">
        <ele>392</ele>
        <time>2016-04-10T09:11:14.157Z</time>
      </trkpt>
      <trkpt lat="43.62849" lon="5.83503">
        <ele>392</ele>
        <time>2016-04-10T09:11:15.130Z</time>
      </trkpt>
      <trkpt lat="43.62853" lon="5.83507">
        <ele>391</ele>
        <time>2016-04-10T09:11:16.177Z</time>
      </trkpt>
      <trkpt lat="43.62856" lon="5.83511">
        <ele>391</ele>
        <time>2016-04-10T09:11:17.127Z</time>
      </trkpt>
      <trkpt lat="43.62859" lon="5.83515">
        <ele>391</ele>
        <time>2016-04-10T09:11:18.158Z</time>
      </trkpt>
      <trkpt lat="43.62863" lon="5.83519">
        <ele>391</ele>
        <time>2016-04-10T09:11:19.130Z</time>
      </trkpt>
      <trkpt lat="43.62867" lon="5.83523">
        <ele>391</ele>
        <time>2016-04-10T09:11:20.188Z</time>
      </trkpt>
      <trkpt lat="43.62872" lon="5.83524">
        <ele>390</ele>
        <time>2016-04-10T09:11:21.127Z</time>
      </trkpt>
      <trkpt lat="43.62878" lon="5.83524">
        <ele>390</ele>
        <time>2016-04-10T09:11:22.157Z</time>
      </trkpt>
      <trkpt lat="43.62882" lon="5.83524">
        <ele>390</ele>
        <time>2016-04-10T09:11:23.126Z</time>
      </trkpt>
      <trkpt lat="43.62886" lon="5.83527">
        <ele>390</ele>
        <time>2016-04-10T09:11:24.170Z</time>
      </trkpt>
      <trkpt lat="43.6289" lon="5.8353">
        <ele>390</ele>
        <time>2016-04-10T09:11:25.131Z</time>
      </trkpt>
      <trkpt lat="43.62897" lon="5.83538">
        <ele>389</ele>
        <time>2016-04-10T09:11:27.164Z</time>
      </trkpt>
      <trkpt lat="43.62901" lon="5.83541">
        <ele>388</ele>
        <time>2016-04-10T09:11:28.130Z</time>
      </trkpt>
      <trkpt lat="43.62905" lon="5.83543">
        <ele>388</ele>
        <time>2016-04-10T09:11:29.156Z</time>
      </trkpt>
      <trkpt lat="43.6291" lon="5.83544">
        <ele>388</ele>
        <time>2016-04-10T09:11:30.130Z</time>
      </trkpt>
      <trkpt lat="43.62915" lon="5.83544">
        <ele>388</ele>
        <time>2016-04-10T09:11:31.159Z</time>
      </trkpt>
      <trkpt lat="43.6292" lon="5.83543">
        <ele>388</ele>
        <time>2016-04-10T09:11:32.137Z</time>
      </trkpt>
      <trkpt lat="43.62925" lon="5.83541">
        <ele>388</ele>
        <time>2016-04-10T09:11:33.159Z</time>
      </trkpt>
      <trkpt lat="43.6293" lon="5.83539">
        <ele>387</ele>
        <time>2016-04-10T09:11:34.132Z</time>
      </trkpt>
      <trkpt lat="43.62934" lon="5.83538">
        <ele>387</ele>
        <time>2016-04-10T09:11:35.151Z</time>
      </trkpt>
      <trkpt lat="43.62939" lon="5.83536">
        <ele>388</ele>
        <time>2016-04-10T09:11:36.158Z</time>
      </trkpt>
      <trkpt lat="43.62944" lon="5.83535">
        <ele>388</ele>
        <time>2016-04-10T09:11:37.159Z</time>
      </trkpt>
      <trkpt lat="43.62949" lon="5.83534">
        <ele>388</ele>
        <time>2016-04-10T09:11:38.129Z</time>
      </trkpt>
      <trkpt lat="43.62953" lon="5.83532">
        <ele>388</ele>
        <time>2016-04-10T09:11:39.178Z</time>
      </trkpt>
      <trkpt lat="43.62958" lon="5.83531">
        <ele>388</ele>
        <time>2016-04-10T09:11:40.130Z</time>
      </trkpt>
      <trkpt lat="43.62963" lon="5.8353">
        <ele>388</ele>
        <time>2016-04-10T09:11:41.152Z</time>
      </trkpt>
      <trkpt lat="43.62968" lon="5.83528">
        <ele>387</ele>
        <time>2016-04-10T09:11:42.129Z</time>
      </trkpt>
      <trkpt lat="43.62973" lon="5.83527">
        <ele>387</ele>
        <time>2016-04-10T09:11:43.151Z</time>
      </trkpt>
      <trkpt lat="43.62978" lon="5.83526">
        <ele>387</ele>
        <time>2016-04-10T09:11:44.130Z</time>
      </trkpt>
      <trkpt lat="43.62983" lon="5.83525">
        <ele>387</ele>
        <time>2016-04-10T09:11:45.152Z</time>
      </trkpt>
      <trkpt lat="43.62988" lon="5.83525">
        <ele>387</ele>
        <time>2016-04-10T09:11:46.129Z</time>
      </trkpt>
      <trkpt lat="43.62992" lon="5.83524">
        <ele>387</ele>
        <time>2016-04-10T09:11:47.178Z</time>
      </trkpt>
      <trkpt lat="43.62997" lon="5.83524">
        <ele>388</ele>
        <time>2016-04-10T09:11:48.130Z</time>
      </trkpt>
      <trkpt lat="43.63006" lon="5.83524">
        <ele>388</ele>
        <time>2016-04-10T09:11:50.161Z</time>
      </trkpt>
      <trkpt lat="43.6301" lon="5.83524">
        <ele>388</ele>
        <time>2016-04-10T09:11:51.130Z</time>
      </trkpt>
      <trkpt lat="43.63018" lon="5.83521">
        <ele>387</ele>
        <time>2016-04-10T09:11:53.159Z</time>
      </trkpt>
      <trkpt lat="43.63021" lon="5.83518">
        <ele>387</ele>
        <time>2016-04-10T09:11:54.140Z</time>
      </trkpt>
      <trkpt lat="43.63025" lon="5.83515">
        <ele>386</ele>
        <time>2016-04-10T09:11:55.157Z</time>
      </trkpt>
      <trkpt lat="43.6303" lon="5.83511">
        <ele>386</ele>
        <time>2016-04-10T09:11:56.131Z</time>
      </trkpt>
      <trkpt lat="43.63038" lon="5.83508">
        <ele>386</ele>
        <time>2016-04-10T09:11:58.158Z</time>
      </trkpt>
      <trkpt lat="43.63042" lon="5.8351">
        <ele>385</ele>
        <time>2016-04-10T09:11:59.130Z</time>
      </trkpt>
      <trkpt lat="43.63047" lon="5.83513">
        <ele>385</ele>
        <time>2016-04-10T09:12:00.151Z</time>
      </trkpt>
      <trkpt lat="43.63051" lon="5.83515">
        <ele>385</ele>
        <time>2016-04-10T09:12:01.132Z</time>
      </trkpt>
      <trkpt lat="43.63059" lon="5.83519">
        <ele>385</ele>
        <time>2016-04-10T09:12:03.186Z</time>
      </trkpt>
      <trkpt lat="43.63064" lon="5.8352">
        <ele>386</ele>
        <time>2016-04-10T09:12:04.126Z</time>
      </trkpt>
      <trkpt lat="43.63068" lon="5.83522">
        <ele>385</ele>
        <time>2016-04-10T09:12:05.159Z</time>
      </trkpt>
      <trkpt lat="43.63072" lon="5.83523">
        <ele>385</ele>
        <time>2016-04-10T09:12:06.130Z</time>
      </trkpt>
      <trkpt lat="43.63077" lon="5.83524">
        <ele>385</ele>
        <time>2016-04-10T09:12:07.152Z</time>
      </trkpt>
      <trkpt lat="43.63082" lon="5.83525">
        <ele>385</ele>
        <time>2016-04-10T09:12:08.126Z</time>
      </trkpt>
      <trkpt lat="43.63086" lon="5.83526">
        <ele>385</ele>
        <time>2016-04-10T09:12:09.201Z</time>
      </trkpt>
      <trkpt lat="43.63091" lon="5.83527">
        <ele>385</ele>
        <time>2016-04-10T09:12:10.141Z</time>
      </trkpt>
      <trkpt lat="43.631" lon="5.83528">
        <ele>384</ele>
        <time>2016-04-10T09:12:12.156Z</time>
      </trkpt>
      <trkpt lat="43.63104" lon="5.83529">
        <ele>384</ele>
        <time>2016-04-10T09:12:13.130Z</time>
      </trkpt>
      <trkpt lat="43.63108" lon="5.83531">
        <ele>383</ele>
        <time>2016-04-10T09:12:14.159Z</time>
      </trkpt>
      <trkpt lat="43.63113" lon="5.83533">
        <ele>383</ele>
        <time>2016-04-10T09:12:15.131Z</time>
      </trkpt>
      <trkpt lat="43.63117" lon="5.83535">
        <ele>383</ele>
        <time>2016-04-10T09:12:16.218Z</time>
      </trkpt>
      <trkpt lat="43.63121" lon="5.83537">
        <ele>383</ele>
        <time>2016-04-10T09:12:17.130Z</time>
      </trkpt>
      <trkpt lat="43.63126" lon="5.83539">
        <ele>383</ele>
        <time>2016-04-10T09:12:18.164Z</time>
      </trkpt>
      <trkpt lat="43.63131" lon="5.8354">
        <ele>382</ele>
        <time>2016-04-10T09:12:19.157Z</time>
      </trkpt>
      <trkpt lat="43.63136" lon="5.83542">
        <ele>382</ele>
        <time>2016-04-10T09:12:20.153Z</time>
      </trkpt>
      <trkpt lat="43.63141" lon="5.83543">
        <ele>382</ele>
        <time>2016-04-10T09:12:21.130Z</time>
      </trkpt>
      <trkpt lat="43.6315" lon="5.83547">
        <ele>382</ele>
        <time>2016-04-10T09:12:23.157Z</time>
      </trkpt>
      <trkpt lat="43.63154" lon="5.83549">
        <ele>382</ele>
        <time>2016-04-10T09:12:24.131Z</time>
      </trkpt>
      <trkpt lat="43.63162" lon="5.83551">
        <ele>382</ele>
        <time>2016-04-10T09:12:26.156Z</time>
      </trkpt>
      <trkpt lat="43.63167" lon="5.83552">
        <ele>382</ele>
        <time>2016-04-10T09:12:27.130Z</time>
      </trkpt>
      <trkpt lat="43.63171" lon="5.83554">
        <ele>381</ele>
        <time>2016-04-10T09:12:28.155Z</time>
      </trkpt>
      <trkpt lat="43.63176" lon="5.83556">
        <ele>381</ele>
        <time>2016-04-10T09:12:29.130Z</time>
      </trkpt>
      <trkpt lat="43.63184" lon="5.8356">
        <ele>381</ele>
        <time>2016-04-10T09:12:31.153Z</time>
      </trkpt>
      <trkpt lat="43.63187" lon="5.83562">
        <ele>381</ele>
        <time>2016-04-10T09:12:32.136Z</time>
      </trkpt>
      <trkpt lat="43.63195" lon="5.83567">
        <ele>381</ele>
        <time>2016-04-10T09:12:34.158Z</time>
      </trkpt>
      <trkpt lat="43.63198" lon="5.83569">
        <ele>381</ele>
        <time>2016-04-10T09:12:35.167Z</time>
      </trkpt>
      <trkpt lat="43.63206" lon="5.83573">
        <ele>380</ele>
        <time>2016-04-10T09:12:37.157Z</time>
      </trkpt>
      <trkpt lat="43.63209" lon="5.83574">
        <ele>380</ele>
        <time>2016-04-10T09:12:38.130Z</time>
      </trkpt>
      <trkpt lat="43.63216" lon="5.83573">
        <ele>380</ele>
        <time>2016-04-10T09:12:40.160Z</time>
      </trkpt>
      <trkpt lat="43.6322" lon="5.83571">
        <ele>380</ele>
        <time>2016-04-10T09:12:41.129Z</time>
      </trkpt>
      <trkpt lat="43.63228" lon="5.83569">
        <ele>380</ele>
        <time>2016-04-10T09:12:43.139Z</time>
      </trkpt>
      <trkpt lat="43.63231" lon="5.83567">
        <ele>380</ele>
        <time>2016-04-10T09:12:44.350Z</time>
      </trkpt>
      <trkpt lat="43.63238" lon="5.83565">
        <ele>380</ele>
        <time>2016-04-10T09:12:46.200Z</time>
      </trkpt>
      <trkpt lat="43.63242" lon="5.83564">
        <ele>380</ele>
        <time>2016-04-10T09:12:47.133Z</time>
      </trkpt>
      <trkpt lat="43.63248" lon="5.83563">
        <ele>380</ele>
        <time>2016-04-10T09:12:49.154Z</time>
      </trkpt>
      <trkpt lat="43.63251" lon="5.83562">
        <ele>380</ele>
        <time>2016-04-10T09:12:50.130Z</time>
      </trkpt>
      <trkpt lat="43.63257" lon="5.83562">
        <ele>380</ele>
        <time>2016-04-10T09:12:52.166Z</time>
      </trkpt>
      <trkpt lat="43.6326" lon="5.83563">
        <ele>380</ele>
        <time>2016-04-10T09:12:53.130Z</time>
      </trkpt>
      <trkpt lat="43.63266" lon="5.83565">
        <ele>380</ele>
        <time>2016-04-10T09:12:55.352Z</time>
      </trkpt>
      <trkpt lat="43.63269" lon="5.83567">
        <ele>380</ele>
        <time>2016-04-10T09:12:56.136Z</time>
      </trkpt>
      <trkpt lat="43.63274" lon="5.83573">
        <ele>380</ele>
        <time>2016-04-10T09:12:58.158Z</time>
      </trkpt>
      <trkpt lat="43.63277" lon="5.83575">
        <ele>379</ele>
        <time>2016-04-10T09:12:59.130Z</time>
      </trkpt>
      <trkpt lat="43.63282" lon="5.83582">
        <ele>379</ele>
        <time>2016-04-10T09:13:01.153Z</time>
      </trkpt>
      <trkpt lat="43.63284" lon="5.83585">
        <ele>379</ele>
        <time>2016-04-10T09:13:02.120Z</time>
      </trkpt>
      <trkpt lat="43.6329" lon="5.83592">
        <ele>379</ele>
        <time>2016-04-10T09:13:04.154Z</time>
      </trkpt>
      <trkpt lat="43.63293" lon="5.83595">
        <ele>379</ele>
        <time>2016-04-10T09:13:05.126Z</time>
      </trkpt>
      <trkpt lat="43.633" lon="5.836">
        <ele>379</ele>
        <time>2016-04-10T09:13:07.163Z</time>
      </trkpt>
      <trkpt lat="43.63303" lon="5.83603">
        <ele>379</ele>
        <time>2016-04-10T09:13:08.164Z</time>
      </trkpt>
      <trkpt lat="43.6331" lon="5.83608">
        <ele>379</ele>
        <time>2016-04-10T09:13:10.158Z</time>
      </trkpt>
      <trkpt lat="43.63314" lon="5.8361">
        <ele>378</ele>
        <time>2016-04-10T09:13:11.132Z</time>
      </trkpt>
      <trkpt lat="43.63321" lon="5.83613">
        <ele>378</ele>
        <time>2016-04-10T09:13:13.155Z</time>
      </trkpt>
      <trkpt lat="43.63325" lon="5.83614">
        <ele>378</ele>
        <time>2016-04-10T09:13:14.130Z</time>
      </trkpt>
      <trkpt lat="43.63333" lon="5.83618">
        <ele>378</ele>
        <time>2016-04-10T09:13:16.155Z</time>
      </trkpt>
      <trkpt lat="43.63337" lon="5.8362">
        <ele>378</ele>
        <time>2016-04-10T09:13:17.132Z</time>
      </trkpt>
      <trkpt lat="43.63345" lon="5.83624">
        <ele>377</ele>
        <time>2016-04-10T09:13:19.155Z</time>
      </trkpt>
      <trkpt lat="43.63349" lon="5.83627">
        <ele>378</ele>
        <time>2016-04-10T09:13:20.130Z</time>
      </trkpt>
      <trkpt lat="43.63356" lon="5.83631">
        <ele>377</ele>
        <time>2016-04-10T09:13:22.186Z</time>
      </trkpt>
      <trkpt lat="43.6336" lon="5.83633">
        <ele>377</ele>
        <time>2016-04-10T09:13:23.130Z</time>
      </trkpt>
      <trkpt lat="43.63368" lon="5.83636">
        <ele>377</ele>
        <time>2016-04-10T09:13:25.159Z</time>
      </trkpt>
      <trkpt lat="43.63372" lon="5.83638">
        <ele>377</ele>
        <time>2016-04-10T09:13:26.130Z</time>
      </trkpt>
      <trkpt lat="43.6338" lon="5.83641">
        <ele>377</ele>
        <time>2016-04-10T09:13:28.152Z</time>
      </trkpt>
      <trkpt lat="43.63384" lon="5.83643">
        <ele>377</ele>
        <time>2016-04-10T09:13:29.130Z</time>
      </trkpt>
      <trkpt lat="43.63393" lon="5.83645">
        <ele>377</ele>
        <time>2016-04-10T09:13:31.151Z</time>
      </trkpt>
      <trkpt lat="43.63397" lon="5.83646">
        <ele>377</ele>
        <time>2016-04-10T09:13:32.130Z</time>
      </trkpt>
      <trkpt lat="43.63405" lon="5.83647">
        <ele>377</ele>
        <time>2016-04-10T09:13:34.156Z</time>
      </trkpt>
      <trkpt lat="43.63409" lon="5.83647">
        <ele>377</ele>
        <time>2016-04-10T09:13:35.130Z</time>
      </trkpt>
      <trkpt lat="43.63417" lon="5.83645">
        <ele>377</ele>
        <time>2016-04-10T09:13:37.155Z</time>
      </trkpt>
      <trkpt lat="43.63421" lon="5.83644">
        <ele>377</ele>
        <time>2016-04-10T09:13:38.152Z</time>
      </trkpt>
      <trkpt lat="43.63427" lon="5.83643">
        <ele>377</ele>
        <time>2016-04-10T09:13:40.152Z</time>
      </trkpt>
      <trkpt lat="43.6343" lon="5.83642">
        <ele>377</ele>
        <time>2016-04-10T09:13:41.131Z</time>
      </trkpt>
      <trkpt lat="43.63436" lon="5.83639">
        <ele>377</ele>
        <time>2016-04-10T09:13:43.163Z</time>
      </trkpt>
      <trkpt lat="43.63439" lon="5.83638">
        <ele>377</ele>
        <time>2016-04-10T09:13:44.127Z</time>
      </trkpt>
      <trkpt lat="43.63446" lon="5.83645">
        <ele>378</ele>
        <time>2016-04-10T09:14:31.155Z</time>
      </trkpt>
      <trkpt lat="43.63445" lon="5.83647">
        <ele>378</ele>
        <time>2016-04-10T09:14:32.130Z</time>
      </trkpt>
      <trkpt lat="43.63445" lon="5.83658">
        <ele>378</ele>
        <time>2016-04-10T09:14:37.159Z</time>
      </trkpt>
      <trkpt lat="43.63445" lon="5.83661">
        <ele>378</ele>
        <time>2016-04-10T09:14:38.133Z</time>
      </trkpt>
      <trkpt lat="43.63445" lon="5.83671">
        <ele>378</ele>
        <time>2016-04-10T09:14:41.154Z</time>
      </trkpt>
      <trkpt lat="43.63445" lon="5.83675">
        <ele>378</ele>
        <time>2016-04-10T09:14:42.125Z</time>
      </trkpt>
      <trkpt lat="43.63444" lon="5.83685">
        <ele>378</ele>
        <time>2016-04-10T09:14:45.390Z</time>
      </trkpt>
      <trkpt lat="43.63443" lon="5.83689">
        <ele>378</ele>
        <time>2016-04-10T09:14:46.132Z</time>
      </trkpt>
      <trkpt lat="43.63442" lon="5.83699">
        <ele>378</ele>
        <time>2016-04-10T09:14:49.157Z</time>
      </trkpt>
      <trkpt lat="43.63442" lon="5.83702">
        <ele>378</ele>
        <time>2016-04-10T09:14:50.131Z</time>
      </trkpt>
      <trkpt lat="43.6344" lon="5.83712">
        <ele>378</ele>
        <time>2016-04-10T09:14:53.158Z</time>
      </trkpt>
      <trkpt lat="43.6344" lon="5.83715">
        <ele>378</ele>
        <time>2016-04-10T09:14:54.127Z</time>
      </trkpt>
      <trkpt lat="43.6344" lon="5.83726">
        <ele>378</ele>
        <time>2016-04-10T09:14:57.155Z</time>
      </trkpt>
      <trkpt lat="43.6344" lon="5.8373">
        <ele>378</ele>
        <time>2016-04-10T09:14:58.129Z</time>
      </trkpt>
      <trkpt lat="43.63441" lon="5.83742">
        <ele>379</ele>
        <time>2016-04-10T09:15:01.156Z</time>
      </trkpt>
      <trkpt lat="43.63442" lon="5.83745">
        <ele>379</ele>
        <time>2016-04-10T09:15:02.131Z</time>
      </trkpt>
      <trkpt lat="43.63445" lon="5.83756">
        <ele>379</ele>
        <time>2016-04-10T09:15:05.155Z</time>
      </trkpt>
      <trkpt lat="43.63446" lon="5.83759">
        <ele>379</ele>
        <time>2016-04-10T09:15:06.132Z</time>
      </trkpt>
      <trkpt lat="43.63451" lon="5.83768">
        <ele>380</ele>
        <time>2016-04-10T09:15:09.155Z</time>
      </trkpt>
      <trkpt lat="43.63453" lon="5.83771">
        <ele>380</ele>
        <time>2016-04-10T09:15:10.131Z</time>
      </trkpt>
      <trkpt lat="43.63458" lon="5.83781">
        <ele>380</ele>
        <time>2016-04-10T09:15:13.152Z</time>
      </trkpt>
      <trkpt lat="43.6346" lon="5.83784">
        <ele>380</ele>
        <time>2016-04-10T09:15:14.131Z</time>
      </trkpt>
      <trkpt lat="43.63463" lon="5.83791">
        <ele>380</ele>
        <time>2016-04-10T09:15:16.169Z</time>
      </trkpt>
      <trkpt lat="43.63465" lon="5.83796">
        <ele>379</ele>
        <time>2016-04-10T09:15:17.127Z</time>
      </trkpt>
      <trkpt lat="43.63468" lon="5.83805">
        <ele>379</ele>
        <time>2016-04-10T09:15:19.157Z</time>
      </trkpt>
      <trkpt lat="43.63469" lon="5.8381">
        <ele>379</ele>
        <time>2016-04-10T09:15:20.131Z</time>
      </trkpt>
      <trkpt lat="43.63472" lon="5.8382">
        <ele>379</ele>
        <time>2016-04-10T09:15:22.152Z</time>
      </trkpt>
      <trkpt lat="43.63473" lon="5.83825">
        <ele>379</ele>
        <time>2016-04-10T09:15:23.130Z</time>
      </trkpt>
      <trkpt lat="43.63474" lon="5.83835">
        <ele>378</ele>
        <time>2016-04-10T09:15:25.151Z</time>
      </trkpt>
      <trkpt lat="43.63475" lon="5.83839">
        <ele>378</ele>
        <time>2016-04-10T09:15:26.131Z</time>
      </trkpt>
      <trkpt lat="43.63477" lon="5.83849">
        <ele>378</ele>
        <time>2016-04-10T09:15:28.152Z</time>
      </trkpt>
      <trkpt lat="43.63478" lon="5.83853">
        <ele>378</ele>
        <time>2016-04-10T09:15:29.132Z</time>
      </trkpt>
      <trkpt lat="43.63481" lon="5.83863">
        <ele>379</ele>
        <time>2016-04-10T09:15:32.198Z</time>
      </trkpt>
      <trkpt lat="43.63482" lon="5.83867">
        <ele>379</ele>
        <time>2016-04-10T09:15:33.131Z</time>
      </trkpt>
      <trkpt lat="43.63486" lon="5.83876">
        <ele>378</ele>
        <time>2016-04-10T09:15:36.155Z</time>
      </trkpt>
      <trkpt lat="43.63487" lon="5.8388">
        <ele>378</ele>
        <time>2016-04-10T09:15:37.126Z</time>
      </trkpt>
      <trkpt lat="43.63489" lon="5.83888">
        <ele>378</ele>
        <time>2016-04-10T09:15:39.152Z</time>
      </trkpt>
      <trkpt lat="43.63491" lon="5.83892">
        <ele>378</ele>
        <time>2016-04-10T09:15:40.159Z</time>
      </trkpt>
      <trkpt lat="43.63495" lon="5.83901">
        <ele>378</ele>
        <time>2016-04-10T09:15:42.152Z</time>
      </trkpt>
      <trkpt lat="43.63497" lon="5.83905">
        <ele>378</ele>
        <time>2016-04-10T09:15:43.130Z</time>
      </trkpt>
      <trkpt lat="43.63502" lon="5.83913">
        <ele>377</ele>
        <time>2016-04-10T09:15:45.156Z</time>
      </trkpt>
      <trkpt lat="43.63504" lon="5.83917">
        <ele>377</ele>
        <time>2016-04-10T09:15:46.131Z</time>
      </trkpt>
      <trkpt lat="43.6351" lon="5.83924">
        <ele>376</ele>
        <time>2016-04-10T09:15:48.232Z</time>
      </trkpt>
      <trkpt lat="43.63513" lon="5.83928">
        <ele>376</ele>
        <time>2016-04-10T09:15:49.127Z</time>
      </trkpt>
      <trkpt lat="43.63519" lon="5.83936">
        <ele>375</ele>
        <time>2016-04-10T09:15:51.172Z</time>
      </trkpt>
      <trkpt lat="43.63522" lon="5.8394">
        <ele>375</ele>
        <time>2016-04-10T09:15:52.127Z</time>
      </trkpt>
      <trkpt lat="43.63526" lon="5.83944">
        <ele>374</ele>
        <time>2016-04-10T09:15:53.156Z</time>
      </trkpt>
      <trkpt lat="43.63531" lon="5.83948">
        <ele>374</ele>
        <time>2016-04-10T09:15:54.132Z</time>
      </trkpt>
      <trkpt lat="43.63534" lon="5.83954">
        <ele>374</ele>
        <time>2016-04-10T09:15:55.157Z</time>
      </trkpt>
      <trkpt lat="43.63536" lon="5.83961">
        <ele>374</ele>
        <time>2016-04-10T09:15:56.132Z</time>
      </trkpt>
      <trkpt lat="43.63536" lon="5.83969">
        <ele>373</ele>
        <time>2016-04-10T09:15:57.158Z</time>
      </trkpt>
      <trkpt lat="43.63537" lon="5.83977">
        <ele>373</ele>
        <time>2016-04-10T09:15:58.128Z</time>
      </trkpt>
      <trkpt lat="43.63536" lon="5.83985">
        <ele>372</ele>
        <time>2016-04-10T09:15:59.379Z</time>
      </trkpt>
      <trkpt lat="43.63536" lon="5.83993">
        <ele>372</ele>
        <time>2016-04-10T09:16:00.130Z</time>
      </trkpt>
      <trkpt lat="43.63536" lon="5.84001">
        <ele>372</ele>
        <time>2016-04-10T09:16:01.156Z</time>
      </trkpt>
      <trkpt lat="43.63536" lon="5.84008">
        <ele>372</ele>
        <time>2016-04-10T09:16:02.130Z</time>
      </trkpt>
      <trkpt lat="43.63536" lon="5.84016">
        <ele>372</ele>
        <time>2016-04-10T09:16:03.159Z</time>
      </trkpt>
      <trkpt lat="43.63536" lon="5.84023">
        <ele>372</ele>
        <time>2016-04-10T09:16:04.126Z</time>
      </trkpt>
      <trkpt lat="43.63536" lon="5.84031">
        <ele>372</ele>
        <time>2016-04-10T09:16:05.156Z</time>
      </trkpt>
      <trkpt lat="43.63536" lon="5.84038">
        <ele>372</ele>
        <time>2016-04-10T09:16:06.158Z</time>
      </trkpt>
      <trkpt lat="43.63536" lon="5.84044">
        <ele>372</ele>
        <time>2016-04-10T09:16:07.156Z</time>
      </trkpt>
      <trkpt lat="43.63536" lon="5.84051">
        <ele>372</ele>
        <time>2016-04-10T09:16:08.142Z</time>
      </trkpt>
      <trkpt lat="43.63536" lon="5.84063">
        <ele>372</ele>
        <time>2016-04-10T09:16:10.152Z</time>
      </trkpt>
      <trkpt lat="43.63536" lon="5.8407">
        <ele>372</ele>
        <time>2016-04-10T09:16:11.131Z</time>
      </trkpt>
      <trkpt lat="43.63536" lon="5.84076">
        <ele>372</ele>
        <time>2016-04-10T09:16:12.156Z</time>
      </trkpt>
      <trkpt lat="43.63536" lon="5.84082">
        <ele>372</ele>
        <time>2016-04-10T09:16:13.138Z</time>
      </trkpt>
      <trkpt lat="43.63535" lon="5.84089">
        <ele>372</ele>
        <time>2016-04-10T09:16:14.158Z</time>
      </trkpt>
      <trkpt lat="43.63535" lon="5.84095">
        <ele>372</ele>
        <time>2016-04-10T09:16:15.127Z</time>
      </trkpt>
      <trkpt lat="43.63536" lon="5.84102">
        <ele>373</ele>
        <time>2016-04-10T09:16:16.148Z</time>
      </trkpt>
      <trkpt lat="43.63536" lon="5.84108">
        <ele>372</ele>
        <time>2016-04-10T09:16:17.131Z</time>
      </trkpt>
      <trkpt lat="43.63537" lon="5.84114">
        <ele>373</ele>
        <time>2016-04-10T09:16:18.156Z</time>
      </trkpt>
      <trkpt lat="43.63537" lon="5.84121">
        <ele>373</ele>
        <time>2016-04-10T09:16:19.127Z</time>
      </trkpt>
      <trkpt lat="43.63539" lon="5.84132">
        <ele>373</ele>
        <time>2016-04-10T09:16:21.377Z</time>
      </trkpt>
      <trkpt lat="43.6354" lon="5.84139">
        <ele>373</ele>
        <time>2016-04-10T09:16:22.159Z</time>
      </trkpt>
      <trkpt lat="43.63542" lon="5.8415">
        <ele>373</ele>
        <time>2016-04-10T09:16:24.161Z</time>
      </trkpt>
      <trkpt lat="43.63543" lon="5.84157">
        <ele>372</ele>
        <time>2016-04-10T09:16:25.127Z</time>
      </trkpt>
      <trkpt lat="43.63545" lon="5.84163">
        <ele>372</ele>
        <time>2016-04-10T09:16:26.232Z</time>
      </trkpt>
      <trkpt lat="43.63547" lon="5.84168">
        <ele>372</ele>
        <time>2016-04-10T09:16:27.130Z</time>
      </trkpt>
      <trkpt lat="43.63549" lon="5.84174">
        <ele>372</ele>
        <time>2016-04-10T09:16:28.161Z</time>
      </trkpt>
      <trkpt lat="43.63551" lon="5.8418">
        <ele>372</ele>
        <time>2016-04-10T09:16:29.150Z</time>
      </trkpt>
      <trkpt lat="43.63554" lon="5.84186">
        <ele>372</ele>
        <time>2016-04-10T09:16:30.161Z</time>
      </trkpt>
      <trkpt lat="43.63556" lon="5.84191">
        <ele>372</ele>
        <time>2016-04-10T09:16:31.143Z</time>
      </trkpt>
      <trkpt lat="43.63558" lon="5.84197">
        <ele>372</ele>
        <time>2016-04-10T09:16:32.161Z</time>
      </trkpt>
      <trkpt lat="43.63561" lon="5.84202">
        <ele>371</ele>
        <time>2016-04-10T09:16:33.352Z</time>
      </trkpt>
      <trkpt lat="43.63564" lon="5.84207">
        <ele>372</ele>
        <time>2016-04-10T09:16:34.153Z</time>
      </trkpt>
      <trkpt lat="43.63566" lon="5.84213">
        <ele>371</ele>
        <time>2016-04-10T09:16:35.132Z</time>
      </trkpt>
      <trkpt lat="43.63568" lon="5.84218">
        <ele>371</ele>
        <time>2016-04-10T09:16:36.168Z</time>
      </trkpt>
      <trkpt lat="43.6357" lon="5.84224">
        <ele>371</ele>
        <time>2016-04-10T09:16:37.131Z</time>
      </trkpt>
      <trkpt lat="43.63572" lon="5.84229">
        <ele>371</ele>
        <time>2016-04-10T09:16:38.159Z</time>
      </trkpt>
      <trkpt lat="43.63575" lon="5.84235">
        <ele>371</ele>
        <time>2016-04-10T09:16:39.132Z</time>
      </trkpt>
      <trkpt lat="43.63577" lon="5.8424">
        <ele>371</ele>
        <time>2016-04-10T09:16:40.152Z</time>
      </trkpt>
      <trkpt lat="43.6358" lon="5.84245">
        <ele>371</ele>
        <time>2016-04-10T09:16:41.138Z</time>
      </trkpt>
      <trkpt lat="43.63584" lon="5.84256">
        <ele>371</ele>
        <time>2016-04-10T09:16:43.156Z</time>
      </trkpt>
      <trkpt lat="43.63586" lon="5.84261">
        <ele>371</ele>
        <time>2016-04-10T09:16:44.153Z</time>
      </trkpt>
      <trkpt lat="43.63592" lon="5.84271">
        <ele>371</ele>
        <time>2016-04-10T09:16:46.168Z</time>
      </trkpt>
      <trkpt lat="43.63595" lon="5.84275">
        <ele>371</ele>
        <time>2016-04-10T09:16:47.130Z</time>
      </trkpt>
      <trkpt lat="43.63601" lon="5.84281">
        <ele>372</ele>
        <time>2016-04-10T09:16:49.152Z</time>
      </trkpt>
      <trkpt lat="43.63605" lon="5.84284">
        <ele>372</ele>
        <time>2016-04-10T09:16:50.131Z</time>
      </trkpt>
      <trkpt lat="43.63613" lon="5.84287">
        <ele>372</ele>
        <time>2016-04-10T09:16:52.156Z</time>
      </trkpt>
      <trkpt lat="43.63618" lon="5.84288">
        <ele>372</ele>
        <time>2016-04-10T09:16:53.131Z</time>
      </trkpt>
      <trkpt lat="43.63626" lon="5.8429">
        <ele>372</ele>
        <time>2016-04-10T09:16:55.204Z</time>
      </trkpt>
      <trkpt lat="43.6363" lon="5.84291">
        <ele>373</ele>
        <time>2016-04-10T09:16:56.132Z</time>
      </trkpt>
      <trkpt lat="43.63639" lon="5.84291">
        <ele>373</ele>
        <time>2016-04-10T09:16:58.160Z</time>
      </trkpt>
      <trkpt lat="43.63643" lon="5.84291">
        <ele>374</ele>
        <time>2016-04-10T09:16:59.128Z</time>
      </trkpt>
      <trkpt lat="43.63652" lon="5.84292">
        <ele>374</ele>
        <time>2016-04-10T09:17:01.159Z</time>
      </trkpt>
      <trkpt lat="43.63656" lon="5.84293">
        <ele>374</ele>
        <time>2016-04-10T09:17:02.121Z</time>
      </trkpt>
      <trkpt lat="43.63665" lon="5.84294">
        <ele>374</ele>
        <time>2016-04-10T09:17:04.160Z</time>
      </trkpt>
      <trkpt lat="43.6367" lon="5.84294">
        <ele>374</ele>
        <time>2016-04-10T09:17:05.132Z</time>
      </trkpt>
      <trkpt lat="43.63678" lon="5.84295">
        <ele>374</ele>
        <time>2016-04-10T09:17:07.156Z</time>
      </trkpt>
      <trkpt lat="43.63683" lon="5.84295">
        <ele>374</ele>
        <time>2016-04-10T09:17:08.131Z</time>
      </trkpt>
      <trkpt lat="43.63691" lon="5.84296">
        <ele>374</ele>
        <time>2016-04-10T09:17:10.157Z</time>
      </trkpt>
      <trkpt lat="43.63696" lon="5.84297">
        <ele>374</ele>
        <time>2016-04-10T09:17:11.135Z</time>
      </trkpt>
      <trkpt lat="43.63705" lon="5.84297">
        <ele>374</ele>
        <time>2016-04-10T09:17:13.157Z</time>
      </trkpt>
      <trkpt lat="43.63709" lon="5.84298">
        <ele>374</ele>
        <time>2016-04-10T09:17:14.131Z</time>
      </trkpt>
      <trkpt lat="43.63714" lon="5.84299">
        <ele>374</ele>
        <time>2016-04-10T09:17:15.156Z</time>
      </trkpt>
      <trkpt lat="43.63718" lon="5.843">
        <ele>374</ele>
        <time>2016-04-10T09:17:16.153Z</time>
      </trkpt>
      <trkpt lat="43.63727" lon="5.843">
        <ele>374</ele>
        <time>2016-04-10T09:17:18.376Z</time>
      </trkpt>
      <trkpt lat="43.63732" lon="5.843">
        <ele>374</ele>
        <time>2016-04-10T09:17:19.131Z</time>
      </trkpt>
      <trkpt lat="43.63737" lon="5.843">
        <ele>374</ele>
        <time>2016-04-10T09:17:20.157Z</time>
      </trkpt>
      <trkpt lat="43.63741" lon="5.843">
        <ele>374</ele>
        <time>2016-04-10T09:17:21.131Z</time>
      </trkpt>
      <trkpt lat="43.63746" lon="5.84301">
        <ele>374</ele>
        <time>2016-04-10T09:17:22.158Z</time>
      </trkpt>
      <trkpt lat="43.6375" lon="5.843">
        <ele>374</ele>
        <time>2016-04-10T09:17:23.126Z</time>
      </trkpt>
      <trkpt lat="43.63755" lon="5.843">
        <ele>374</ele>
        <time>2016-04-10T09:17:24.167Z</time>
      </trkpt>
      <trkpt lat="43.6376" lon="5.843">
        <ele>374</ele>
        <time>2016-04-10T09:17:25.127Z</time>
      </trkpt>
      <trkpt lat="43.63765" lon="5.84299">
        <ele>374</ele>
        <time>2016-04-10T09:17:26.156Z</time>
      </trkpt>
      <trkpt lat="43.6377" lon="5.84299">
        <ele>374</ele>
        <time>2016-04-10T09:17:27.130Z</time>
      </trkpt>
      <trkpt lat="43.63775" lon="5.84298">
        <ele>374</ele>
        <time>2016-04-10T09:17:28.156Z</time>
      </trkpt>
      <trkpt lat="43.63779" lon="5.84298">
        <ele>374</ele>
        <time>2016-04-10T09:17:29.143Z</time>
      </trkpt>
      <trkpt lat="43.63784" lon="5.84298">
        <ele>374</ele>
        <time>2016-04-10T09:17:30.152Z</time>
      </trkpt>
      <trkpt lat="43.63788" lon="5.84298">
        <ele>374</ele>
        <time>2016-04-10T09:17:31.130Z</time>
      </trkpt>
      <trkpt lat="43.63793" lon="5.84298">
        <ele>374</ele>
        <time>2016-04-10T09:17:32.158Z</time>
      </trkpt>
      <trkpt lat="43.63798" lon="5.84297">
        <ele>374</ele>
        <time>2016-04-10T09:17:33.131Z</time>
      </trkpt>
      <trkpt lat="43.63803" lon="5.84296">
        <ele>374</ele>
        <time>2016-04-10T09:17:34.152Z</time>
      </trkpt>
      <trkpt lat="43.63807" lon="5.84296">
        <ele>374</ele>
        <time>2016-04-10T09:17:35.132Z</time>
      </trkpt>
      <trkpt lat="43.63812" lon="5.84296">
        <ele>374</ele>
        <time>2016-04-10T09:17:36.157Z</time>
      </trkpt>
      <trkpt lat="43.63816" lon="5.84296">
        <ele>374</ele>
        <time>2016-04-10T09:17:37.157Z</time>
      </trkpt>
      <trkpt lat="43.63825" lon="5.84296">
        <ele>374</ele>
        <time>2016-04-10T09:17:39.167Z</time>
      </trkpt>
      <trkpt lat="43.63829" lon="5.84296">
        <ele>374</ele>
        <time>2016-04-10T09:17:40.125Z</time>
      </trkpt>
      <trkpt lat="43.63837" lon="5.84296">
        <ele>374</ele>
        <time>2016-04-10T09:17:42.252Z</time>
      </trkpt>
      <trkpt lat="43.63842" lon="5.84296">
        <ele>374</ele>
        <time>2016-04-10T09:17:43.127Z</time>
      </trkpt>
      <trkpt lat="43.63851" lon="5.84296">
        <ele>374</ele>
        <time>2016-04-10T09:17:45.157Z</time>
      </trkpt>
      <trkpt lat="43.63855" lon="5.84297">
        <ele>374</ele>
        <time>2016-04-10T09:17:46.128Z</time>
      </trkpt>
      <trkpt lat="43.63863" lon="5.84297">
        <ele>374</ele>
        <time>2016-04-10T09:17:48.169Z</time>
      </trkpt>
      <trkpt lat="43.63868" lon="5.84298">
        <ele>374</ele>
        <time>2016-04-10T09:17:49.142Z</time>
      </trkpt>
      <trkpt lat="43.63877" lon="5.843">
        <ele>374</ele>
        <time>2016-04-10T09:17:51.158Z</time>
      </trkpt>
      <trkpt lat="43.63881" lon="5.843">
        <ele>374</ele>
        <time>2016-04-10T09:17:52.130Z</time>
      </trkpt>
      <trkpt lat="43.63886" lon="5.843">
        <ele>374</ele>
        <time>2016-04-10T09:17:53.400Z</time>
      </trkpt>
      <trkpt lat="43.6389" lon="5.84301">
        <ele>374</ele>
        <time>2016-04-10T09:17:54.132Z</time>
      </trkpt>
      <trkpt lat="43.63899" lon="5.84301">
        <ele>374</ele>
        <time>2016-04-10T09:17:56.157Z</time>
      </trkpt>
      <trkpt lat="43.63903" lon="5.84302">
        <ele>374</ele>
        <time>2016-04-10T09:17:57.127Z</time>
      </trkpt>
      <trkpt lat="43.63912" lon="5.84303">
        <ele>374</ele>
        <time>2016-04-10T09:17:59.159Z</time>
      </trkpt>
      <trkpt lat="43.63916" lon="5.84304">
        <ele>374</ele>
        <time>2016-04-10T09:18:00.132Z</time>
      </trkpt>
      <trkpt lat="43.63924" lon="5.84304">
        <ele>374</ele>
        <time>2016-04-10T09:18:02.157Z</time>
      </trkpt>
      <trkpt lat="43.63929" lon="5.84305">
        <ele>373</ele>
        <time>2016-04-10T09:18:03.130Z</time>
      </trkpt>
      <trkpt lat="43.63937" lon="5.84305">
        <ele>374</ele>
        <time>2016-04-10T09:18:05.162Z</time>
      </trkpt>
      <trkpt lat="43.63942" lon="5.84305">
        <ele>374</ele>
        <time>2016-04-10T09:18:06.131Z</time>
      </trkpt>
      <trkpt lat="43.63947" lon="5.84305">
        <ele>374</ele>
        <time>2016-04-10T09:18:07.159Z</time>
      </trkpt>
      <trkpt lat="43.63951" lon="5.84305">
        <ele>374</ele>
        <time>2016-04-10T09:18:08.127Z</time>
      </trkpt>
      <trkpt lat="43.6396" lon="5.84307">
        <ele>374</ele>
        <time>2016-04-10T09:18:10.156Z</time>
      </trkpt>
      <trkpt lat="43.63964" lon="5.84308">
        <ele>374</ele>
        <time>2016-04-10T09:18:11.131Z</time>
      </trkpt>
      <trkpt lat="43.63972" lon="5.84314">
        <ele>374</ele>
        <time>2016-04-10T09:18:13.160Z</time>
      </trkpt>
      <trkpt lat="43.63975" lon="5.84318">
        <ele>374</ele>
        <time>2016-04-10T09:18:14.130Z</time>
      </trkpt>
      <trkpt lat="43.63979" lon="5.84321">
        <ele>374</ele>
        <time>2016-04-10T09:18:15.156Z</time>
      </trkpt>
      <trkpt lat="43.63983" lon="5.84325">
        <ele>374</ele>
        <time>2016-04-10T09:18:16.133Z</time>
      </trkpt>
      <trkpt lat="43.6399" lon="5.84332">
        <ele>374</ele>
        <time>2016-04-10T09:18:18.158Z</time>
      </trkpt>
      <trkpt lat="43.63994" lon="5.84334">
        <ele>374</ele>
        <time>2016-04-10T09:18:19.128Z</time>
      </trkpt>
      <trkpt lat="43.63998" lon="5.84336">
        <ele>374</ele>
        <time>2016-04-10T09:18:20.184Z</time>
      </trkpt>
      <trkpt lat="43.64003" lon="5.84338">
        <ele>374</ele>
        <time>2016-04-10T09:18:21.132Z</time>
      </trkpt>
      <trkpt lat="43.64008" lon="5.84339">
        <ele>374</ele>
        <time>2016-04-10T09:18:22.158Z</time>
      </trkpt>
      <trkpt lat="43.64012" lon="5.84339">
        <ele>374</ele>
        <time>2016-04-10T09:18:23.131Z</time>
      </trkpt>
      <trkpt lat="43.64017" lon="5.84337">
        <ele>374</ele>
        <time>2016-04-10T09:18:24.158Z</time>
      </trkpt>
      <trkpt lat="43.64022" lon="5.84336">
        <ele>374</ele>
        <time>2016-04-10T09:18:25.128Z</time>
      </trkpt>
      <trkpt lat="43.64026" lon="5.84334">
        <ele>374</ele>
        <time>2016-04-10T09:18:26.167Z</time>
      </trkpt>
      <trkpt lat="43.64031" lon="5.84332">
        <ele>374</ele>
        <time>2016-04-10T09:18:27.130Z</time>
      </trkpt>
      <trkpt lat="43.64035" lon="5.84329">
        <ele>374</ele>
        <time>2016-04-10T09:18:28.157Z</time>
      </trkpt>
      <trkpt lat="43.64039" lon="5.84326">
        <ele>374</ele>
        <time>2016-04-10T09:18:29.133Z</time>
      </trkpt>
      <trkpt lat="43.64043" lon="5.84323">
        <ele>374</ele>
        <time>2016-04-10T09:18:30.156Z</time>
      </trkpt>
      <trkpt lat="43.64048" lon="5.8432">
        <ele>374</ele>
        <time>2016-04-10T09:18:31.130Z</time>
      </trkpt>
      <trkpt lat="43.64052" lon="5.84317">
        <ele>374</ele>
        <time>2016-04-10T09:18:32.152Z</time>
      </trkpt>
      <trkpt lat="43.64057" lon="5.84314">
        <ele>374</ele>
        <time>2016-04-10T09:18:33.132Z</time>
      </trkpt>
      <trkpt lat="43.64061" lon="5.84312">
        <ele>374</ele>
        <time>2016-04-10T09:18:34.157Z</time>
      </trkpt>
      <trkpt lat="43.64065" lon="5.84309">
        <ele>374</ele>
        <time>2016-04-10T09:18:35.134Z</time>
      </trkpt>
      <trkpt lat="43.64069" lon="5.84306">
        <ele>374</ele>
        <time>2016-04-10T09:18:36.184Z</time>
      </trkpt>
      <trkpt lat="43.64073" lon="5.84304">
        <ele>374</ele>
        <time>2016-04-10T09:18:37.130Z</time>
      </trkpt>
      <trkpt lat="43.64077" lon="5.84301">
        <ele>375</ele>
        <time>2016-04-10T09:18:38.379Z</time>
      </trkpt>
      <trkpt lat="43.64082" lon="5.84299">
        <ele>374</ele>
        <time>2016-04-10T09:18:39.131Z</time>
      </trkpt>
      <trkpt lat="43.64086" lon="5.84296">
        <ele>375</ele>
        <time>2016-04-10T09:18:40.158Z</time>
      </trkpt>
      <trkpt lat="43.6409" lon="5.84293">
        <ele>375</ele>
        <time>2016-04-10T09:18:41.132Z</time>
      </trkpt>
      <trkpt lat="43.64098" lon="5.84288">
        <ele>375</ele>
        <time>2016-04-10T09:18:43.157Z</time>
      </trkpt>
      <trkpt lat="43.64103" lon="5.84286">
        <ele>374</ele>
        <time>2016-04-10T09:18:44.133Z</time>
      </trkpt>
      <trkpt lat="43.64107" lon="5.84283">
        <ele>374</ele>
        <time>2016-04-10T09:18:45.157Z</time>
      </trkpt>
      <trkpt lat="43.64111" lon="5.84279">
        <ele>374</ele>
        <time>2016-04-10T09:18:46.128Z</time>
      </trkpt>
      <trkpt lat="43.64115" lon="5.84276">
        <ele>374</ele>
        <time>2016-04-10T09:18:47.157Z</time>
      </trkpt>
      <trkpt lat="43.64119" lon="5.84273">
        <ele>375</ele>
        <time>2016-04-10T09:18:48.132Z</time>
      </trkpt>
      <trkpt lat="43.64127" lon="5.84268">
        <ele>374</ele>
        <time>2016-04-10T09:18:50.160Z</time>
      </trkpt>
      <trkpt lat="43.64131" lon="5.84266">
        <ele>375</ele>
        <time>2016-04-10T09:18:51.130Z</time>
      </trkpt>
      <trkpt lat="43.64136" lon="5.84263">
        <ele>375</ele>
        <time>2016-04-10T09:18:52.184Z</time>
      </trkpt>
      <trkpt lat="43.6414" lon="5.8426">
        <ele>375</ele>
        <time>2016-04-10T09:18:53.131Z</time>
      </trkpt>
      <trkpt lat="43.64148" lon="5.84255">
        <ele>375</ele>
        <time>2016-04-10T09:18:55.157Z</time>
      </trkpt>
      <trkpt lat="43.64152" lon="5.84252">
        <ele>375</ele>
        <time>2016-04-10T09:18:56.127Z</time>
      </trkpt>
      <trkpt lat="43.64159" lon="5.84247">
        <ele>375</ele>
        <time>2016-04-10T09:18:58.211Z</time>
      </trkpt>
      <trkpt lat="43.64163" lon="5.84244">
        <ele>375</ele>
        <time>2016-04-10T09:18:59.131Z</time>
      </trkpt>
      <trkpt lat="43.64171" lon="5.84241">
        <ele>375</ele>
        <time>2016-04-10T09:19:01.155Z</time>
      </trkpt>
      <trkpt lat="43.64175" lon="5.84239">
        <ele>375</ele>
        <time>2016-04-10T09:19:02.132Z</time>
      </trkpt>
      <trkpt lat="43.64183" lon="5.84236">
        <ele>375</ele>
        <time>2016-04-10T09:19:04.153Z</time>
      </trkpt>
      <trkpt lat="43.64187" lon="5.84235">
        <ele>375</ele>
        <time>2016-04-10T09:19:05.132Z</time>
      </trkpt>
      <trkpt lat="43.64195" lon="5.84234">
        <ele>375</ele>
        <time>2016-04-10T09:19:07.160Z</time>
      </trkpt>
      <trkpt lat="43.64198" lon="5.84233">
        <ele>375</ele>
        <time>2016-04-10T09:19:08.158Z</time>
      </trkpt>
      <trkpt lat="43.64206" lon="5.84231">
        <ele>375</ele>
        <time>2016-04-10T09:19:10.152Z</time>
      </trkpt>
      <trkpt lat="43.6421" lon="5.8423">
        <ele>374</ele>
        <time>2016-04-10T09:19:11.131Z</time>
      </trkpt>
      <trkpt lat="43.64218" lon="5.84229">
        <ele>375</ele>
        <time>2016-04-10T09:19:13.183Z</time>
      </trkpt>
      <trkpt lat="43.64222" lon="5.84228">
        <ele>375</ele>
        <time>2016-04-10T09:19:14.132Z</time>
      </trkpt>
      <trkpt lat="43.6423" lon="5.84226">
        <ele>374</ele>
        <time>2016-04-10T09:19:16.164Z</time>
      </trkpt>
      <trkpt lat="43.64234" lon="5.84225">
        <ele>375</ele>
        <time>2016-04-10T09:19:17.128Z</time>
      </trkpt>
      <trkpt lat="43.64242" lon="5.84223">
        <ele>374</ele>
        <time>2016-04-10T09:19:19.158Z</time>
      </trkpt>
      <trkpt lat="43.64246" lon="5.84223">
        <ele>374</ele>
        <time>2016-04-10T09:19:20.132Z</time>
      </trkpt>
      <trkpt lat="43.64254" lon="5.84221">
        <ele>374</ele>
        <time>2016-04-10T09:19:22.156Z</time>
      </trkpt>
      <trkpt lat="43.64258" lon="5.84221">
        <ele>374</ele>
        <time>2016-04-10T09:19:23.132Z</time>
      </trkpt>
      <trkpt lat="43.64266" lon="5.84219">
        <ele>374</ele>
        <time>2016-04-10T09:19:25.194Z</time>
      </trkpt>
      <trkpt lat="43.6427" lon="5.84219">
        <ele>375</ele>
        <time>2016-04-10T09:19:26.132Z</time>
      </trkpt>
      <trkpt lat="43.64278" lon="5.84218">
        <ele>375</ele>
        <time>2016-04-10T09:19:28.152Z</time>
      </trkpt>
      <trkpt lat="43.64282" lon="5.84217">
        <ele>375</ele>
        <time>2016-04-10T09:19:29.132Z</time>
      </trkpt>
      <trkpt lat="43.6429" lon="5.84216">
        <ele>375</ele>
        <time>2016-04-10T09:19:31.158Z</time>
      </trkpt>
      <trkpt lat="43.64294" lon="5.84216">
        <ele>375</ele>
        <time>2016-04-10T09:19:32.131Z</time>
      </trkpt>
      <trkpt lat="43.64302" lon="5.84214">
        <ele>375</ele>
        <time>2016-04-10T09:19:34.155Z</time>
      </trkpt>
      <trkpt lat="43.64306" lon="5.84214">
        <ele>375</ele>
        <time>2016-04-10T09:19:35.157Z</time>
      </trkpt>
      <trkpt lat="43.64315" lon="5.84213">
        <ele>375</ele>
        <time>2016-04-10T09:19:37.150Z</time>
      </trkpt>
      <trkpt lat="43.64319" lon="5.84213">
        <ele>375</ele>
        <time>2016-04-10T09:19:38.132Z</time>
      </trkpt>
      <trkpt lat="43.64327" lon="5.84211">
        <ele>375</ele>
        <time>2016-04-10T09:19:40.159Z</time>
      </trkpt>
      <trkpt lat="43.64331" lon="5.8421">
        <ele>375</ele>
        <time>2016-04-10T09:19:41.132Z</time>
      </trkpt>
      <trkpt lat="43.64338" lon="5.84209">
        <ele>375</ele>
        <time>2016-04-10T09:19:43.156Z</time>
      </trkpt>
      <trkpt lat="43.64342" lon="5.84208">
        <ele>375</ele>
        <time>2016-04-10T09:19:44.132Z</time>
      </trkpt>
      <trkpt lat="43.64349" lon="5.84205">
        <ele>375</ele>
        <time>2016-04-10T09:19:46.156Z</time>
      </trkpt>
      <trkpt lat="43.64353" lon="5.84205">
        <ele>375</ele>
        <time>2016-04-10T09:19:47.131Z</time>
      </trkpt>
      <trkpt lat="43.64361" lon="5.84203">
        <ele>375</ele>
        <time>2016-04-10T09:19:49.158Z</time>
      </trkpt>
      <trkpt lat="43.64365" lon="5.84201">
        <ele>375</ele>
        <time>2016-04-10T09:19:50.132Z</time>
      </trkpt>
      <trkpt lat="43.64373" lon="5.84199">
        <ele>375</ele>
        <time>2016-04-10T09:19:52.159Z</time>
      </trkpt>
      <trkpt lat="43.64377" lon="5.84198">
        <ele>375</ele>
        <time>2016-04-10T09:19:53.126Z</time>
      </trkpt>
      <trkpt lat="43.64385" lon="5.84195">
        <ele>374</ele>
        <time>2016-04-10T09:19:55.152Z</time>
      </trkpt>
      <trkpt lat="43.6439" lon="5.84194">
        <ele>374</ele>
        <time>2016-04-10T09:19:56.140Z</time>
      </trkpt>
      <trkpt lat="43.64399" lon="5.84192">
        <ele>374</ele>
        <time>2016-04-10T09:19:58.211Z</time>
      </trkpt>
      <trkpt lat="43.64403" lon="5.84191">
        <ele>374</ele>
        <time>2016-04-10T09:19:59.128Z</time>
      </trkpt>
      <trkpt lat="43.64411" lon="5.8419">
        <ele>374</ele>
        <time>2016-04-10T09:20:01.159Z</time>
      </trkpt>
      <trkpt lat="43.64416" lon="5.8419">
        <ele>374</ele>
        <time>2016-04-10T09:20:02.131Z</time>
      </trkpt>
      <trkpt lat="43.64424" lon="5.8419">
        <ele>374</ele>
        <time>2016-04-10T09:20:04.156Z</time>
      </trkpt>
      <trkpt lat="43.64428" lon="5.8419">
        <ele>374</ele>
        <time>2016-04-10T09:20:05.133Z</time>
      </trkpt>
      <trkpt lat="43.64436" lon="5.8419">
        <ele>374</ele>
        <time>2016-04-10T09:20:07.158Z</time>
      </trkpt>
      <trkpt lat="43.6444" lon="5.84191">
        <ele>374</ele>
        <time>2016-04-10T09:20:08.133Z</time>
      </trkpt>
      <trkpt lat="43.64448" lon="5.84193">
        <ele>374</ele>
        <time>2016-04-10T09:20:10.157Z</time>
      </trkpt>
      <trkpt lat="43.64451" lon="5.84195">
        <ele>373</ele>
        <time>2016-04-10T09:20:11.134Z</time>
      </trkpt>
      <trkpt lat="43.64458" lon="5.842">
        <ele>374</ele>
        <time>2016-04-10T09:20:13.160Z</time>
      </trkpt>
      <trkpt lat="43.64461" lon="5.84203">
        <ele>374</ele>
        <time>2016-04-10T09:20:14.132Z</time>
      </trkpt>
      <trkpt lat="43.64467" lon="5.8421">
        <ele>374</ele>
        <time>2016-04-10T09:20:16.158Z</time>
      </trkpt>
      <trkpt lat="43.6447" lon="5.84214">
        <ele>374</ele>
        <time>2016-04-10T09:20:17.131Z</time>
      </trkpt>
      <trkpt lat="43.64475" lon="5.84222">
        <ele>374</ele>
        <time>2016-04-10T09:20:19.158Z</time>
      </trkpt>
      <trkpt lat="43.64478" lon="5.84225">
        <ele>374</ele>
        <time>2016-04-10T09:20:20.132Z</time>
      </trkpt>
      <trkpt lat="43.64484" lon="5.84233">
        <ele>374</ele>
        <time>2016-04-10T09:20:22.164Z</time>
      </trkpt>
      <trkpt lat="43.64487" lon="5.84236">
        <ele>374</ele>
        <time>2016-04-10T09:20:23.154Z</time>
      </trkpt>
      <trkpt lat="43.64492" lon="5.84244">
        <ele>373</ele>
        <time>2016-04-10T09:20:25.156Z</time>
      </trkpt>
      <trkpt lat="43.64495" lon="5.84248">
        <ele>373</ele>
        <time>2016-04-10T09:20:26.131Z</time>
      </trkpt>
      <trkpt lat="43.64501" lon="5.84254">
        <ele>373</ele>
        <time>2016-04-10T09:20:28.158Z</time>
      </trkpt>
      <trkpt lat="43.64505" lon="5.84257">
        <ele>373</ele>
        <time>2016-04-10T09:20:29.132Z</time>
      </trkpt>
      <trkpt lat="43.64511" lon="5.84264">
        <ele>373</ele>
        <time>2016-04-10T09:20:31.164Z</time>
      </trkpt>
      <trkpt lat="43.64514" lon="5.84268">
        <ele>373</ele>
        <time>2016-04-10T09:20:32.127Z</time>
      </trkpt>
      <trkpt lat="43.6452" lon="5.84275">
        <ele>373</ele>
        <time>2016-04-10T09:20:34.158Z</time>
      </trkpt>
      <trkpt lat="43.64524" lon="5.84278">
        <ele>373</ele>
        <time>2016-04-10T09:20:35.132Z</time>
      </trkpt>
      <trkpt lat="43.64531" lon="5.84284">
        <ele>373</ele>
        <time>2016-04-10T09:20:37.224Z</time>
      </trkpt>
      <trkpt lat="43.64534" lon="5.84288">
        <ele>373</ele>
        <time>2016-04-10T09:20:38.132Z</time>
      </trkpt>
      <trkpt lat="43.64541" lon="5.84294">
        <ele>372</ele>
        <time>2016-04-10T09:20:40.154Z</time>
      </trkpt>
      <trkpt lat="43.64545" lon="5.84297">
        <ele>372</ele>
        <time>2016-04-10T09:20:41.138Z</time>
      </trkpt>
      <trkpt lat="43.64552" lon="5.84303">
        <ele>373</ele>
        <time>2016-04-10T09:20:43.156Z</time>
      </trkpt>
      <trkpt lat="43.64556" lon="5.84306">
        <ele>372</ele>
        <time>2016-04-10T09:20:44.132Z</time>
      </trkpt>
      <trkpt lat="43.64563" lon="5.84311">
        <ele>372</ele>
        <time>2016-04-10T09:20:46.158Z</time>
      </trkpt>
      <trkpt lat="43.64567" lon="5.84313">
        <ele>372</ele>
        <time>2016-04-10T09:20:47.131Z</time>
      </trkpt>
      <trkpt lat="43.64575" lon="5.84317">
        <ele>373</ele>
        <time>2016-04-10T09:20:49.156Z</time>
      </trkpt>
      <trkpt lat="43.64578" lon="5.8432">
        <ele>373</ele>
        <time>2016-04-10T09:20:50.133Z</time>
      </trkpt>
      <trkpt lat="43.64586" lon="5.84325">
        <ele>372</ele>
        <time>2016-04-10T09:20:52.158Z</time>
      </trkpt>
      <trkpt lat="43.64589" lon="5.84327">
        <ele>372</ele>
        <time>2016-04-10T09:20:53.133Z</time>
      </trkpt>
      <trkpt lat="43.64597" lon="5.84332">
        <ele>372</ele>
        <time>2016-04-10T09:20:55.185Z</time>
      </trkpt>
      <trkpt lat="43.646" lon="5.84334">
        <ele>372</ele>
        <time>2016-04-10T09:20:56.133Z</time>
      </trkpt>
      <trkpt lat="43.64607" lon="5.84338">
        <ele>373</ele>
        <time>2016-04-10T09:20:58.162Z</time>
      </trkpt>
      <trkpt lat="43.64611" lon="5.84341">
        <ele>373</ele>
        <time>2016-04-10T09:20:59.131Z</time>
      </trkpt>
      <trkpt lat="43.64618" lon="5.84345">
        <ele>373</ele>
        <time>2016-04-10T09:21:01.155Z</time>
      </trkpt>
      <trkpt lat="43.64621" lon="5.84347">
        <ele>373</ele>
        <time>2016-04-10T09:21:02.132Z</time>
      </trkpt>
      <trkpt lat="43.64628" lon="5.84352">
        <ele>373</ele>
        <time>2016-04-10T09:21:04.157Z</time>
      </trkpt>
      <trkpt lat="43.64632" lon="5.84354">
        <ele>373</ele>
        <time>2016-04-10T09:21:05.132Z</time>
      </trkpt>
      <trkpt lat="43.64639" lon="5.84358">
        <ele>373</ele>
        <time>2016-04-10T09:21:07.157Z</time>
      </trkpt>
      <trkpt lat="43.64643" lon="5.8436">
        <ele>373</ele>
        <time>2016-04-10T09:21:08.132Z</time>
      </trkpt>
      <trkpt lat="43.6465" lon="5.84365">
        <ele>373</ele>
        <time>2016-04-10T09:21:10.388Z</time>
      </trkpt>
      <trkpt lat="43.64653" lon="5.84367">
        <ele>373</ele>
        <time>2016-04-10T09:21:11.159Z</time>
      </trkpt>
      <trkpt lat="43.64659" lon="5.84371">
        <ele>373</ele>
        <time>2016-04-10T09:21:13.157Z</time>
      </trkpt>
      <trkpt lat="43.64663" lon="5.84373">
        <ele>374</ele>
        <time>2016-04-10T09:21:14.138Z</time>
      </trkpt>
      <trkpt lat="43.64669" lon="5.84377">
        <ele>374</ele>
        <time>2016-04-10T09:21:16.154Z</time>
      </trkpt>
      <trkpt lat="43.64672" lon="5.84379">
        <ele>374</ele>
        <time>2016-04-10T09:21:17.133Z</time>
      </trkpt>
      <trkpt lat="43.64679" lon="5.84383">
        <ele>374</ele>
        <time>2016-04-10T09:21:19.158Z</time>
      </trkpt>
      <trkpt lat="43.64682" lon="5.84385">
        <ele>374</ele>
        <time>2016-04-10T09:21:20.132Z</time>
      </trkpt>
      <trkpt lat="43.64688" lon="5.84389">
        <ele>374</ele>
        <time>2016-04-10T09:21:22.162Z</time>
      </trkpt>
      <trkpt lat="43.64692" lon="5.84391">
        <ele>374</ele>
        <time>2016-04-10T09:21:23.141Z</time>
      </trkpt>
      <trkpt lat="43.64698" lon="5.84395">
        <ele>374</ele>
        <time>2016-04-10T09:21:25.158Z</time>
      </trkpt>
      <trkpt lat="43.64701" lon="5.84397">
        <ele>374</ele>
        <time>2016-04-10T09:21:26.128Z</time>
      </trkpt>
      <trkpt lat="43.64708" lon="5.84401">
        <ele>375</ele>
        <time>2016-04-10T09:21:28.170Z</time>
      </trkpt>
      <trkpt lat="43.64711" lon="5.84403">
        <ele>375</ele>
        <time>2016-04-10T09:21:29.131Z</time>
      </trkpt>
      <trkpt lat="43.64718" lon="5.84406">
        <ele>375</ele>
        <time>2016-04-10T09:21:31.159Z</time>
      </trkpt>
      <trkpt lat="43.64721" lon="5.84408">
        <ele>375</ele>
        <time>2016-04-10T09:21:32.165Z</time>
      </trkpt>
      <trkpt lat="43.64727" lon="5.84412">
        <ele>375</ele>
        <time>2016-04-10T09:21:34.161Z</time>
      </trkpt>
      <trkpt lat="43.6473" lon="5.84415">
        <ele>375</ele>
        <time>2016-04-10T09:21:35.349Z</time>
      </trkpt>
      <trkpt lat="43.64737" lon="5.84419">
        <ele>375</ele>
        <time>2016-04-10T09:21:37.153Z</time>
      </trkpt>
      <trkpt lat="43.6474" lon="5.84422">
        <ele>375</ele>
        <time>2016-04-10T09:21:38.132Z</time>
      </trkpt>
      <trkpt lat="43.64746" lon="5.84427">
        <ele>375</ele>
        <time>2016-04-10T09:21:40.154Z</time>
      </trkpt>
      <trkpt lat="43.64749" lon="5.8443">
        <ele>375</ele>
        <time>2016-04-10T09:21:41.133Z</time>
      </trkpt>
      <trkpt lat="43.64754" lon="5.84436">
        <ele>376</ele>
        <time>2016-04-10T09:21:43.181Z</time>
      </trkpt>
      <trkpt lat="43.64757" lon="5.84439">
        <ele>376</ele>
        <time>2016-04-10T09:21:44.132Z</time>
      </trkpt>
      <trkpt lat="43.64762" lon="5.84446">
        <ele>376</ele>
        <time>2016-04-10T09:21:46.158Z</time>
      </trkpt>
      <trkpt lat="43.64765" lon="5.84449">
        <ele>376</ele>
        <time>2016-04-10T09:21:47.131Z</time>
      </trkpt>
      <trkpt lat="43.6477" lon="5.84457">
        <ele>377</ele>
        <time>2016-04-10T09:21:49.154Z</time>
      </trkpt>
      <trkpt lat="43.64772" lon="5.84461">
        <ele>377</ele>
        <time>2016-04-10T09:21:50.127Z</time>
      </trkpt>
      <trkpt lat="43.64776" lon="5.84469">
        <ele>377</ele>
        <time>2016-04-10T09:21:52.159Z</time>
      </trkpt>
      <trkpt lat="43.64778" lon="5.84473">
        <ele>377</ele>
        <time>2016-04-10T09:21:53.132Z</time>
      </trkpt>
      <trkpt lat="43.64781" lon="5.84481">
        <ele>377</ele>
        <time>2016-04-10T09:21:55.169Z</time>
      </trkpt>
      <trkpt lat="43.64783" lon="5.84485">
        <ele>377</ele>
        <time>2016-04-10T09:21:56.132Z</time>
      </trkpt>
      <trkpt lat="43.64786" lon="5.84494">
        <ele>377</ele>
        <time>2016-04-10T09:21:58.211Z</time>
      </trkpt>
      <trkpt lat="43.64788" lon="5.84498">
        <ele>377</ele>
        <time>2016-04-10T09:21:59.128Z</time>
      </trkpt>
      <trkpt lat="43.64791" lon="5.84505">
        <ele>378</ele>
        <time>2016-04-10T09:22:01.154Z</time>
      </trkpt>
      <trkpt lat="43.64792" lon="5.84509">
        <ele>378</ele>
        <time>2016-04-10T09:22:02.128Z</time>
      </trkpt>
      <trkpt lat="43.64795" lon="5.84517">
        <ele>378</ele>
        <time>2016-04-10T09:22:04.163Z</time>
      </trkpt>
      <trkpt lat="43.64797" lon="5.84521">
        <ele>378</ele>
        <time>2016-04-10T09:22:05.129Z</time>
      </trkpt>
      <trkpt lat="43.648" lon="5.84528">
        <ele>378</ele>
        <time>2016-04-10T09:22:07.160Z</time>
      </trkpt>
      <trkpt lat="43.64802" lon="5.84531">
        <ele>379</ele>
        <time>2016-04-10T09:22:08.134Z</time>
      </trkpt>
      <trkpt lat="43.64806" lon="5.84538">
        <ele>379</ele>
        <time>2016-04-10T09:22:10.413Z</time>
      </trkpt>
      <trkpt lat="43.64809" lon="5.84541">
        <ele>379</ele>
        <time>2016-04-10T09:22:11.128Z</time>
      </trkpt>
      <trkpt lat="43.64813" lon="5.84547">
        <ele>380</ele>
        <time>2016-04-10T09:22:13.170Z</time>
      </trkpt>
      <trkpt lat="43.64816" lon="5.84549">
        <ele>380</ele>
        <time>2016-04-10T09:22:14.131Z</time>
      </trkpt>
      <trkpt lat="43.64821" lon="5.84555">
        <ele>380</ele>
        <time>2016-04-10T09:22:16.171Z</time>
      </trkpt>
      <trkpt lat="43.64823" lon="5.84557">
        <ele>380</ele>
        <time>2016-04-10T09:22:17.132Z</time>
      </trkpt>
      <trkpt lat="43.64829" lon="5.84562">
        <ele>380</ele>
        <time>2016-04-10T09:22:19.153Z</time>
      </trkpt>
      <trkpt lat="43.64832" lon="5.84564">
        <ele>381</ele>
        <time>2016-04-10T09:22:20.127Z</time>
      </trkpt>
      <trkpt lat="43.64837" lon="5.84569">
        <ele>380</ele>
        <time>2016-04-10T09:22:22.390Z</time>
      </trkpt>
      <trkpt lat="43.6484" lon="5.84572">
        <ele>380</ele>
        <time>2016-04-10T09:22:23.133Z</time>
      </trkpt>
      <trkpt lat="43.64846" lon="5.84577">
        <ele>381</ele>
        <time>2016-04-10T09:22:25.158Z</time>
      </trkpt>
      <trkpt lat="43.64848" lon="5.8458">
        <ele>381</ele>
        <time>2016-04-10T09:22:26.184Z</time>
      </trkpt>
      <trkpt lat="43.64854" lon="5.84586">
        <ele>381</ele>
        <time>2016-04-10T09:22:28.153Z</time>
      </trkpt>
      <trkpt lat="43.64856" lon="5.84589">
        <ele>381</ele>
        <time>2016-04-10T09:22:29.133Z</time>
      </trkpt>
      <trkpt lat="43.64862" lon="5.84596">
        <ele>381</ele>
        <time>2016-04-10T09:22:31.163Z</time>
      </trkpt>
      <trkpt lat="43.64865" lon="5.84599">
        <ele>381</ele>
        <time>2016-04-10T09:22:32.132Z</time>
      </trkpt>
      <trkpt lat="43.6487" lon="5.84606">
        <ele>381</ele>
        <time>2016-04-10T09:22:34.154Z</time>
      </trkpt>
      <trkpt lat="43.64873" lon="5.8461">
        <ele>381</ele>
        <time>2016-04-10T09:22:35.129Z</time>
      </trkpt>
      <trkpt lat="43.64878" lon="5.84616">
        <ele>381</ele>
        <time>2016-04-10T09:22:37.184Z</time>
      </trkpt>
      <trkpt lat="43.64881" lon="5.8462">
        <ele>381</ele>
        <time>2016-04-10T09:22:38.131Z</time>
      </trkpt>
      <trkpt lat="43.64886" lon="5.84627">
        <ele>381</ele>
        <time>2016-04-10T09:22:40.153Z</time>
      </trkpt>
      <trkpt lat="43.64889" lon="5.8463">
        <ele>381</ele>
        <time>2016-04-10T09:22:41.131Z</time>
      </trkpt>
      <trkpt lat="43.64895" lon="5.84637">
        <ele>381</ele>
        <time>2016-04-10T09:22:43.152Z</time>
      </trkpt>
      <trkpt lat="43.64898" lon="5.84641">
        <ele>381</ele>
        <time>2016-04-10T09:22:44.132Z</time>
      </trkpt>
      <trkpt lat="43.64903" lon="5.84647">
        <ele>381</ele>
        <time>2016-04-10T09:22:46.226Z</time>
      </trkpt>
      <trkpt lat="43.64906" lon="5.84651">
        <ele>381</ele>
        <time>2016-04-10T09:22:47.132Z</time>
      </trkpt>
      <trkpt lat="43.64912" lon="5.84658">
        <ele>381</ele>
        <time>2016-04-10T09:22:49.153Z</time>
      </trkpt>
      <trkpt lat="43.64914" lon="5.84662">
        <ele>381</ele>
        <time>2016-04-10T09:22:50.132Z</time>
      </trkpt>
      <trkpt lat="43.64917" lon="5.84671">
        <ele>381</ele>
        <time>2016-04-10T09:22:52.157Z</time>
      </trkpt>
      <trkpt lat="43.64919" lon="5.84676">
        <ele>381</ele>
        <time>2016-04-10T09:22:53.131Z</time>
      </trkpt>
      <trkpt lat="43.64923" lon="5.84686">
        <ele>382</ele>
        <time>2016-04-10T09:22:56.167Z</time>
      </trkpt>
      <trkpt lat="43.64924" lon="5.8469">
        <ele>382</ele>
        <time>2016-04-10T09:22:57.131Z</time>
      </trkpt>
      <trkpt lat="43.64928" lon="5.84701">
        <ele>382</ele>
        <time>2016-04-10T09:23:00.153Z</time>
      </trkpt>
      <trkpt lat="43.64929" lon="5.84705">
        <ele>382</ele>
        <time>2016-04-10T09:23:01.132Z</time>
      </trkpt>
      <trkpt lat="43.6493" lon="5.84716">
        <ele>382</ele>
        <time>2016-04-10T09:23:04.159Z</time>
      </trkpt>
      <trkpt lat="43.64931" lon="5.8472">
        <ele>383</ele>
        <time>2016-04-10T09:23:05.143Z</time>
      </trkpt>
      <trkpt lat="43.64933" lon="5.84732">
        <ele>383</ele>
        <time>2016-04-10T09:23:08.157Z</time>
      </trkpt>
      <trkpt lat="43.64933" lon="5.84736">
        <ele>383</ele>
        <time>2016-04-10T09:23:09.131Z</time>
      </trkpt>
      <trkpt lat="43.64935" lon="5.84747">
        <ele>383</ele>
        <time>2016-04-10T09:23:12.152Z</time>
      </trkpt>
      <trkpt lat="43.64936" lon="5.84751">
        <ele>383</ele>
        <time>2016-04-10T09:23:13.132Z</time>
      </trkpt>
      <trkpt lat="43.64937" lon="5.84762">
        <ele>384</ele>
        <time>2016-04-10T09:23:16.153Z</time>
      </trkpt>
      <trkpt lat="43.64937" lon="5.84766">
        <ele>384</ele>
        <time>2016-04-10T09:23:17.132Z</time>
      </trkpt>
      <trkpt lat="43.64938" lon="5.84776">
        <ele>384</ele>
        <time>2016-04-10T09:23:20.157Z</time>
      </trkpt>
      <trkpt lat="43.64938" lon="5.84779">
        <ele>384</ele>
        <time>2016-04-10T09:23:21.158Z</time>
      </trkpt>
      <trkpt lat="43.64939" lon="5.84788">
        <ele>385</ele>
        <time>2016-04-10T09:23:24.157Z</time>
      </trkpt>
      <trkpt lat="43.64939" lon="5.84791">
        <ele>385</ele>
        <time>2016-04-10T09:23:25.127Z</time>
      </trkpt>
      <trkpt lat="43.64941" lon="5.84803">
        <ele>386</ele>
        <time>2016-04-10T09:23:29.158Z</time>
      </trkpt>
      <trkpt lat="43.64941" lon="5.84806">
        <ele>386</ele>
        <time>2016-04-10T09:23:30.128Z</time>
      </trkpt>
      <trkpt lat="43.64942" lon="5.84817">
        <ele>386</ele>
        <time>2016-04-10T09:23:34.156Z</time>
      </trkpt>
      <trkpt lat="43.64942" lon="5.8482">
        <ele>387</ele>
        <time>2016-04-10T09:23:35.133Z</time>
      </trkpt>
      <trkpt lat="43.64942" lon="5.8483">
        <ele>387</ele>
        <time>2016-04-10T09:23:38.154Z</time>
      </trkpt>
      <trkpt lat="43.64942" lon="5.84833">
        <ele>388</ele>
        <time>2016-04-10T09:23:39.132Z</time>
      </trkpt>
      <trkpt lat="43.64942" lon="5.84843">
        <ele>388</ele>
        <time>2016-04-10T09:23:42.160Z</time>
      </trkpt>
      <trkpt lat="43.64942" lon="5.84846">
        <ele>388</ele>
        <time>2016-04-10T09:23:43.127Z</time>
      </trkpt>
      <trkpt lat="43.64945" lon="5.84856">
        <ele>388</ele>
        <time>2016-04-10T09:23:46.157Z</time>
      </trkpt>
      <trkpt lat="43.64946" lon="5.84859">
        <ele>388</ele>
        <time>2016-04-10T09:23:47.131Z</time>
      </trkpt>
      <trkpt lat="43.6495" lon="5.84868">
        <ele>388</ele>
        <time>2016-04-10T09:23:50.157Z</time>
      </trkpt>
      <trkpt lat="43.64952" lon="5.84871">
        <ele>388</ele>
        <time>2016-04-10T09:23:51.127Z</time>
      </trkpt>
      <trkpt lat="43.64957" lon="5.8488">
        <ele>387</ele>
        <time>2016-04-10T09:23:54.158Z</time>
      </trkpt>
      <trkpt lat="43.64959" lon="5.84884">
        <ele>387</ele>
        <time>2016-04-10T09:23:55.128Z</time>
      </trkpt>
      <trkpt lat="43.64961" lon="5.84895">
        <ele>388</ele>
        <time>2016-04-10T09:23:58.190Z</time>
      </trkpt>
      <trkpt lat="43.64961" lon="5.84899">
        <ele>389</ele>
        <time>2016-04-10T09:23:59.128Z</time>
      </trkpt>
      <trkpt lat="43.64957" lon="5.84909">
        <ele>389</ele>
        <time>2016-04-10T09:24:02.169Z</time>
      </trkpt>
      <trkpt lat="43.64956" lon="5.84912">
        <ele>389</ele>
        <time>2016-04-10T09:24:03.127Z</time>
      </trkpt>
      <trkpt lat="43.64955" lon="5.84923">
        <ele>390</ele>
        <time>2016-04-10T09:24:07.159Z</time>
      </trkpt>
      <trkpt lat="43.64954" lon="5.84926">
        <ele>390</ele>
        <time>2016-04-10T09:24:08.138Z</time>
      </trkpt>
      <trkpt lat="43.64952" lon="5.84938">
        <ele>390</ele>
        <time>2016-04-10T09:24:11.153Z</time>
      </trkpt>
      <trkpt lat="43.64951" lon="5.84942">
        <ele>390</ele>
        <time>2016-04-10T09:24:12.132Z</time>
      </trkpt>
      <trkpt lat="43.6495" lon="5.84954">
        <ele>391</ele>
        <time>2016-04-10T09:24:15.157Z</time>
      </trkpt>
      <trkpt lat="43.6495" lon="5.84958">
        <ele>391</ele>
        <time>2016-04-10T09:24:16.132Z</time>
      </trkpt>
      <trkpt lat="43.64948" lon="5.84966">
        <ele>391</ele>
        <time>2016-04-10T09:24:18.153Z</time>
      </trkpt>
      <trkpt lat="43.64946" lon="5.8497">
        <ele>392</ele>
        <time>2016-04-10T09:24:19.128Z</time>
      </trkpt>
      <trkpt lat="43.64942" lon="5.84977">
        <ele>392</ele>
        <time>2016-04-10T09:24:21.154Z</time>
      </trkpt>
      <trkpt lat="43.6494" lon="5.8498">
        <ele>392</ele>
        <time>2016-04-10T09:24:22.132Z</time>
      </trkpt>
      <trkpt lat="43.64937" lon="5.84988">
        <ele>393</ele>
        <time>2016-04-10T09:24:24.157Z</time>
      </trkpt>
      <trkpt lat="43.64936" lon="5.84992">
        <ele>392</ele>
        <time>2016-04-10T09:24:25.159Z</time>
      </trkpt>
      <trkpt lat="43.64935" lon="5.85001">
        <ele>391</ele>
        <time>2016-04-10T09:24:27.161Z</time>
      </trkpt>
      <trkpt lat="43.64935" lon="5.85006">
        <ele>391</ele>
        <time>2016-04-10T09:24:28.131Z</time>
      </trkpt>
      <trkpt lat="43.64935" lon="5.85015">
        <ele>391</ele>
        <time>2016-04-10T09:24:30.180Z</time>
      </trkpt>
      <trkpt lat="43.64935" lon="5.85019">
        <ele>391</ele>
        <time>2016-04-10T09:24:31.126Z</time>
      </trkpt>
      <trkpt lat="43.64938" lon="5.8503">
        <ele>391</ele>
        <time>2016-04-10T09:24:34.158Z</time>
      </trkpt>
      <trkpt lat="43.6494" lon="5.85032">
        <ele>391</ele>
        <time>2016-04-10T09:24:35.132Z</time>
      </trkpt>
      <trkpt lat="43.64947" lon="5.85039">
        <ele>391</ele>
        <time>2016-04-10T09:24:38.156Z</time>
      </trkpt>
      <trkpt lat="43.64949" lon="5.85041">
        <ele>391</ele>
        <time>2016-04-10T09:24:39.143Z</time>
      </trkpt>
      <trkpt lat="43.64954" lon="5.85047">
        <ele>391</ele>
        <time>2016-04-10T09:24:41.158Z</time>
      </trkpt>
      <trkpt lat="43.64957" lon="5.8505">
        <ele>390</ele>
        <time>2016-04-10T09:24:42.132Z</time>
      </trkpt>
      <trkpt lat="43.64963" lon="5.85056">
        <ele>390</ele>
        <time>2016-04-10T09:24:44.159Z</time>
      </trkpt>
      <trkpt lat="43.64966" lon="5.8506">
        <ele>390</ele>
        <time>2016-04-10T09:24:45.132Z</time>
      </trkpt>
      <trkpt lat="43.64971" lon="5.85066">
        <ele>390</ele>
        <time>2016-04-10T09:24:47.157Z</time>
      </trkpt>
      <trkpt lat="43.64974" lon="5.85069">
        <ele>390</ele>
        <time>2016-04-10T09:24:48.132Z</time>
      </trkpt>
      <trkpt lat="43.6498" lon="5.85076">
        <ele>390</ele>
        <time>2016-04-10T09:24:50.156Z</time>
      </trkpt>
      <trkpt lat="43.64983" lon="5.85079">
        <ele>390</ele>
        <time>2016-04-10T09:24:51.142Z</time>
      </trkpt>
      <trkpt lat="43.64988" lon="5.85086">
        <ele>389</ele>
        <time>2016-04-10T09:24:53.159Z</time>
      </trkpt>
      <trkpt lat="43.64991" lon="5.8509">
        <ele>389</ele>
        <time>2016-04-10T09:24:54.134Z</time>
      </trkpt>
      <trkpt lat="43.64997" lon="5.85096">
        <ele>389</ele>
        <time>2016-04-10T09:24:56.164Z</time>
      </trkpt>
      <trkpt lat="43.65" lon="5.85099">
        <ele>389</ele>
        <time>2016-04-10T09:24:57.129Z</time>
      </trkpt>
      <trkpt lat="43.65007" lon="5.85107">
        <ele>389</ele>
        <time>2016-04-10T09:24:59.164Z</time>
      </trkpt>
      <trkpt lat="43.6501" lon="5.85111">
        <ele>389</ele>
        <time>2016-04-10T09:25:00.128Z</time>
      </trkpt>
      <trkpt lat="43.65016" lon="5.8512">
        <ele>388</ele>
        <time>2016-04-10T09:25:02.180Z</time>
      </trkpt>
      <trkpt lat="43.65019" lon="5.85124">
        <ele>388</ele>
        <time>2016-04-10T09:25:03.133Z</time>
      </trkpt>
      <trkpt lat="43.65026" lon="5.85132">
        <ele>387</ele>
        <time>2016-04-10T09:25:05.154Z</time>
      </trkpt>
      <trkpt lat="43.65029" lon="5.85135">
        <ele>387</ele>
        <time>2016-04-10T09:25:06.134Z</time>
      </trkpt>
      <trkpt lat="43.65035" lon="5.85143">
        <ele>387</ele>
        <time>2016-04-10T09:25:08.163Z</time>
      </trkpt>
      <trkpt lat="43.65039" lon="5.85147">
        <ele>387</ele>
        <time>2016-04-10T09:25:09.134Z</time>
      </trkpt>
      <trkpt lat="43.65045" lon="5.85153">
        <ele>387</ele>
        <time>2016-04-10T09:25:11.158Z</time>
      </trkpt>
      <trkpt lat="43.65049" lon="5.85157">
        <ele>386</ele>
        <time>2016-04-10T09:25:12.134Z</time>
      </trkpt>
      <trkpt lat="43.65055" lon="5.85164">
        <ele>386</ele>
        <time>2016-04-10T09:25:14.158Z</time>
      </trkpt>
      <trkpt lat="43.65058" lon="5.85168">
        <ele>386</ele>
        <time>2016-04-10T09:25:15.129Z</time>
      </trkpt>
      <trkpt lat="43.65064" lon="5.85175">
        <ele>386</ele>
        <time>2016-04-10T09:25:17.177Z</time>
      </trkpt>
      <trkpt lat="43.65067" lon="5.85179">
        <ele>386</ele>
        <time>2016-04-10T09:25:18.164Z</time>
      </trkpt>
      <trkpt lat="43.65072" lon="5.85185">
        <ele>386</ele>
        <time>2016-04-10T09:25:20.164Z</time>
      </trkpt>
      <trkpt lat="43.65076" lon="5.85187">
        <ele>387</ele>
        <time>2016-04-10T09:25:21.128Z</time>
      </trkpt>
      <trkpt lat="43.65083" lon="5.85188">
        <ele>387</ele>
        <time>2016-04-10T09:25:23.160Z</time>
      </trkpt>
      <trkpt lat="43.65086" lon="5.85187">
        <ele>387</ele>
        <time>2016-04-10T09:25:24.131Z</time>
      </trkpt>
      <trkpt lat="43.65093" lon="5.85183">
        <ele>387</ele>
        <time>2016-04-10T09:25:26.160Z</time>
      </trkpt>
      <trkpt lat="43.65097" lon="5.85181">
        <ele>387</ele>
        <time>2016-04-10T09:25:27.133Z</time>
      </trkpt>
      <trkpt lat="43.65104" lon="5.85177">
        <ele>387</ele>
        <time>2016-04-10T09:25:29.188Z</time>
      </trkpt>
      <trkpt lat="43.65108" lon="5.85176">
        <ele>387</ele>
        <time>2016-04-10T09:25:30.133Z</time>
      </trkpt>
      <trkpt lat="43.65115" lon="5.85174">
        <ele>387</ele>
        <time>2016-04-10T09:25:32.170Z</time>
      </trkpt>
      <trkpt lat="43.65118" lon="5.85173">
        <ele>387</ele>
        <time>2016-04-10T09:25:33.132Z</time>
      </trkpt>
      <trkpt lat="43.65125" lon="5.85171">
        <ele>387</ele>
        <time>2016-04-10T09:25:35.159Z</time>
      </trkpt>
      <trkpt lat="43.65128" lon="5.8517">
        <ele>387</ele>
        <time>2016-04-10T09:25:36.132Z</time>
      </trkpt>
      <trkpt lat="43.65134" lon="5.85169">
        <ele>387</ele>
        <time>2016-04-10T09:25:38.158Z</time>
      </trkpt>
      <trkpt lat="43.65138" lon="5.85168">
        <ele>387</ele>
        <time>2016-04-10T09:25:39.134Z</time>
      </trkpt>
      <trkpt lat="43.65144" lon="5.85167">
        <ele>387</ele>
        <time>2016-04-10T09:25:41.235Z</time>
      </trkpt>
      <trkpt lat="43.65147" lon="5.85168">
        <ele>387</ele>
        <time>2016-04-10T09:25:42.134Z</time>
      </trkpt>
      <trkpt lat="43.65154" lon="5.85168">
        <ele>387</ele>
        <time>2016-04-10T09:25:44.160Z</time>
      </trkpt>
      <trkpt lat="43.65158" lon="5.85168">
        <ele>387</ele>
        <time>2016-04-10T09:25:45.155Z</time>
      </trkpt>
      <trkpt lat="43.65166" lon="5.85167">
        <ele>387</ele>
        <time>2016-04-10T09:25:47.166Z</time>
      </trkpt>
      <trkpt lat="43.6517" lon="5.85168">
        <ele>387</ele>
        <time>2016-04-10T09:25:48.134Z</time>
      </trkpt>
      <trkpt lat="43.65177" lon="5.85169">
        <ele>387</ele>
        <time>2016-04-10T09:25:50.150Z</time>
      </trkpt>
      <trkpt lat="43.6518" lon="5.8517">
        <ele>387</ele>
        <time>2016-04-10T09:25:51.131Z</time>
      </trkpt>
      <trkpt lat="43.65187" lon="5.85173">
        <ele>387</ele>
        <time>2016-04-10T09:25:53.146Z</time>
      </trkpt>
      <trkpt lat="43.6519" lon="5.85175">
        <ele>387</ele>
        <time>2016-04-10T09:25:54.129Z</time>
      </trkpt>
      <trkpt lat="43.65192" lon="5.85186">
        <ele>387</ele>
        <time>2016-04-10T09:25:57.159Z</time>
      </trkpt>
      <trkpt lat="43.65192" lon="5.8519">
        <ele>387</ele>
        <time>2016-04-10T09:25:58.134Z</time>
      </trkpt>
      <trkpt lat="43.65191" lon="5.85201">
        <ele>387</ele>
        <time>2016-04-10T09:26:01.224Z</time>
      </trkpt>
      <trkpt lat="43.65191" lon="5.85204">
        <ele>388</ele>
        <time>2016-04-10T09:26:02.134Z</time>
      </trkpt>
      <trkpt lat="43.6519" lon="5.85216">
        <ele>389</ele>
        <time>2016-04-10T09:26:06.159Z</time>
      </trkpt>
      <trkpt lat="43.65191" lon="5.85218">
        <ele>389</ele>
        <time>2016-04-10T09:26:07.132Z</time>
      </trkpt>
      <trkpt lat="43.65195" lon="5.85229">
        <ele>390</ele>
        <time>2016-04-10T09:26:11.158Z</time>
      </trkpt>
      <trkpt lat="43.65196" lon="5.85231">
        <ele>390</ele>
        <time>2016-04-10T09:26:12.154Z</time>
      </trkpt>
      <trkpt lat="43.65197" lon="5.85241">
        <ele>390</ele>
        <time>2016-04-10T09:26:16.155Z</time>
      </trkpt>
      <trkpt lat="43.65196" lon="5.85244">
        <ele>390</ele>
        <time>2016-04-10T09:26:17.133Z</time>
      </trkpt>
      <trkpt lat="43.65196" lon="5.85255">
        <ele>390</ele>
        <time>2016-04-10T09:26:21.158Z</time>
      </trkpt>
      <trkpt lat="43.65196" lon="5.85258">
        <ele>390</ele>
        <time>2016-04-10T09:26:22.132Z</time>
      </trkpt>
      <trkpt lat="43.65199" lon="5.85267">
        <ele>391</ele>
        <time>2016-04-10T09:26:26.159Z</time>
      </trkpt>
      <trkpt lat="43.652" lon="5.8527">
        <ele>392</ele>
        <time>2016-04-10T09:26:27.129Z</time>
      </trkpt>
      <trkpt lat="43.65203" lon="5.85281">
        <ele>392</ele>
        <time>2016-04-10T09:26:32.162Z</time>
      </trkpt>
      <trkpt lat="43.65203" lon="5.85283">
        <ele>392</ele>
        <time>2016-04-10T09:26:33.128Z</time>
      </trkpt>
      <trkpt lat="43.65203" lon="5.85295">
        <ele>394</ele>
        <time>2016-04-10T09:26:40.387Z</time>
      </trkpt>
      <trkpt lat="43.65203" lon="5.85297">
        <ele>395</ele>
        <time>2016-04-10T09:26:41.128Z</time>
      </trkpt>
      <trkpt lat="43.65201" lon="5.85308">
        <ele>396</ele>
        <time>2016-04-10T09:26:49.159Z</time>
      </trkpt>
      <trkpt lat="43.65201" lon="5.8531">
        <ele>395</ele>
        <time>2016-04-10T09:26:50.160Z</time>
      </trkpt>
      <trkpt lat="43.65196" lon="5.85316">
        <ele>395</ele>
        <time>2016-04-10T09:27:06.165Z</time>
      </trkpt>
      <trkpt lat="43.65193" lon="5.85317">
        <ele>395</ele>
        <time>2016-04-10T09:27:07.127Z</time>
      </trkpt>
      <trkpt lat="43.65186" lon="5.85322">
        <ele>395</ele>
        <time>2016-04-10T09:27:11.160Z</time>
      </trkpt>
      <trkpt lat="43.65183" lon="5.85325">
        <ele>395</ele>
        <time>2016-04-10T09:27:12.132Z</time>
      </trkpt>
      <trkpt lat="43.65177" lon="5.8533">
        <ele>394</ele>
        <time>2016-04-10T09:27:14.161Z</time>
      </trkpt>
      <trkpt lat="43.65174" lon="5.85332">
        <ele>394</ele>
        <time>2016-04-10T09:27:15.129Z</time>
      </trkpt>
      <trkpt lat="43.65166" lon="5.85335">
        <ele>394</ele>
        <time>2016-04-10T09:27:19.158Z</time>
      </trkpt>
      <trkpt lat="43.65164" lon="5.85336">
        <ele>394</ele>
        <time>2016-04-10T09:27:20.132Z</time>
      </trkpt>
      <trkpt lat="43.65157" lon="5.85341">
        <ele>392</ele>
        <time>2016-04-10T09:27:24.159Z</time>
      </trkpt>
      <trkpt lat="43.65152" lon="5.85344">
        <ele>392</ele>
        <time>2016-04-10T09:27:25.133Z</time>
      </trkpt>
      <trkpt lat="43.65148" lon="5.85348">
        <ele>392</ele>
        <time>2016-04-10T09:27:26.153Z</time>
      </trkpt>
      <trkpt lat="43.65145" lon="5.85351">
        <ele>392</ele>
        <time>2016-04-10T09:27:27.131Z</time>
      </trkpt>
      <trkpt lat="43.65139" lon="5.85356">
        <ele>392</ele>
        <time>2016-04-10T09:27:29.159Z</time>
      </trkpt>
      <trkpt lat="43.65136" lon="5.85359">
        <ele>392</ele>
        <time>2016-04-10T09:27:30.142Z</time>
      </trkpt>
      <trkpt lat="43.6513" lon="5.85368">
        <ele>392</ele>
        <time>2016-04-10T09:27:34.160Z</time>
      </trkpt>
      <trkpt lat="43.65129" lon="5.8537">
        <ele>392</ele>
        <time>2016-04-10T09:27:35.133Z</time>
      </trkpt>
      <trkpt lat="43.65134" lon="5.85361">
        <ele>388</ele>
        <time>2016-04-10T09:31:26.149Z</time>
      </trkpt>
      <trkpt lat="43.65135" lon="5.8536">
        <ele>388</ele>
        <time>2016-04-10T09:31:27.125Z</time>
      </trkpt>
      <trkpt lat="43.65142" lon="5.85354">
        <ele>388</ele>
        <time>2016-04-10T09:31:31.164Z</time>
      </trkpt>
      <trkpt lat="43.65144" lon="5.85351">
        <ele>387</ele>
        <time>2016-04-10T09:31:32.124Z</time>
      </trkpt>
      <trkpt lat="43.65151" lon="5.85343">
        <ele>388</ele>
        <time>2016-04-10T09:31:34.153Z</time>
      </trkpt>
      <trkpt lat="43.65154" lon="5.8534">
        <ele>387</ele>
        <time>2016-04-10T09:31:35.122Z</time>
      </trkpt>
      <trkpt lat="43.65162" lon="5.85336">
        <ele>389</ele>
        <time>2016-04-10T09:31:38.165Z</time>
      </trkpt>
      <trkpt lat="43.65164" lon="5.85336">
        <ele>388</ele>
        <time>2016-04-10T09:31:39.124Z</time>
      </trkpt>
      <trkpt lat="43.65171" lon="5.85331">
        <ele>388</ele>
        <time>2016-04-10T09:31:44.148Z</time>
      </trkpt>
      <trkpt lat="43.65172" lon="5.85331">
        <ele>388</ele>
        <time>2016-04-10T09:31:45.121Z</time>
      </trkpt>
      <trkpt lat="43.6518" lon="5.85325">
        <ele>392</ele>
        <time>2016-04-10T09:31:51.144Z</time>
      </trkpt>
      <trkpt lat="43.65181" lon="5.85324">
        <ele>392</ele>
        <time>2016-04-10T09:31:52.121Z</time>
      </trkpt>
      <trkpt lat="43.65188" lon="5.85318">
        <ele>390</ele>
        <time>2016-04-10T09:31:57.145Z</time>
      </trkpt>
      <trkpt lat="43.65189" lon="5.85317">
        <ele>391</ele>
        <time>2016-04-10T09:31:58.184Z</time>
      </trkpt>
      <trkpt lat="43.65197" lon="5.85314">
        <ele>391</ele>
        <time>2016-04-10T09:32:04.141Z</time>
      </trkpt>
      <trkpt lat="43.65198" lon="5.85314">
        <ele>393</ele>
        <time>2016-04-10T09:32:05.122Z</time>
      </trkpt>
      <trkpt lat="43.65199" lon="5.85326">
        <ele>392</ele>
        <time>2016-04-10T09:32:15.226Z</time>
      </trkpt>
      <trkpt lat="43.65198" lon="5.85328">
        <ele>392</ele>
        <time>2016-04-10T09:32:16.134Z</time>
      </trkpt>
      <trkpt lat="43.65197" lon="5.85339">
        <ele>394</ele>
        <time>2016-04-10T09:32:21.141Z</time>
      </trkpt>
      <trkpt lat="43.65197" lon="5.85341">
        <ele>394</ele>
        <time>2016-04-10T09:32:22.128Z</time>
      </trkpt>
      <trkpt lat="43.65198" lon="5.85351">
        <ele>393</ele>
        <time>2016-04-10T09:32:26.162Z</time>
      </trkpt>
      <trkpt lat="43.65198" lon="5.85353">
        <ele>393</ele>
        <time>2016-04-10T09:32:27.135Z</time>
      </trkpt>
      <trkpt lat="43.65198" lon="5.85365">
        <ele>393</ele>
        <time>2016-04-10T09:32:32.158Z</time>
      </trkpt>
      <trkpt lat="43.65198" lon="5.85368">
        <ele>393</ele>
        <time>2016-04-10T09:32:33.124Z</time>
      </trkpt>
      <trkpt lat="43.65198" lon="5.85378">
        <ele>395</ele>
        <time>2016-04-10T09:32:37.156Z</time>
      </trkpt>
      <trkpt lat="43.65198" lon="5.85381">
        <ele>395</ele>
        <time>2016-04-10T09:32:38.129Z</time>
      </trkpt>
      <trkpt lat="43.65196" lon="5.85391">
        <ele>396</ele>
        <time>2016-04-10T09:32:42.157Z</time>
      </trkpt>
      <trkpt lat="43.65196" lon="5.85394">
        <ele>397</ele>
        <time>2016-04-10T09:32:43.131Z</time>
      </trkpt>
      <trkpt lat="43.65196" lon="5.85406">
        <ele>399</ele>
        <time>2016-04-10T09:32:49.159Z</time>
      </trkpt>
      <trkpt lat="43.65197" lon="5.85408">
        <ele>399</ele>
        <time>2016-04-10T09:32:50.132Z</time>
      </trkpt>
      <trkpt lat="43.65201" lon="5.85419">
        <ele>399</ele>
        <time>2016-04-10T09:32:57.187Z</time>
      </trkpt>
      <trkpt lat="43.65202" lon="5.85419">
        <ele>399</ele>
        <time>2016-04-10T09:32:58.128Z</time>
      </trkpt>
      <trkpt lat="43.65205" lon="5.8543">
        <ele>401</ele>
        <time>2016-04-10T09:33:05.154Z</time>
      </trkpt>
      <trkpt lat="43.65205" lon="5.85432">
        <ele>400</ele>
        <time>2016-04-10T09:33:06.131Z</time>
      </trkpt>
      <trkpt lat="43.65206" lon="5.85443">
        <ele>403</ele>
        <time>2016-04-10T09:33:13.156Z</time>
      </trkpt>
      <trkpt lat="43.65206" lon="5.85445">
        <ele>403</ele>
        <time>2016-04-10T09:33:14.132Z</time>
      </trkpt>
      <trkpt lat="43.65209" lon="5.85455">
        <ele>406</ele>
        <time>2016-04-10T09:33:20.155Z</time>
      </trkpt>
      <trkpt lat="43.65209" lon="5.85457">
        <ele>406</ele>
        <time>2016-04-10T09:33:21.133Z</time>
      </trkpt>
      <trkpt lat="43.65211" lon="5.85469">
        <ele>408</ele>
        <time>2016-04-10T09:33:26.157Z</time>
      </trkpt>
      <trkpt lat="43.65212" lon="5.85471">
        <ele>409</ele>
        <time>2016-04-10T09:33:27.131Z</time>
      </trkpt>
      <trkpt lat="43.65211" lon="5.85483">
        <ele>408</ele>
        <time>2016-04-10T09:33:32.220Z</time>
      </trkpt>
      <trkpt lat="43.65211" lon="5.85485">
        <ele>408</ele>
        <time>2016-04-10T09:33:33.130Z</time>
      </trkpt>
      <trkpt lat="43.65213" lon="5.85495">
        <ele>409</ele>
        <time>2016-04-10T09:33:37.153Z</time>
      </trkpt>
      <trkpt lat="43.65213" lon="5.85498">
        <ele>409</ele>
        <time>2016-04-10T09:33:38.143Z</time>
      </trkpt>
      <trkpt lat="43.65217" lon="5.85507">
        <ele>412</ele>
        <time>2016-04-10T09:33:42.154Z</time>
      </trkpt>
      <trkpt lat="43.65218" lon="5.85509">
        <ele>411</ele>
        <time>2016-04-10T09:33:43.133Z</time>
      </trkpt>
      <trkpt lat="43.65221" lon="5.85518">
        <ele>414</ele>
        <time>2016-04-10T09:33:47.156Z</time>
      </trkpt>
      <trkpt lat="43.65222" lon="5.85521">
        <ele>415</ele>
        <time>2016-04-10T09:33:48.128Z</time>
      </trkpt>
      <trkpt lat="43.65223" lon="5.85532">
        <ele>413</ele>
        <time>2016-04-10T09:33:53.157Z</time>
      </trkpt>
      <trkpt lat="43.65223" lon="5.85535">
        <ele>413</ele>
        <time>2016-04-10T09:33:54.131Z</time>
      </trkpt>
      <trkpt lat="43.65222" lon="5.85545">
        <ele>412</ele>
        <time>2016-04-10T09:33:58.157Z</time>
      </trkpt>
      <trkpt lat="43.65221" lon="5.85548">
        <ele>412</ele>
        <time>2016-04-10T09:33:59.134Z</time>
      </trkpt>
      <trkpt lat="43.65218" lon="5.85558">
        <ele>412</ele>
        <time>2016-04-10T09:34:02.172Z</time>
      </trkpt>
      <trkpt lat="43.65217" lon="5.85561">
        <ele>411</ele>
        <time>2016-04-10T09:34:03.131Z</time>
      </trkpt>
      <trkpt lat="43.65216" lon="5.85572">
        <ele>409</ele>
        <time>2016-04-10T09:34:06.153Z</time>
      </trkpt>
      <trkpt lat="43.65216" lon="5.85576">
        <ele>409</ele>
        <time>2016-04-10T09:34:07.133Z</time>
      </trkpt>
      <trkpt lat="43.65217" lon="5.85588">
        <ele>409</ele>
        <time>2016-04-10T09:34:10.158Z</time>
      </trkpt>
      <trkpt lat="43.65217" lon="5.85592">
        <ele>409</ele>
        <time>2016-04-10T09:34:11.128Z</time>
      </trkpt>
      <trkpt lat="43.65216" lon="5.85603">
        <ele>409</ele>
        <time>2016-04-10T09:34:14.157Z</time>
      </trkpt>
      <trkpt lat="43.65216" lon="5.85606">
        <ele>409</ele>
        <time>2016-04-10T09:34:15.127Z</time>
      </trkpt>
      <trkpt lat="43.65215" lon="5.85617">
        <ele>409</ele>
        <time>2016-04-10T09:34:18.159Z</time>
      </trkpt>
      <trkpt lat="43.65215" lon="5.85621">
        <ele>409</ele>
        <time>2016-04-10T09:34:19.134Z</time>
      </trkpt>
      <trkpt lat="43.65216" lon="5.85633">
        <ele>410</ele>
        <time>2016-04-10T09:34:22.160Z</time>
      </trkpt>
      <trkpt lat="43.65216" lon="5.85637">
        <ele>410</ele>
        <time>2016-04-10T09:34:23.132Z</time>
      </trkpt>
      <trkpt lat="43.65217" lon="5.85648">
        <ele>410</ele>
        <time>2016-04-10T09:34:26.181Z</time>
      </trkpt>
      <trkpt lat="43.65217" lon="5.85652">
        <ele>410</ele>
        <time>2016-04-10T09:34:27.132Z</time>
      </trkpt>
      <trkpt lat="43.65217" lon="5.85664">
        <ele>410</ele>
        <time>2016-04-10T09:34:30.153Z</time>
      </trkpt>
      <trkpt lat="43.65217" lon="5.85668">
        <ele>409</ele>
        <time>2016-04-10T09:34:31.132Z</time>
      </trkpt>
      <trkpt lat="43.65218" lon="5.85679">
        <ele>410</ele>
        <time>2016-04-10T09:34:34.161Z</time>
      </trkpt>
      <trkpt lat="43.65219" lon="5.85682">
        <ele>410</ele>
        <time>2016-04-10T09:34:35.133Z</time>
      </trkpt>
      <trkpt lat="43.65221" lon="5.85691">
        <ele>412</ele>
        <time>2016-04-10T09:34:38.159Z</time>
      </trkpt>
      <trkpt lat="43.65222" lon="5.85694">
        <ele>412</ele>
        <time>2016-04-10T09:34:39.131Z</time>
      </trkpt>
      <trkpt lat="43.65227" lon="5.85704">
        <ele>415</ele>
        <time>2016-04-10T09:34:43.160Z</time>
      </trkpt>
      <trkpt lat="43.65228" lon="5.85707">
        <ele>416</ele>
        <time>2016-04-10T09:34:44.132Z</time>
      </trkpt>
      <trkpt lat="43.65229" lon="5.85716">
        <ele>416</ele>
        <time>2016-04-10T09:34:47.159Z</time>
      </trkpt>
      <trkpt lat="43.65229" lon="5.85719">
        <ele>416</ele>
        <time>2016-04-10T09:34:48.135Z</time>
      </trkpt>
      <trkpt lat="43.65227" lon="5.85729">
        <ele>416</ele>
        <time>2016-04-10T09:34:51.157Z</time>
      </trkpt>
      <trkpt lat="43.65226" lon="5.85731">
        <ele>416</ele>
        <time>2016-04-10T09:34:52.132Z</time>
      </trkpt>
      <trkpt lat="43.65224" lon="5.85742">
        <ele>417</ele>
        <time>2016-04-10T09:34:56.203Z</time>
      </trkpt>
      <trkpt lat="43.65223" lon="5.85745">
        <ele>417</ele>
        <time>2016-04-10T09:34:57.129Z</time>
      </trkpt>
      <trkpt lat="43.65218" lon="5.85754">
        <ele>417</ele>
        <time>2016-04-10T09:35:01.159Z</time>
      </trkpt>
      <trkpt lat="43.65217" lon="5.85756">
        <ele>417</ele>
        <time>2016-04-10T09:35:02.127Z</time>
      </trkpt>
      <trkpt lat="43.65211" lon="5.85763">
        <ele>416</ele>
        <time>2016-04-10T09:35:06.160Z</time>
      </trkpt>
      <trkpt lat="43.6521" lon="5.85766">
        <ele>416</ele>
        <time>2016-04-10T09:35:07.135Z</time>
      </trkpt>
      <trkpt lat="43.6521" lon="5.85777">
        <ele>418</ele>
        <time>2016-04-10T09:35:12.149Z</time>
      </trkpt>
      <trkpt lat="43.65211" lon="5.85779">
        <ele>417</ele>
        <time>2016-04-10T09:35:13.133Z</time>
      </trkpt>
      <trkpt lat="43.65213" lon="5.8579">
        <ele>418</ele>
        <time>2016-04-10T09:35:18.158Z</time>
      </trkpt>
      <trkpt lat="43.65212" lon="5.85792">
        <ele>419</ele>
        <time>2016-04-10T09:35:19.131Z</time>
      </trkpt>
      <trkpt lat="43.65207" lon="5.858">
        <ele>418</ele>
        <time>2016-04-10T09:35:23.184Z</time>
      </trkpt>
      <trkpt lat="43.65206" lon="5.85802">
        <ele>419</ele>
        <time>2016-04-10T09:35:24.128Z</time>
      </trkpt>
      <trkpt lat="43.65201" lon="5.8581">
        <ele>420</ele>
        <time>2016-04-10T09:35:28.182Z</time>
      </trkpt>
      <trkpt lat="43.652" lon="5.85812">
        <ele>419</ele>
        <time>2016-04-10T09:35:29.133Z</time>
      </trkpt>
      <trkpt lat="43.65197" lon="5.85823">
        <ele>421</ele>
        <time>2016-04-10T09:35:34.157Z</time>
      </trkpt>
      <trkpt lat="43.65196" lon="5.85825">
        <ele>421</ele>
        <time>2016-04-10T09:35:35.132Z</time>
      </trkpt>
      <trkpt lat="43.65194" lon="5.85835">
        <ele>422</ele>
        <time>2016-04-10T09:35:39.155Z</time>
      </trkpt>
      <trkpt lat="43.65193" lon="5.85837">
        <ele>422</ele>
        <time>2016-04-10T09:35:40.133Z</time>
      </trkpt>
      <trkpt lat="43.65192" lon="5.85847">
        <ele>424</ele>
        <time>2016-04-10T09:35:44.160Z</time>
      </trkpt>
      <trkpt lat="43.65191" lon="5.8585">
        <ele>423</ele>
        <time>2016-04-10T09:35:45.129Z</time>
      </trkpt>
      <trkpt lat="43.65192" lon="5.8586">
        <ele>424</ele>
        <time>2016-04-10T09:35:49.186Z</time>
      </trkpt>
      <trkpt lat="43.65194" lon="5.85862">
        <ele>425</ele>
        <time>2016-04-10T09:35:50.130Z</time>
      </trkpt>
      <trkpt lat="43.65199" lon="5.85868">
        <ele>424</ele>
        <time>2016-04-10T09:35:54.185Z</time>
      </trkpt>
      <trkpt lat="43.65201" lon="5.8587">
        <ele>425</ele>
        <time>2016-04-10T09:35:55.120Z</time>
      </trkpt>
      <trkpt lat="43.65209" lon="5.85876">
        <ele>426</ele>
        <time>2016-04-10T09:36:00.338Z</time>
      </trkpt>
      <trkpt lat="43.6521" lon="5.85876">
        <ele>427</ele>
        <time>2016-04-10T09:36:01.120Z</time>
      </trkpt>
      <trkpt lat="43.65218" lon="5.85878">
        <ele>427</ele>
        <time>2016-04-10T09:36:05.258Z</time>
      </trkpt>
      <trkpt lat="43.6522" lon="5.85879">
        <ele>427</ele>
        <time>2016-04-10T09:36:06.118Z</time>
      </trkpt>
      <trkpt lat="43.65226" lon="5.85886">
        <ele>427</ele>
        <time>2016-04-10T09:36:09.154Z</time>
      </trkpt>
      <trkpt lat="43.65227" lon="5.85888">
        <ele>428</ele>
        <time>2016-04-10T09:36:10.134Z</time>
      </trkpt>
      <trkpt lat="43.65229" lon="5.85898">
        <ele>427</ele>
        <time>2016-04-10T09:36:14.150Z</time>
      </trkpt>
      <trkpt lat="43.6523" lon="5.85901">
        <ele>428</ele>
        <time>2016-04-10T09:36:15.114Z</time>
      </trkpt>
      <trkpt lat="43.65231" lon="5.85911">
        <ele>429</ele>
        <time>2016-04-10T09:36:18.141Z</time>
      </trkpt>
      <trkpt lat="43.65231" lon="5.85914">
        <ele>429</ele>
        <time>2016-04-10T09:36:19.125Z</time>
      </trkpt>
      <trkpt lat="43.65233" lon="5.85924">
        <ele>430</ele>
        <time>2016-04-10T09:36:22.168Z</time>
      </trkpt>
      <trkpt lat="43.65234" lon="5.85927">
        <ele>431</ele>
        <time>2016-04-10T09:36:23.118Z</time>
      </trkpt>
      <trkpt lat="43.65236" lon="5.85938">
        <ele>430</ele>
        <time>2016-04-10T09:36:27.222Z</time>
      </trkpt>
      <trkpt lat="43.65236" lon="5.85941">
        <ele>430</ele>
        <time>2016-04-10T09:36:28.121Z</time>
      </trkpt>
      <trkpt lat="43.65235" lon="5.85952">
        <ele>434</ele>
        <time>2016-04-10T09:36:32.183Z</time>
      </trkpt>
      <trkpt lat="43.65235" lon="5.85956">
        <ele>434</ele>
        <time>2016-04-10T09:36:33.119Z</time>
      </trkpt>
      <trkpt lat="43.65238" lon="5.85964">
        <ele>435</ele>
        <time>2016-04-10T09:36:36.158Z</time>
      </trkpt>
      <trkpt lat="43.65241" lon="5.85967">
        <ele>434</ele>
        <time>2016-04-10T09:36:37.119Z</time>
      </trkpt>
      <trkpt lat="43.65246" lon="5.85976">
        <ele>432</ele>
        <time>2016-04-10T09:36:40.153Z</time>
      </trkpt>
      <trkpt lat="43.65248" lon="5.8598">
        <ele>432</ele>
        <time>2016-04-10T09:36:41.131Z</time>
      </trkpt>
      <trkpt lat="43.65252" lon="5.85989">
        <ele>433</ele>
        <time>2016-04-10T09:36:44.158Z</time>
      </trkpt>
      <trkpt lat="43.65254" lon="5.85991">
        <ele>432</ele>
        <time>2016-04-10T09:36:45.131Z</time>
      </trkpt>
      <trkpt lat="43.6526" lon="5.85995">
        <ele>432</ele>
        <time>2016-04-10T09:36:47.158Z</time>
      </trkpt>
      <trkpt lat="43.65262" lon="5.85997">
        <ele>432</ele>
        <time>2016-04-10T09:36:48.139Z</time>
      </trkpt>
      <trkpt lat="43.65266" lon="5.86005">
        <ele>432</ele>
        <time>2016-04-10T09:36:51.153Z</time>
      </trkpt>
      <trkpt lat="43.65267" lon="5.86008">
        <ele>433</ele>
        <time>2016-04-10T09:36:52.131Z</time>
      </trkpt>
      <trkpt lat="43.65271" lon="5.86017">
        <ele>433</ele>
        <time>2016-04-10T09:36:56.158Z</time>
      </trkpt>
      <trkpt lat="43.65272" lon="5.8602">
        <ele>432</ele>
        <time>2016-04-10T09:36:57.132Z</time>
      </trkpt>
      <trkpt lat="43.65277" lon="5.86029">
        <ele>434</ele>
        <time>2016-04-10T09:37:01.162Z</time>
      </trkpt>
      <trkpt lat="43.65278" lon="5.86032">
        <ele>433</ele>
        <time>2016-04-10T09:37:02.129Z</time>
      </trkpt>
      <trkpt lat="43.65281" lon="5.86042">
        <ele>433</ele>
        <time>2016-04-10T09:37:06.154Z</time>
      </trkpt>
      <trkpt lat="43.65281" lon="5.86046">
        <ele>432</ele>
        <time>2016-04-10T09:37:07.132Z</time>
      </trkpt>
      <trkpt lat="43.65282" lon="5.86056">
        <ele>429</ele>
        <time>2016-04-10T09:37:10.158Z</time>
      </trkpt>
      <trkpt lat="43.65283" lon="5.8606">
        <ele>429</ele>
        <time>2016-04-10T09:37:11.132Z</time>
      </trkpt>
      <trkpt lat="43.65285" lon="5.8607">
        <ele>429</ele>
        <time>2016-04-10T09:37:14.165Z</time>
      </trkpt>
      <trkpt lat="43.65286" lon="5.86073">
        <ele>429</ele>
        <time>2016-04-10T09:37:15.134Z</time>
      </trkpt>
      <trkpt lat="43.6529" lon="5.86083">
        <ele>429</ele>
        <time>2016-04-10T09:37:18.162Z</time>
      </trkpt>
      <trkpt lat="43.65291" lon="5.86086">
        <ele>429</ele>
        <time>2016-04-10T09:37:19.132Z</time>
      </trkpt>
      <trkpt lat="43.65296" lon="5.86095">
        <ele>430</ele>
        <time>2016-04-10T09:37:22.154Z</time>
      </trkpt>
      <trkpt lat="43.65298" lon="5.86098">
        <ele>431</ele>
        <time>2016-04-10T09:37:23.133Z</time>
      </trkpt>
      <trkpt lat="43.65303" lon="5.86108">
        <ele>430</ele>
        <time>2016-04-10T09:37:26.157Z</time>
      </trkpt>
      <trkpt lat="43.65304" lon="5.86111">
        <ele>431</ele>
        <time>2016-04-10T09:37:27.138Z</time>
      </trkpt>
      <trkpt lat="43.65309" lon="5.8612">
        <ele>431</ele>
        <time>2016-04-10T09:37:30.158Z</time>
      </trkpt>
      <trkpt lat="43.6531" lon="5.86123">
        <ele>431</ele>
        <time>2016-04-10T09:37:31.131Z</time>
      </trkpt>
      <trkpt lat="43.65315" lon="5.86132">
        <ele>430</ele>
        <time>2016-04-10T09:37:34.154Z</time>
      </trkpt>
      <trkpt lat="43.65316" lon="5.86135">
        <ele>430</ele>
        <time>2016-04-10T09:37:35.128Z</time>
      </trkpt>
      <trkpt lat="43.65321" lon="5.86144">
        <ele>430</ele>
        <time>2016-04-10T09:37:38.166Z</time>
      </trkpt>
      <trkpt lat="43.65323" lon="5.86146">
        <ele>431</ele>
        <time>2016-04-10T09:37:39.132Z</time>
      </trkpt>
      <trkpt lat="43.65329" lon="5.86155">
        <ele>431</ele>
        <time>2016-04-10T09:37:42.168Z</time>
      </trkpt>
      <trkpt lat="43.65331" lon="5.86158">
        <ele>431</ele>
        <time>2016-04-10T09:37:43.128Z</time>
      </trkpt>
      <trkpt lat="43.65337" lon="5.86165">
        <ele>430</ele>
        <time>2016-04-10T09:37:46.160Z</time>
      </trkpt>
      <trkpt lat="43.6534" lon="5.86165">
        <ele>430</ele>
        <time>2016-04-10T09:37:47.133Z</time>
      </trkpt>
      <trkpt lat="43.65348" lon="5.86168">
        <ele>430</ele>
        <time>2016-04-10T09:37:50.158Z</time>
      </trkpt>
      <trkpt lat="43.65352" lon="5.8617">
        <ele>430</ele>
        <time>2016-04-10T09:37:51.132Z</time>
      </trkpt>
      <trkpt lat="43.65358" lon="5.86177">
        <ele>430</ele>
        <time>2016-04-10T09:37:53.153Z</time>
      </trkpt>
      <trkpt lat="43.6536" lon="5.86181">
        <ele>430</ele>
        <time>2016-04-10T09:37:54.132Z</time>
      </trkpt>
      <trkpt lat="43.65363" lon="5.86185">
        <ele>431</ele>
        <time>2016-04-10T09:37:55.159Z</time>
      </trkpt>
      <trkpt lat="43.65366" lon="5.86192">
        <ele>430</ele>
        <time>2016-04-10T09:37:56.355Z</time>
      </trkpt>
      <trkpt lat="43.65369" lon="5.86198">
        <ele>430</ele>
        <time>2016-04-10T09:37:57.158Z</time>
      </trkpt>
      <trkpt lat="43.65372" lon="5.86203">
        <ele>429</ele>
        <time>2016-04-10T09:37:58.155Z</time>
      </trkpt>
      <trkpt lat="43.65375" lon="5.86209">
        <ele>429</ele>
        <time>2016-04-10T09:37:59.158Z</time>
      </trkpt>
      <trkpt lat="43.65377" lon="5.86216">
        <ele>429</ele>
        <time>2016-04-10T09:38:00.136Z</time>
      </trkpt>
      <trkpt lat="43.65379" lon="5.86222">
        <ele>429</ele>
        <time>2016-04-10T09:38:01.158Z</time>
      </trkpt>
      <trkpt lat="43.65381" lon="5.86228">
        <ele>429</ele>
        <time>2016-04-10T09:38:02.128Z</time>
      </trkpt>
      <trkpt lat="43.65384" lon="5.86236">
        <ele>429</ele>
        <time>2016-04-10T09:38:04.159Z</time>
      </trkpt>
      <trkpt lat="43.65387" lon="5.86239">
        <ele>428</ele>
        <time>2016-04-10T09:38:05.132Z</time>
      </trkpt>
      <trkpt lat="43.65396" lon="5.86242">
        <ele>426</ele>
        <time>2016-04-10T09:38:07.381Z</time>
      </trkpt>
      <trkpt lat="43.65401" lon="5.86244">
        <ele>425</ele>
        <time>2016-04-10T09:38:08.128Z</time>
      </trkpt>
      <trkpt lat="43.65407" lon="5.86247">
        <ele>425</ele>
        <time>2016-04-10T09:38:09.163Z</time>
      </trkpt>
      <trkpt lat="43.65414" lon="5.86249">
        <ele>425</ele>
        <time>2016-04-10T09:38:10.137Z</time>
      </trkpt>
      <trkpt lat="43.6542" lon="5.86251">
        <ele>425</ele>
        <time>2016-04-10T09:38:11.161Z</time>
      </trkpt>
      <trkpt lat="43.65426" lon="5.86253">
        <ele>423</ele>
        <time>2016-04-10T09:38:12.133Z</time>
      </trkpt>
      <trkpt lat="43.65434" lon="5.86256">
        <ele>422</ele>
        <time>2016-04-10T09:38:13.159Z</time>
      </trkpt>
      <trkpt lat="43.65441" lon="5.86258">
        <ele>421</ele>
        <time>2016-04-10T09:38:14.160Z</time>
      </trkpt>
      <trkpt lat="43.65448" lon="5.86259">
        <ele>420</ele>
        <time>2016-04-10T09:38:15.157Z</time>
      </trkpt>
      <trkpt lat="43.65455" lon="5.86261">
        <ele>421</ele>
        <time>2016-04-10T09:38:16.132Z</time>
      </trkpt>
      <trkpt lat="43.65463" lon="5.86263">
        <ele>421</ele>
        <time>2016-04-10T09:38:17.154Z</time>
      </trkpt>
      <trkpt lat="43.65471" lon="5.86266">
        <ele>420</ele>
        <time>2016-04-10T09:38:18.131Z</time>
      </trkpt>
      <trkpt lat="43.65477" lon="5.86272">
        <ele>420</ele>
        <time>2016-04-10T09:38:19.190Z</time>
      </trkpt>
      <trkpt lat="43.65483" lon="5.86277">
        <ele>420</ele>
        <time>2016-04-10T09:38:20.132Z</time>
      </trkpt>
      <trkpt lat="43.65488" lon="5.86279">
        <ele>420</ele>
        <time>2016-04-10T09:38:21.160Z</time>
      </trkpt>
      <trkpt lat="43.65494" lon="5.86281">
        <ele>419</ele>
        <time>2016-04-10T09:38:22.133Z</time>
      </trkpt>
      <trkpt lat="43.65501" lon="5.86286">
        <ele>421</ele>
        <time>2016-04-10T09:38:23.158Z</time>
      </trkpt>
      <trkpt lat="43.65505" lon="5.8629">
        <ele>421</ele>
        <time>2016-04-10T09:38:24.131Z</time>
      </trkpt>
      <trkpt lat="43.65514" lon="5.86288">
        <ele>423</ele>
        <time>2016-04-10T09:38:26.154Z</time>
      </trkpt>
      <trkpt lat="43.6552" lon="5.86285">
        <ele>424</ele>
        <time>2016-04-10T09:38:27.133Z</time>
      </trkpt>
      <trkpt lat="43.65527" lon="5.86278">
        <ele>425</ele>
        <time>2016-04-10T09:38:29.164Z</time>
      </trkpt>
      <trkpt lat="43.6553" lon="5.86274">
        <ele>425</ele>
        <time>2016-04-10T09:38:30.130Z</time>
      </trkpt>
      <trkpt lat="43.65534" lon="5.86268">
        <ele>425</ele>
        <time>2016-04-10T09:38:32.159Z</time>
      </trkpt>
      <trkpt lat="43.65537" lon="5.86266">
        <ele>425</ele>
        <time>2016-04-10T09:38:33.133Z</time>
      </trkpt>
      <trkpt lat="43.65543" lon="5.86258">
        <ele>425</ele>
        <time>2016-04-10T09:38:35.186Z</time>
      </trkpt>
      <trkpt lat="43.65546" lon="5.86254">
        <ele>426</ele>
        <time>2016-04-10T09:38:36.131Z</time>
      </trkpt>
      <trkpt lat="43.65554" lon="5.8625">
        <ele>424</ele>
        <time>2016-04-10T09:38:39.174Z</time>
      </trkpt>
      <trkpt lat="43.65556" lon="5.86249">
        <ele>424</ele>
        <time>2016-04-10T09:38:40.129Z</time>
      </trkpt>
      <trkpt lat="43.65563" lon="5.86245">
        <ele>427</ele>
        <time>2016-04-10T09:38:43.152Z</time>
      </trkpt>
      <trkpt lat="43.65566" lon="5.86243">
        <ele>426</ele>
        <time>2016-04-10T09:38:44.132Z</time>
      </trkpt>
      <trkpt lat="43.6557" lon="5.86237">
        <ele>428</ele>
        <time>2016-04-10T09:38:46.160Z</time>
      </trkpt>
      <trkpt lat="43.65572" lon="5.86233">
        <ele>428</ele>
        <time>2016-04-10T09:38:47.133Z</time>
      </trkpt>
      <trkpt lat="43.65577" lon="5.86226">
        <ele>428</ele>
        <time>2016-04-10T09:38:49.157Z</time>
      </trkpt>
      <trkpt lat="43.6558" lon="5.86222">
        <ele>428</ele>
        <time>2016-04-10T09:38:50.133Z</time>
      </trkpt>
      <trkpt lat="43.65586" lon="5.86215">
        <ele>427</ele>
        <time>2016-04-10T09:38:52.163Z</time>
      </trkpt>
      <trkpt lat="43.65589" lon="5.86212">
        <ele>427</ele>
        <time>2016-04-10T09:38:53.131Z</time>
      </trkpt>
      <trkpt lat="43.65593" lon="5.86204">
        <ele>426</ele>
        <time>2016-04-10T09:38:55.155Z</time>
      </trkpt>
      <trkpt lat="43.65595" lon="5.86199">
        <ele>423</ele>
        <time>2016-04-10T09:38:56.134Z</time>
      </trkpt>
      <trkpt lat="43.65599" lon="5.86191">
        <ele>422</ele>
        <time>2016-04-10T09:38:58.172Z</time>
      </trkpt>
      <trkpt lat="43.65602" lon="5.86187">
        <ele>421</ele>
        <time>2016-04-10T09:38:59.129Z</time>
      </trkpt>
      <trkpt lat="43.65607" lon="5.86181">
        <ele>421</ele>
        <time>2016-04-10T09:39:01.171Z</time>
      </trkpt>
      <trkpt lat="43.65609" lon="5.86177">
        <ele>421</ele>
        <time>2016-04-10T09:39:02.127Z</time>
      </trkpt>
      <trkpt lat="43.65615" lon="5.86171">
        <ele>420</ele>
        <time>2016-04-10T09:39:04.171Z</time>
      </trkpt>
      <trkpt lat="43.65618" lon="5.8617">
        <ele>419</ele>
        <time>2016-04-10T09:39:05.132Z</time>
      </trkpt>
      <trkpt lat="43.65625" lon="5.86168">
        <ele>417</ele>
        <time>2016-04-10T09:39:07.167Z</time>
      </trkpt>
      <trkpt lat="43.65628" lon="5.86167">
        <ele>418</ele>
        <time>2016-04-10T09:39:08.133Z</time>
      </trkpt>
      <trkpt lat="43.65635" lon="5.86163">
        <ele>417</ele>
        <time>2016-04-10T09:39:10.161Z</time>
      </trkpt>
      <trkpt lat="43.65638" lon="5.8616">
        <ele>419</ele>
        <time>2016-04-10T09:39:11.132Z</time>
      </trkpt>
      <trkpt lat="43.65645" lon="5.86155">
        <ele>422</ele>
        <time>2016-04-10T09:39:13.158Z</time>
      </trkpt>
      <trkpt lat="43.65649" lon="5.86153">
        <ele>422</ele>
        <time>2016-04-10T09:39:14.131Z</time>
      </trkpt>
      <trkpt lat="43.65655" lon="5.86144">
        <ele>420</ele>
        <time>2016-04-10T09:39:16.153Z</time>
      </trkpt>
      <trkpt lat="43.65657" lon="5.86139">
        <ele>421</ele>
        <time>2016-04-10T09:39:17.132Z</time>
      </trkpt>
      <trkpt lat="43.6566" lon="5.86133">
        <ele>420</ele>
        <time>2016-04-10T09:39:18.154Z</time>
      </trkpt>
      <trkpt lat="43.65662" lon="5.86128">
        <ele>420</ele>
        <time>2016-04-10T09:39:19.132Z</time>
      </trkpt>
      <trkpt lat="43.65665" lon="5.86123">
        <ele>418</ele>
        <time>2016-04-10T09:39:20.170Z</time>
      </trkpt>
      <trkpt lat="43.65668" lon="5.86118">
        <ele>417</ele>
        <time>2016-04-10T09:39:21.127Z</time>
      </trkpt>
      <trkpt lat="43.65672" lon="5.86113">
        <ele>417</ele>
        <time>2016-04-10T09:39:22.158Z</time>
      </trkpt>
      <trkpt lat="43.65675" lon="5.86109">
        <ele>416</ele>
        <time>2016-04-10T09:39:23.134Z</time>
      </trkpt>
      <trkpt lat="43.65679" lon="5.86101">
        <ele>418</ele>
        <time>2016-04-10T09:39:24.163Z</time>
      </trkpt>
      <trkpt lat="43.65681" lon="5.86097">
        <ele>419</ele>
        <time>2016-04-10T09:39:25.133Z</time>
      </trkpt>
      <trkpt lat="43.65684" lon="5.86087">
        <ele>417</ele>
        <time>2016-04-10T09:39:27.158Z</time>
      </trkpt>
      <trkpt lat="43.65687" lon="5.86082">
        <ele>418</ele>
        <time>2016-04-10T09:39:28.159Z</time>
      </trkpt>
      <trkpt lat="43.6569" lon="5.86077">
        <ele>417</ele>
        <time>2016-04-10T09:39:29.160Z</time>
      </trkpt>
      <trkpt lat="43.65694" lon="5.86072">
        <ele>418</ele>
        <time>2016-04-10T09:39:30.127Z</time>
      </trkpt>
      <trkpt lat="43.65702" lon="5.86067">
        <ele>415</ele>
        <time>2016-04-10T09:39:32.320Z</time>
      </trkpt>
      <trkpt lat="43.65706" lon="5.86064">
        <ele>414</ele>
        <time>2016-04-10T09:39:33.129Z</time>
      </trkpt>
      <trkpt lat="43.65711" lon="5.8606">
        <ele>413</ele>
        <time>2016-04-10T09:39:34.161Z</time>
      </trkpt>
      <trkpt lat="43.65715" lon="5.86056">
        <ele>412</ele>
        <time>2016-04-10T09:39:35.128Z</time>
      </trkpt>
      <trkpt lat="43.65719" lon="5.8605">
        <ele>413</ele>
        <time>2016-04-10T09:39:36.159Z</time>
      </trkpt>
      <trkpt lat="43.65724" lon="5.86045">
        <ele>414</ele>
        <time>2016-04-10T09:39:37.127Z</time>
      </trkpt>
      <trkpt lat="43.65728" lon="5.8604">
        <ele>410</ele>
        <time>2016-04-10T09:39:38.207Z</time>
      </trkpt>
      <trkpt lat="43.65731" lon="5.86037">
        <ele>410</ele>
        <time>2016-04-10T09:39:39.129Z</time>
      </trkpt>
      <trkpt lat="43.65733" lon="5.86032">
        <ele>407</ele>
        <time>2016-04-10T09:39:40.159Z</time>
      </trkpt>
      <trkpt lat="43.65738" lon="5.86028">
        <ele>407</ele>
        <time>2016-04-10T09:39:41.132Z</time>
      </trkpt>
      <trkpt lat="43.65744" lon="5.86025">
        <ele>407</ele>
        <time>2016-04-10T09:39:42.159Z</time>
      </trkpt>
      <trkpt lat="43.65749" lon="5.86021">
        <ele>407</ele>
        <time>2016-04-10T09:39:43.132Z</time>
      </trkpt>
      <trkpt lat="43.65751" lon="5.86016">
        <ele>408</ele>
        <time>2016-04-10T09:39:44.161Z</time>
      </trkpt>
      <trkpt lat="43.65754" lon="5.8601">
        <ele>409</ele>
        <time>2016-04-10T09:39:45.132Z</time>
      </trkpt>
      <trkpt lat="43.65758" lon="5.86005">
        <ele>408</ele>
        <time>2016-04-10T09:39:46.139Z</time>
      </trkpt>
      <trkpt lat="43.65761" lon="5.86">
        <ele>409</ele>
        <time>2016-04-10T09:39:47.119Z</time>
      </trkpt>
      <trkpt lat="43.65765" lon="5.85995">
        <ele>410</ele>
        <time>2016-04-10T09:39:48.161Z</time>
      </trkpt>
      <trkpt lat="43.65769" lon="5.85991">
        <ele>411</ele>
        <time>2016-04-10T09:39:49.161Z</time>
      </trkpt>
      <trkpt lat="43.65774" lon="5.85981">
        <ele>411</ele>
        <time>2016-04-10T09:39:51.154Z</time>
      </trkpt>
      <trkpt lat="43.65778" lon="5.85976">
        <ele>409</ele>
        <time>2016-04-10T09:39:52.128Z</time>
      </trkpt>
      <trkpt lat="43.65781" lon="5.85971">
        <ele>409</ele>
        <time>2016-04-10T09:39:53.154Z</time>
      </trkpt>
      <trkpt lat="43.65785" lon="5.85967">
        <ele>410</ele>
        <time>2016-04-10T09:39:54.132Z</time>
      </trkpt>
      <trkpt lat="43.65789" lon="5.85962">
        <ele>410</ele>
        <time>2016-04-10T09:39:55.159Z</time>
      </trkpt>
      <trkpt lat="43.65793" lon="5.85958">
        <ele>410</ele>
        <time>2016-04-10T09:39:56.132Z</time>
      </trkpt>
      <trkpt lat="43.65797" lon="5.85953">
        <ele>410</ele>
        <time>2016-04-10T09:39:57.184Z</time>
      </trkpt>
      <trkpt lat="43.65801" lon="5.85949">
        <ele>410</ele>
        <time>2016-04-10T09:39:58.133Z</time>
      </trkpt>
      <trkpt lat="43.65805" lon="5.85944">
        <ele>410</ele>
        <time>2016-04-10T09:39:59.157Z</time>
      </trkpt>
      <trkpt lat="43.65809" lon="5.85939">
        <ele>412</ele>
        <time>2016-04-10T09:40:00.136Z</time>
      </trkpt>
      <trkpt lat="43.65813" lon="5.85934">
        <ele>411</ele>
        <time>2016-04-10T09:40:01.391Z</time>
      </trkpt>
      <trkpt lat="43.65816" lon="5.8593">
        <ele>412</ele>
        <time>2016-04-10T09:40:02.131Z</time>
      </trkpt>
      <trkpt lat="43.65821" lon="5.85922">
        <ele>410</ele>
        <time>2016-04-10T09:40:04.158Z</time>
      </trkpt>
      <trkpt lat="43.65824" lon="5.85918">
        <ele>410</ele>
        <time>2016-04-10T09:40:05.132Z</time>
      </trkpt>
      <trkpt lat="43.65828" lon="5.85909">
        <ele>411</ele>
        <time>2016-04-10T09:40:08.160Z</time>
      </trkpt>
      <trkpt lat="43.6583" lon="5.85906">
        <ele>410</ele>
        <time>2016-04-10T09:40:09.128Z</time>
      </trkpt>
      <trkpt lat="43.65833" lon="5.85894">
        <ele>403</ele>
        <time>2016-04-10T09:40:26.161Z</time>
      </trkpt>
      <trkpt lat="43.65833" lon="5.85894">
        <ele>403</ele>
        <time>2016-04-10T09:40:27.132Z</time>
      </trkpt>
      <trkpt lat="43.6584" lon="5.85891">
        <ele>406</ele>
        <time>2016-04-10T09:40:36.146Z</time>
      </trkpt>
      <trkpt lat="43.65842" lon="5.85889">
        <ele>407</ele>
        <time>2016-04-10T09:40:37.157Z</time>
      </trkpt>
      <trkpt lat="43.65846" lon="5.85884">
        <ele>408</ele>
        <time>2016-04-10T09:40:39.156Z</time>
      </trkpt>
      <trkpt lat="43.65849" lon="5.8588">
        <ele>409</ele>
        <time>2016-04-10T09:40:40.133Z</time>
      </trkpt>
      <trkpt lat="43.65855" lon="5.85872">
        <ele>409</ele>
        <time>2016-04-10T09:40:42.193Z</time>
      </trkpt>
      <trkpt lat="43.65858" lon="5.85869">
        <ele>410</ele>
        <time>2016-04-10T09:40:43.134Z</time>
      </trkpt>
      <trkpt lat="43.65864" lon="5.85861">
        <ele>410</ele>
        <time>2016-04-10T09:40:45.161Z</time>
      </trkpt>
      <trkpt lat="43.65867" lon="5.85857">
        <ele>410</ele>
        <time>2016-04-10T09:40:46.129Z</time>
      </trkpt>
      <trkpt lat="43.65872" lon="5.85848">
        <ele>407</ele>
        <time>2016-04-10T09:40:48.159Z</time>
      </trkpt>
      <trkpt lat="43.65875" lon="5.85844">
        <ele>408</ele>
        <time>2016-04-10T09:40:49.132Z</time>
      </trkpt>
      <trkpt lat="43.6588" lon="5.85837">
        <ele>408</ele>
        <time>2016-04-10T09:40:51.160Z</time>
      </trkpt>
      <trkpt lat="43.65883" lon="5.85835">
        <ele>409</ele>
        <time>2016-04-10T09:40:52.128Z</time>
      </trkpt>
      <trkpt lat="43.65891" lon="5.85839">
        <ele>410</ele>
        <time>2016-04-10T09:40:55.171Z</time>
      </trkpt>
      <trkpt lat="43.65892" lon="5.85842">
        <ele>410</ele>
        <time>2016-04-10T09:40:56.128Z</time>
      </trkpt>
      <trkpt lat="43.65897" lon="5.85852">
        <ele>411</ele>
        <time>2016-04-10T09:40:59.167Z</time>
      </trkpt>
      <trkpt lat="43.65898" lon="5.85854">
        <ele>411</ele>
        <time>2016-04-10T09:41:00.137Z</time>
      </trkpt>
      <trkpt lat="43.65904" lon="5.85863">
        <ele>413</ele>
        <time>2016-04-10T09:41:04.159Z</time>
      </trkpt>
      <trkpt lat="43.65905" lon="5.85865">
        <ele>413</ele>
        <time>2016-04-10T09:41:05.135Z</time>
      </trkpt>
      <trkpt lat="43.6591" lon="5.85873">
        <ele>415</ele>
        <time>2016-04-10T09:41:08.160Z</time>
      </trkpt>
      <trkpt lat="43.65911" lon="5.85875">
        <ele>415</ele>
        <time>2016-04-10T09:41:09.134Z</time>
      </trkpt>
      <trkpt lat="43.65915" lon="5.85883">
        <ele>414</ele>
        <time>2016-04-10T09:41:12.204Z</time>
      </trkpt>
      <trkpt lat="43.65916" lon="5.85886">
        <ele>415</ele>
        <time>2016-04-10T09:41:13.134Z</time>
      </trkpt>
      <trkpt lat="43.65922" lon="5.85895">
        <ele>413</ele>
        <time>2016-04-10T09:41:17.166Z</time>
      </trkpt>
      <trkpt lat="43.65923" lon="5.85898">
        <ele>413</ele>
        <time>2016-04-10T09:41:18.128Z</time>
      </trkpt>
      <trkpt lat="43.65928" lon="5.85904">
        <ele>412</ele>
        <time>2016-04-10T09:41:21.165Z</time>
      </trkpt>
      <trkpt lat="43.6593" lon="5.85906">
        <ele>412</ele>
        <time>2016-04-10T09:41:22.139Z</time>
      </trkpt>
      <trkpt lat="43.65936" lon="5.85912">
        <ele>412</ele>
        <time>2016-04-10T09:41:25.195Z</time>
      </trkpt>
      <trkpt lat="43.65937" lon="5.85914">
        <ele>412</ele>
        <time>2016-04-10T09:41:26.128Z</time>
      </trkpt>
      <trkpt lat="43.65943" lon="5.85922">
        <ele>412</ele>
        <time>2016-04-10T09:41:30.159Z</time>
      </trkpt>
      <trkpt lat="43.65944" lon="5.85924">
        <ele>413</ele>
        <time>2016-04-10T09:41:31.133Z</time>
      </trkpt>
      <trkpt lat="43.6595" lon="5.85933">
        <ele>414</ele>
        <time>2016-04-10T09:41:35.168Z</time>
      </trkpt>
      <trkpt lat="43.65951" lon="5.85935">
        <ele>414</ele>
        <time>2016-04-10T09:41:36.134Z</time>
      </trkpt>
      <trkpt lat="43.65957" lon="5.85942">
        <ele>414</ele>
        <time>2016-04-10T09:41:40.161Z</time>
      </trkpt>
      <trkpt lat="43.65958" lon="5.85944">
        <ele>415</ele>
        <time>2016-04-10T09:41:41.163Z</time>
      </trkpt>
      <trkpt lat="43.65963" lon="5.85952">
        <ele>416</ele>
        <time>2016-04-10T09:41:45.165Z</time>
      </trkpt>
      <trkpt lat="43.65964" lon="5.85954">
        <ele>416</ele>
        <time>2016-04-10T09:41:46.133Z</time>
      </trkpt>
      <trkpt lat="43.65971" lon="5.8596">
        <ele>417</ele>
        <time>2016-04-10T09:41:50.204Z</time>
      </trkpt>
      <trkpt lat="43.65972" lon="5.85962">
        <ele>417</ele>
        <time>2016-04-10T09:41:51.132Z</time>
      </trkpt>
      <trkpt lat="43.6598" lon="5.85963">
        <ele>416</ele>
        <time>2016-04-10T09:41:57.182Z</time>
      </trkpt>
      <trkpt lat="43.65981" lon="5.85961">
        <ele>416</ele>
        <time>2016-04-10T09:41:58.129Z</time>
      </trkpt>
      <trkpt lat="43.65986" lon="5.85953">
        <ele>416</ele>
        <time>2016-04-10T09:42:02.160Z</time>
      </trkpt>
      <trkpt lat="43.65987" lon="5.8595">
        <ele>416</ele>
        <time>2016-04-10T09:42:03.131Z</time>
      </trkpt>
      <trkpt lat="43.65991" lon="5.85939">
        <ele>419</ele>
        <time>2016-04-10T09:42:07.161Z</time>
      </trkpt>
      <trkpt lat="43.65992" lon="5.85937">
        <ele>419</ele>
        <time>2016-04-10T09:42:08.135Z</time>
      </trkpt>
      <trkpt lat="43.65999" lon="5.85928">
        <ele>420</ele>
        <time>2016-04-10T09:42:13.190Z</time>
      </trkpt>
      <trkpt lat="43.66" lon="5.85927">
        <ele>420</ele>
        <time>2016-04-10T09:42:14.129Z</time>
      </trkpt>
      <trkpt lat="43.66004" lon="5.8592">
        <ele>419</ele>
        <time>2016-04-10T09:42:17.159Z</time>
      </trkpt>
      <trkpt lat="43.66005" lon="5.85916">
        <ele>419</ele>
        <time>2016-04-10T09:42:18.128Z</time>
      </trkpt>
      <trkpt lat="43.66011" lon="5.8591">
        <ele>419</ele>
        <time>2016-04-10T09:42:21.159Z</time>
      </trkpt>
      <trkpt lat="43.66013" lon="5.85909">
        <ele>419</ele>
        <time>2016-04-10T09:42:22.133Z</time>
      </trkpt>
      <trkpt lat="43.6602" lon="5.85907">
        <ele>420</ele>
        <time>2016-04-10T09:42:25.160Z</time>
      </trkpt>
      <trkpt lat="43.66022" lon="5.85906">
        <ele>421</ele>
        <time>2016-04-10T09:42:26.128Z</time>
      </trkpt>
      <trkpt lat="43.66031" lon="5.85905">
        <ele>423</ele>
        <time>2016-04-10T09:42:30.159Z</time>
      </trkpt>
      <trkpt lat="43.66033" lon="5.85904">
        <ele>425</ele>
        <time>2016-04-10T09:42:31.355Z</time>
      </trkpt>
      <trkpt lat="43.66039" lon="5.859">
        <ele>427</ele>
        <time>2016-04-10T09:42:33.159Z</time>
      </trkpt>
      <trkpt lat="43.66041" lon="5.85897">
        <ele>429</ele>
        <time>2016-04-10T09:42:34.133Z</time>
      </trkpt>
      <trkpt lat="43.66048" lon="5.85893">
        <ele>429</ele>
        <time>2016-04-10T09:42:36.131Z</time>
      </trkpt>
      <trkpt lat="43.66051" lon="5.85892">
        <ele>427</ele>
        <time>2016-04-10T09:42:37.136Z</time>
      </trkpt>
      <trkpt lat="43.66058" lon="5.85889">
        <ele>424</ele>
        <time>2016-04-10T09:42:39.161Z</time>
      </trkpt>
      <trkpt lat="43.66061" lon="5.85887">
        <ele>424</ele>
        <time>2016-04-10T09:42:40.164Z</time>
      </trkpt>
      <trkpt lat="43.66068" lon="5.85885">
        <ele>425</ele>
        <time>2016-04-10T09:42:42.160Z</time>
      </trkpt>
      <trkpt lat="43.66071" lon="5.85884">
        <ele>425</ele>
        <time>2016-04-10T09:42:43.131Z</time>
      </trkpt>
      <trkpt lat="43.66077" lon="5.8588">
        <ele>424</ele>
        <time>2016-04-10T09:42:45.160Z</time>
      </trkpt>
      <trkpt lat="43.66081" lon="5.85878">
        <ele>423</ele>
        <time>2016-04-10T09:42:46.134Z</time>
      </trkpt>
      <trkpt lat="43.66087" lon="5.85875">
        <ele>423</ele>
        <time>2016-04-10T09:42:48.158Z</time>
      </trkpt>
      <trkpt lat="43.66091" lon="5.85874">
        <ele>423</ele>
        <time>2016-04-10T09:42:49.143Z</time>
      </trkpt>
      <trkpt lat="43.66098" lon="5.85872">
        <ele>423</ele>
        <time>2016-04-10T09:42:51.157Z</time>
      </trkpt>
      <trkpt lat="43.66102" lon="5.8587">
        <ele>422</ele>
        <time>2016-04-10T09:42:52.135Z</time>
      </trkpt>
      <trkpt lat="43.66109" lon="5.85868">
        <ele>420</ele>
        <time>2016-04-10T09:42:54.157Z</time>
      </trkpt>
      <trkpt lat="43.66113" lon="5.85868">
        <ele>421</ele>
        <time>2016-04-10T09:42:55.137Z</time>
      </trkpt>
      <trkpt lat="43.6612" lon="5.85868">
        <ele>421</ele>
        <time>2016-04-10T09:42:57.156Z</time>
      </trkpt>
      <trkpt lat="43.66123" lon="5.85868">
        <ele>421</ele>
        <time>2016-04-10T09:42:58.132Z</time>
      </trkpt>
      <trkpt lat="43.6613" lon="5.85865">
        <ele>421</ele>
        <time>2016-04-10T09:43:00.167Z</time>
      </trkpt>
      <trkpt lat="43.66132" lon="5.85862">
        <ele>422</ele>
        <time>2016-04-10T09:43:01.132Z</time>
      </trkpt>
      <trkpt lat="43.66138" lon="5.85858">
        <ele>421</ele>
        <time>2016-04-10T09:43:03.159Z</time>
      </trkpt>
      <trkpt lat="43.66141" lon="5.85855">
        <ele>421</ele>
        <time>2016-04-10T09:43:04.133Z</time>
      </trkpt>
      <trkpt lat="43.66149" lon="5.8585">
        <ele>421</ele>
        <time>2016-04-10T09:43:07.159Z</time>
      </trkpt>
      <trkpt lat="43.66152" lon="5.8585">
        <ele>421</ele>
        <time>2016-04-10T09:43:08.144Z</time>
      </trkpt>
      <trkpt lat="43.66161" lon="5.85848">
        <ele>422</ele>
        <time>2016-04-10T09:43:11.159Z</time>
      </trkpt>
      <trkpt lat="43.66163" lon="5.85847">
        <ele>423</ele>
        <time>2016-04-10T09:43:12.160Z</time>
      </trkpt>
      <trkpt lat="43.6617" lon="5.85841">
        <ele>423</ele>
        <time>2016-04-10T09:43:15.159Z</time>
      </trkpt>
      <trkpt lat="43.66173" lon="5.85838">
        <ele>422</ele>
        <time>2016-04-10T09:43:16.134Z</time>
      </trkpt>
      <trkpt lat="43.66176" lon="5.85831">
        <ele>420</ele>
        <time>2016-04-10T09:43:18.160Z</time>
      </trkpt>
      <trkpt lat="43.66178" lon="5.85827">
        <ele>420</ele>
        <time>2016-04-10T09:43:19.146Z</time>
      </trkpt>
      <trkpt lat="43.66182" lon="5.8582">
        <ele>420</ele>
        <time>2016-04-10T09:43:21.159Z</time>
      </trkpt>
      <trkpt lat="43.66183" lon="5.85816">
        <ele>421</ele>
        <time>2016-04-10T09:43:22.133Z</time>
      </trkpt>
      <trkpt lat="43.66188" lon="5.85811">
        <ele>420</ele>
        <time>2016-04-10T09:43:24.158Z</time>
      </trkpt>
      <trkpt lat="43.66191" lon="5.85808">
        <ele>421</ele>
        <time>2016-04-10T09:43:25.132Z</time>
      </trkpt>
      <trkpt lat="43.66197" lon="5.85805">
        <ele>422</ele>
        <time>2016-04-10T09:43:27.170Z</time>
      </trkpt>
      <trkpt lat="43.66199" lon="5.85803">
        <ele>421</ele>
        <time>2016-04-10T09:43:28.160Z</time>
      </trkpt>
      <trkpt lat="43.66207" lon="5.85798">
        <ele>421</ele>
        <time>2016-04-10T09:43:31.160Z</time>
      </trkpt>
      <trkpt lat="43.66209" lon="5.85796">
        <ele>421</ele>
        <time>2016-04-10T09:43:32.130Z</time>
      </trkpt>
      <trkpt lat="43.66217" lon="5.8579">
        <ele>422</ele>
        <time>2016-04-10T09:43:35.164Z</time>
      </trkpt>
      <trkpt lat="43.66219" lon="5.85788">
        <ele>423</ele>
        <time>2016-04-10T09:43:36.129Z</time>
      </trkpt>
      <trkpt lat="43.66227" lon="5.85781">
        <ele>423</ele>
        <time>2016-04-10T09:43:39.160Z</time>
      </trkpt>
      <trkpt lat="43.66229" lon="5.85779">
        <ele>424</ele>
        <time>2016-04-10T09:43:40.134Z</time>
      </trkpt>
      <trkpt lat="43.66233" lon="5.85769">
        <ele>421</ele>
        <time>2016-04-10T09:43:43.164Z</time>
      </trkpt>
      <trkpt lat="43.66234" lon="5.85765">
        <ele>420</ele>
        <time>2016-04-10T09:43:44.133Z</time>
      </trkpt>
      <trkpt lat="43.66238" lon="5.85758">
        <ele>420</ele>
        <time>2016-04-10T09:43:46.160Z</time>
      </trkpt>
      <trkpt lat="43.66241" lon="5.85755">
        <ele>420</ele>
        <time>2016-04-10T09:43:47.133Z</time>
      </trkpt>
      <trkpt lat="43.66247" lon="5.85754">
        <ele>421</ele>
        <time>2016-04-10T09:43:49.191Z</time>
      </trkpt>
      <trkpt lat="43.6625" lon="5.85754">
        <ele>421</ele>
        <time>2016-04-10T09:43:50.134Z</time>
      </trkpt>
      <trkpt lat="43.66258" lon="5.85757">
        <ele>422</ele>
        <time>2016-04-10T09:43:54.160Z</time>
      </trkpt>
      <trkpt lat="43.6626" lon="5.85757">
        <ele>422</ele>
        <time>2016-04-10T09:43:55.133Z</time>
      </trkpt>
      <trkpt lat="43.66268" lon="5.85754">
        <ele>423</ele>
        <time>2016-04-10T09:43:59.155Z</time>
      </trkpt>
      <trkpt lat="43.6627" lon="5.85753">
        <ele>424</ele>
        <time>2016-04-10T09:44:00.136Z</time>
      </trkpt>
      <trkpt lat="43.66277" lon="5.85748">
        <ele>425</ele>
        <time>2016-04-10T09:44:04.159Z</time>
      </trkpt>
      <trkpt lat="43.66279" lon="5.85747">
        <ele>426</ele>
        <time>2016-04-10T09:44:05.133Z</time>
      </trkpt>
      <trkpt lat="43.66285" lon="5.85738">
        <ele>426</ele>
        <time>2016-04-10T09:44:09.158Z</time>
      </trkpt>
      <trkpt lat="43.66287" lon="5.85736">
        <ele>426</ele>
        <time>2016-04-10T09:44:10.171Z</time>
      </trkpt>
      <trkpt lat="43.66293" lon="5.85727">
        <ele>428</ele>
        <time>2016-04-10T09:44:14.160Z</time>
      </trkpt>
      <trkpt lat="43.66295" lon="5.85726">
        <ele>427</ele>
        <time>2016-04-10T09:44:15.132Z</time>
      </trkpt>
      <trkpt lat="43.66303" lon="5.85721">
        <ele>425</ele>
        <time>2016-04-10T09:44:19.163Z</time>
      </trkpt>
      <trkpt lat="43.66305" lon="5.85719">
        <ele>427</ele>
        <time>2016-04-10T09:44:20.133Z</time>
      </trkpt>
      <trkpt lat="43.66311" lon="5.85712">
        <ele>428</ele>
        <time>2016-04-10T09:44:24.160Z</time>
      </trkpt>
      <trkpt lat="43.66312" lon="5.85712">
        <ele>428</ele>
        <time>2016-04-10T09:44:25.128Z</time>
      </trkpt>
      <trkpt lat="43.66318" lon="5.85706">
        <ele>430</ele>
        <time>2016-04-10T09:44:35.214Z</time>
      </trkpt>
      <trkpt lat="43.66321" lon="5.85704">
        <ele>431</ele>
        <time>2016-04-10T09:44:36.120Z</time>
      </trkpt>
      <trkpt lat="43.66327" lon="5.857">
        <ele>432</ele>
        <time>2016-04-10T09:44:39.164Z</time>
      </trkpt>
      <trkpt lat="43.66329" lon="5.85698">
        <ele>431</ele>
        <time>2016-04-10T09:44:40.132Z</time>
      </trkpt>
      <trkpt lat="43.66335" lon="5.85692">
        <ele>432</ele>
        <time>2016-04-10T09:44:43.160Z</time>
      </trkpt>
      <trkpt lat="43.66337" lon="5.8569">
        <ele>431</ele>
        <time>2016-04-10T09:44:44.134Z</time>
      </trkpt>
      <trkpt lat="43.66343" lon="5.85685">
        <ele>430</ele>
        <time>2016-04-10T09:44:47.155Z</time>
      </trkpt>
      <trkpt lat="43.66345" lon="5.85684">
        <ele>430</ele>
        <time>2016-04-10T09:44:48.162Z</time>
      </trkpt>
      <trkpt lat="43.66352" lon="5.85678">
        <ele>431</ele>
        <time>2016-04-10T09:44:52.160Z</time>
      </trkpt>
      <trkpt lat="43.66354" lon="5.85676">
        <ele>432</ele>
        <time>2016-04-10T09:44:53.132Z</time>
      </trkpt>
      <trkpt lat="43.66361" lon="5.85671">
        <ele>433</ele>
        <time>2016-04-10T09:44:57.238Z</time>
      </trkpt>
      <trkpt lat="43.66363" lon="5.8567">
        <ele>433</ele>
        <time>2016-04-10T09:44:58.135Z</time>
      </trkpt>
      <trkpt lat="43.6637" lon="5.85663">
        <ele>432</ele>
        <time>2016-04-10T09:45:03.159Z</time>
      </trkpt>
      <trkpt lat="43.66372" lon="5.85662">
        <ele>432</ele>
        <time>2016-04-10T09:45:04.160Z</time>
      </trkpt>
      <trkpt lat="43.66379" lon="5.85656">
        <ele>432</ele>
        <time>2016-04-10T09:45:09.160Z</time>
      </trkpt>
      <trkpt lat="43.6638" lon="5.85654">
        <ele>432</ele>
        <time>2016-04-10T09:45:10.132Z</time>
      </trkpt>
      <trkpt lat="43.66386" lon="5.85648">
        <ele>432</ele>
        <time>2016-04-10T09:45:14.159Z</time>
      </trkpt>
      <trkpt lat="43.66388" lon="5.85647">
        <ele>432</ele>
        <time>2016-04-10T09:45:15.132Z</time>
      </trkpt>
      <trkpt lat="43.66395" lon="5.85643">
        <ele>432</ele>
        <time>2016-04-10T09:45:20.186Z</time>
      </trkpt>
      <trkpt lat="43.66397" lon="5.85643">
        <ele>432</ele>
        <time>2016-04-10T09:45:21.127Z</time>
      </trkpt>
      <trkpt lat="43.66404" lon="5.85639">
        <ele>433</ele>
        <time>2016-04-10T09:45:26.160Z</time>
      </trkpt>
      <trkpt lat="43.66406" lon="5.85638">
        <ele>433</ele>
        <time>2016-04-10T09:45:27.134Z</time>
      </trkpt>
      <trkpt lat="43.66413" lon="5.85634">
        <ele>435</ele>
        <time>2016-04-10T09:45:32.158Z</time>
      </trkpt>
      <trkpt lat="43.66415" lon="5.85634">
        <ele>435</ele>
        <time>2016-04-10T09:45:33.133Z</time>
      </trkpt>
      <trkpt lat="43.66422" lon="5.85636">
        <ele>437</ele>
        <time>2016-04-10T09:45:38.159Z</time>
      </trkpt>
      <trkpt lat="43.66424" lon="5.85635">
        <ele>437</ele>
        <time>2016-04-10T09:45:39.138Z</time>
      </trkpt>
      <trkpt lat="43.66431" lon="5.85632">
        <ele>438</ele>
        <time>2016-04-10T09:45:44.169Z</time>
      </trkpt>
      <trkpt lat="43.66433" lon="5.85631">
        <ele>438</ele>
        <time>2016-04-10T09:45:45.134Z</time>
      </trkpt>
      <trkpt lat="43.66438" lon="5.85625">
        <ele>437</ele>
        <time>2016-04-10T09:45:48.164Z</time>
      </trkpt>
      <trkpt lat="43.6644" lon="5.85623">
        <ele>437</ele>
        <time>2016-04-10T09:45:49.132Z</time>
      </trkpt>
      <trkpt lat="43.66447" lon="5.85616">
        <ele>437</ele>
        <time>2016-04-10T09:45:52.154Z</time>
      </trkpt>
      <trkpt lat="43.66449" lon="5.85615">
        <ele>436</ele>
        <time>2016-04-10T09:45:53.128Z</time>
      </trkpt>
      <trkpt lat="43.66456" lon="5.85608">
        <ele>436</ele>
        <time>2016-04-10T09:45:56.159Z</time>
      </trkpt>
      <trkpt lat="43.66459" lon="5.85606">
        <ele>436</ele>
        <time>2016-04-10T09:45:57.159Z</time>
      </trkpt>
      <trkpt lat="43.66464" lon="5.85598">
        <ele>435</ele>
        <time>2016-04-10T09:45:59.214Z</time>
      </trkpt>
      <trkpt lat="43.66466" lon="5.85593">
        <ele>435</ele>
        <time>2016-04-10T09:46:00.137Z</time>
      </trkpt>
      <trkpt lat="43.66469" lon="5.85585">
        <ele>434</ele>
        <time>2016-04-10T09:46:01.159Z</time>
      </trkpt>
      <trkpt lat="43.66472" lon="5.8558">
        <ele>434</ele>
        <time>2016-04-10T09:46:02.135Z</time>
      </trkpt>
      <trkpt lat="43.66476" lon="5.85574">
        <ele>434</ele>
        <time>2016-04-10T09:46:03.164Z</time>
      </trkpt>
      <trkpt lat="43.66479" lon="5.85568">
        <ele>434</ele>
        <time>2016-04-10T09:46:04.128Z</time>
      </trkpt>
      <trkpt lat="43.66484" lon="5.85561">
        <ele>434</ele>
        <time>2016-04-10T09:46:06.153Z</time>
      </trkpt>
      <trkpt lat="43.66487" lon="5.8556">
        <ele>433</ele>
        <time>2016-04-10T09:46:07.128Z</time>
      </trkpt>
      <trkpt lat="43.66494" lon="5.85563">
        <ele>435</ele>
        <time>2016-04-10T09:46:09.164Z</time>
      </trkpt>
      <trkpt lat="43.66497" lon="5.85564">
        <ele>436</ele>
        <time>2016-04-10T09:46:10.132Z</time>
      </trkpt>
      <trkpt lat="43.66504" lon="5.85564">
        <ele>438</ele>
        <time>2016-04-10T09:46:13.183Z</time>
      </trkpt>
      <trkpt lat="43.66506" lon="5.85563">
        <ele>440</ele>
        <time>2016-04-10T09:46:14.133Z</time>
      </trkpt>
      <trkpt lat="43.66513" lon="5.85557">
        <ele>439</ele>
        <time>2016-04-10T09:46:18.159Z</time>
      </trkpt>
      <trkpt lat="43.66516" lon="5.85557">
        <ele>440</ele>
        <time>2016-04-10T09:46:19.128Z</time>
      </trkpt>
      <trkpt lat="43.66524" lon="5.85557">
        <ele>440</ele>
        <time>2016-04-10T09:46:22.159Z</time>
      </trkpt>
      <trkpt lat="43.66527" lon="5.85556">
        <ele>441</ele>
        <time>2016-04-10T09:46:23.122Z</time>
      </trkpt>
      <trkpt lat="43.66534" lon="5.8555">
        <ele>441</ele>
        <time>2016-04-10T09:46:26.159Z</time>
      </trkpt>
      <trkpt lat="43.66537" lon="5.85549">
        <ele>441</ele>
        <time>2016-04-10T09:46:27.135Z</time>
      </trkpt>
      <trkpt lat="43.66545" lon="5.85546">
        <ele>442</ele>
        <time>2016-04-10T09:46:30.163Z</time>
      </trkpt>
      <trkpt lat="43.66547" lon="5.85545">
        <ele>442</ele>
        <time>2016-04-10T09:46:31.133Z</time>
      </trkpt>
      <trkpt lat="43.66555" lon="5.85542">
        <ele>442</ele>
        <time>2016-04-10T09:46:34.222Z</time>
      </trkpt>
      <trkpt lat="43.66557" lon="5.85542">
        <ele>442</ele>
        <time>2016-04-10T09:46:35.132Z</time>
      </trkpt>
      <trkpt lat="43.66564" lon="5.8554">
        <ele>442</ele>
        <time>2016-04-10T09:46:38.154Z</time>
      </trkpt>
      <trkpt lat="43.66567" lon="5.8554">
        <ele>440</ele>
        <time>2016-04-10T09:46:39.134Z</time>
      </trkpt>
      <trkpt lat="43.66574" lon="5.85541">
        <ele>441</ele>
        <time>2016-04-10T09:46:42.158Z</time>
      </trkpt>
      <trkpt lat="43.66576" lon="5.8554">
        <ele>441</ele>
        <time>2016-04-10T09:46:43.133Z</time>
      </trkpt>
      <trkpt lat="43.66584" lon="5.85539">
        <ele>442</ele>
        <time>2016-04-10T09:46:46.160Z</time>
      </trkpt>
      <trkpt lat="43.66587" lon="5.85539">
        <ele>443</ele>
        <time>2016-04-10T09:46:47.128Z</time>
      </trkpt>
      <trkpt lat="43.66594" lon="5.85536">
        <ele>444</ele>
        <time>2016-04-10T09:46:50.165Z</time>
      </trkpt>
      <trkpt lat="43.66596" lon="5.85536">
        <ele>445</ele>
        <time>2016-04-10T09:46:51.128Z</time>
      </trkpt>
      <trkpt lat="43.66605" lon="5.85538">
        <ele>444</ele>
        <time>2016-04-10T09:46:55.160Z</time>
      </trkpt>
      <trkpt lat="43.66607" lon="5.85539">
        <ele>444</ele>
        <time>2016-04-10T09:46:56.133Z</time>
      </trkpt>
      <trkpt lat="43.66616" lon="5.85537">
        <ele>445</ele>
        <time>2016-04-10T09:47:00.167Z</time>
      </trkpt>
      <trkpt lat="43.66618" lon="5.85535">
        <ele>445</ele>
        <time>2016-04-10T09:47:01.161Z</time>
      </trkpt>
      <trkpt lat="43.66625" lon="5.85532">
        <ele>447</ele>
        <time>2016-04-10T09:47:04.162Z</time>
      </trkpt>
      <trkpt lat="43.66628" lon="5.85531">
        <ele>445</ele>
        <time>2016-04-10T09:47:05.133Z</time>
      </trkpt>
      <trkpt lat="43.66636" lon="5.85526">
        <ele>444</ele>
        <time>2016-04-10T09:47:08.164Z</time>
      </trkpt>
      <trkpt lat="43.66639" lon="5.85525">
        <ele>444</ele>
        <time>2016-04-10T09:47:09.128Z</time>
      </trkpt>
      <trkpt lat="43.66645" lon="5.85524">
        <ele>445</ele>
        <time>2016-04-10T09:47:11.159Z</time>
      </trkpt>
      <trkpt lat="43.66648" lon="5.85523">
        <ele>446</ele>
        <time>2016-04-10T09:47:12.159Z</time>
      </trkpt>
      <trkpt lat="43.66653" lon="5.85519">
        <ele>446</ele>
        <time>2016-04-10T09:47:14.154Z</time>
      </trkpt>
      <trkpt lat="43.66656" lon="5.85517">
        <ele>446</ele>
        <time>2016-04-10T09:47:15.129Z</time>
      </trkpt>
      <trkpt lat="43.66665" lon="5.85514">
        <ele>447</ele>
        <time>2016-04-10T09:47:18.162Z</time>
      </trkpt>
      <trkpt lat="43.66668" lon="5.85514">
        <ele>446</ele>
        <time>2016-04-10T09:47:19.132Z</time>
      </trkpt>
      <trkpt lat="43.66676" lon="5.85513">
        <ele>448</ele>
        <time>2016-04-10T09:47:22.156Z</time>
      </trkpt>
      <trkpt lat="43.66679" lon="5.85513">
        <ele>448</ele>
        <time>2016-04-10T09:47:23.133Z</time>
      </trkpt>
      <trkpt lat="43.66685" lon="5.85514">
        <ele>448</ele>
        <time>2016-04-10T09:47:25.155Z</time>
      </trkpt>
      <trkpt lat="43.66688" lon="5.85514">
        <ele>447</ele>
        <time>2016-04-10T09:47:26.132Z</time>
      </trkpt>
      <trkpt lat="43.66694" lon="5.85515">
        <ele>447</ele>
        <time>2016-04-10T09:47:28.191Z</time>
      </trkpt>
      <trkpt lat="43.66698" lon="5.85514">
        <ele>447</ele>
        <time>2016-04-10T09:47:29.128Z</time>
      </trkpt>
      <trkpt lat="43.66705" lon="5.85514">
        <ele>447</ele>
        <time>2016-04-10T09:47:31.159Z</time>
      </trkpt>
      <trkpt lat="43.66708" lon="5.85513">
        <ele>448</ele>
        <time>2016-04-10T09:47:32.133Z</time>
      </trkpt>
      <trkpt lat="43.66715" lon="5.85512">
        <ele>449</ele>
        <time>2016-04-10T09:47:34.155Z</time>
      </trkpt>
      <trkpt lat="43.66719" lon="5.85511">
        <ele>450</ele>
        <time>2016-04-10T09:47:35.133Z</time>
      </trkpt>
      <trkpt lat="43.66725" lon="5.8551">
        <ele>450</ele>
        <time>2016-04-10T09:47:37.160Z</time>
      </trkpt>
      <trkpt lat="43.66728" lon="5.8551">
        <ele>450</ele>
        <time>2016-04-10T09:47:38.134Z</time>
      </trkpt>
      <trkpt lat="43.66734" lon="5.85511">
        <ele>452</ele>
        <time>2016-04-10T09:47:40.155Z</time>
      </trkpt>
      <trkpt lat="43.66737" lon="5.85511">
        <ele>452</ele>
        <time>2016-04-10T09:47:41.134Z</time>
      </trkpt>
      <trkpt lat="43.66745" lon="5.85512">
        <ele>453</ele>
        <time>2016-04-10T09:47:44.155Z</time>
      </trkpt>
      <trkpt lat="43.66748" lon="5.85511">
        <ele>453</ele>
        <time>2016-04-10T09:47:45.133Z</time>
      </trkpt>
      <trkpt lat="43.66756" lon="5.85511">
        <ele>455</ele>
        <time>2016-04-10T09:47:48.160Z</time>
      </trkpt>
      <trkpt lat="43.66759" lon="5.8551">
        <ele>455</ele>
        <time>2016-04-10T09:47:49.161Z</time>
      </trkpt>
      <trkpt lat="43.66768" lon="5.8551">
        <ele>456</ele>
        <time>2016-04-10T09:47:52.155Z</time>
      </trkpt>
      <trkpt lat="43.66771" lon="5.85511">
        <ele>457</ele>
        <time>2016-04-10T09:47:53.132Z</time>
      </trkpt>
      <trkpt lat="43.66779" lon="5.85511">
        <ele>455</ele>
        <time>2016-04-10T09:47:56.159Z</time>
      </trkpt>
      <trkpt lat="43.66782" lon="5.85511">
        <ele>455</ele>
        <time>2016-04-10T09:47:57.132Z</time>
      </trkpt>
      <trkpt lat="43.6679" lon="5.85514">
        <ele>454</ele>
        <time>2016-04-10T09:48:00.154Z</time>
      </trkpt>
      <trkpt lat="43.66792" lon="5.85514">
        <ele>455</ele>
        <time>2016-04-10T09:48:01.133Z</time>
      </trkpt>
      <trkpt lat="43.66799" lon="5.85519">
        <ele>453</ele>
        <time>2016-04-10T09:48:06.159Z</time>
      </trkpt>
      <trkpt lat="43.668" lon="5.8552">
        <ele>454</ele>
        <time>2016-04-10T09:48:07.132Z</time>
      </trkpt>
      <trkpt lat="43.66803" lon="5.85531">
        <ele>455</ele>
        <time>2016-04-10T09:48:40.171Z</time>
      </trkpt>
      <trkpt lat="43.66804" lon="5.85532">
        <ele>455</ele>
        <time>2016-04-10T09:48:41.129Z</time>
      </trkpt>
      <trkpt lat="43.66806" lon="5.85543">
        <ele>455</ele>
        <time>2016-04-10T09:49:10.165Z</time>
      </trkpt>
      <trkpt lat="43.66807" lon="5.85545">
        <ele>456</ele>
        <time>2016-04-10T09:49:11.128Z</time>
      </trkpt>
      <trkpt lat="43.66812" lon="5.85554">
        <ele>456</ele>
        <time>2016-04-10T09:49:19.197Z</time>
      </trkpt>
      <trkpt lat="43.66813" lon="5.85555">
        <ele>455</ele>
        <time>2016-04-10T09:49:20.139Z</time>
      </trkpt>
      <trkpt lat="43.66817" lon="5.85564">
        <ele>457</ele>
        <time>2016-04-10T09:49:29.158Z</time>
      </trkpt>
      <trkpt lat="43.66818" lon="5.85565">
        <ele>458</ele>
        <time>2016-04-10T09:49:30.131Z</time>
      </trkpt>
      <trkpt lat="43.66824" lon="5.85574">
        <ele>458</ele>
        <time>2016-04-10T09:49:39.159Z</time>
      </trkpt>
      <trkpt lat="43.66824" lon="5.85575">
        <ele>458</ele>
        <time>2016-04-10T09:49:40.131Z</time>
      </trkpt>
      <trkpt lat="43.66832" lon="5.8558">
        <ele>460</ele>
        <time>2016-04-10T09:50:06.159Z</time>
      </trkpt>
      <trkpt lat="43.66833" lon="5.85581">
        <ele>460</ele>
        <time>2016-04-10T09:50:07.134Z</time>
      </trkpt>
      <trkpt lat="43.66842" lon="5.85583">
        <ele>462</ele>
        <time>2016-04-10T09:50:12.182Z</time>
      </trkpt>
      <trkpt lat="43.66844" lon="5.85583">
        <ele>462</ele>
        <time>2016-04-10T09:50:13.134Z</time>
      </trkpt>
      <trkpt lat="43.6685" lon="5.85584">
        <ele>463</ele>
        <time>2016-04-10T09:50:15.214Z</time>
      </trkpt>
      <trkpt lat="43.66854" lon="5.85584">
        <ele>464</ele>
        <time>2016-04-10T09:50:16.134Z</time>
      </trkpt>
      <trkpt lat="43.66862" lon="5.85584">
        <ele>466</ele>
        <time>2016-04-10T09:50:18.159Z</time>
      </trkpt>
      <trkpt lat="43.66867" lon="5.85584">
        <ele>467</ele>
        <time>2016-04-10T09:50:19.137Z</time>
      </trkpt>
      <trkpt lat="43.66872" lon="5.85584">
        <ele>465</ele>
        <time>2016-04-10T09:50:20.173Z</time>
      </trkpt>
      <trkpt lat="43.6688" lon="5.85585">
        <ele>465</ele>
        <time>2016-04-10T09:50:21.134Z</time>
      </trkpt>
      <trkpt lat="43.66887" lon="5.85582">
        <ele>464</ele>
        <time>2016-04-10T09:50:22.161Z</time>
      </trkpt>
      <trkpt lat="43.66892" lon="5.85581">
        <ele>462</ele>
        <time>2016-04-10T09:50:23.143Z</time>
      </trkpt>
      <trkpt lat="43.669" lon="5.85579">
        <ele>460</ele>
        <time>2016-04-10T09:50:24.169Z</time>
      </trkpt>
      <trkpt lat="43.66907" lon="5.85578">
        <ele>459</ele>
        <time>2016-04-10T09:50:25.134Z</time>
      </trkpt>
      <trkpt lat="43.66913" lon="5.85576">
        <ele>458</ele>
        <time>2016-04-10T09:50:26.154Z</time>
      </trkpt>
      <trkpt lat="43.66917" lon="5.85574">
        <ele>458</ele>
        <time>2016-04-10T09:50:27.129Z</time>
      </trkpt>
      <trkpt lat="43.66921" lon="5.85572">
        <ele>458</ele>
        <time>2016-04-10T09:50:28.155Z</time>
      </trkpt>
      <trkpt lat="43.66927" lon="5.85568">
        <ele>456</ele>
        <time>2016-04-10T09:50:29.133Z</time>
      </trkpt>
      <trkpt lat="43.66932" lon="5.85564">
        <ele>456</ele>
        <time>2016-04-10T09:50:30.155Z</time>
      </trkpt>
      <trkpt lat="43.66933" lon="5.85555">
        <ele>456</ele>
        <time>2016-04-10T09:50:31.134Z</time>
      </trkpt>
      <trkpt lat="43.66935" lon="5.85547">
        <ele>454</ele>
        <time>2016-04-10T09:50:32.160Z</time>
      </trkpt>
      <trkpt lat="43.66937" lon="5.85538">
        <ele>453</ele>
        <time>2016-04-10T09:50:33.144Z</time>
      </trkpt>
      <trkpt lat="43.6694" lon="5.85529">
        <ele>453</ele>
        <time>2016-04-10T09:50:34.159Z</time>
      </trkpt>
      <trkpt lat="43.66942" lon="5.8552">
        <ele>452</ele>
        <time>2016-04-10T09:50:35.142Z</time>
      </trkpt>
      <trkpt lat="43.66944" lon="5.85511">
        <ele>451</ele>
        <time>2016-04-10T09:50:36.159Z</time>
      </trkpt>
      <trkpt lat="43.66947" lon="5.85501">
        <ele>450</ele>
        <time>2016-04-10T09:50:37.149Z</time>
      </trkpt>
      <trkpt lat="43.6695" lon="5.85491">
        <ele>449</ele>
        <time>2016-04-10T09:50:38.186Z</time>
      </trkpt>
      <trkpt lat="43.66952" lon="5.85481">
        <ele>448</ele>
        <time>2016-04-10T09:50:39.128Z</time>
      </trkpt>
      <trkpt lat="43.66955" lon="5.8547">
        <ele>448</ele>
        <time>2016-04-10T09:50:40.162Z</time>
      </trkpt>
      <trkpt lat="43.66957" lon="5.8546">
        <ele>447</ele>
        <time>2016-04-10T09:50:41.133Z</time>
      </trkpt>
      <trkpt lat="43.66959" lon="5.85451">
        <ele>447</ele>
        <time>2016-04-10T09:50:42.161Z</time>
      </trkpt>
      <trkpt lat="43.6696" lon="5.85442">
        <ele>447</ele>
        <time>2016-04-10T09:50:43.132Z</time>
      </trkpt>
      <trkpt lat="43.66962" lon="5.85433">
        <ele>448</ele>
        <time>2016-04-10T09:50:44.159Z</time>
      </trkpt>
      <trkpt lat="43.66964" lon="5.85424">
        <ele>448</ele>
        <time>2016-04-10T09:50:45.132Z</time>
      </trkpt>
      <trkpt lat="43.66964" lon="5.85416">
        <ele>448</ele>
        <time>2016-04-10T09:50:46.154Z</time>
      </trkpt>
      <trkpt lat="43.66963" lon="5.85409">
        <ele>448</ele>
        <time>2016-04-10T09:50:47.132Z</time>
      </trkpt>
      <trkpt lat="43.66961" lon="5.85402">
        <ele>447</ele>
        <time>2016-04-10T09:50:48.204Z</time>
      </trkpt>
      <trkpt lat="43.6696" lon="5.85395">
        <ele>447</ele>
        <time>2016-04-10T09:50:49.133Z</time>
      </trkpt>
      <trkpt lat="43.6696" lon="5.85388">
        <ele>447</ele>
        <time>2016-04-10T09:50:50.158Z</time>
      </trkpt>
      <trkpt lat="43.66961" lon="5.85381">
        <ele>447</ele>
        <time>2016-04-10T09:50:51.132Z</time>
      </trkpt>
      <trkpt lat="43.66963" lon="5.8537">
        <ele>446</ele>
        <time>2016-04-10T09:50:53.168Z</time>
      </trkpt>
      <trkpt lat="43.66964" lon="5.85365">
        <ele>446</ele>
        <time>2016-04-10T09:50:54.134Z</time>
      </trkpt>
      <trkpt lat="43.66965" lon="5.85355">
        <ele>445</ele>
        <time>2016-04-10T09:50:57.157Z</time>
      </trkpt>
      <trkpt lat="43.66965" lon="5.85352">
        <ele>445</ele>
        <time>2016-04-10T09:50:58.138Z</time>
      </trkpt>
      <trkpt lat="43.66968" lon="5.85342">
        <ele>444</ele>
        <time>2016-04-10T09:51:09.267Z</time>
      </trkpt>
      <trkpt lat="43.66969" lon="5.8534">
        <ele>445</ele>
        <time>2016-04-10T09:51:10.128Z</time>
      </trkpt>
      <trkpt lat="43.66972" lon="5.85329">
        <ele>446</ele>
        <time>2016-04-10T09:51:16.159Z</time>
      </trkpt>
      <trkpt lat="43.66973" lon="5.85328">
        <ele>446</ele>
        <time>2016-04-10T09:51:17.133Z</time>
      </trkpt>
      <trkpt lat="43.66976" lon="5.85316">
        <ele>447</ele>
        <time>2016-04-10T09:51:24.159Z</time>
      </trkpt>
      <trkpt lat="43.66976" lon="5.85314">
        <ele>447</ele>
        <time>2016-04-10T09:51:25.129Z</time>
      </trkpt>
      <trkpt lat="43.6698" lon="5.85305">
        <ele>448</ele>
        <time>2016-04-10T09:51:30.190Z</time>
      </trkpt>
      <trkpt lat="43.66981" lon="5.85303">
        <ele>449</ele>
        <time>2016-04-10T09:51:31.132Z</time>
      </trkpt>
      <trkpt lat="43.66986" lon="5.85293">
        <ele>448</ele>
        <time>2016-04-10T09:51:36.153Z</time>
      </trkpt>
      <trkpt lat="43.66987" lon="5.85292">
        <ele>448</ele>
        <time>2016-04-10T09:51:37.134Z</time>
      </trkpt>
      <trkpt lat="43.66991" lon="5.85283">
        <ele>449</ele>
        <time>2016-04-10T09:51:42.178Z</time>
      </trkpt>
      <trkpt lat="43.66992" lon="5.85281">
        <ele>449</ele>
        <time>2016-04-10T09:51:43.133Z</time>
      </trkpt>
      <trkpt lat="43.66997" lon="5.85271">
        <ele>450</ele>
        <time>2016-04-10T09:51:48.159Z</time>
      </trkpt>
      <trkpt lat="43.66998" lon="5.85269">
        <ele>450</ele>
        <time>2016-04-10T09:51:49.132Z</time>
      </trkpt>
      <trkpt lat="43.67003" lon="5.85259">
        <ele>453</ele>
        <time>2016-04-10T09:51:54.159Z</time>
      </trkpt>
      <trkpt lat="43.67004" lon="5.85257">
        <ele>454</ele>
        <time>2016-04-10T09:51:55.136Z</time>
      </trkpt>
      <trkpt lat="43.67009" lon="5.85247">
        <ele>454</ele>
        <time>2016-04-10T09:52:00.168Z</time>
      </trkpt>
      <trkpt lat="43.6701" lon="5.85245">
        <ele>455</ele>
        <time>2016-04-10T09:52:01.127Z</time>
      </trkpt>
      <trkpt lat="43.67015" lon="5.85236">
        <ele>455</ele>
        <time>2016-04-10T09:52:06.159Z</time>
      </trkpt>
      <trkpt lat="43.67016" lon="5.85234">
        <ele>455</ele>
        <time>2016-04-10T09:52:07.133Z</time>
      </trkpt>
      <trkpt lat="43.67022" lon="5.85225">
        <ele>455</ele>
        <time>2016-04-10T09:52:12.164Z</time>
      </trkpt>
      <trkpt lat="43.67023" lon="5.85224">
        <ele>456</ele>
        <time>2016-04-10T09:52:13.155Z</time>
      </trkpt>
      <trkpt lat="43.6703" lon="5.85217">
        <ele>455</ele>
        <time>2016-04-10T09:52:19.163Z</time>
      </trkpt>
      <trkpt lat="43.67031" lon="5.85215">
        <ele>455</ele>
        <time>2016-04-10T09:52:20.129Z</time>
      </trkpt>
      <trkpt lat="43.67036" lon="5.85207">
        <ele>456</ele>
        <time>2016-04-10T09:52:25.165Z</time>
      </trkpt>
      <trkpt lat="43.67037" lon="5.85206">
        <ele>456</ele>
        <time>2016-04-10T09:52:26.128Z</time>
      </trkpt>
      <trkpt lat="43.6704" lon="5.85195">
        <ele>455</ele>
        <time>2016-04-10T09:52:31.166Z</time>
      </trkpt>
      <trkpt lat="43.6704" lon="5.85193">
        <ele>456</ele>
        <time>2016-04-10T09:52:32.133Z</time>
      </trkpt>
      <trkpt lat="43.67043" lon="5.85181">
        <ele>457</ele>
        <time>2016-04-10T09:52:37.158Z</time>
      </trkpt>
      <trkpt lat="43.67044" lon="5.85179">
        <ele>456</ele>
        <time>2016-04-10T09:52:38.134Z</time>
      </trkpt>
      <trkpt lat="43.67046" lon="5.85169">
        <ele>458</ele>
        <time>2016-04-10T09:52:42.158Z</time>
      </trkpt>
      <trkpt lat="43.67047" lon="5.85167">
        <ele>458</ele>
        <time>2016-04-10T09:52:43.133Z</time>
      </trkpt>
      <trkpt lat="43.67051" lon="5.85158">
        <ele>461</ele>
        <time>2016-04-10T09:52:47.159Z</time>
      </trkpt>
      <trkpt lat="43.67051" lon="5.85156">
        <ele>461</ele>
        <time>2016-04-10T09:52:48.135Z</time>
      </trkpt>
      <trkpt lat="43.67053" lon="5.85146">
        <ele>460</ele>
        <time>2016-04-10T09:52:52.154Z</time>
      </trkpt>
      <trkpt lat="43.67054" lon="5.85143">
        <ele>460</ele>
        <time>2016-04-10T09:52:53.134Z</time>
      </trkpt>
      <trkpt lat="43.67055" lon="5.85133">
        <ele>460</ele>
        <time>2016-04-10T09:52:57.167Z</time>
      </trkpt>
      <trkpt lat="43.67056" lon="5.85131">
        <ele>459</ele>
        <time>2016-04-10T09:52:58.133Z</time>
      </trkpt>
      <trkpt lat="43.67061" lon="5.85122">
        <ele>464</ele>
        <time>2016-04-10T09:53:03.159Z</time>
      </trkpt>
      <trkpt lat="43.67063" lon="5.85122">
        <ele>463</ele>
        <time>2016-04-10T09:53:04.133Z</time>
      </trkpt>
      <trkpt lat="43.67071" lon="5.85119">
        <ele>479</ele>
        <time>2016-04-10T09:53:09.183Z</time>
      </trkpt>
      <trkpt lat="43.67073" lon="5.85118">
        <ele>479</ele>
        <time>2016-04-10T09:53:10.129Z</time>
      </trkpt>
      <trkpt lat="43.6708" lon="5.85114">
        <ele>482</ele>
        <time>2016-04-10T09:53:14.185Z</time>
      </trkpt>
      <trkpt lat="43.67081" lon="5.85112">
        <ele>481</ele>
        <time>2016-04-10T09:53:15.129Z</time>
      </trkpt>
      <trkpt lat="43.67089" lon="5.85107">
        <ele>481</ele>
        <time>2016-04-10T09:53:20.159Z</time>
      </trkpt>
      <trkpt lat="43.6709" lon="5.85106">
        <ele>481</ele>
        <time>2016-04-10T09:53:21.133Z</time>
      </trkpt>
      <trkpt lat="43.67096" lon="5.85099">
        <ele>481</ele>
        <time>2016-04-10T09:53:25.160Z</time>
      </trkpt>
      <trkpt lat="43.67097" lon="5.85098">
        <ele>481</ele>
        <time>2016-04-10T09:53:26.134Z</time>
      </trkpt>
      <trkpt lat="43.67103" lon="5.85091">
        <ele>480</ele>
        <time>2016-04-10T09:53:30.147Z</time>
      </trkpt>
      <trkpt lat="43.67105" lon="5.8509">
        <ele>480</ele>
        <time>2016-04-10T09:53:31.133Z</time>
      </trkpt>
      <trkpt lat="43.67111" lon="5.85082">
        <ele>478</ele>
        <time>2016-04-10T09:53:55.189Z</time>
      </trkpt>
      <trkpt lat="43.67111" lon="5.85081">
        <ele>478</ele>
        <time>2016-04-10T09:53:56.133Z</time>
      </trkpt>
      <trkpt lat="43.6712" lon="5.85082">
        <ele>479</ele>
        <time>2016-04-10T09:54:28.165Z</time>
      </trkpt>
      <trkpt lat="43.67122" lon="5.85083">
        <ele>477</ele>
        <time>2016-04-10T09:54:29.133Z</time>
      </trkpt>
      <trkpt lat="43.67129" lon="5.85087">
        <ele>479</ele>
        <time>2016-04-10T09:54:32.160Z</time>
      </trkpt>
      <trkpt lat="43.67131" lon="5.85088">
        <ele>479</ele>
        <time>2016-04-10T09:54:33.129Z</time>
      </trkpt>
      <trkpt lat="43.67137" lon="5.85096">
        <ele>478</ele>
        <time>2016-04-10T09:54:39.154Z</time>
      </trkpt>
      <trkpt lat="43.67138" lon="5.85097">
        <ele>477</ele>
        <time>2016-04-10T09:54:40.134Z</time>
      </trkpt>
      <trkpt lat="43.67145" lon="5.85104">
        <ele>473</ele>
        <time>2016-04-10T09:54:51.162Z</time>
      </trkpt>
      <trkpt lat="43.67148" lon="5.85106">
        <ele>472</ele>
        <time>2016-04-10T09:54:52.365Z</time>
      </trkpt>
      <trkpt lat="43.67153" lon="5.85111">
        <ele>472</ele>
        <time>2016-04-10T09:54:54.189Z</time>
      </trkpt>
      <trkpt lat="43.67156" lon="5.85113">
        <ele>472</ele>
        <time>2016-04-10T09:54:55.134Z</time>
      </trkpt>
      <trkpt lat="43.67162" lon="5.85117">
        <ele>471</ele>
        <time>2016-04-10T09:54:57.159Z</time>
      </trkpt>
      <trkpt lat="43.67165" lon="5.8512">
        <ele>471</ele>
        <time>2016-04-10T09:54:58.128Z</time>
      </trkpt>
      <trkpt lat="43.67172" lon="5.85128">
        <ele>469</ele>
        <time>2016-04-10T09:55:08.165Z</time>
      </trkpt>
      <trkpt lat="43.67172" lon="5.85129">
        <ele>469</ele>
        <time>2016-04-10T09:55:09.130Z</time>
      </trkpt>
      <trkpt lat="43.67178" lon="5.85137">
        <ele>468</ele>
        <time>2016-04-10T09:55:13.154Z</time>
      </trkpt>
      <trkpt lat="43.6718" lon="5.85139">
        <ele>467</ele>
        <time>2016-04-10T09:55:14.132Z</time>
      </trkpt>
      <trkpt lat="43.67185" lon="5.85144">
        <ele>467</ele>
        <time>2016-04-10T09:55:17.159Z</time>
      </trkpt>
      <trkpt lat="43.67187" lon="5.85146">
        <ele>467</ele>
        <time>2016-04-10T09:55:18.130Z</time>
      </trkpt>
      <trkpt lat="43.67194" lon="5.85151">
        <ele>466</ele>
        <time>2016-04-10T09:55:22.164Z</time>
      </trkpt>
      <trkpt lat="43.67196" lon="5.85152">
        <ele>466</ele>
        <time>2016-04-10T09:55:23.133Z</time>
      </trkpt>
      <trkpt lat="43.67201" lon="5.85157">
        <ele>467</ele>
        <time>2016-04-10T09:55:26.165Z</time>
      </trkpt>
      <trkpt lat="43.67203" lon="5.8516">
        <ele>467</ele>
        <time>2016-04-10T09:55:27.134Z</time>
      </trkpt>
      <trkpt lat="43.67209" lon="5.85165">
        <ele>467</ele>
        <time>2016-04-10T09:55:29.155Z</time>
      </trkpt>
      <trkpt lat="43.67211" lon="5.85168">
        <ele>466</ele>
        <time>2016-04-10T09:55:30.168Z</time>
      </trkpt>
      <trkpt lat="43.67216" lon="5.85173">
        <ele>466</ele>
        <time>2016-04-10T09:55:32.159Z</time>
      </trkpt>
      <trkpt lat="43.67219" lon="5.85176">
        <ele>466</ele>
        <time>2016-04-10T09:55:33.132Z</time>
      </trkpt>
      <trkpt lat="43.67224" lon="5.85182">
        <ele>466</ele>
        <time>2016-04-10T09:55:35.154Z</time>
      </trkpt>
      <trkpt lat="43.67226" lon="5.85184">
        <ele>466</ele>
        <time>2016-04-10T09:55:36.134Z</time>
      </trkpt>
      <trkpt lat="43.67234" lon="5.85191">
        <ele>466</ele>
        <time>2016-04-10T09:55:39.159Z</time>
      </trkpt>
      <trkpt lat="43.67236" lon="5.85194">
        <ele>465</ele>
        <time>2016-04-10T09:55:40.130Z</time>
      </trkpt>
      <trkpt lat="43.67242" lon="5.85201">
        <ele>465</ele>
        <time>2016-04-10T09:55:44.159Z</time>
      </trkpt>
      <trkpt lat="43.67243" lon="5.85202">
        <ele>465</ele>
        <time>2016-04-10T09:55:45.133Z</time>
      </trkpt>
      <trkpt lat="43.67244" lon="5.85213">
        <ele>466</ele>
        <time>2016-04-10T09:56:04.159Z</time>
      </trkpt>
      <trkpt lat="43.67244" lon="5.85217">
        <ele>467</ele>
        <time>2016-04-10T09:56:05.134Z</time>
      </trkpt>
      <trkpt lat="43.67243" lon="5.85228">
        <ele>468</ele>
        <time>2016-04-10T09:56:08.422Z</time>
      </trkpt>
      <trkpt lat="43.67242" lon="5.85233">
        <ele>468</ele>
        <time>2016-04-10T09:56:09.129Z</time>
      </trkpt>
      <trkpt lat="43.67243" lon="5.85241">
        <ele>468</ele>
        <time>2016-04-10T09:56:11.165Z</time>
      </trkpt>
      <trkpt lat="43.67243" lon="5.85245">
        <ele>468</ele>
        <time>2016-04-10T09:56:12.133Z</time>
      </trkpt>
      <trkpt lat="43.67244" lon="5.85254">
        <ele>469</ele>
        <time>2016-04-10T09:56:14.159Z</time>
      </trkpt>
      <trkpt lat="43.67244" lon="5.85258">
        <ele>470</ele>
        <time>2016-04-10T09:56:15.126Z</time>
      </trkpt>
      <trkpt lat="43.67244" lon="5.85267">
        <ele>471</ele>
        <time>2016-04-10T09:56:17.192Z</time>
      </trkpt>
      <trkpt lat="43.67244" lon="5.85271">
        <ele>472</ele>
        <time>2016-04-10T09:56:18.134Z</time>
      </trkpt>
      <trkpt lat="43.67244" lon="5.85279">
        <ele>471</ele>
        <time>2016-04-10T09:56:20.170Z</time>
      </trkpt>
      <trkpt lat="43.67244" lon="5.85284">
        <ele>470</ele>
        <time>2016-04-10T09:56:21.133Z</time>
      </trkpt>
      <trkpt lat="43.67243" lon="5.85293">
        <ele>471</ele>
        <time>2016-04-10T09:56:23.173Z</time>
      </trkpt>
      <trkpt lat="43.67243" lon="5.85298">
        <ele>472</ele>
        <time>2016-04-10T09:56:24.136Z</time>
      </trkpt>
      <trkpt lat="43.67242" lon="5.85307">
        <ele>472</ele>
        <time>2016-04-10T09:56:26.211Z</time>
      </trkpt>
      <trkpt lat="43.67242" lon="5.85312">
        <ele>471</ele>
        <time>2016-04-10T09:56:27.128Z</time>
      </trkpt>
      <trkpt lat="43.67241" lon="5.85321">
        <ele>471</ele>
        <time>2016-04-10T09:56:29.170Z</time>
      </trkpt>
      <trkpt lat="43.6724" lon="5.85326">
        <ele>472</ele>
        <time>2016-04-10T09:56:30.134Z</time>
      </trkpt>
      <trkpt lat="43.67239" lon="5.85335">
        <ele>472</ele>
        <time>2016-04-10T09:56:32.162Z</time>
      </trkpt>
      <trkpt lat="43.67238" lon="5.8534">
        <ele>473</ele>
        <time>2016-04-10T09:56:33.134Z</time>
      </trkpt>
      <trkpt lat="43.67237" lon="5.85349">
        <ele>473</ele>
        <time>2016-04-10T09:56:35.163Z</time>
      </trkpt>
      <trkpt lat="43.67236" lon="5.85354">
        <ele>473</ele>
        <time>2016-04-10T09:56:36.135Z</time>
      </trkpt>
      <trkpt lat="43.67235" lon="5.85363">
        <ele>475</ele>
        <time>2016-04-10T09:56:38.171Z</time>
      </trkpt>
      <trkpt lat="43.67235" lon="5.85368">
        <ele>474</ele>
        <time>2016-04-10T09:56:39.134Z</time>
      </trkpt>
      <trkpt lat="43.67234" lon="5.85377">
        <ele>475</ele>
        <time>2016-04-10T09:56:41.158Z</time>
      </trkpt>
      <trkpt lat="43.67233" lon="5.85381">
        <ele>474</ele>
        <time>2016-04-10T09:56:42.134Z</time>
      </trkpt>
      <trkpt lat="43.67231" lon="5.8539">
        <ele>475</ele>
        <time>2016-04-10T09:56:44.156Z</time>
      </trkpt>
      <trkpt lat="43.67231" lon="5.85395">
        <ele>475</ele>
        <time>2016-04-10T09:56:45.134Z</time>
      </trkpt>
      <trkpt lat="43.6723" lon="5.85403">
        <ele>475</ele>
        <time>2016-04-10T09:56:47.168Z</time>
      </trkpt>
      <trkpt lat="43.67229" lon="5.85408">
        <ele>475</ele>
        <time>2016-04-10T09:56:48.134Z</time>
      </trkpt>
      <trkpt lat="43.67228" lon="5.85416">
        <ele>476</ele>
        <time>2016-04-10T09:56:50.160Z</time>
      </trkpt>
      <trkpt lat="43.67228" lon="5.85421">
        <ele>476</ele>
        <time>2016-04-10T09:56:51.133Z</time>
      </trkpt>
      <trkpt lat="43.67227" lon="5.8543">
        <ele>476</ele>
        <time>2016-04-10T09:56:53.167Z</time>
      </trkpt>
      <trkpt lat="43.67227" lon="5.85434">
        <ele>476</ele>
        <time>2016-04-10T09:56:54.134Z</time>
      </trkpt>
      <trkpt lat="43.67227" lon="5.85443">
        <ele>476</ele>
        <time>2016-04-10T09:56:56.188Z</time>
      </trkpt>
      <trkpt lat="43.67226" lon="5.85448">
        <ele>476</ele>
        <time>2016-04-10T09:56:57.134Z</time>
      </trkpt>
      <trkpt lat="43.67226" lon="5.85457">
        <ele>476</ele>
        <time>2016-04-10T09:56:59.167Z</time>
      </trkpt>
      <trkpt lat="43.67226" lon="5.85461">
        <ele>477</ele>
        <time>2016-04-10T09:57:00.134Z</time>
      </trkpt>
      <trkpt lat="43.67226" lon="5.8547">
        <ele>477</ele>
        <time>2016-04-10T09:57:02.168Z</time>
      </trkpt>
      <trkpt lat="43.67226" lon="5.85475">
        <ele>477</ele>
        <time>2016-04-10T09:57:03.133Z</time>
      </trkpt>
      <trkpt lat="43.67225" lon="5.85484">
        <ele>476</ele>
        <time>2016-04-10T09:57:05.166Z</time>
      </trkpt>
      <trkpt lat="43.67225" lon="5.85488">
        <ele>476</ele>
        <time>2016-04-10T09:57:06.133Z</time>
      </trkpt>
      <trkpt lat="43.67224" lon="5.85497">
        <ele>477</ele>
        <time>2016-04-10T09:57:08.167Z</time>
      </trkpt>
      <trkpt lat="43.67224" lon="5.85502">
        <ele>477</ele>
        <time>2016-04-10T09:57:09.134Z</time>
      </trkpt>
      <trkpt lat="43.67223" lon="5.85511">
        <ele>477</ele>
        <time>2016-04-10T09:57:11.160Z</time>
      </trkpt>
      <trkpt lat="43.67223" lon="5.85515">
        <ele>477</ele>
        <time>2016-04-10T09:57:12.133Z</time>
      </trkpt>
      <trkpt lat="43.67223" lon="5.85524">
        <ele>478</ele>
        <time>2016-04-10T09:57:14.183Z</time>
      </trkpt>
      <trkpt lat="43.67223" lon="5.85529">
        <ele>478</ele>
        <time>2016-04-10T09:57:15.129Z</time>
      </trkpt>
      <trkpt lat="43.67223" lon="5.85538">
        <ele>479</ele>
        <time>2016-04-10T09:57:17.169Z</time>
      </trkpt>
      <trkpt lat="43.67223" lon="5.85542">
        <ele>479</ele>
        <time>2016-04-10T09:57:18.128Z</time>
      </trkpt>
      <trkpt lat="43.67223" lon="5.8555">
        <ele>479</ele>
        <time>2016-04-10T09:57:20.164Z</time>
      </trkpt>
      <trkpt lat="43.67223" lon="5.85555">
        <ele>479</ele>
        <time>2016-04-10T09:57:21.132Z</time>
      </trkpt>
      <trkpt lat="43.67223" lon="5.85563">
        <ele>479</ele>
        <time>2016-04-10T09:57:23.154Z</time>
      </trkpt>
      <trkpt lat="43.67223" lon="5.85568">
        <ele>479</ele>
        <time>2016-04-10T09:57:24.133Z</time>
      </trkpt>
      <trkpt lat="43.67224" lon="5.85577">
        <ele>479</ele>
        <time>2016-04-10T09:57:26.161Z</time>
      </trkpt>
      <trkpt lat="43.67225" lon="5.85581">
        <ele>479</ele>
        <time>2016-04-10T09:57:27.120Z</time>
      </trkpt>
      <trkpt lat="43.67226" lon="5.8559">
        <ele>478</ele>
        <time>2016-04-10T09:57:29.162Z</time>
      </trkpt>
      <trkpt lat="43.67227" lon="5.85594">
        <ele>478</ele>
        <time>2016-04-10T09:57:30.123Z</time>
      </trkpt>
      <trkpt lat="43.6723" lon="5.85603">
        <ele>479</ele>
        <time>2016-04-10T09:57:32.159Z</time>
      </trkpt>
      <trkpt lat="43.67231" lon="5.85608">
        <ele>479</ele>
        <time>2016-04-10T09:57:33.134Z</time>
      </trkpt>
      <trkpt lat="43.67233" lon="5.85617">
        <ele>478</ele>
        <time>2016-04-10T09:57:35.161Z</time>
      </trkpt>
      <trkpt lat="43.67234" lon="5.85621">
        <ele>477</ele>
        <time>2016-04-10T09:57:36.134Z</time>
      </trkpt>
      <trkpt lat="43.67237" lon="5.8563">
        <ele>477</ele>
        <time>2016-04-10T09:57:38.142Z</time>
      </trkpt>
      <trkpt lat="43.67238" lon="5.85635">
        <ele>476</ele>
        <time>2016-04-10T09:57:39.130Z</time>
      </trkpt>
      <trkpt lat="43.6724" lon="5.85644">
        <ele>476</ele>
        <time>2016-04-10T09:57:41.155Z</time>
      </trkpt>
      <trkpt lat="43.67241" lon="5.85648">
        <ele>476</ele>
        <time>2016-04-10T09:57:42.128Z</time>
      </trkpt>
      <trkpt lat="43.67243" lon="5.85659">
        <ele>476</ele>
        <time>2016-04-10T09:57:44.200Z</time>
      </trkpt>
      <trkpt lat="43.67245" lon="5.85664">
        <ele>476</ele>
        <time>2016-04-10T09:57:45.136Z</time>
      </trkpt>
      <trkpt lat="43.67248" lon="5.85676">
        <ele>475</ele>
        <time>2016-04-10T09:57:47.167Z</time>
      </trkpt>
      <trkpt lat="43.67249" lon="5.85682">
        <ele>475</ele>
        <time>2016-04-10T09:57:48.135Z</time>
      </trkpt>
      <trkpt lat="43.67251" lon="5.8569">
        <ele>475</ele>
        <time>2016-04-10T09:57:49.173Z</time>
      </trkpt>
      <trkpt lat="43.67253" lon="5.85696">
        <ele>475</ele>
        <time>2016-04-10T09:57:50.134Z</time>
      </trkpt>
      <trkpt lat="43.67255" lon="5.85703">
        <ele>475</ele>
        <time>2016-04-10T09:57:51.160Z</time>
      </trkpt>
      <trkpt lat="43.67257" lon="5.85709">
        <ele>475</ele>
        <time>2016-04-10T09:57:52.145Z</time>
      </trkpt>
      <trkpt lat="43.6726" lon="5.85716">
        <ele>475</ele>
        <time>2016-04-10T09:57:53.160Z</time>
      </trkpt>
      <trkpt lat="43.67262" lon="5.85723">
        <ele>475</ele>
        <time>2016-04-10T09:57:54.132Z</time>
      </trkpt>
      <trkpt lat="43.67264" lon="5.8573">
        <ele>474</ele>
        <time>2016-04-10T09:57:55.188Z</time>
      </trkpt>
      <trkpt lat="43.67267" lon="5.85737">
        <ele>475</ele>
        <time>2016-04-10T09:57:56.135Z</time>
      </trkpt>
      <trkpt lat="43.6727" lon="5.85744">
        <ele>475</ele>
        <time>2016-04-10T09:57:57.161Z</time>
      </trkpt>
      <trkpt lat="43.67273" lon="5.85751">
        <ele>474</ele>
        <time>2016-04-10T09:57:58.135Z</time>
      </trkpt>
      <trkpt lat="43.67276" lon="5.85758">
        <ele>474</ele>
        <time>2016-04-10T09:57:59.164Z</time>
      </trkpt>
      <trkpt lat="43.67278" lon="5.85765">
        <ele>473</ele>
        <time>2016-04-10T09:58:00.127Z</time>
      </trkpt>
      <trkpt lat="43.67282" lon="5.85772">
        <ele>473</ele>
        <time>2016-04-10T09:58:01.155Z</time>
      </trkpt>
      <trkpt lat="43.67286" lon="5.8578">
        <ele>473</ele>
        <time>2016-04-10T09:58:02.134Z</time>
      </trkpt>
      <trkpt lat="43.67288" lon="5.85787">
        <ele>472</ele>
        <time>2016-04-10T09:58:03.161Z</time>
      </trkpt>
      <trkpt lat="43.67292" lon="5.85795">
        <ele>472</ele>
        <time>2016-04-10T09:58:04.134Z</time>
      </trkpt>
      <trkpt lat="43.67294" lon="5.85804">
        <ele>472</ele>
        <time>2016-04-10T09:58:05.162Z</time>
      </trkpt>
      <trkpt lat="43.67296" lon="5.85812">
        <ele>472</ele>
        <time>2016-04-10T09:58:06.163Z</time>
      </trkpt>
      <trkpt lat="43.67295" lon="5.85819">
        <ele>473</ele>
        <time>2016-04-10T09:58:07.156Z</time>
      </trkpt>
      <trkpt lat="43.67294" lon="5.85825">
        <ele>474</ele>
        <time>2016-04-10T09:58:08.133Z</time>
      </trkpt>
      <trkpt lat="43.67293" lon="5.85835">
        <ele>475</ele>
        <time>2016-04-10T09:58:10.159Z</time>
      </trkpt>
      <trkpt lat="43.67294" lon="5.85839">
        <ele>475</ele>
        <time>2016-04-10T09:58:11.133Z</time>
      </trkpt>
      <trkpt lat="43.67296" lon="5.85848">
        <ele>477</ele>
        <time>2016-04-10T09:58:13.166Z</time>
      </trkpt>
      <trkpt lat="43.67297" lon="5.85854">
        <ele>477</ele>
        <time>2016-04-10T09:58:14.141Z</time>
      </trkpt>
      <trkpt lat="43.67297" lon="5.85865">
        <ele>476</ele>
        <time>2016-04-10T09:58:16.160Z</time>
      </trkpt>
      <trkpt lat="43.67298" lon="5.85871">
        <ele>476</ele>
        <time>2016-04-10T09:58:17.130Z</time>
      </trkpt>
      <trkpt lat="43.673" lon="5.85883">
        <ele>476</ele>
        <time>2016-04-10T09:58:19.168Z</time>
      </trkpt>
      <trkpt lat="43.67302" lon="5.85889">
        <ele>476</ele>
        <time>2016-04-10T09:58:20.136Z</time>
      </trkpt>
      <trkpt lat="43.67303" lon="5.85896">
        <ele>476</ele>
        <time>2016-04-10T09:58:21.160Z</time>
      </trkpt>
      <trkpt lat="43.67304" lon="5.85902">
        <ele>475</ele>
        <time>2016-04-10T09:58:22.160Z</time>
      </trkpt>
      <trkpt lat="43.67304" lon="5.85907">
        <ele>476</ele>
        <time>2016-04-10T09:58:23.160Z</time>
      </trkpt>
      <trkpt lat="43.67305" lon="5.85914">
        <ele>475</ele>
        <time>2016-04-10T09:58:24.135Z</time>
      </trkpt>
      <trkpt lat="43.67306" lon="5.8592">
        <ele>475</ele>
        <time>2016-04-10T09:58:25.161Z</time>
      </trkpt>
      <trkpt lat="43.67306" lon="5.85926">
        <ele>474</ele>
        <time>2016-04-10T09:58:26.137Z</time>
      </trkpt>
      <trkpt lat="43.67307" lon="5.85933">
        <ele>474</ele>
        <time>2016-04-10T09:58:27.174Z</time>
      </trkpt>
      <trkpt lat="43.67307" lon="5.85939">
        <ele>473</ele>
        <time>2016-04-10T09:58:28.135Z</time>
      </trkpt>
      <trkpt lat="43.67307" lon="5.85946">
        <ele>473</ele>
        <time>2016-04-10T09:58:29.156Z</time>
      </trkpt>
      <trkpt lat="43.67307" lon="5.85952">
        <ele>472</ele>
        <time>2016-04-10T09:58:30.133Z</time>
      </trkpt>
      <trkpt lat="43.67307" lon="5.85964">
        <ele>472</ele>
        <time>2016-04-10T09:58:32.165Z</time>
      </trkpt>
      <trkpt lat="43.67307" lon="5.85969">
        <ele>472</ele>
        <time>2016-04-10T09:58:33.133Z</time>
      </trkpt>
      <trkpt lat="43.67307" lon="5.8598">
        <ele>472</ele>
        <time>2016-04-10T09:58:35.157Z</time>
      </trkpt>
      <trkpt lat="43.67307" lon="5.85985">
        <ele>472</ele>
        <time>2016-04-10T09:58:36.134Z</time>
      </trkpt>
      <trkpt lat="43.67307" lon="5.85996">
        <ele>470</ele>
        <time>2016-04-10T09:58:38.228Z</time>
      </trkpt>
      <trkpt lat="43.67306" lon="5.86001">
        <ele>469</ele>
        <time>2016-04-10T09:58:39.129Z</time>
      </trkpt>
      <trkpt lat="43.67305" lon="5.86012">
        <ele>469</ele>
        <time>2016-04-10T09:58:41.165Z</time>
      </trkpt>
      <trkpt lat="43.67304" lon="5.86017">
        <ele>469</ele>
        <time>2016-04-10T09:58:42.135Z</time>
      </trkpt>
      <trkpt lat="43.67302" lon="5.86029">
        <ele>468</ele>
        <time>2016-04-10T09:58:44.156Z</time>
      </trkpt>
      <trkpt lat="43.67301" lon="5.86034">
        <ele>469</ele>
        <time>2016-04-10T09:58:45.134Z</time>
      </trkpt>
      <trkpt lat="43.673" lon="5.8604">
        <ele>468</ele>
        <time>2016-04-10T09:58:46.160Z</time>
      </trkpt>
      <trkpt lat="43.67298" lon="5.86047">
        <ele>468</ele>
        <time>2016-04-10T09:58:47.133Z</time>
      </trkpt>
      <trkpt lat="43.67296" lon="5.86053">
        <ele>467</ele>
        <time>2016-04-10T09:58:48.172Z</time>
      </trkpt>
      <trkpt lat="43.67294" lon="5.86059">
        <ele>467</ele>
        <time>2016-04-10T09:58:49.134Z</time>
      </trkpt>
      <trkpt lat="43.67291" lon="5.8607">
        <ele>466</ele>
        <time>2016-04-10T09:58:51.160Z</time>
      </trkpt>
      <trkpt lat="43.67289" lon="5.86075">
        <ele>466</ele>
        <time>2016-04-10T09:58:52.145Z</time>
      </trkpt>
      <trkpt lat="43.67286" lon="5.86086">
        <ele>465</ele>
        <time>2016-04-10T09:58:54.195Z</time>
      </trkpt>
      <trkpt lat="43.67284" lon="5.8609">
        <ele>464</ele>
        <time>2016-04-10T09:58:55.133Z</time>
      </trkpt>
      <trkpt lat="43.67278" lon="5.861">
        <ele>464</ele>
        <time>2016-04-10T09:58:58.165Z</time>
      </trkpt>
      <trkpt lat="43.67276" lon="5.86101">
        <ele>464</ele>
        <time>2016-04-10T09:58:59.135Z</time>
      </trkpt>
      <trkpt lat="43.67268" lon="5.86102">
        <ele>466</ele>
        <time>2016-04-10T09:59:03.212Z</time>
      </trkpt>
      <trkpt lat="43.67267" lon="5.86102">
        <ele>467</ele>
        <time>2016-04-10T09:59:04.137Z</time>
      </trkpt>
      <trkpt lat="43.67258" lon="5.86101">
        <ele>466</ele>
        <time>2016-04-10T09:59:09.165Z</time>
      </trkpt>
      <trkpt lat="43.67256" lon="5.86102">
        <ele>467</ele>
        <time>2016-04-10T09:59:10.162Z</time>
      </trkpt>
      <trkpt lat="43.67248" lon="5.86105">
        <ele>468</ele>
        <time>2016-04-10T09:59:15.156Z</time>
      </trkpt>
      <trkpt lat="43.67247" lon="5.86105">
        <ele>468</ele>
        <time>2016-04-10T09:59:16.127Z</time>
      </trkpt>
      <trkpt lat="43.67242" lon="5.86113">
        <ele>470</ele>
        <time>2016-04-10T09:59:32.395Z</time>
      </trkpt>
      <trkpt lat="43.6724" lon="5.86114">
        <ele>470</ele>
        <time>2016-04-10T09:59:33.130Z</time>
      </trkpt>
      <trkpt lat="43.67232" lon="5.86115">
        <ele>469</ele>
        <time>2016-04-10T09:59:37.186Z</time>
      </trkpt>
      <trkpt lat="43.67231" lon="5.86116">
        <ele>470</ele>
        <time>2016-04-10T09:59:38.134Z</time>
      </trkpt>
      <trkpt lat="43.67223" lon="5.86117">
        <ele>471</ele>
        <time>2016-04-10T09:59:43.222Z</time>
      </trkpt>
      <trkpt lat="43.67222" lon="5.86117">
        <ele>472</ele>
        <time>2016-04-10T09:59:44.135Z</time>
      </trkpt>
      <trkpt lat="43.67213" lon="5.86122">
        <ele>473</ele>
        <time>2016-04-10T09:59:49.166Z</time>
      </trkpt>
      <trkpt lat="43.67211" lon="5.86123">
        <ele>473</ele>
        <time>2016-04-10T09:59:50.135Z</time>
      </trkpt>
      <trkpt lat="43.67203" lon="5.86122">
        <ele>474</ele>
        <time>2016-04-10T09:59:55.238Z</time>
      </trkpt>
      <trkpt lat="43.67202" lon="5.86121">
        <ele>474</ele>
        <time>2016-04-10T09:59:56.135Z</time>
      </trkpt>
      <trkpt lat="43.67194" lon="5.86127">
        <ele>473</ele>
        <time>2016-04-10T10:00:56.157Z</time>
      </trkpt>
      <trkpt lat="43.67194" lon="5.86127">
        <ele>473</ele>
        <time>2016-04-10T10:00:57.129Z</time>
      </trkpt>
      <trkpt lat="43.67185" lon="5.86123">
        <ele>475</ele>
        <time>2016-04-10T10:03:13.159Z</time>
      </trkpt>
      <trkpt lat="43.67185" lon="5.86123">
        <ele>475</ele>
        <time>2016-04-10T10:03:14.134Z</time>
      </trkpt>
      <trkpt lat="43.67178" lon="5.86117">
        <ele>473</ele>
        <time>2016-04-10T10:07:24.088Z</time>
      </trkpt>
    </trkseg>
  </trk>
</gpx>